<?xml version="1.0" encoding="UTF-8" standalone="no" ?>
<gpx xmlns="http://www.topografix.com/GPX/1/1" xmlns:xsi="http://www.w3.org/2001/XMLSchema-instance" xsi:schemaLocation="http://www.topografix.com/GPX/1/1 http://www.topografix.com/GPX/1/1/gpx.xsd" version="1.1" creator="VisuGPX - https://www.visugpx.com">
  <metadata>
    <name>Course à pied le midi</name>
  </metadata>
  <trk>
    <name><![CDATA[Course à pied le midi_1]]></name>
    <trkseg>
      <trkpt lat="43.64743" lon="1.37649">
        <ele>145</ele>
        <time>2023-07-05T10:02:43Z</time>
      </trkpt>
      <trkpt lat="43.64745" lon="1.37647">
        <ele>145</ele>
        <time>2023-07-05T10:02:44Z</time>
      </trkpt>
      <trkpt lat="43.64745" lon="1.37647">
        <ele>145</ele>
        <time>2023-07-05T10:02:45Z</time>
      </trkpt>
      <trkpt lat="43.64749" lon="1.37642">
        <ele>145</ele>
        <time>2023-07-05T10:02:46Z</time>
      </trkpt>
      <trkpt lat="43.64752" lon="1.3764">
        <ele>145</ele>
        <time>2023-07-05T10:02:47Z</time>
      </trkpt>
      <trkpt lat="43.64754" lon="1.37639">
        <ele>145</ele>
        <time>2023-07-05T10:02:48Z</time>
      </trkpt>
      <trkpt lat="43.64756" lon="1.37637">
        <ele>145</ele>
        <time>2023-07-05T10:02:49Z</time>
      </trkpt>
      <trkpt lat="43.64758" lon="1.37635">
        <ele>145</ele>
        <time>2023-07-05T10:02:50Z</time>
      </trkpt>
      <trkpt lat="43.6476" lon="1.37633">
        <ele>146</ele>
        <time>2023-07-05T10:02:51Z</time>
      </trkpt>
      <trkpt lat="43.64761" lon="1.3763">
        <ele>146</ele>
        <time>2023-07-05T10:02:52Z</time>
      </trkpt>
      <trkpt lat="43.64763" lon="1.37628">
        <ele>146</ele>
        <time>2023-07-05T10:02:53Z</time>
      </trkpt>
      <trkpt lat="43.64765" lon="1.37625">
        <ele>145</ele>
        <time>2023-07-05T10:02:54Z</time>
      </trkpt>
      <trkpt lat="43.64767" lon="1.37624">
        <ele>145</ele>
        <time>2023-07-05T10:02:55Z</time>
      </trkpt>
      <trkpt lat="43.64769" lon="1.37622">
        <ele>145</ele>
        <time>2023-07-05T10:02:56Z</time>
      </trkpt>
      <trkpt lat="43.64771" lon="1.3762">
        <ele>145</ele>
        <time>2023-07-05T10:02:57Z</time>
      </trkpt>
      <trkpt lat="43.64773" lon="1.37619">
        <ele>145</ele>
        <time>2023-07-05T10:02:58Z</time>
      </trkpt>
      <trkpt lat="43.64775" lon="1.37617">
        <ele>146</ele>
        <time>2023-07-05T10:02:59Z</time>
      </trkpt>
      <trkpt lat="43.64777" lon="1.37615">
        <ele>146</ele>
        <time>2023-07-05T10:03:00Z</time>
      </trkpt>
      <trkpt lat="43.64779" lon="1.37614">
        <ele>146</ele>
        <time>2023-07-05T10:03:01Z</time>
      </trkpt>
      <trkpt lat="43.64781" lon="1.37613">
        <ele>146</ele>
        <time>2023-07-05T10:03:02Z</time>
      </trkpt>
      <trkpt lat="43.64784" lon="1.37612">
        <ele>146</ele>
        <time>2023-07-05T10:03:03Z</time>
      </trkpt>
      <trkpt lat="43.64786" lon="1.37612">
        <ele>145</ele>
        <time>2023-07-05T10:03:04Z</time>
      </trkpt>
      <trkpt lat="43.64788" lon="1.37611">
        <ele>145</ele>
        <time>2023-07-05T10:03:05Z</time>
      </trkpt>
      <trkpt lat="43.6479" lon="1.3761">
        <ele>145</ele>
        <time>2023-07-05T10:03:06Z</time>
      </trkpt>
      <trkpt lat="43.64792" lon="1.37609">
        <ele>145</ele>
        <time>2023-07-05T10:03:07Z</time>
      </trkpt>
      <trkpt lat="43.64794" lon="1.37607">
        <ele>145</ele>
        <time>2023-07-05T10:03:08Z</time>
      </trkpt>
      <trkpt lat="43.64796" lon="1.37606">
        <ele>146</ele>
        <time>2023-07-05T10:03:09Z</time>
      </trkpt>
      <trkpt lat="43.64798" lon="1.37605">
        <ele>146</ele>
        <time>2023-07-05T10:03:10Z</time>
      </trkpt>
      <trkpt lat="43.648" lon="1.37604">
        <ele>146</ele>
        <time>2023-07-05T10:03:11Z</time>
      </trkpt>
      <trkpt lat="43.64803" lon="1.37603">
        <ele>146</ele>
        <time>2023-07-05T10:03:12Z</time>
      </trkpt>
      <trkpt lat="43.64806" lon="1.37604">
        <ele>146</ele>
        <time>2023-07-05T10:03:13Z</time>
      </trkpt>
      <trkpt lat="43.64808" lon="1.37604">
        <ele>146</ele>
        <time>2023-07-05T10:03:14Z</time>
      </trkpt>
      <trkpt lat="43.6481" lon="1.37605">
        <ele>146</ele>
        <time>2023-07-05T10:03:15Z</time>
      </trkpt>
      <trkpt lat="43.64812" lon="1.37607">
        <ele>146</ele>
        <time>2023-07-05T10:03:16Z</time>
      </trkpt>
      <trkpt lat="43.64814" lon="1.37608">
        <ele>146</ele>
        <time>2023-07-05T10:03:17Z</time>
      </trkpt>
      <trkpt lat="43.64816" lon="1.37609">
        <ele>146</ele>
        <time>2023-07-05T10:03:18Z</time>
      </trkpt>
      <trkpt lat="43.64818" lon="1.3761">
        <ele>146</ele>
        <time>2023-07-05T10:03:19Z</time>
      </trkpt>
      <trkpt lat="43.64821" lon="1.37612">
        <ele>146</ele>
        <time>2023-07-05T10:03:20Z</time>
      </trkpt>
      <trkpt lat="43.64822" lon="1.37613">
        <ele>146</ele>
        <time>2023-07-05T10:03:21Z</time>
      </trkpt>
      <trkpt lat="43.64825" lon="1.37615">
        <ele>146</ele>
        <time>2023-07-05T10:03:22Z</time>
      </trkpt>
      <trkpt lat="43.64826" lon="1.37616">
        <ele>146</ele>
        <time>2023-07-05T10:03:23Z</time>
      </trkpt>
      <trkpt lat="43.64828" lon="1.37617">
        <ele>146</ele>
        <time>2023-07-05T10:03:24Z</time>
      </trkpt>
      <trkpt lat="43.6483" lon="1.37618">
        <ele>146</ele>
        <time>2023-07-05T10:03:25Z</time>
      </trkpt>
      <trkpt lat="43.64832" lon="1.3762">
        <ele>146</ele>
        <time>2023-07-05T10:03:26Z</time>
      </trkpt>
      <trkpt lat="43.64834" lon="1.37621">
        <ele>146</ele>
        <time>2023-07-05T10:03:27Z</time>
      </trkpt>
      <trkpt lat="43.64836" lon="1.37623">
        <ele>146</ele>
        <time>2023-07-05T10:03:28Z</time>
      </trkpt>
      <trkpt lat="43.64837" lon="1.37624">
        <ele>146</ele>
        <time>2023-07-05T10:03:29Z</time>
      </trkpt>
      <trkpt lat="43.64839" lon="1.37626">
        <ele>146</ele>
        <time>2023-07-05T10:03:30Z</time>
      </trkpt>
      <trkpt lat="43.64841" lon="1.37628">
        <ele>146</ele>
        <time>2023-07-05T10:03:31Z</time>
      </trkpt>
      <trkpt lat="43.64843" lon="1.37629">
        <ele>146</ele>
        <time>2023-07-05T10:03:32Z</time>
      </trkpt>
      <trkpt lat="43.64845" lon="1.37631">
        <ele>146</ele>
        <time>2023-07-05T10:03:33Z</time>
      </trkpt>
      <trkpt lat="43.64847" lon="1.37633">
        <ele>146</ele>
        <time>2023-07-05T10:03:34Z</time>
      </trkpt>
      <trkpt lat="43.64848" lon="1.37635">
        <ele>146</ele>
        <time>2023-07-05T10:03:35Z</time>
      </trkpt>
      <trkpt lat="43.6485" lon="1.37637">
        <ele>146</ele>
        <time>2023-07-05T10:03:36Z</time>
      </trkpt>
      <trkpt lat="43.6485" lon="1.37637">
        <ele>146</ele>
        <time>2023-07-05T10:03:37Z</time>
      </trkpt>
      <trkpt lat="43.64853" lon="1.37641">
        <ele>146</ele>
        <time>2023-07-05T10:03:38Z</time>
      </trkpt>
      <trkpt lat="43.64855" lon="1.37642">
        <ele>146</ele>
        <time>2023-07-05T10:03:39Z</time>
      </trkpt>
      <trkpt lat="43.64856" lon="1.37644">
        <ele>146</ele>
        <time>2023-07-05T10:03:40Z</time>
      </trkpt>
      <trkpt lat="43.64858" lon="1.37645">
        <ele>146</ele>
        <time>2023-07-05T10:03:41Z</time>
      </trkpt>
      <trkpt lat="43.64861" lon="1.37646">
        <ele>146</ele>
        <time>2023-07-05T10:03:42Z</time>
      </trkpt>
      <trkpt lat="43.64863" lon="1.37648">
        <ele>146</ele>
        <time>2023-07-05T10:03:43Z</time>
      </trkpt>
      <trkpt lat="43.64866" lon="1.37649">
        <ele>146</ele>
        <time>2023-07-05T10:03:44Z</time>
      </trkpt>
      <trkpt lat="43.64868" lon="1.37651">
        <ele>146</ele>
        <time>2023-07-05T10:03:45Z</time>
      </trkpt>
      <trkpt lat="43.6487" lon="1.37654">
        <ele>145</ele>
        <time>2023-07-05T10:03:46Z</time>
      </trkpt>
      <trkpt lat="43.64871" lon="1.37656">
        <ele>145</ele>
        <time>2023-07-05T10:03:47Z</time>
      </trkpt>
      <trkpt lat="43.64873" lon="1.37659">
        <ele>145</ele>
        <time>2023-07-05T10:03:48Z</time>
      </trkpt>
      <trkpt lat="43.64875" lon="1.37662">
        <ele>145</ele>
        <time>2023-07-05T10:03:49Z</time>
      </trkpt>
      <trkpt lat="43.64876" lon="1.37665">
        <ele>145</ele>
        <time>2023-07-05T10:03:50Z</time>
      </trkpt>
      <trkpt lat="43.64878" lon="1.37668">
        <ele>145</ele>
        <time>2023-07-05T10:03:51Z</time>
      </trkpt>
      <trkpt lat="43.64879" lon="1.37671">
        <ele>145</ele>
        <time>2023-07-05T10:03:52Z</time>
      </trkpt>
      <trkpt lat="43.6488" lon="1.37673">
        <ele>145</ele>
        <time>2023-07-05T10:03:53Z</time>
      </trkpt>
      <trkpt lat="43.64881" lon="1.37677">
        <ele>145</ele>
        <time>2023-07-05T10:03:54Z</time>
      </trkpt>
      <trkpt lat="43.64881" lon="1.37679">
        <ele>145</ele>
        <time>2023-07-05T10:03:55Z</time>
      </trkpt>
      <trkpt lat="43.64882" lon="1.37683">
        <ele>145</ele>
        <time>2023-07-05T10:03:56Z</time>
      </trkpt>
      <trkpt lat="43.64883" lon="1.37686">
        <ele>145</ele>
        <time>2023-07-05T10:03:57Z</time>
      </trkpt>
      <trkpt lat="43.64885" lon="1.37689">
        <ele>145</ele>
        <time>2023-07-05T10:03:58Z</time>
      </trkpt>
      <trkpt lat="43.64885" lon="1.37693">
        <ele>145</ele>
        <time>2023-07-05T10:03:59Z</time>
      </trkpt>
      <trkpt lat="43.64886" lon="1.37696">
        <ele>145</ele>
        <time>2023-07-05T10:04:00Z</time>
      </trkpt>
      <trkpt lat="43.64888" lon="1.37699">
        <ele>145</ele>
        <time>2023-07-05T10:04:01Z</time>
      </trkpt>
      <trkpt lat="43.64889" lon="1.37701">
        <ele>145</ele>
        <time>2023-07-05T10:04:02Z</time>
      </trkpt>
      <trkpt lat="43.6489" lon="1.37704">
        <ele>145</ele>
        <time>2023-07-05T10:04:03Z</time>
      </trkpt>
      <trkpt lat="43.64892" lon="1.37706">
        <ele>145</ele>
        <time>2023-07-05T10:04:04Z</time>
      </trkpt>
      <trkpt lat="43.64893" lon="1.3771">
        <ele>145</ele>
        <time>2023-07-05T10:04:05Z</time>
      </trkpt>
      <trkpt lat="43.64894" lon="1.37713">
        <ele>145</ele>
        <time>2023-07-05T10:04:06Z</time>
      </trkpt>
      <trkpt lat="43.64895" lon="1.37716">
        <ele>145</ele>
        <time>2023-07-05T10:04:07Z</time>
      </trkpt>
      <trkpt lat="43.64896" lon="1.37719">
        <ele>145</ele>
        <time>2023-07-05T10:04:08Z</time>
      </trkpt>
      <trkpt lat="43.64897" lon="1.37722">
        <ele>145</ele>
        <time>2023-07-05T10:04:09Z</time>
      </trkpt>
      <trkpt lat="43.64898" lon="1.37726">
        <ele>145</ele>
        <time>2023-07-05T10:04:10Z</time>
      </trkpt>
      <trkpt lat="43.64898" lon="1.37729">
        <ele>145</ele>
        <time>2023-07-05T10:04:11Z</time>
      </trkpt>
      <trkpt lat="43.64899" lon="1.37732">
        <ele>145</ele>
        <time>2023-07-05T10:04:12Z</time>
      </trkpt>
      <trkpt lat="43.649" lon="1.37736">
        <ele>145</ele>
        <time>2023-07-05T10:04:13Z</time>
      </trkpt>
      <trkpt lat="43.649" lon="1.37739">
        <ele>145</ele>
        <time>2023-07-05T10:04:14Z</time>
      </trkpt>
      <trkpt lat="43.64901" lon="1.37742">
        <ele>145</ele>
        <time>2023-07-05T10:04:15Z</time>
      </trkpt>
      <trkpt lat="43.64901" lon="1.37745">
        <ele>145</ele>
        <time>2023-07-05T10:04:16Z</time>
      </trkpt>
      <trkpt lat="43.64902" lon="1.37748">
        <ele>145</ele>
        <time>2023-07-05T10:04:17Z</time>
      </trkpt>
      <trkpt lat="43.64903" lon="1.37751">
        <ele>145</ele>
        <time>2023-07-05T10:04:18Z</time>
      </trkpt>
      <trkpt lat="43.64904" lon="1.37754">
        <ele>145</ele>
        <time>2023-07-05T10:04:19Z</time>
      </trkpt>
      <trkpt lat="43.64905" lon="1.37757">
        <ele>145</ele>
        <time>2023-07-05T10:04:20Z</time>
      </trkpt>
      <trkpt lat="43.64905" lon="1.3776">
        <ele>145</ele>
        <time>2023-07-05T10:04:21Z</time>
      </trkpt>
      <trkpt lat="43.64906" lon="1.37764">
        <ele>145</ele>
        <time>2023-07-05T10:04:22Z</time>
      </trkpt>
      <trkpt lat="43.64907" lon="1.37767">
        <ele>145</ele>
        <time>2023-07-05T10:04:23Z</time>
      </trkpt>
      <trkpt lat="43.64908" lon="1.3777">
        <ele>145</ele>
        <time>2023-07-05T10:04:24Z</time>
      </trkpt>
      <trkpt lat="43.64908" lon="1.37773">
        <ele>145</ele>
        <time>2023-07-05T10:04:25Z</time>
      </trkpt>
      <trkpt lat="43.64908" lon="1.37776">
        <ele>145</ele>
        <time>2023-07-05T10:04:26Z</time>
      </trkpt>
      <trkpt lat="43.64909" lon="1.37779">
        <ele>145</ele>
        <time>2023-07-05T10:04:27Z</time>
      </trkpt>
      <trkpt lat="43.64909" lon="1.37782">
        <ele>145</ele>
        <time>2023-07-05T10:04:28Z</time>
      </trkpt>
      <trkpt lat="43.6491" lon="1.37785">
        <ele>145</ele>
        <time>2023-07-05T10:04:29Z</time>
      </trkpt>
      <trkpt lat="43.6491" lon="1.37788">
        <ele>145</ele>
        <time>2023-07-05T10:04:30Z</time>
      </trkpt>
      <trkpt lat="43.64911" lon="1.37791">
        <ele>145</ele>
        <time>2023-07-05T10:04:31Z</time>
      </trkpt>
      <trkpt lat="43.64912" lon="1.37794">
        <ele>145</ele>
        <time>2023-07-05T10:04:32Z</time>
      </trkpt>
      <trkpt lat="43.64913" lon="1.37797">
        <ele>145</ele>
        <time>2023-07-05T10:04:33Z</time>
      </trkpt>
      <trkpt lat="43.64913" lon="1.378">
        <ele>145</ele>
        <time>2023-07-05T10:04:34Z</time>
      </trkpt>
      <trkpt lat="43.64914" lon="1.37804">
        <ele>145</ele>
        <time>2023-07-05T10:04:35Z</time>
      </trkpt>
      <trkpt lat="43.64914" lon="1.37807">
        <ele>145</ele>
        <time>2023-07-05T10:04:36Z</time>
      </trkpt>
      <trkpt lat="43.64915" lon="1.37809">
        <ele>145</ele>
        <time>2023-07-05T10:04:37Z</time>
      </trkpt>
      <trkpt lat="43.64915" lon="1.37812">
        <ele>145</ele>
        <time>2023-07-05T10:04:38Z</time>
      </trkpt>
      <trkpt lat="43.64916" lon="1.37816">
        <ele>145</ele>
        <time>2023-07-05T10:04:39Z</time>
      </trkpt>
      <trkpt lat="43.64916" lon="1.37819">
        <ele>145</ele>
        <time>2023-07-05T10:04:40Z</time>
      </trkpt>
      <trkpt lat="43.64917" lon="1.37822">
        <ele>145</ele>
        <time>2023-07-05T10:04:41Z</time>
      </trkpt>
      <trkpt lat="43.64918" lon="1.37825">
        <ele>145</ele>
        <time>2023-07-05T10:04:42Z</time>
      </trkpt>
      <trkpt lat="43.64919" lon="1.37827">
        <ele>145</ele>
        <time>2023-07-05T10:04:43Z</time>
      </trkpt>
      <trkpt lat="43.6492" lon="1.3783">
        <ele>145</ele>
        <time>2023-07-05T10:04:44Z</time>
      </trkpt>
      <trkpt lat="43.64921" lon="1.37833">
        <ele>145</ele>
        <time>2023-07-05T10:04:45Z</time>
      </trkpt>
      <trkpt lat="43.64922" lon="1.37836">
        <ele>145</ele>
        <time>2023-07-05T10:04:46Z</time>
      </trkpt>
      <trkpt lat="43.64923" lon="1.37839">
        <ele>145</ele>
        <time>2023-07-05T10:04:47Z</time>
      </trkpt>
      <trkpt lat="43.64924" lon="1.37842">
        <ele>144</ele>
        <time>2023-07-05T10:04:48Z</time>
      </trkpt>
      <trkpt lat="43.64925" lon="1.37844">
        <ele>144</ele>
        <time>2023-07-05T10:04:49Z</time>
      </trkpt>
      <trkpt lat="43.64926" lon="1.37847">
        <ele>144</ele>
        <time>2023-07-05T10:04:50Z</time>
      </trkpt>
      <trkpt lat="43.64928" lon="1.37849">
        <ele>144</ele>
        <time>2023-07-05T10:04:51Z</time>
      </trkpt>
      <trkpt lat="43.6493" lon="1.37852">
        <ele>144</ele>
        <time>2023-07-05T10:04:52Z</time>
      </trkpt>
      <trkpt lat="43.64931" lon="1.37854">
        <ele>144</ele>
        <time>2023-07-05T10:04:53Z</time>
      </trkpt>
      <trkpt lat="43.64933" lon="1.37856">
        <ele>144</ele>
        <time>2023-07-05T10:04:54Z</time>
      </trkpt>
      <trkpt lat="43.64934" lon="1.37859">
        <ele>144</ele>
        <time>2023-07-05T10:04:55Z</time>
      </trkpt>
      <trkpt lat="43.64936" lon="1.37862">
        <ele>144</ele>
        <time>2023-07-05T10:04:56Z</time>
      </trkpt>
      <trkpt lat="43.64937" lon="1.37865">
        <ele>144</ele>
        <time>2023-07-05T10:04:57Z</time>
      </trkpt>
      <trkpt lat="43.64938" lon="1.37868">
        <ele>144</ele>
        <time>2023-07-05T10:04:58Z</time>
      </trkpt>
      <trkpt lat="43.64939" lon="1.37871">
        <ele>144</ele>
        <time>2023-07-05T10:04:59Z</time>
      </trkpt>
      <trkpt lat="43.6494" lon="1.37875">
        <ele>144</ele>
        <time>2023-07-05T10:05:00Z</time>
      </trkpt>
      <trkpt lat="43.64941" lon="1.37877">
        <ele>144</ele>
        <time>2023-07-05T10:05:01Z</time>
      </trkpt>
      <trkpt lat="43.64941" lon="1.37877">
        <ele>144</ele>
        <time>2023-07-05T10:05:02Z</time>
      </trkpt>
      <trkpt lat="43.64944" lon="1.3788">
        <ele>144</ele>
        <time>2023-07-05T10:05:03Z</time>
      </trkpt>
      <trkpt lat="43.64946" lon="1.37882">
        <ele>144</ele>
        <time>2023-07-05T10:05:04Z</time>
      </trkpt>
      <trkpt lat="43.64947" lon="1.37885">
        <ele>144</ele>
        <time>2023-07-05T10:05:05Z</time>
      </trkpt>
      <trkpt lat="43.64948" lon="1.37888">
        <ele>144</ele>
        <time>2023-07-05T10:05:06Z</time>
      </trkpt>
      <trkpt lat="43.6495" lon="1.37891">
        <ele>143</ele>
        <time>2023-07-05T10:05:07Z</time>
      </trkpt>
      <trkpt lat="43.64951" lon="1.37894">
        <ele>143</ele>
        <time>2023-07-05T10:05:08Z</time>
      </trkpt>
      <trkpt lat="43.64951" lon="1.37898">
        <ele>144</ele>
        <time>2023-07-05T10:05:09Z</time>
      </trkpt>
      <trkpt lat="43.64952" lon="1.37901">
        <ele>145</ele>
        <time>2023-07-05T10:05:10Z</time>
      </trkpt>
      <trkpt lat="43.64953" lon="1.37905">
        <ele>145</ele>
        <time>2023-07-05T10:05:11Z</time>
      </trkpt>
      <trkpt lat="43.64953" lon="1.37908">
        <ele>145</ele>
        <time>2023-07-05T10:05:12Z</time>
      </trkpt>
      <trkpt lat="43.64954" lon="1.37911">
        <ele>145</ele>
        <time>2023-07-05T10:05:13Z</time>
      </trkpt>
      <trkpt lat="43.64955" lon="1.37914">
        <ele>145</ele>
        <time>2023-07-05T10:05:14Z</time>
      </trkpt>
      <trkpt lat="43.64955" lon="1.37914">
        <ele>145</ele>
        <time>2023-07-05T10:05:15Z</time>
      </trkpt>
      <trkpt lat="43.64957" lon="1.37923">
        <ele>145</ele>
        <time>2023-07-05T10:05:16Z</time>
      </trkpt>
      <trkpt lat="43.64958" lon="1.37924">
        <ele>143</ele>
        <time>2023-07-05T10:05:17Z</time>
      </trkpt>
      <trkpt lat="43.64958" lon="1.37927">
        <ele>142</ele>
        <time>2023-07-05T10:05:18Z</time>
      </trkpt>
      <trkpt lat="43.6496" lon="1.3793">
        <ele>143</ele>
        <time>2023-07-05T10:05:19Z</time>
      </trkpt>
      <trkpt lat="43.64961" lon="1.37933">
        <ele>143</ele>
        <time>2023-07-05T10:05:20Z</time>
      </trkpt>
      <trkpt lat="43.64962" lon="1.37936">
        <ele>143</ele>
        <time>2023-07-05T10:05:21Z</time>
      </trkpt>
      <trkpt lat="43.64963" lon="1.37938">
        <ele>143</ele>
        <time>2023-07-05T10:05:22Z</time>
      </trkpt>
      <trkpt lat="43.64965" lon="1.37941">
        <ele>143</ele>
        <time>2023-07-05T10:05:23Z</time>
      </trkpt>
      <trkpt lat="43.64966" lon="1.37943">
        <ele>143</ele>
        <time>2023-07-05T10:05:24Z</time>
      </trkpt>
      <trkpt lat="43.64968" lon="1.37946">
        <ele>143</ele>
        <time>2023-07-05T10:05:25Z</time>
      </trkpt>
      <trkpt lat="43.64969" lon="1.37948">
        <ele>143</ele>
        <time>2023-07-05T10:05:26Z</time>
      </trkpt>
      <trkpt lat="43.64971" lon="1.3795">
        <ele>143</ele>
        <time>2023-07-05T10:05:27Z</time>
      </trkpt>
      <trkpt lat="43.64972" lon="1.37953">
        <ele>143</ele>
        <time>2023-07-05T10:05:28Z</time>
      </trkpt>
      <trkpt lat="43.64974" lon="1.37955">
        <ele>143</ele>
        <time>2023-07-05T10:05:29Z</time>
      </trkpt>
      <trkpt lat="43.64975" lon="1.37958">
        <ele>142</ele>
        <time>2023-07-05T10:05:30Z</time>
      </trkpt>
      <trkpt lat="43.64977" lon="1.3796">
        <ele>142</ele>
        <time>2023-07-05T10:05:31Z</time>
      </trkpt>
      <trkpt lat="43.64979" lon="1.37962">
        <ele>142</ele>
        <time>2023-07-05T10:05:32Z</time>
      </trkpt>
      <trkpt lat="43.64981" lon="1.37964">
        <ele>142</ele>
        <time>2023-07-05T10:05:33Z</time>
      </trkpt>
      <trkpt lat="43.64983" lon="1.37966">
        <ele>142</ele>
        <time>2023-07-05T10:05:34Z</time>
      </trkpt>
      <trkpt lat="43.64985" lon="1.37968">
        <ele>142</ele>
        <time>2023-07-05T10:05:35Z</time>
      </trkpt>
      <trkpt lat="43.64987" lon="1.37971">
        <ele>142</ele>
        <time>2023-07-05T10:05:36Z</time>
      </trkpt>
      <trkpt lat="43.64989" lon="1.37973">
        <ele>142</ele>
        <time>2023-07-05T10:05:37Z</time>
      </trkpt>
      <trkpt lat="43.6499" lon="1.37976">
        <ele>143</ele>
        <time>2023-07-05T10:05:38Z</time>
      </trkpt>
      <trkpt lat="43.64992" lon="1.37978">
        <ele>143</ele>
        <time>2023-07-05T10:05:39Z</time>
      </trkpt>
      <trkpt lat="43.64993" lon="1.37981">
        <ele>142</ele>
        <time>2023-07-05T10:05:40Z</time>
      </trkpt>
      <trkpt lat="43.64995" lon="1.37983">
        <ele>142</ele>
        <time>2023-07-05T10:05:41Z</time>
      </trkpt>
      <trkpt lat="43.64997" lon="1.37986">
        <ele>142</ele>
        <time>2023-07-05T10:05:42Z</time>
      </trkpt>
      <trkpt lat="43.64998" lon="1.37988">
        <ele>142</ele>
        <time>2023-07-05T10:05:43Z</time>
      </trkpt>
      <trkpt lat="43.65" lon="1.37991">
        <ele>142</ele>
        <time>2023-07-05T10:05:44Z</time>
      </trkpt>
      <trkpt lat="43.65001" lon="1.37993">
        <ele>142</ele>
        <time>2023-07-05T10:05:45Z</time>
      </trkpt>
      <trkpt lat="43.65003" lon="1.37996">
        <ele>142</ele>
        <time>2023-07-05T10:05:46Z</time>
      </trkpt>
      <trkpt lat="43.65005" lon="1.37998">
        <ele>142</ele>
        <time>2023-07-05T10:05:47Z</time>
      </trkpt>
      <trkpt lat="43.65007" lon="1.38">
        <ele>142</ele>
        <time>2023-07-05T10:05:48Z</time>
      </trkpt>
      <trkpt lat="43.65009" lon="1.38002">
        <ele>142</ele>
        <time>2023-07-05T10:05:49Z</time>
      </trkpt>
      <trkpt lat="43.6501" lon="1.38005">
        <ele>142</ele>
        <time>2023-07-05T10:05:50Z</time>
      </trkpt>
      <trkpt lat="43.65012" lon="1.38008">
        <ele>142</ele>
        <time>2023-07-05T10:05:51Z</time>
      </trkpt>
      <trkpt lat="43.65014" lon="1.3801">
        <ele>142</ele>
        <time>2023-07-05T10:05:52Z</time>
      </trkpt>
      <trkpt lat="43.65015" lon="1.38013">
        <ele>142</ele>
        <time>2023-07-05T10:05:53Z</time>
      </trkpt>
      <trkpt lat="43.65017" lon="1.38015">
        <ele>142</ele>
        <time>2023-07-05T10:05:54Z</time>
      </trkpt>
      <trkpt lat="43.65018" lon="1.38017">
        <ele>142</ele>
        <time>2023-07-05T10:05:55Z</time>
      </trkpt>
      <trkpt lat="43.6502" lon="1.3802">
        <ele>142</ele>
        <time>2023-07-05T10:05:56Z</time>
      </trkpt>
      <trkpt lat="43.65022" lon="1.38022">
        <ele>142</ele>
        <time>2023-07-05T10:05:57Z</time>
      </trkpt>
      <trkpt lat="43.65024" lon="1.38024">
        <ele>142</ele>
        <time>2023-07-05T10:05:58Z</time>
      </trkpt>
      <trkpt lat="43.65025" lon="1.38027">
        <ele>142</ele>
        <time>2023-07-05T10:05:59Z</time>
      </trkpt>
      <trkpt lat="43.65027" lon="1.38029">
        <ele>142</ele>
        <time>2023-07-05T10:06:00Z</time>
      </trkpt>
      <trkpt lat="43.6503" lon="1.38031">
        <ele>142</ele>
        <time>2023-07-05T10:06:01Z</time>
      </trkpt>
      <trkpt lat="43.65031" lon="1.38034">
        <ele>142</ele>
        <time>2023-07-05T10:06:02Z</time>
      </trkpt>
      <trkpt lat="43.65033" lon="1.38037">
        <ele>142</ele>
        <time>2023-07-05T10:06:03Z</time>
      </trkpt>
      <trkpt lat="43.65034" lon="1.38039">
        <ele>142</ele>
        <time>2023-07-05T10:06:04Z</time>
      </trkpt>
      <trkpt lat="43.65035" lon="1.38042">
        <ele>142</ele>
        <time>2023-07-05T10:06:05Z</time>
      </trkpt>
      <trkpt lat="43.65036" lon="1.38045">
        <ele>142</ele>
        <time>2023-07-05T10:06:06Z</time>
      </trkpt>
      <trkpt lat="43.65038" lon="1.38048">
        <ele>142</ele>
        <time>2023-07-05T10:06:07Z</time>
      </trkpt>
      <trkpt lat="43.65039" lon="1.38051">
        <ele>142</ele>
        <time>2023-07-05T10:06:08Z</time>
      </trkpt>
      <trkpt lat="43.65041" lon="1.38054">
        <ele>142</ele>
        <time>2023-07-05T10:06:09Z</time>
      </trkpt>
      <trkpt lat="43.65042" lon="1.38056">
        <ele>142</ele>
        <time>2023-07-05T10:06:10Z</time>
      </trkpt>
      <trkpt lat="43.65043" lon="1.3806">
        <ele>142</ele>
        <time>2023-07-05T10:06:11Z</time>
      </trkpt>
      <trkpt lat="43.65044" lon="1.38062">
        <ele>142</ele>
        <time>2023-07-05T10:06:12Z</time>
      </trkpt>
      <trkpt lat="43.65046" lon="1.38065">
        <ele>142</ele>
        <time>2023-07-05T10:06:13Z</time>
      </trkpt>
      <trkpt lat="43.65047" lon="1.38067">
        <ele>142</ele>
        <time>2023-07-05T10:06:14Z</time>
      </trkpt>
      <trkpt lat="43.65048" lon="1.3807">
        <ele>142</ele>
        <time>2023-07-05T10:06:15Z</time>
      </trkpt>
      <trkpt lat="43.6505" lon="1.38072">
        <ele>142</ele>
        <time>2023-07-05T10:06:16Z</time>
      </trkpt>
      <trkpt lat="43.65052" lon="1.38074">
        <ele>142</ele>
        <time>2023-07-05T10:06:17Z</time>
      </trkpt>
      <trkpt lat="43.65053" lon="1.38077">
        <ele>142</ele>
        <time>2023-07-05T10:06:18Z</time>
      </trkpt>
      <trkpt lat="43.65054" lon="1.3808">
        <ele>142</ele>
        <time>2023-07-05T10:06:19Z</time>
      </trkpt>
      <trkpt lat="43.65056" lon="1.38083">
        <ele>142</ele>
        <time>2023-07-05T10:06:20Z</time>
      </trkpt>
      <trkpt lat="43.65057" lon="1.38086">
        <ele>142</ele>
        <time>2023-07-05T10:06:21Z</time>
      </trkpt>
      <trkpt lat="43.65058" lon="1.38088">
        <ele>143</ele>
        <time>2023-07-05T10:06:22Z</time>
      </trkpt>
      <trkpt lat="43.65059" lon="1.38091">
        <ele>143</ele>
        <time>2023-07-05T10:06:23Z</time>
      </trkpt>
      <trkpt lat="43.65061" lon="1.38095">
        <ele>143</ele>
        <time>2023-07-05T10:06:24Z</time>
      </trkpt>
      <trkpt lat="43.65062" lon="1.38098">
        <ele>142</ele>
        <time>2023-07-05T10:06:25Z</time>
      </trkpt>
      <trkpt lat="43.65063" lon="1.38101">
        <ele>142</ele>
        <time>2023-07-05T10:06:26Z</time>
      </trkpt>
      <trkpt lat="43.65064" lon="1.38104">
        <ele>142</ele>
        <time>2023-07-05T10:06:27Z</time>
      </trkpt>
      <trkpt lat="43.65065" lon="1.38107">
        <ele>142</ele>
        <time>2023-07-05T10:06:28Z</time>
      </trkpt>
      <trkpt lat="43.65066" lon="1.3811">
        <ele>142</ele>
        <time>2023-07-05T10:06:29Z</time>
      </trkpt>
      <trkpt lat="43.65067" lon="1.38113">
        <ele>143</ele>
        <time>2023-07-05T10:06:30Z</time>
      </trkpt>
      <trkpt lat="43.65068" lon="1.38116">
        <ele>143</ele>
        <time>2023-07-05T10:06:31Z</time>
      </trkpt>
      <trkpt lat="43.65068" lon="1.38119">
        <ele>143</ele>
        <time>2023-07-05T10:06:32Z</time>
      </trkpt>
      <trkpt lat="43.6507" lon="1.38121">
        <ele>144</ele>
        <time>2023-07-05T10:06:33Z</time>
      </trkpt>
      <trkpt lat="43.6507" lon="1.38121">
        <ele>144</ele>
        <time>2023-07-05T10:06:34Z</time>
      </trkpt>
      <trkpt lat="43.65072" lon="1.38123">
        <ele>144</ele>
        <time>2023-07-05T10:06:35Z</time>
      </trkpt>
      <trkpt lat="43.65072" lon="1.38123">
        <ele>144</ele>
        <time>2023-07-05T10:06:36Z</time>
      </trkpt>
      <trkpt lat="43.65075" lon="1.3812">
        <ele>144</ele>
        <time>2023-07-05T10:06:37Z</time>
      </trkpt>
      <trkpt lat="43.65076" lon="1.38118">
        <ele>144</ele>
        <time>2023-07-05T10:06:38Z</time>
      </trkpt>
      <trkpt lat="43.65078" lon="1.38116">
        <ele>144</ele>
        <time>2023-07-05T10:06:39Z</time>
      </trkpt>
      <trkpt lat="43.6508" lon="1.38115">
        <ele>145</ele>
        <time>2023-07-05T10:06:40Z</time>
      </trkpt>
      <trkpt lat="43.65082" lon="1.38113">
        <ele>145</ele>
        <time>2023-07-05T10:06:41Z</time>
      </trkpt>
      <trkpt lat="43.65084" lon="1.38111">
        <ele>145</ele>
        <time>2023-07-05T10:06:42Z</time>
      </trkpt>
      <trkpt lat="43.65085" lon="1.3811">
        <ele>145</ele>
        <time>2023-07-05T10:06:43Z</time>
      </trkpt>
      <trkpt lat="43.65087" lon="1.38108">
        <ele>145</ele>
        <time>2023-07-05T10:06:44Z</time>
      </trkpt>
      <trkpt lat="43.65088" lon="1.38106">
        <ele>145</ele>
        <time>2023-07-05T10:06:45Z</time>
      </trkpt>
      <trkpt lat="43.6509" lon="1.38105">
        <ele>145</ele>
        <time>2023-07-05T10:06:46Z</time>
      </trkpt>
      <trkpt lat="43.65092" lon="1.38104">
        <ele>145</ele>
        <time>2023-07-05T10:06:47Z</time>
      </trkpt>
      <trkpt lat="43.65095" lon="1.38102">
        <ele>145</ele>
        <time>2023-07-05T10:06:48Z</time>
      </trkpt>
      <trkpt lat="43.65097" lon="1.381">
        <ele>145</ele>
        <time>2023-07-05T10:06:49Z</time>
      </trkpt>
      <trkpt lat="43.65099" lon="1.38099">
        <ele>145</ele>
        <time>2023-07-05T10:06:50Z</time>
      </trkpt>
      <trkpt lat="43.65101" lon="1.38097">
        <ele>145</ele>
        <time>2023-07-05T10:06:51Z</time>
      </trkpt>
      <trkpt lat="43.65103" lon="1.38095">
        <ele>145</ele>
        <time>2023-07-05T10:06:52Z</time>
      </trkpt>
      <trkpt lat="43.65105" lon="1.38094">
        <ele>145</ele>
        <time>2023-07-05T10:06:53Z</time>
      </trkpt>
      <trkpt lat="43.65107" lon="1.38092">
        <ele>145</ele>
        <time>2023-07-05T10:06:54Z</time>
      </trkpt>
      <trkpt lat="43.65109" lon="1.38091">
        <ele>145</ele>
        <time>2023-07-05T10:06:55Z</time>
      </trkpt>
      <trkpt lat="43.65112" lon="1.38091">
        <ele>145</ele>
        <time>2023-07-05T10:06:56Z</time>
      </trkpt>
      <trkpt lat="43.65114" lon="1.3809">
        <ele>146</ele>
        <time>2023-07-05T10:06:57Z</time>
      </trkpt>
      <trkpt lat="43.65116" lon="1.38088">
        <ele>146</ele>
        <time>2023-07-05T10:06:58Z</time>
      </trkpt>
      <trkpt lat="43.65119" lon="1.38086">
        <ele>146</ele>
        <time>2023-07-05T10:06:59Z</time>
      </trkpt>
      <trkpt lat="43.65121" lon="1.38085">
        <ele>146</ele>
        <time>2023-07-05T10:07:00Z</time>
      </trkpt>
      <trkpt lat="43.65123" lon="1.38084">
        <ele>146</ele>
        <time>2023-07-05T10:07:01Z</time>
      </trkpt>
      <trkpt lat="43.65126" lon="1.38082">
        <ele>146</ele>
        <time>2023-07-05T10:07:02Z</time>
      </trkpt>
      <trkpt lat="43.65128" lon="1.38081">
        <ele>146</ele>
        <time>2023-07-05T10:07:03Z</time>
      </trkpt>
      <trkpt lat="43.6513" lon="1.38079">
        <ele>146</ele>
        <time>2023-07-05T10:07:04Z</time>
      </trkpt>
      <trkpt lat="43.65133" lon="1.38078">
        <ele>146</ele>
        <time>2023-07-05T10:07:05Z</time>
      </trkpt>
      <trkpt lat="43.65135" lon="1.38076">
        <ele>146</ele>
        <time>2023-07-05T10:07:06Z</time>
      </trkpt>
      <trkpt lat="43.65138" lon="1.38075">
        <ele>146</ele>
        <time>2023-07-05T10:07:07Z</time>
      </trkpt>
      <trkpt lat="43.6514" lon="1.38073">
        <ele>146</ele>
        <time>2023-07-05T10:07:08Z</time>
      </trkpt>
      <trkpt lat="43.65142" lon="1.38072">
        <ele>146</ele>
        <time>2023-07-05T10:07:09Z</time>
      </trkpt>
      <trkpt lat="43.65144" lon="1.3807">
        <ele>146</ele>
        <time>2023-07-05T10:07:10Z</time>
      </trkpt>
      <trkpt lat="43.65146" lon="1.38069">
        <ele>146</ele>
        <time>2023-07-05T10:07:11Z</time>
      </trkpt>
      <trkpt lat="43.65149" lon="1.38067">
        <ele>146</ele>
        <time>2023-07-05T10:07:12Z</time>
      </trkpt>
      <trkpt lat="43.65151" lon="1.38066">
        <ele>146</ele>
        <time>2023-07-05T10:07:13Z</time>
      </trkpt>
      <trkpt lat="43.65153" lon="1.38064">
        <ele>146</ele>
        <time>2023-07-05T10:07:14Z</time>
      </trkpt>
      <trkpt lat="43.65155" lon="1.38063">
        <ele>146</ele>
        <time>2023-07-05T10:07:15Z</time>
      </trkpt>
      <trkpt lat="43.65157" lon="1.38061">
        <ele>146</ele>
        <time>2023-07-05T10:07:16Z</time>
      </trkpt>
      <trkpt lat="43.65158" lon="1.3806">
        <ele>146</ele>
        <time>2023-07-05T10:07:17Z</time>
      </trkpt>
      <trkpt lat="43.65161" lon="1.38058">
        <ele>146</ele>
        <time>2023-07-05T10:07:18Z</time>
      </trkpt>
      <trkpt lat="43.65163" lon="1.38056">
        <ele>146</ele>
        <time>2023-07-05T10:07:19Z</time>
      </trkpt>
      <trkpt lat="43.65166" lon="1.38055">
        <ele>146</ele>
        <time>2023-07-05T10:07:20Z</time>
      </trkpt>
      <trkpt lat="43.65168" lon="1.38053">
        <ele>146</ele>
        <time>2023-07-05T10:07:21Z</time>
      </trkpt>
      <trkpt lat="43.6517" lon="1.38052">
        <ele>146</ele>
        <time>2023-07-05T10:07:22Z</time>
      </trkpt>
      <trkpt lat="43.65172" lon="1.3805">
        <ele>146</ele>
        <time>2023-07-05T10:07:23Z</time>
      </trkpt>
      <trkpt lat="43.65174" lon="1.38049">
        <ele>146</ele>
        <time>2023-07-05T10:07:24Z</time>
      </trkpt>
      <trkpt lat="43.65176" lon="1.38048">
        <ele>146</ele>
        <time>2023-07-05T10:07:25Z</time>
      </trkpt>
      <trkpt lat="43.65178" lon="1.38046">
        <ele>146</ele>
        <time>2023-07-05T10:07:26Z</time>
      </trkpt>
      <trkpt lat="43.6518" lon="1.38045">
        <ele>146</ele>
        <time>2023-07-05T10:07:27Z</time>
      </trkpt>
      <trkpt lat="43.65182" lon="1.38044">
        <ele>146</ele>
        <time>2023-07-05T10:07:28Z</time>
      </trkpt>
      <trkpt lat="43.65185" lon="1.38045">
        <ele>145</ele>
        <time>2023-07-05T10:07:29Z</time>
      </trkpt>
      <trkpt lat="43.65187" lon="1.38044">
        <ele>145</ele>
        <time>2023-07-05T10:07:30Z</time>
      </trkpt>
      <trkpt lat="43.65189" lon="1.38043">
        <ele>145</ele>
        <time>2023-07-05T10:07:31Z</time>
      </trkpt>
      <trkpt lat="43.65192" lon="1.38041">
        <ele>146</ele>
        <time>2023-07-05T10:07:32Z</time>
      </trkpt>
      <trkpt lat="43.65194" lon="1.3804">
        <ele>146</ele>
        <time>2023-07-05T10:07:33Z</time>
      </trkpt>
      <trkpt lat="43.65196" lon="1.38038">
        <ele>145</ele>
        <time>2023-07-05T10:07:34Z</time>
      </trkpt>
      <trkpt lat="43.65199" lon="1.38037">
        <ele>145</ele>
        <time>2023-07-05T10:07:35Z</time>
      </trkpt>
      <trkpt lat="43.65201" lon="1.38036">
        <ele>145</ele>
        <time>2023-07-05T10:07:36Z</time>
      </trkpt>
      <trkpt lat="43.65203" lon="1.38035">
        <ele>145</ele>
        <time>2023-07-05T10:07:37Z</time>
      </trkpt>
      <trkpt lat="43.65206" lon="1.38034">
        <ele>145</ele>
        <time>2023-07-05T10:07:38Z</time>
      </trkpt>
      <trkpt lat="43.65208" lon="1.38033">
        <ele>145</ele>
        <time>2023-07-05T10:07:39Z</time>
      </trkpt>
      <trkpt lat="43.65211" lon="1.38033">
        <ele>145</ele>
        <time>2023-07-05T10:07:40Z</time>
      </trkpt>
      <trkpt lat="43.65214" lon="1.38035">
        <ele>145</ele>
        <time>2023-07-05T10:07:41Z</time>
      </trkpt>
      <trkpt lat="43.65217" lon="1.38037">
        <ele>145</ele>
        <time>2023-07-05T10:07:42Z</time>
      </trkpt>
      <trkpt lat="43.65219" lon="1.38039">
        <ele>145</ele>
        <time>2023-07-05T10:07:43Z</time>
      </trkpt>
      <trkpt lat="43.65222" lon="1.38041">
        <ele>145</ele>
        <time>2023-07-05T10:07:44Z</time>
      </trkpt>
      <trkpt lat="43.65224" lon="1.38044">
        <ele>145</ele>
        <time>2023-07-05T10:07:45Z</time>
      </trkpt>
      <trkpt lat="43.65226" lon="1.38047">
        <ele>145</ele>
        <time>2023-07-05T10:07:46Z</time>
      </trkpt>
      <trkpt lat="43.65227" lon="1.3805">
        <ele>145</ele>
        <time>2023-07-05T10:07:47Z</time>
      </trkpt>
      <trkpt lat="43.65229" lon="1.38053">
        <ele>145</ele>
        <time>2023-07-05T10:07:48Z</time>
      </trkpt>
      <trkpt lat="43.6523" lon="1.38056">
        <ele>145</ele>
        <time>2023-07-05T10:07:49Z</time>
      </trkpt>
      <trkpt lat="43.65231" lon="1.38059">
        <ele>145</ele>
        <time>2023-07-05T10:07:50Z</time>
      </trkpt>
      <trkpt lat="43.65233" lon="1.38062">
        <ele>145</ele>
        <time>2023-07-05T10:07:51Z</time>
      </trkpt>
      <trkpt lat="43.65234" lon="1.38065">
        <ele>145</ele>
        <time>2023-07-05T10:07:52Z</time>
      </trkpt>
      <trkpt lat="43.65235" lon="1.38069">
        <ele>145</ele>
        <time>2023-07-05T10:07:53Z</time>
      </trkpt>
      <trkpt lat="43.65235" lon="1.38072">
        <ele>145</ele>
        <time>2023-07-05T10:07:54Z</time>
      </trkpt>
      <trkpt lat="43.65236" lon="1.38075">
        <ele>145</ele>
        <time>2023-07-05T10:07:55Z</time>
      </trkpt>
      <trkpt lat="43.65237" lon="1.38079">
        <ele>145</ele>
        <time>2023-07-05T10:07:56Z</time>
      </trkpt>
      <trkpt lat="43.65238" lon="1.38082">
        <ele>145</ele>
        <time>2023-07-05T10:07:57Z</time>
      </trkpt>
      <trkpt lat="43.65239" lon="1.38085">
        <ele>145</ele>
        <time>2023-07-05T10:07:58Z</time>
      </trkpt>
      <trkpt lat="43.6524" lon="1.38088">
        <ele>145</ele>
        <time>2023-07-05T10:07:59Z</time>
      </trkpt>
      <trkpt lat="43.65241" lon="1.38092">
        <ele>145</ele>
        <time>2023-07-05T10:08:00Z</time>
      </trkpt>
      <trkpt lat="43.65242" lon="1.38095">
        <ele>145</ele>
        <time>2023-07-05T10:08:01Z</time>
      </trkpt>
      <trkpt lat="43.65243" lon="1.38098">
        <ele>145</ele>
        <time>2023-07-05T10:08:02Z</time>
      </trkpt>
      <trkpt lat="43.65244" lon="1.38101">
        <ele>145</ele>
        <time>2023-07-05T10:08:03Z</time>
      </trkpt>
      <trkpt lat="43.65245" lon="1.38104">
        <ele>145</ele>
        <time>2023-07-05T10:08:04Z</time>
      </trkpt>
      <trkpt lat="43.65246" lon="1.38107">
        <ele>145</ele>
        <time>2023-07-05T10:08:05Z</time>
      </trkpt>
      <trkpt lat="43.65248" lon="1.3811">
        <ele>145</ele>
        <time>2023-07-05T10:08:06Z</time>
      </trkpt>
      <trkpt lat="43.65249" lon="1.38113">
        <ele>145</ele>
        <time>2023-07-05T10:08:07Z</time>
      </trkpt>
      <trkpt lat="43.6525" lon="1.38116">
        <ele>145</ele>
        <time>2023-07-05T10:08:08Z</time>
      </trkpt>
      <trkpt lat="43.6525" lon="1.3812">
        <ele>145</ele>
        <time>2023-07-05T10:08:09Z</time>
      </trkpt>
      <trkpt lat="43.65251" lon="1.38123">
        <ele>145</ele>
        <time>2023-07-05T10:08:10Z</time>
      </trkpt>
      <trkpt lat="43.6525" lon="1.38127">
        <ele>145</ele>
        <time>2023-07-05T10:08:11Z</time>
      </trkpt>
      <trkpt lat="43.65249" lon="1.3813">
        <ele>145</ele>
        <time>2023-07-05T10:08:12Z</time>
      </trkpt>
      <trkpt lat="43.65247" lon="1.38132">
        <ele>145</ele>
        <time>2023-07-05T10:08:13Z</time>
      </trkpt>
      <trkpt lat="43.65244" lon="1.38134">
        <ele>145</ele>
        <time>2023-07-05T10:08:14Z</time>
      </trkpt>
      <trkpt lat="43.65241" lon="1.38136">
        <ele>144</ele>
        <time>2023-07-05T10:08:15Z</time>
      </trkpt>
      <trkpt lat="43.65239" lon="1.38137">
        <ele>144</ele>
        <time>2023-07-05T10:08:16Z</time>
      </trkpt>
      <trkpt lat="43.65237" lon="1.38138">
        <ele>144</ele>
        <time>2023-07-05T10:08:17Z</time>
      </trkpt>
      <trkpt lat="43.65234" lon="1.38139">
        <ele>144</ele>
        <time>2023-07-05T10:08:18Z</time>
      </trkpt>
      <trkpt lat="43.65232" lon="1.38141">
        <ele>144</ele>
        <time>2023-07-05T10:08:19Z</time>
      </trkpt>
      <trkpt lat="43.6523" lon="1.38142">
        <ele>144</ele>
        <time>2023-07-05T10:08:20Z</time>
      </trkpt>
      <trkpt lat="43.65228" lon="1.38144">
        <ele>144</ele>
        <time>2023-07-05T10:08:21Z</time>
      </trkpt>
      <trkpt lat="43.65225" lon="1.38146">
        <ele>144</ele>
        <time>2023-07-05T10:08:22Z</time>
      </trkpt>
      <trkpt lat="43.65223" lon="1.38147">
        <ele>144</ele>
        <time>2023-07-05T10:08:23Z</time>
      </trkpt>
      <trkpt lat="43.65221" lon="1.38149">
        <ele>144</ele>
        <time>2023-07-05T10:08:24Z</time>
      </trkpt>
      <trkpt lat="43.65218" lon="1.3815">
        <ele>144</ele>
        <time>2023-07-05T10:08:25Z</time>
      </trkpt>
      <trkpt lat="43.65216" lon="1.38152">
        <ele>144</ele>
        <time>2023-07-05T10:08:26Z</time>
      </trkpt>
      <trkpt lat="43.65213" lon="1.38154">
        <ele>144</ele>
        <time>2023-07-05T10:08:27Z</time>
      </trkpt>
      <trkpt lat="43.65211" lon="1.38155">
        <ele>144</ele>
        <time>2023-07-05T10:08:28Z</time>
      </trkpt>
      <trkpt lat="43.65208" lon="1.38157">
        <ele>144</ele>
        <time>2023-07-05T10:08:29Z</time>
      </trkpt>
      <trkpt lat="43.65206" lon="1.3816">
        <ele>144</ele>
        <time>2023-07-05T10:08:30Z</time>
      </trkpt>
      <trkpt lat="43.65204" lon="1.38162">
        <ele>144</ele>
        <time>2023-07-05T10:08:31Z</time>
      </trkpt>
      <trkpt lat="43.65202" lon="1.38164">
        <ele>144</ele>
        <time>2023-07-05T10:08:32Z</time>
      </trkpt>
      <trkpt lat="43.652" lon="1.38166">
        <ele>144</ele>
        <time>2023-07-05T10:08:33Z</time>
      </trkpt>
      <trkpt lat="43.65198" lon="1.38169">
        <ele>144</ele>
        <time>2023-07-05T10:08:34Z</time>
      </trkpt>
      <trkpt lat="43.65195" lon="1.38171">
        <ele>143</ele>
        <time>2023-07-05T10:08:35Z</time>
      </trkpt>
      <trkpt lat="43.65193" lon="1.38173">
        <ele>143</ele>
        <time>2023-07-05T10:08:36Z</time>
      </trkpt>
      <trkpt lat="43.65191" lon="1.38176">
        <ele>143</ele>
        <time>2023-07-05T10:08:37Z</time>
      </trkpt>
      <trkpt lat="43.65189" lon="1.38178">
        <ele>143</ele>
        <time>2023-07-05T10:08:38Z</time>
      </trkpt>
      <trkpt lat="43.65187" lon="1.38181">
        <ele>143</ele>
        <time>2023-07-05T10:08:39Z</time>
      </trkpt>
      <trkpt lat="43.65185" lon="1.38184">
        <ele>143</ele>
        <time>2023-07-05T10:08:40Z</time>
      </trkpt>
      <trkpt lat="43.65183" lon="1.38186">
        <ele>143</ele>
        <time>2023-07-05T10:08:41Z</time>
      </trkpt>
      <trkpt lat="43.6518" lon="1.38188">
        <ele>143</ele>
        <time>2023-07-05T10:08:42Z</time>
      </trkpt>
      <trkpt lat="43.65178" lon="1.3819">
        <ele>144</ele>
        <time>2023-07-05T10:08:43Z</time>
      </trkpt>
      <trkpt lat="43.65176" lon="1.38192">
        <ele>144</ele>
        <time>2023-07-05T10:08:44Z</time>
      </trkpt>
      <trkpt lat="43.65174" lon="1.38194">
        <ele>143</ele>
        <time>2023-07-05T10:08:45Z</time>
      </trkpt>
      <trkpt lat="43.65173" lon="1.38197">
        <ele>143</ele>
        <time>2023-07-05T10:08:46Z</time>
      </trkpt>
      <trkpt lat="43.65171" lon="1.38199">
        <ele>143</ele>
        <time>2023-07-05T10:08:47Z</time>
      </trkpt>
      <trkpt lat="43.6517" lon="1.38202">
        <ele>143</ele>
        <time>2023-07-05T10:08:48Z</time>
      </trkpt>
      <trkpt lat="43.6517" lon="1.38205">
        <ele>143</ele>
        <time>2023-07-05T10:08:49Z</time>
      </trkpt>
      <trkpt lat="43.6517" lon="1.38209">
        <ele>143</ele>
        <time>2023-07-05T10:08:50Z</time>
      </trkpt>
      <trkpt lat="43.6517" lon="1.38212">
        <ele>143</ele>
        <time>2023-07-05T10:08:51Z</time>
      </trkpt>
      <trkpt lat="43.6517" lon="1.38216">
        <ele>143</ele>
        <time>2023-07-05T10:08:52Z</time>
      </trkpt>
      <trkpt lat="43.6517" lon="1.38219">
        <ele>143</ele>
        <time>2023-07-05T10:08:53Z</time>
      </trkpt>
      <trkpt lat="43.6517" lon="1.38223">
        <ele>143</ele>
        <time>2023-07-05T10:08:54Z</time>
      </trkpt>
      <trkpt lat="43.6517" lon="1.38226">
        <ele>142</ele>
        <time>2023-07-05T10:08:55Z</time>
      </trkpt>
      <trkpt lat="43.65171" lon="1.3823">
        <ele>142</ele>
        <time>2023-07-05T10:08:56Z</time>
      </trkpt>
      <trkpt lat="43.65171" lon="1.38233">
        <ele>142</ele>
        <time>2023-07-05T10:08:57Z</time>
      </trkpt>
      <trkpt lat="43.65172" lon="1.38237">
        <ele>142</ele>
        <time>2023-07-05T10:08:58Z</time>
      </trkpt>
      <trkpt lat="43.65173" lon="1.3824">
        <ele>142</ele>
        <time>2023-07-05T10:08:59Z</time>
      </trkpt>
      <trkpt lat="43.65174" lon="1.38244">
        <ele>142</ele>
        <time>2023-07-05T10:09:00Z</time>
      </trkpt>
      <trkpt lat="43.65175" lon="1.38247">
        <ele>142</ele>
        <time>2023-07-05T10:09:01Z</time>
      </trkpt>
      <trkpt lat="43.65175" lon="1.3825">
        <ele>142</ele>
        <time>2023-07-05T10:09:02Z</time>
      </trkpt>
      <trkpt lat="43.65176" lon="1.38254">
        <ele>142</ele>
        <time>2023-07-05T10:09:03Z</time>
      </trkpt>
      <trkpt lat="43.65177" lon="1.38257">
        <ele>142</ele>
        <time>2023-07-05T10:09:04Z</time>
      </trkpt>
      <trkpt lat="43.65178" lon="1.3826">
        <ele>142</ele>
        <time>2023-07-05T10:09:05Z</time>
      </trkpt>
      <trkpt lat="43.65178" lon="1.38263">
        <ele>142</ele>
        <time>2023-07-05T10:09:06Z</time>
      </trkpt>
      <trkpt lat="43.65179" lon="1.38267">
        <ele>142</ele>
        <time>2023-07-05T10:09:07Z</time>
      </trkpt>
      <trkpt lat="43.6518" lon="1.3827">
        <ele>142</ele>
        <time>2023-07-05T10:09:08Z</time>
      </trkpt>
      <trkpt lat="43.6518" lon="1.38273">
        <ele>142</ele>
        <time>2023-07-05T10:09:09Z</time>
      </trkpt>
      <trkpt lat="43.65181" lon="1.38276">
        <ele>142</ele>
        <time>2023-07-05T10:09:10Z</time>
      </trkpt>
      <trkpt lat="43.65182" lon="1.3828">
        <ele>142</ele>
        <time>2023-07-05T10:09:11Z</time>
      </trkpt>
      <trkpt lat="43.65183" lon="1.38283">
        <ele>142</ele>
        <time>2023-07-05T10:09:12Z</time>
      </trkpt>
      <trkpt lat="43.65184" lon="1.38287">
        <ele>142</ele>
        <time>2023-07-05T10:09:13Z</time>
      </trkpt>
      <trkpt lat="43.65184" lon="1.3829">
        <ele>142</ele>
        <time>2023-07-05T10:09:14Z</time>
      </trkpt>
      <trkpt lat="43.65185" lon="1.38294">
        <ele>142</ele>
        <time>2023-07-05T10:09:15Z</time>
      </trkpt>
      <trkpt lat="43.65186" lon="1.38297">
        <ele>142</ele>
        <time>2023-07-05T10:09:16Z</time>
      </trkpt>
      <trkpt lat="43.65186" lon="1.38301">
        <ele>142</ele>
        <time>2023-07-05T10:09:17Z</time>
      </trkpt>
      <trkpt lat="43.65187" lon="1.38304">
        <ele>142</ele>
        <time>2023-07-05T10:09:18Z</time>
      </trkpt>
      <trkpt lat="43.65187" lon="1.38308">
        <ele>142</ele>
        <time>2023-07-05T10:09:19Z</time>
      </trkpt>
      <trkpt lat="43.65188" lon="1.38311">
        <ele>142</ele>
        <time>2023-07-05T10:09:20Z</time>
      </trkpt>
      <trkpt lat="43.65189" lon="1.38314">
        <ele>142</ele>
        <time>2023-07-05T10:09:21Z</time>
      </trkpt>
      <trkpt lat="43.65189" lon="1.38318">
        <ele>142</ele>
        <time>2023-07-05T10:09:22Z</time>
      </trkpt>
      <trkpt lat="43.6519" lon="1.38321">
        <ele>142</ele>
        <time>2023-07-05T10:09:23Z</time>
      </trkpt>
      <trkpt lat="43.65191" lon="1.38324">
        <ele>142</ele>
        <time>2023-07-05T10:09:24Z</time>
      </trkpt>
      <trkpt lat="43.65191" lon="1.38328">
        <ele>142</ele>
        <time>2023-07-05T10:09:25Z</time>
      </trkpt>
      <trkpt lat="43.65192" lon="1.38331">
        <ele>142</ele>
        <time>2023-07-05T10:09:26Z</time>
      </trkpt>
      <trkpt lat="43.65192" lon="1.38334">
        <ele>142</ele>
        <time>2023-07-05T10:09:27Z</time>
      </trkpt>
      <trkpt lat="43.65193" lon="1.38338">
        <ele>142</ele>
        <time>2023-07-05T10:09:28Z</time>
      </trkpt>
      <trkpt lat="43.65193" lon="1.38341">
        <ele>142</ele>
        <time>2023-07-05T10:09:29Z</time>
      </trkpt>
      <trkpt lat="43.65194" lon="1.38345">
        <ele>142</ele>
        <time>2023-07-05T10:09:30Z</time>
      </trkpt>
      <trkpt lat="43.65194" lon="1.38348">
        <ele>142</ele>
        <time>2023-07-05T10:09:31Z</time>
      </trkpt>
      <trkpt lat="43.65195" lon="1.38352">
        <ele>142</ele>
        <time>2023-07-05T10:09:32Z</time>
      </trkpt>
      <trkpt lat="43.65195" lon="1.38356">
        <ele>142</ele>
        <time>2023-07-05T10:09:33Z</time>
      </trkpt>
      <trkpt lat="43.65195" lon="1.38359">
        <ele>142</ele>
        <time>2023-07-05T10:09:34Z</time>
      </trkpt>
      <trkpt lat="43.65195" lon="1.38363">
        <ele>143</ele>
        <time>2023-07-05T10:09:35Z</time>
      </trkpt>
      <trkpt lat="43.65195" lon="1.38366">
        <ele>143</ele>
        <time>2023-07-05T10:09:36Z</time>
      </trkpt>
      <trkpt lat="43.65195" lon="1.3837">
        <ele>143</ele>
        <time>2023-07-05T10:09:37Z</time>
      </trkpt>
      <trkpt lat="43.65196" lon="1.38374">
        <ele>143</ele>
        <time>2023-07-05T10:09:38Z</time>
      </trkpt>
      <trkpt lat="43.65196" lon="1.38377">
        <ele>143</ele>
        <time>2023-07-05T10:09:39Z</time>
      </trkpt>
      <trkpt lat="43.65196" lon="1.3838">
        <ele>143</ele>
        <time>2023-07-05T10:09:40Z</time>
      </trkpt>
      <trkpt lat="43.65197" lon="1.38384">
        <ele>143</ele>
        <time>2023-07-05T10:09:41Z</time>
      </trkpt>
      <trkpt lat="43.65197" lon="1.38388">
        <ele>143</ele>
        <time>2023-07-05T10:09:42Z</time>
      </trkpt>
      <trkpt lat="43.65198" lon="1.38391">
        <ele>143</ele>
        <time>2023-07-05T10:09:43Z</time>
      </trkpt>
      <trkpt lat="43.65199" lon="1.38394">
        <ele>143</ele>
        <time>2023-07-05T10:09:44Z</time>
      </trkpt>
      <trkpt lat="43.65201" lon="1.38397">
        <ele>143</ele>
        <time>2023-07-05T10:09:45Z</time>
      </trkpt>
      <trkpt lat="43.65202" lon="1.384">
        <ele>142</ele>
        <time>2023-07-05T10:09:46Z</time>
      </trkpt>
      <trkpt lat="43.65204" lon="1.38402">
        <ele>142</ele>
        <time>2023-07-05T10:09:47Z</time>
      </trkpt>
      <trkpt lat="43.65206" lon="1.38405">
        <ele>142</ele>
        <time>2023-07-05T10:09:48Z</time>
      </trkpt>
      <trkpt lat="43.65208" lon="1.38408">
        <ele>142</ele>
        <time>2023-07-05T10:09:49Z</time>
      </trkpt>
      <trkpt lat="43.65209" lon="1.3841">
        <ele>142</ele>
        <time>2023-07-05T10:09:50Z</time>
      </trkpt>
      <trkpt lat="43.65211" lon="1.38413">
        <ele>142</ele>
        <time>2023-07-05T10:09:51Z</time>
      </trkpt>
      <trkpt lat="43.65213" lon="1.38416">
        <ele>141</ele>
        <time>2023-07-05T10:09:52Z</time>
      </trkpt>
      <trkpt lat="43.65214" lon="1.38419">
        <ele>141</ele>
        <time>2023-07-05T10:09:53Z</time>
      </trkpt>
      <trkpt lat="43.65215" lon="1.38422">
        <ele>141</ele>
        <time>2023-07-05T10:09:54Z</time>
      </trkpt>
      <trkpt lat="43.65216" lon="1.38425">
        <ele>141</ele>
        <time>2023-07-05T10:09:55Z</time>
      </trkpt>
      <trkpt lat="43.65218" lon="1.38428">
        <ele>141</ele>
        <time>2023-07-05T10:09:56Z</time>
      </trkpt>
      <trkpt lat="43.65219" lon="1.38431">
        <ele>140</ele>
        <time>2023-07-05T10:09:57Z</time>
      </trkpt>
      <trkpt lat="43.65219" lon="1.38434">
        <ele>140</ele>
        <time>2023-07-05T10:09:58Z</time>
      </trkpt>
      <trkpt lat="43.6522" lon="1.38437">
        <ele>140</ele>
        <time>2023-07-05T10:09:59Z</time>
      </trkpt>
      <trkpt lat="43.65221" lon="1.38441">
        <ele>140</ele>
        <time>2023-07-05T10:10:00Z</time>
      </trkpt>
      <trkpt lat="43.65222" lon="1.38444">
        <ele>140</ele>
        <time>2023-07-05T10:10:01Z</time>
      </trkpt>
      <trkpt lat="43.65223" lon="1.38447">
        <ele>140</ele>
        <time>2023-07-05T10:10:02Z</time>
      </trkpt>
      <trkpt lat="43.65224" lon="1.3845">
        <ele>140</ele>
        <time>2023-07-05T10:10:03Z</time>
      </trkpt>
      <trkpt lat="43.65225" lon="1.38453">
        <ele>140</ele>
        <time>2023-07-05T10:10:04Z</time>
      </trkpt>
      <trkpt lat="43.65226" lon="1.38456">
        <ele>140</ele>
        <time>2023-07-05T10:10:05Z</time>
      </trkpt>
      <trkpt lat="43.65227" lon="1.38458">
        <ele>140</ele>
        <time>2023-07-05T10:10:06Z</time>
      </trkpt>
      <trkpt lat="43.65227" lon="1.38458">
        <ele>140</ele>
        <time>2023-07-05T10:10:07Z</time>
      </trkpt>
      <trkpt lat="43.65228" lon="1.38463">
        <ele>140</ele>
        <time>2023-07-05T10:10:08Z</time>
      </trkpt>
      <trkpt lat="43.65229" lon="1.38466">
        <ele>140</ele>
        <time>2023-07-05T10:10:09Z</time>
      </trkpt>
      <trkpt lat="43.6523" lon="1.38469">
        <ele>140</ele>
        <time>2023-07-05T10:10:10Z</time>
      </trkpt>
      <trkpt lat="43.65231" lon="1.38472">
        <ele>140</ele>
        <time>2023-07-05T10:10:11Z</time>
      </trkpt>
      <trkpt lat="43.65231" lon="1.38475">
        <ele>140</ele>
        <time>2023-07-05T10:10:12Z</time>
      </trkpt>
      <trkpt lat="43.65232" lon="1.38478">
        <ele>140</ele>
        <time>2023-07-05T10:10:13Z</time>
      </trkpt>
      <trkpt lat="43.65233" lon="1.38481">
        <ele>140</ele>
        <time>2023-07-05T10:10:14Z</time>
      </trkpt>
      <trkpt lat="43.65234" lon="1.38484">
        <ele>140</ele>
        <time>2023-07-05T10:10:15Z</time>
      </trkpt>
      <trkpt lat="43.65234" lon="1.38486">
        <ele>140</ele>
        <time>2023-07-05T10:10:16Z</time>
      </trkpt>
      <trkpt lat="43.65234" lon="1.38489">
        <ele>140</ele>
        <time>2023-07-05T10:10:17Z</time>
      </trkpt>
      <trkpt lat="43.65235" lon="1.38492">
        <ele>140</ele>
        <time>2023-07-05T10:10:18Z</time>
      </trkpt>
      <trkpt lat="43.65236" lon="1.38496">
        <ele>140</ele>
        <time>2023-07-05T10:10:19Z</time>
      </trkpt>
      <trkpt lat="43.65237" lon="1.385">
        <ele>140</ele>
        <time>2023-07-05T10:10:20Z</time>
      </trkpt>
      <trkpt lat="43.65238" lon="1.38504">
        <ele>140</ele>
        <time>2023-07-05T10:10:21Z</time>
      </trkpt>
      <trkpt lat="43.65239" lon="1.38507">
        <ele>140</ele>
        <time>2023-07-05T10:10:22Z</time>
      </trkpt>
      <trkpt lat="43.6524" lon="1.38511">
        <ele>140</ele>
        <time>2023-07-05T10:10:23Z</time>
      </trkpt>
      <trkpt lat="43.65242" lon="1.38514">
        <ele>141</ele>
        <time>2023-07-05T10:10:24Z</time>
      </trkpt>
      <trkpt lat="43.65243" lon="1.38517">
        <ele>141</ele>
        <time>2023-07-05T10:10:25Z</time>
      </trkpt>
      <trkpt lat="43.65244" lon="1.38521">
        <ele>141</ele>
        <time>2023-07-05T10:10:26Z</time>
      </trkpt>
      <trkpt lat="43.65246" lon="1.38524">
        <ele>141</ele>
        <time>2023-07-05T10:10:27Z</time>
      </trkpt>
      <trkpt lat="43.65247" lon="1.38527">
        <ele>141</ele>
        <time>2023-07-05T10:10:28Z</time>
      </trkpt>
      <trkpt lat="43.65247" lon="1.38527">
        <ele>141</ele>
        <time>2023-07-05T10:10:29Z</time>
      </trkpt>
      <trkpt lat="43.65251" lon="1.38534">
        <ele>141</ele>
        <time>2023-07-05T10:10:30Z</time>
      </trkpt>
      <trkpt lat="43.65251" lon="1.38536">
        <ele>141</ele>
        <time>2023-07-05T10:10:31Z</time>
      </trkpt>
      <trkpt lat="43.65252" lon="1.38538">
        <ele>141</ele>
        <time>2023-07-05T10:10:32Z</time>
      </trkpt>
      <trkpt lat="43.65252" lon="1.38541">
        <ele>140</ele>
        <time>2023-07-05T10:10:33Z</time>
      </trkpt>
      <trkpt lat="43.65252" lon="1.38544">
        <ele>140</ele>
        <time>2023-07-05T10:10:34Z</time>
      </trkpt>
      <trkpt lat="43.65253" lon="1.38547">
        <ele>140</ele>
        <time>2023-07-05T10:10:35Z</time>
      </trkpt>
      <trkpt lat="43.65254" lon="1.38549">
        <ele>140</ele>
        <time>2023-07-05T10:10:36Z</time>
      </trkpt>
      <trkpt lat="43.65255" lon="1.38552">
        <ele>140</ele>
        <time>2023-07-05T10:10:37Z</time>
      </trkpt>
      <trkpt lat="43.65256" lon="1.38555">
        <ele>140</ele>
        <time>2023-07-05T10:10:38Z</time>
      </trkpt>
      <trkpt lat="43.65257" lon="1.38559">
        <ele>140</ele>
        <time>2023-07-05T10:10:39Z</time>
      </trkpt>
      <trkpt lat="43.65258" lon="1.38561">
        <ele>140</ele>
        <time>2023-07-05T10:10:40Z</time>
      </trkpt>
      <trkpt lat="43.65259" lon="1.38564">
        <ele>140</ele>
        <time>2023-07-05T10:10:41Z</time>
      </trkpt>
      <trkpt lat="43.6526" lon="1.38567">
        <ele>140</ele>
        <time>2023-07-05T10:10:42Z</time>
      </trkpt>
      <trkpt lat="43.65261" lon="1.3857">
        <ele>139</ele>
        <time>2023-07-05T10:10:43Z</time>
      </trkpt>
      <trkpt lat="43.65261" lon="1.38573">
        <ele>140</ele>
        <time>2023-07-05T10:10:44Z</time>
      </trkpt>
      <trkpt lat="43.65262" lon="1.38577">
        <ele>140</ele>
        <time>2023-07-05T10:10:45Z</time>
      </trkpt>
      <trkpt lat="43.65263" lon="1.38579">
        <ele>140</ele>
        <time>2023-07-05T10:10:46Z</time>
      </trkpt>
      <trkpt lat="43.65264" lon="1.38582">
        <ele>140</ele>
        <time>2023-07-05T10:10:47Z</time>
      </trkpt>
      <trkpt lat="43.65265" lon="1.38585">
        <ele>140</ele>
        <time>2023-07-05T10:10:48Z</time>
      </trkpt>
      <trkpt lat="43.65266" lon="1.38588">
        <ele>140</ele>
        <time>2023-07-05T10:10:49Z</time>
      </trkpt>
      <trkpt lat="43.65267" lon="1.38592">
        <ele>140</ele>
        <time>2023-07-05T10:10:50Z</time>
      </trkpt>
      <trkpt lat="43.65268" lon="1.38596">
        <ele>140</ele>
        <time>2023-07-05T10:10:51Z</time>
      </trkpt>
      <trkpt lat="43.65269" lon="1.38599">
        <ele>140</ele>
        <time>2023-07-05T10:10:52Z</time>
      </trkpt>
      <trkpt lat="43.65271" lon="1.38602">
        <ele>140</ele>
        <time>2023-07-05T10:10:53Z</time>
      </trkpt>
      <trkpt lat="43.65272" lon="1.38605">
        <ele>140</ele>
        <time>2023-07-05T10:10:54Z</time>
      </trkpt>
      <trkpt lat="43.65274" lon="1.38608">
        <ele>140</ele>
        <time>2023-07-05T10:10:55Z</time>
      </trkpt>
      <trkpt lat="43.65276" lon="1.38611">
        <ele>140</ele>
        <time>2023-07-05T10:10:56Z</time>
      </trkpt>
      <trkpt lat="43.65278" lon="1.38614">
        <ele>140</ele>
        <time>2023-07-05T10:10:57Z</time>
      </trkpt>
      <trkpt lat="43.6528" lon="1.38616">
        <ele>140</ele>
        <time>2023-07-05T10:10:58Z</time>
      </trkpt>
      <trkpt lat="43.65282" lon="1.38619">
        <ele>140</ele>
        <time>2023-07-05T10:10:59Z</time>
      </trkpt>
      <trkpt lat="43.65284" lon="1.38621">
        <ele>140</ele>
        <time>2023-07-05T10:11:00Z</time>
      </trkpt>
      <trkpt lat="43.65286" lon="1.38624">
        <ele>141</ele>
        <time>2023-07-05T10:11:01Z</time>
      </trkpt>
      <trkpt lat="43.65287" lon="1.38627">
        <ele>141</ele>
        <time>2023-07-05T10:11:02Z</time>
      </trkpt>
      <trkpt lat="43.65289" lon="1.38629">
        <ele>141</ele>
        <time>2023-07-05T10:11:03Z</time>
      </trkpt>
      <trkpt lat="43.65289" lon="1.38629">
        <ele>141</ele>
        <time>2023-07-05T10:11:04Z</time>
      </trkpt>
      <trkpt lat="43.6529" lon="1.38634">
        <ele>141</ele>
        <time>2023-07-05T10:11:05Z</time>
      </trkpt>
      <trkpt lat="43.65292" lon="1.38639">
        <ele>141</ele>
        <time>2023-07-05T10:11:06Z</time>
      </trkpt>
      <trkpt lat="43.65293" lon="1.38643">
        <ele>141</ele>
        <time>2023-07-05T10:11:07Z</time>
      </trkpt>
      <trkpt lat="43.65295" lon="1.38647">
        <ele>141</ele>
        <time>2023-07-05T10:11:08Z</time>
      </trkpt>
      <trkpt lat="43.65296" lon="1.38651">
        <ele>141</ele>
        <time>2023-07-05T10:11:09Z</time>
      </trkpt>
      <trkpt lat="43.65298" lon="1.38654">
        <ele>141</ele>
        <time>2023-07-05T10:11:10Z</time>
      </trkpt>
      <trkpt lat="43.653" lon="1.38658">
        <ele>141</ele>
        <time>2023-07-05T10:11:11Z</time>
      </trkpt>
      <trkpt lat="43.65302" lon="1.38661">
        <ele>141</ele>
        <time>2023-07-05T10:11:12Z</time>
      </trkpt>
      <trkpt lat="43.65303" lon="1.38665">
        <ele>141</ele>
        <time>2023-07-05T10:11:13Z</time>
      </trkpt>
      <trkpt lat="43.65303" lon="1.38667">
        <ele>141</ele>
        <time>2023-07-05T10:11:14Z</time>
      </trkpt>
      <trkpt lat="43.65303" lon="1.3867">
        <ele>140</ele>
        <time>2023-07-05T10:11:15Z</time>
      </trkpt>
      <trkpt lat="43.65304" lon="1.38673">
        <ele>140</ele>
        <time>2023-07-05T10:11:16Z</time>
      </trkpt>
      <trkpt lat="43.65304" lon="1.38676">
        <ele>140</ele>
        <time>2023-07-05T10:11:17Z</time>
      </trkpt>
      <trkpt lat="43.65305" lon="1.38679">
        <ele>140</ele>
        <time>2023-07-05T10:11:18Z</time>
      </trkpt>
      <trkpt lat="43.65306" lon="1.38682">
        <ele>140</ele>
        <time>2023-07-05T10:11:19Z</time>
      </trkpt>
      <trkpt lat="43.65307" lon="1.38685">
        <ele>140</ele>
        <time>2023-07-05T10:11:20Z</time>
      </trkpt>
      <trkpt lat="43.65307" lon="1.38688">
        <ele>140</ele>
        <time>2023-07-05T10:11:21Z</time>
      </trkpt>
      <trkpt lat="43.65308" lon="1.38691">
        <ele>140</ele>
        <time>2023-07-05T10:11:22Z</time>
      </trkpt>
      <trkpt lat="43.65309" lon="1.38694">
        <ele>140</ele>
        <time>2023-07-05T10:11:23Z</time>
      </trkpt>
      <trkpt lat="43.65309" lon="1.38694">
        <ele>140</ele>
        <time>2023-07-05T10:11:24Z</time>
      </trkpt>
      <trkpt lat="43.6531" lon="1.38699">
        <ele>140</ele>
        <time>2023-07-05T10:11:25Z</time>
      </trkpt>
      <trkpt lat="43.6531" lon="1.38699">
        <ele>140</ele>
        <time>2023-07-05T10:11:26Z</time>
      </trkpt>
      <trkpt lat="43.65311" lon="1.38707">
        <ele>140</ele>
        <time>2023-07-05T10:11:27Z</time>
      </trkpt>
      <trkpt lat="43.65311" lon="1.38709">
        <ele>140</ele>
        <time>2023-07-05T10:11:28Z</time>
      </trkpt>
      <trkpt lat="43.65311" lon="1.38712">
        <ele>140</ele>
        <time>2023-07-05T10:11:29Z</time>
      </trkpt>
      <trkpt lat="43.65311" lon="1.38715">
        <ele>140</ele>
        <time>2023-07-05T10:11:30Z</time>
      </trkpt>
      <trkpt lat="43.65312" lon="1.38718">
        <ele>140</ele>
        <time>2023-07-05T10:11:31Z</time>
      </trkpt>
      <trkpt lat="43.65313" lon="1.38722">
        <ele>140</ele>
        <time>2023-07-05T10:11:32Z</time>
      </trkpt>
      <trkpt lat="43.65313" lon="1.38726">
        <ele>140</ele>
        <time>2023-07-05T10:11:33Z</time>
      </trkpt>
      <trkpt lat="43.65314" lon="1.3873">
        <ele>140</ele>
        <time>2023-07-05T10:11:34Z</time>
      </trkpt>
      <trkpt lat="43.65315" lon="1.38733">
        <ele>140</ele>
        <time>2023-07-05T10:11:35Z</time>
      </trkpt>
      <trkpt lat="43.65316" lon="1.38737">
        <ele>140</ele>
        <time>2023-07-05T10:11:36Z</time>
      </trkpt>
      <trkpt lat="43.65316" lon="1.3874">
        <ele>140</ele>
        <time>2023-07-05T10:11:37Z</time>
      </trkpt>
      <trkpt lat="43.65317" lon="1.38744">
        <ele>140</ele>
        <time>2023-07-05T10:11:38Z</time>
      </trkpt>
      <trkpt lat="43.65319" lon="1.38747">
        <ele>141</ele>
        <time>2023-07-05T10:11:39Z</time>
      </trkpt>
      <trkpt lat="43.6532" lon="1.38751">
        <ele>141</ele>
        <time>2023-07-05T10:11:40Z</time>
      </trkpt>
      <trkpt lat="43.6532" lon="1.38751">
        <ele>141</ele>
        <time>2023-07-05T10:11:41Z</time>
      </trkpt>
      <trkpt lat="43.65321" lon="1.38756">
        <ele>141</ele>
        <time>2023-07-05T10:11:42Z</time>
      </trkpt>
      <trkpt lat="43.65322" lon="1.3876">
        <ele>141</ele>
        <time>2023-07-05T10:11:43Z</time>
      </trkpt>
      <trkpt lat="43.65323" lon="1.38764">
        <ele>142</ele>
        <time>2023-07-05T10:11:44Z</time>
      </trkpt>
      <trkpt lat="43.65324" lon="1.38768">
        <ele>142</ele>
        <time>2023-07-05T10:11:45Z</time>
      </trkpt>
      <trkpt lat="43.65325" lon="1.38772">
        <ele>142</ele>
        <time>2023-07-05T10:11:46Z</time>
      </trkpt>
      <trkpt lat="43.65326" lon="1.38775">
        <ele>142</ele>
        <time>2023-07-05T10:11:47Z</time>
      </trkpt>
      <trkpt lat="43.65328" lon="1.38777">
        <ele>142</ele>
        <time>2023-07-05T10:11:48Z</time>
      </trkpt>
      <trkpt lat="43.65329" lon="1.3878">
        <ele>142</ele>
        <time>2023-07-05T10:11:49Z</time>
      </trkpt>
      <trkpt lat="43.65329" lon="1.3878">
        <ele>142</ele>
        <time>2023-07-05T10:11:50Z</time>
      </trkpt>
      <trkpt lat="43.6533" lon="1.38783">
        <ele>142</ele>
        <time>2023-07-05T10:11:51Z</time>
      </trkpt>
      <trkpt lat="43.65331" lon="1.38786">
        <ele>142</ele>
        <time>2023-07-05T10:11:52Z</time>
      </trkpt>
      <trkpt lat="43.65333" lon="1.38789">
        <ele>142</ele>
        <time>2023-07-05T10:11:53Z</time>
      </trkpt>
      <trkpt lat="43.65334" lon="1.38792">
        <ele>141</ele>
        <time>2023-07-05T10:11:54Z</time>
      </trkpt>
      <trkpt lat="43.65336" lon="1.38796">
        <ele>141</ele>
        <time>2023-07-05T10:11:55Z</time>
      </trkpt>
      <trkpt lat="43.65337" lon="1.388">
        <ele>141</ele>
        <time>2023-07-05T10:11:56Z</time>
      </trkpt>
      <trkpt lat="43.65339" lon="1.38804">
        <ele>142</ele>
        <time>2023-07-05T10:11:57Z</time>
      </trkpt>
      <trkpt lat="43.65341" lon="1.38808">
        <ele>142</ele>
        <time>2023-07-05T10:11:58Z</time>
      </trkpt>
      <trkpt lat="43.65343" lon="1.38811">
        <ele>142</ele>
        <time>2023-07-05T10:11:59Z</time>
      </trkpt>
      <trkpt lat="43.65345" lon="1.38815">
        <ele>142</ele>
        <time>2023-07-05T10:12:00Z</time>
      </trkpt>
      <trkpt lat="43.65347" lon="1.38819">
        <ele>142</ele>
        <time>2023-07-05T10:12:01Z</time>
      </trkpt>
      <trkpt lat="43.65349" lon="1.38822">
        <ele>142</ele>
        <time>2023-07-05T10:12:02Z</time>
      </trkpt>
      <trkpt lat="43.65351" lon="1.38825">
        <ele>142</ele>
        <time>2023-07-05T10:12:03Z</time>
      </trkpt>
      <trkpt lat="43.65352" lon="1.38827">
        <ele>142</ele>
        <time>2023-07-05T10:12:04Z</time>
      </trkpt>
      <trkpt lat="43.65353" lon="1.3883">
        <ele>141</ele>
        <time>2023-07-05T10:12:05Z</time>
      </trkpt>
      <trkpt lat="43.65355" lon="1.38832">
        <ele>141</ele>
        <time>2023-07-05T10:12:06Z</time>
      </trkpt>
      <trkpt lat="43.65356" lon="1.38835">
        <ele>141</ele>
        <time>2023-07-05T10:12:07Z</time>
      </trkpt>
      <trkpt lat="43.65358" lon="1.38837">
        <ele>141</ele>
        <time>2023-07-05T10:12:08Z</time>
      </trkpt>
      <trkpt lat="43.65359" lon="1.38839">
        <ele>141</ele>
        <time>2023-07-05T10:12:09Z</time>
      </trkpt>
      <trkpt lat="43.65361" lon="1.38841">
        <ele>141</ele>
        <time>2023-07-05T10:12:10Z</time>
      </trkpt>
      <trkpt lat="43.65363" lon="1.38843">
        <ele>141</ele>
        <time>2023-07-05T10:12:11Z</time>
      </trkpt>
      <trkpt lat="43.65365" lon="1.38845">
        <ele>141</ele>
        <time>2023-07-05T10:12:12Z</time>
      </trkpt>
      <trkpt lat="43.65365" lon="1.38845">
        <ele>141</ele>
        <time>2023-07-05T10:12:13Z</time>
      </trkpt>
      <trkpt lat="43.65371" lon="1.38846">
        <ele>141</ele>
        <time>2023-07-05T10:12:14Z</time>
      </trkpt>
      <trkpt lat="43.65372" lon="1.38846">
        <ele>141</ele>
        <time>2023-07-05T10:12:15Z</time>
      </trkpt>
      <trkpt lat="43.65374" lon="1.38847">
        <ele>140</ele>
        <time>2023-07-05T10:12:16Z</time>
      </trkpt>
      <trkpt lat="43.65376" lon="1.38848">
        <ele>140</ele>
        <time>2023-07-05T10:12:17Z</time>
      </trkpt>
      <trkpt lat="43.65379" lon="1.38848">
        <ele>140</ele>
        <time>2023-07-05T10:12:18Z</time>
      </trkpt>
      <trkpt lat="43.65381" lon="1.38849">
        <ele>140</ele>
        <time>2023-07-05T10:12:19Z</time>
      </trkpt>
      <trkpt lat="43.65384" lon="1.38849">
        <ele>140</ele>
        <time>2023-07-05T10:12:20Z</time>
      </trkpt>
      <trkpt lat="43.65387" lon="1.38849">
        <ele>140</ele>
        <time>2023-07-05T10:12:21Z</time>
      </trkpt>
      <trkpt lat="43.6539" lon="1.38848">
        <ele>139</ele>
        <time>2023-07-05T10:12:22Z</time>
      </trkpt>
      <trkpt lat="43.65392" lon="1.38848">
        <ele>139</ele>
        <time>2023-07-05T10:12:23Z</time>
      </trkpt>
      <trkpt lat="43.65394" lon="1.38848">
        <ele>139</ele>
        <time>2023-07-05T10:12:24Z</time>
      </trkpt>
      <trkpt lat="43.65398" lon="1.38848">
        <ele>140</ele>
        <time>2023-07-05T10:12:25Z</time>
      </trkpt>
      <trkpt lat="43.654" lon="1.38849">
        <ele>140</ele>
        <time>2023-07-05T10:12:26Z</time>
      </trkpt>
      <trkpt lat="43.65402" lon="1.3885">
        <ele>140</ele>
        <time>2023-07-05T10:12:27Z</time>
      </trkpt>
      <trkpt lat="43.65404" lon="1.38853">
        <ele>140</ele>
        <time>2023-07-05T10:12:28Z</time>
      </trkpt>
      <trkpt lat="43.65406" lon="1.38856">
        <ele>140</ele>
        <time>2023-07-05T10:12:29Z</time>
      </trkpt>
      <trkpt lat="43.65407" lon="1.38859">
        <ele>140</ele>
        <time>2023-07-05T10:12:30Z</time>
      </trkpt>
      <trkpt lat="43.65409" lon="1.38863">
        <ele>140</ele>
        <time>2023-07-05T10:12:31Z</time>
      </trkpt>
      <trkpt lat="43.65409" lon="1.38863">
        <ele>139</ele>
        <time>2023-07-05T10:12:32Z</time>
      </trkpt>
      <trkpt lat="43.65412" lon="1.3887">
        <ele>139</ele>
        <time>2023-07-05T10:12:33Z</time>
      </trkpt>
      <trkpt lat="43.65413" lon="1.38873">
        <ele>139</ele>
        <time>2023-07-05T10:12:34Z</time>
      </trkpt>
      <trkpt lat="43.65414" lon="1.38876">
        <ele>138</ele>
        <time>2023-07-05T10:12:35Z</time>
      </trkpt>
      <trkpt lat="43.65414" lon="1.38876">
        <ele>137</ele>
        <time>2023-07-05T10:12:36Z</time>
      </trkpt>
      <trkpt lat="43.65416" lon="1.38879">
        <ele>137</ele>
        <time>2023-07-05T10:12:37Z</time>
      </trkpt>
      <trkpt lat="43.65418" lon="1.38882">
        <ele>137</ele>
        <time>2023-07-05T10:12:38Z</time>
      </trkpt>
      <trkpt lat="43.65419" lon="1.38886">
        <ele>137</ele>
        <time>2023-07-05T10:12:39Z</time>
      </trkpt>
      <trkpt lat="43.65421" lon="1.38889">
        <ele>136</ele>
        <time>2023-07-05T10:12:40Z</time>
      </trkpt>
      <trkpt lat="43.65422" lon="1.38891">
        <ele>136</ele>
        <time>2023-07-05T10:12:41Z</time>
      </trkpt>
      <trkpt lat="43.65424" lon="1.38894">
        <ele>136</ele>
        <time>2023-07-05T10:12:42Z</time>
      </trkpt>
      <trkpt lat="43.65425" lon="1.38897">
        <ele>136</ele>
        <time>2023-07-05T10:12:43Z</time>
      </trkpt>
      <trkpt lat="43.6543" lon="1.38903">
        <ele>136</ele>
        <time>2023-07-05T10:12:44Z</time>
      </trkpt>
      <trkpt lat="43.65431" lon="1.38904">
        <ele>135</ele>
        <time>2023-07-05T10:12:45Z</time>
      </trkpt>
      <trkpt lat="43.65431" lon="1.38904">
        <ele>135</ele>
        <time>2023-07-05T10:12:46Z</time>
      </trkpt>
      <trkpt lat="43.65433" lon="1.38907">
        <ele>135</ele>
        <time>2023-07-05T10:12:47Z</time>
      </trkpt>
      <trkpt lat="43.65434" lon="1.3891">
        <ele>135</ele>
        <time>2023-07-05T10:12:48Z</time>
      </trkpt>
      <trkpt lat="43.65435" lon="1.38913">
        <ele>135</ele>
        <time>2023-07-05T10:12:49Z</time>
      </trkpt>
      <trkpt lat="43.65437" lon="1.38916">
        <ele>135</ele>
        <time>2023-07-05T10:12:50Z</time>
      </trkpt>
      <trkpt lat="43.65441" lon="1.38922">
        <ele>135</ele>
        <time>2023-07-05T10:12:51Z</time>
      </trkpt>
      <trkpt lat="43.65441" lon="1.38924">
        <ele>134</ele>
        <time>2023-07-05T10:12:52Z</time>
      </trkpt>
      <trkpt lat="43.65442" lon="1.38927">
        <ele>133</ele>
        <time>2023-07-05T10:12:53Z</time>
      </trkpt>
      <trkpt lat="43.65444" lon="1.3893">
        <ele>133</ele>
        <time>2023-07-05T10:12:54Z</time>
      </trkpt>
      <trkpt lat="43.65444" lon="1.3893">
        <ele>132</ele>
        <time>2023-07-05T10:12:55Z</time>
      </trkpt>
      <trkpt lat="43.65449" lon="1.38938">
        <ele>132</ele>
        <time>2023-07-05T10:12:56Z</time>
      </trkpt>
      <trkpt lat="43.65449" lon="1.3894">
        <ele>131</ele>
        <time>2023-07-05T10:12:57Z</time>
      </trkpt>
      <trkpt lat="43.65452" lon="1.38945">
        <ele>130</ele>
        <time>2023-07-05T10:12:58Z</time>
      </trkpt>
      <trkpt lat="43.65452" lon="1.38945">
        <ele>129</ele>
        <time>2023-07-05T10:12:59Z</time>
      </trkpt>
      <trkpt lat="43.65458" lon="1.38954">
        <ele>129</ele>
        <time>2023-07-05T10:13:00Z</time>
      </trkpt>
      <trkpt lat="43.65459" lon="1.38955">
        <ele>129</ele>
        <time>2023-07-05T10:13:01Z</time>
      </trkpt>
      <trkpt lat="43.65461" lon="1.38959">
        <ele>129</ele>
        <time>2023-07-05T10:13:02Z</time>
      </trkpt>
      <trkpt lat="43.65463" lon="1.38962">
        <ele>129</ele>
        <time>2023-07-05T10:13:03Z</time>
      </trkpt>
      <trkpt lat="43.65463" lon="1.38962">
        <ele>129</ele>
        <time>2023-07-05T10:13:04Z</time>
      </trkpt>
      <trkpt lat="43.65466" lon="1.38972">
        <ele>129</ele>
        <time>2023-07-05T10:13:05Z</time>
      </trkpt>
      <trkpt lat="43.65466" lon="1.38974">
        <ele>129</ele>
        <time>2023-07-05T10:13:06Z</time>
      </trkpt>
      <trkpt lat="43.65466" lon="1.38974">
        <ele>129</ele>
        <time>2023-07-05T10:13:07Z</time>
      </trkpt>
      <trkpt lat="43.65469" lon="1.38983">
        <ele>129</ele>
        <time>2023-07-05T10:13:08Z</time>
      </trkpt>
      <trkpt lat="43.65469" lon="1.38985">
        <ele>129</ele>
        <time>2023-07-05T10:13:09Z</time>
      </trkpt>
      <trkpt lat="43.65471" lon="1.38988">
        <ele>129</ele>
        <time>2023-07-05T10:13:10Z</time>
      </trkpt>
      <trkpt lat="43.65473" lon="1.3899">
        <ele>129</ele>
        <time>2023-07-05T10:13:11Z</time>
      </trkpt>
      <trkpt lat="43.65474" lon="1.38992">
        <ele>129</ele>
        <time>2023-07-05T10:13:12Z</time>
      </trkpt>
      <trkpt lat="43.65475" lon="1.38995">
        <ele>129</ele>
        <time>2023-07-05T10:13:13Z</time>
      </trkpt>
      <trkpt lat="43.65478" lon="1.38997">
        <ele>129</ele>
        <time>2023-07-05T10:13:14Z</time>
      </trkpt>
      <trkpt lat="43.65479" lon="1.38999">
        <ele>129</ele>
        <time>2023-07-05T10:13:15Z</time>
      </trkpt>
      <trkpt lat="43.65481" lon="1.39001">
        <ele>129</ele>
        <time>2023-07-05T10:13:16Z</time>
      </trkpt>
      <trkpt lat="43.65483" lon="1.39004">
        <ele>129</ele>
        <time>2023-07-05T10:13:17Z</time>
      </trkpt>
      <trkpt lat="43.65485" lon="1.39005">
        <ele>129</ele>
        <time>2023-07-05T10:13:18Z</time>
      </trkpt>
      <trkpt lat="43.65488" lon="1.39007">
        <ele>129</ele>
        <time>2023-07-05T10:13:19Z</time>
      </trkpt>
      <trkpt lat="43.6549" lon="1.39009">
        <ele>129</ele>
        <time>2023-07-05T10:13:20Z</time>
      </trkpt>
      <trkpt lat="43.65493" lon="1.39011">
        <ele>129</ele>
        <time>2023-07-05T10:13:21Z</time>
      </trkpt>
      <trkpt lat="43.65495" lon="1.39012">
        <ele>128</ele>
        <time>2023-07-05T10:13:22Z</time>
      </trkpt>
      <trkpt lat="43.65497" lon="1.39013">
        <ele>128</ele>
        <time>2023-07-05T10:13:23Z</time>
      </trkpt>
      <trkpt lat="43.65499" lon="1.39014">
        <ele>128</ele>
        <time>2023-07-05T10:13:24Z</time>
      </trkpt>
      <trkpt lat="43.65501" lon="1.39016">
        <ele>127</ele>
        <time>2023-07-05T10:13:25Z</time>
      </trkpt>
      <trkpt lat="43.65504" lon="1.39017">
        <ele>127</ele>
        <time>2023-07-05T10:13:26Z</time>
      </trkpt>
      <trkpt lat="43.65507" lon="1.39017">
        <ele>128</ele>
        <time>2023-07-05T10:13:27Z</time>
      </trkpt>
      <trkpt lat="43.65509" lon="1.39018">
        <ele>128</ele>
        <time>2023-07-05T10:13:28Z</time>
      </trkpt>
      <trkpt lat="43.65511" lon="1.39019">
        <ele>128</ele>
        <time>2023-07-05T10:13:29Z</time>
      </trkpt>
      <trkpt lat="43.65514" lon="1.3902">
        <ele>128</ele>
        <time>2023-07-05T10:13:30Z</time>
      </trkpt>
      <trkpt lat="43.65516" lon="1.39021">
        <ele>128</ele>
        <time>2023-07-05T10:13:31Z</time>
      </trkpt>
      <trkpt lat="43.65519" lon="1.39024">
        <ele>127</ele>
        <time>2023-07-05T10:13:32Z</time>
      </trkpt>
      <trkpt lat="43.65521" lon="1.39026">
        <ele>126</ele>
        <time>2023-07-05T10:13:33Z</time>
      </trkpt>
      <trkpt lat="43.65524" lon="1.39027">
        <ele>127</ele>
        <time>2023-07-05T10:13:34Z</time>
      </trkpt>
      <trkpt lat="43.65526" lon="1.39028">
        <ele>127</ele>
        <time>2023-07-05T10:13:35Z</time>
      </trkpt>
      <trkpt lat="43.65529" lon="1.3903">
        <ele>127</ele>
        <time>2023-07-05T10:13:36Z</time>
      </trkpt>
      <trkpt lat="43.65531" lon="1.39032">
        <ele>127</ele>
        <time>2023-07-05T10:13:37Z</time>
      </trkpt>
      <trkpt lat="43.65534" lon="1.39034">
        <ele>127</ele>
        <time>2023-07-05T10:13:38Z</time>
      </trkpt>
      <trkpt lat="43.65536" lon="1.39036">
        <ele>128</ele>
        <time>2023-07-05T10:13:39Z</time>
      </trkpt>
      <trkpt lat="43.65538" lon="1.39037">
        <ele>128</ele>
        <time>2023-07-05T10:13:40Z</time>
      </trkpt>
      <trkpt lat="43.6554" lon="1.39039">
        <ele>127</ele>
        <time>2023-07-05T10:13:41Z</time>
      </trkpt>
      <trkpt lat="43.65543" lon="1.3904">
        <ele>127</ele>
        <time>2023-07-05T10:13:42Z</time>
      </trkpt>
      <trkpt lat="43.65545" lon="1.39042">
        <ele>127</ele>
        <time>2023-07-05T10:13:43Z</time>
      </trkpt>
      <trkpt lat="43.65548" lon="1.39043">
        <ele>127</ele>
        <time>2023-07-05T10:13:44Z</time>
      </trkpt>
      <trkpt lat="43.6555" lon="1.39045">
        <ele>127</ele>
        <time>2023-07-05T10:13:45Z</time>
      </trkpt>
      <trkpt lat="43.65553" lon="1.39047">
        <ele>126</ele>
        <time>2023-07-05T10:13:46Z</time>
      </trkpt>
      <trkpt lat="43.65554" lon="1.39049">
        <ele>126</ele>
        <time>2023-07-05T10:13:47Z</time>
      </trkpt>
      <trkpt lat="43.65557" lon="1.39051">
        <ele>126</ele>
        <time>2023-07-05T10:13:48Z</time>
      </trkpt>
      <trkpt lat="43.65559" lon="1.39053">
        <ele>126</ele>
        <time>2023-07-05T10:13:49Z</time>
      </trkpt>
      <trkpt lat="43.65562" lon="1.39055">
        <ele>126</ele>
        <time>2023-07-05T10:13:50Z</time>
      </trkpt>
      <trkpt lat="43.65564" lon="1.39057">
        <ele>126</ele>
        <time>2023-07-05T10:13:51Z</time>
      </trkpt>
      <trkpt lat="43.65566" lon="1.39059">
        <ele>126</ele>
        <time>2023-07-05T10:13:52Z</time>
      </trkpt>
      <trkpt lat="43.65569" lon="1.39061">
        <ele>126</ele>
        <time>2023-07-05T10:13:53Z</time>
      </trkpt>
      <trkpt lat="43.65572" lon="1.39062">
        <ele>126</ele>
        <time>2023-07-05T10:13:54Z</time>
      </trkpt>
      <trkpt lat="43.65575" lon="1.39063">
        <ele>126</ele>
        <time>2023-07-05T10:13:55Z</time>
      </trkpt>
      <trkpt lat="43.65578" lon="1.39065">
        <ele>126</ele>
        <time>2023-07-05T10:13:56Z</time>
      </trkpt>
      <trkpt lat="43.65581" lon="1.39067">
        <ele>126</ele>
        <time>2023-07-05T10:13:57Z</time>
      </trkpt>
      <trkpt lat="43.65583" lon="1.39068">
        <ele>126</ele>
        <time>2023-07-05T10:13:58Z</time>
      </trkpt>
      <trkpt lat="43.65586" lon="1.3907">
        <ele>127</ele>
        <time>2023-07-05T10:13:59Z</time>
      </trkpt>
      <trkpt lat="43.65589" lon="1.39071">
        <ele>127</ele>
        <time>2023-07-05T10:14:00Z</time>
      </trkpt>
      <trkpt lat="43.65591" lon="1.39072">
        <ele>127</ele>
        <time>2023-07-05T10:14:01Z</time>
      </trkpt>
      <trkpt lat="43.65594" lon="1.39073">
        <ele>127</ele>
        <time>2023-07-05T10:14:02Z</time>
      </trkpt>
      <trkpt lat="43.65597" lon="1.39075">
        <ele>127</ele>
        <time>2023-07-05T10:14:03Z</time>
      </trkpt>
      <trkpt lat="43.656" lon="1.39076">
        <ele>127</ele>
        <time>2023-07-05T10:14:04Z</time>
      </trkpt>
      <trkpt lat="43.65602" lon="1.39078">
        <ele>127</ele>
        <time>2023-07-05T10:14:05Z</time>
      </trkpt>
      <trkpt lat="43.65604" lon="1.39079">
        <ele>127</ele>
        <time>2023-07-05T10:14:06Z</time>
      </trkpt>
      <trkpt lat="43.65606" lon="1.39081">
        <ele>127</ele>
        <time>2023-07-05T10:14:07Z</time>
      </trkpt>
      <trkpt lat="43.65609" lon="1.39082">
        <ele>127</ele>
        <time>2023-07-05T10:14:08Z</time>
      </trkpt>
      <trkpt lat="43.65611" lon="1.39084">
        <ele>127</ele>
        <time>2023-07-05T10:14:09Z</time>
      </trkpt>
      <trkpt lat="43.65613" lon="1.39086">
        <ele>127</ele>
        <time>2023-07-05T10:14:10Z</time>
      </trkpt>
      <trkpt lat="43.65616" lon="1.39088">
        <ele>126</ele>
        <time>2023-07-05T10:14:11Z</time>
      </trkpt>
      <trkpt lat="43.65618" lon="1.3909">
        <ele>126</ele>
        <time>2023-07-05T10:14:12Z</time>
      </trkpt>
      <trkpt lat="43.65621" lon="1.39092">
        <ele>127</ele>
        <time>2023-07-05T10:14:13Z</time>
      </trkpt>
      <trkpt lat="43.65623" lon="1.39093">
        <ele>127</ele>
        <time>2023-07-05T10:14:14Z</time>
      </trkpt>
      <trkpt lat="43.65625" lon="1.39095">
        <ele>126</ele>
        <time>2023-07-05T10:14:15Z</time>
      </trkpt>
      <trkpt lat="43.65627" lon="1.39096">
        <ele>126</ele>
        <time>2023-07-05T10:14:16Z</time>
      </trkpt>
      <trkpt lat="43.65628" lon="1.39098">
        <ele>126</ele>
        <time>2023-07-05T10:14:17Z</time>
      </trkpt>
      <trkpt lat="43.6563" lon="1.391">
        <ele>126</ele>
        <time>2023-07-05T10:14:18Z</time>
      </trkpt>
      <trkpt lat="43.65633" lon="1.39101">
        <ele>126</ele>
        <time>2023-07-05T10:14:19Z</time>
      </trkpt>
      <trkpt lat="43.65635" lon="1.39103">
        <ele>126</ele>
        <time>2023-07-05T10:14:20Z</time>
      </trkpt>
      <trkpt lat="43.65636" lon="1.39104">
        <ele>126</ele>
        <time>2023-07-05T10:14:21Z</time>
      </trkpt>
      <trkpt lat="43.65638" lon="1.39106">
        <ele>126</ele>
        <time>2023-07-05T10:14:22Z</time>
      </trkpt>
      <trkpt lat="43.6564" lon="1.39107">
        <ele>126</ele>
        <time>2023-07-05T10:14:23Z</time>
      </trkpt>
      <trkpt lat="43.65642" lon="1.39109">
        <ele>126</ele>
        <time>2023-07-05T10:14:24Z</time>
      </trkpt>
      <trkpt lat="43.65645" lon="1.39111">
        <ele>126</ele>
        <time>2023-07-05T10:14:25Z</time>
      </trkpt>
      <trkpt lat="43.65648" lon="1.39113">
        <ele>126</ele>
        <time>2023-07-05T10:14:26Z</time>
      </trkpt>
      <trkpt lat="43.6565" lon="1.39115">
        <ele>127</ele>
        <time>2023-07-05T10:14:27Z</time>
      </trkpt>
      <trkpt lat="43.65653" lon="1.39117">
        <ele>127</ele>
        <time>2023-07-05T10:14:28Z</time>
      </trkpt>
      <trkpt lat="43.65655" lon="1.39119">
        <ele>127</ele>
        <time>2023-07-05T10:14:29Z</time>
      </trkpt>
      <trkpt lat="43.65657" lon="1.3912">
        <ele>127</ele>
        <time>2023-07-05T10:14:30Z</time>
      </trkpt>
      <trkpt lat="43.6566" lon="1.39121">
        <ele>126</ele>
        <time>2023-07-05T10:14:31Z</time>
      </trkpt>
      <trkpt lat="43.65663" lon="1.39122">
        <ele>126</ele>
        <time>2023-07-05T10:14:32Z</time>
      </trkpt>
      <trkpt lat="43.65667" lon="1.39123">
        <ele>126</ele>
        <time>2023-07-05T10:14:33Z</time>
      </trkpt>
      <trkpt lat="43.6567" lon="1.39125">
        <ele>125</ele>
        <time>2023-07-05T10:14:34Z</time>
      </trkpt>
      <trkpt lat="43.65673" lon="1.39127">
        <ele>125</ele>
        <time>2023-07-05T10:14:35Z</time>
      </trkpt>
      <trkpt lat="43.65675" lon="1.39128">
        <ele>125</ele>
        <time>2023-07-05T10:14:36Z</time>
      </trkpt>
      <trkpt lat="43.65678" lon="1.39128">
        <ele>125</ele>
        <time>2023-07-05T10:14:37Z</time>
      </trkpt>
      <trkpt lat="43.6568" lon="1.39129">
        <ele>125</ele>
        <time>2023-07-05T10:14:38Z</time>
      </trkpt>
      <trkpt lat="43.65681" lon="1.39131">
        <ele>125</ele>
        <time>2023-07-05T10:14:39Z</time>
      </trkpt>
      <trkpt lat="43.65683" lon="1.39131">
        <ele>125</ele>
        <time>2023-07-05T10:14:40Z</time>
      </trkpt>
      <trkpt lat="43.65686" lon="1.39132">
        <ele>125</ele>
        <time>2023-07-05T10:14:41Z</time>
      </trkpt>
      <trkpt lat="43.65688" lon="1.39134">
        <ele>125</ele>
        <time>2023-07-05T10:14:42Z</time>
      </trkpt>
      <trkpt lat="43.65691" lon="1.39136">
        <ele>125</ele>
        <time>2023-07-05T10:14:43Z</time>
      </trkpt>
      <trkpt lat="43.65694" lon="1.39137">
        <ele>125</ele>
        <time>2023-07-05T10:14:44Z</time>
      </trkpt>
      <trkpt lat="43.65696" lon="1.39139">
        <ele>125</ele>
        <time>2023-07-05T10:14:45Z</time>
      </trkpt>
      <trkpt lat="43.65696" lon="1.39139">
        <ele>125</ele>
        <time>2023-07-05T10:14:46Z</time>
      </trkpt>
      <trkpt lat="43.65702" lon="1.39143">
        <ele>125</ele>
        <time>2023-07-05T10:14:47Z</time>
      </trkpt>
      <trkpt lat="43.65703" lon="1.39144">
        <ele>126</ele>
        <time>2023-07-05T10:14:48Z</time>
      </trkpt>
      <trkpt lat="43.65705" lon="1.39145">
        <ele>126</ele>
        <time>2023-07-05T10:14:49Z</time>
      </trkpt>
      <trkpt lat="43.65707" lon="1.39147">
        <ele>125</ele>
        <time>2023-07-05T10:14:50Z</time>
      </trkpt>
      <trkpt lat="43.65709" lon="1.39149">
        <ele>125</ele>
        <time>2023-07-05T10:14:51Z</time>
      </trkpt>
      <trkpt lat="43.6571" lon="1.3915">
        <ele>125</ele>
        <time>2023-07-05T10:14:52Z</time>
      </trkpt>
      <trkpt lat="43.65712" lon="1.39151">
        <ele>125</ele>
        <time>2023-07-05T10:14:53Z</time>
      </trkpt>
      <trkpt lat="43.65714" lon="1.39152">
        <ele>125</ele>
        <time>2023-07-05T10:14:54Z</time>
      </trkpt>
      <trkpt lat="43.65714" lon="1.39152">
        <ele>125</ele>
        <time>2023-07-05T10:14:55Z</time>
      </trkpt>
      <trkpt lat="43.65718" lon="1.39156">
        <ele>125</ele>
        <time>2023-07-05T10:14:56Z</time>
      </trkpt>
      <trkpt lat="43.65718" lon="1.39156">
        <ele>126</ele>
        <time>2023-07-05T10:14:57Z</time>
      </trkpt>
      <trkpt lat="43.6572" lon="1.39158">
        <ele>126</ele>
        <time>2023-07-05T10:14:58Z</time>
      </trkpt>
      <trkpt lat="43.65722" lon="1.39159">
        <ele>126</ele>
        <time>2023-07-05T10:14:59Z</time>
      </trkpt>
      <trkpt lat="43.65724" lon="1.39161">
        <ele>126</ele>
        <time>2023-07-05T10:15:00Z</time>
      </trkpt>
      <trkpt lat="43.65726" lon="1.39162">
        <ele>126</ele>
        <time>2023-07-05T10:15:01Z</time>
      </trkpt>
      <trkpt lat="43.65729" lon="1.39164">
        <ele>126</ele>
        <time>2023-07-05T10:15:02Z</time>
      </trkpt>
      <trkpt lat="43.65731" lon="1.39165">
        <ele>126</ele>
        <time>2023-07-05T10:15:03Z</time>
      </trkpt>
      <trkpt lat="43.65734" lon="1.39167">
        <ele>126</ele>
        <time>2023-07-05T10:15:04Z</time>
      </trkpt>
      <trkpt lat="43.65736" lon="1.39168">
        <ele>126</ele>
        <time>2023-07-05T10:15:05Z</time>
      </trkpt>
      <trkpt lat="43.65739" lon="1.3917">
        <ele>126</ele>
        <time>2023-07-05T10:15:06Z</time>
      </trkpt>
      <trkpt lat="43.65742" lon="1.39172">
        <ele>126</ele>
        <time>2023-07-05T10:15:07Z</time>
      </trkpt>
      <trkpt lat="43.65744" lon="1.39174">
        <ele>126</ele>
        <time>2023-07-05T10:15:08Z</time>
      </trkpt>
      <trkpt lat="43.65747" lon="1.39176">
        <ele>126</ele>
        <time>2023-07-05T10:15:09Z</time>
      </trkpt>
      <trkpt lat="43.65749" lon="1.39179">
        <ele>127</ele>
        <time>2023-07-05T10:15:10Z</time>
      </trkpt>
      <trkpt lat="43.65752" lon="1.39181">
        <ele>127</ele>
        <time>2023-07-05T10:15:11Z</time>
      </trkpt>
      <trkpt lat="43.65754" lon="1.39184">
        <ele>127</ele>
        <time>2023-07-05T10:15:12Z</time>
      </trkpt>
      <trkpt lat="43.65757" lon="1.39186">
        <ele>127</ele>
        <time>2023-07-05T10:15:13Z</time>
      </trkpt>
      <trkpt lat="43.6576" lon="1.39188">
        <ele>126</ele>
        <time>2023-07-05T10:15:14Z</time>
      </trkpt>
      <trkpt lat="43.65762" lon="1.39191">
        <ele>126</ele>
        <time>2023-07-05T10:15:15Z</time>
      </trkpt>
      <trkpt lat="43.65765" lon="1.39193">
        <ele>126</ele>
        <time>2023-07-05T10:15:16Z</time>
      </trkpt>
      <trkpt lat="43.65768" lon="1.39196">
        <ele>126</ele>
        <time>2023-07-05T10:15:17Z</time>
      </trkpt>
      <trkpt lat="43.65771" lon="1.39198">
        <ele>126</ele>
        <time>2023-07-05T10:15:18Z</time>
      </trkpt>
      <trkpt lat="43.65773" lon="1.39201">
        <ele>127</ele>
        <time>2023-07-05T10:15:19Z</time>
      </trkpt>
      <trkpt lat="43.65776" lon="1.39204">
        <ele>127</ele>
        <time>2023-07-05T10:15:20Z</time>
      </trkpt>
      <trkpt lat="43.65778" lon="1.39206">
        <ele>127</ele>
        <time>2023-07-05T10:15:21Z</time>
      </trkpt>
      <trkpt lat="43.65782" lon="1.39211">
        <ele>127</ele>
        <time>2023-07-05T10:15:22Z</time>
      </trkpt>
      <trkpt lat="43.65783" lon="1.39211">
        <ele>127</ele>
        <time>2023-07-05T10:15:23Z</time>
      </trkpt>
      <trkpt lat="43.65786" lon="1.39213">
        <ele>127</ele>
        <time>2023-07-05T10:15:24Z</time>
      </trkpt>
      <trkpt lat="43.65789" lon="1.39213">
        <ele>127</ele>
        <time>2023-07-05T10:15:25Z</time>
      </trkpt>
      <trkpt lat="43.65793" lon="1.39213">
        <ele>126</ele>
        <time>2023-07-05T10:15:26Z</time>
      </trkpt>
      <trkpt lat="43.65796" lon="1.39213">
        <ele>125</ele>
        <time>2023-07-05T10:15:27Z</time>
      </trkpt>
      <trkpt lat="43.65799" lon="1.39213">
        <ele>125</ele>
        <time>2023-07-05T10:15:28Z</time>
      </trkpt>
      <trkpt lat="43.65802" lon="1.39213">
        <ele>125</ele>
        <time>2023-07-05T10:15:29Z</time>
      </trkpt>
      <trkpt lat="43.65805" lon="1.39214">
        <ele>125</ele>
        <time>2023-07-05T10:15:30Z</time>
      </trkpt>
      <trkpt lat="43.65807" lon="1.39215">
        <ele>124</ele>
        <time>2023-07-05T10:15:31Z</time>
      </trkpt>
      <trkpt lat="43.6581" lon="1.39217">
        <ele>124</ele>
        <time>2023-07-05T10:15:32Z</time>
      </trkpt>
      <trkpt lat="43.65813" lon="1.39218">
        <ele>125</ele>
        <time>2023-07-05T10:15:33Z</time>
      </trkpt>
      <trkpt lat="43.65815" lon="1.39219">
        <ele>125</ele>
        <time>2023-07-05T10:15:34Z</time>
      </trkpt>
      <trkpt lat="43.65818" lon="1.39219">
        <ele>125</ele>
        <time>2023-07-05T10:15:35Z</time>
      </trkpt>
      <trkpt lat="43.6582" lon="1.3922">
        <ele>125</ele>
        <time>2023-07-05T10:15:36Z</time>
      </trkpt>
      <trkpt lat="43.65823" lon="1.39221">
        <ele>125</ele>
        <time>2023-07-05T10:15:37Z</time>
      </trkpt>
      <trkpt lat="43.65825" lon="1.39221">
        <ele>125</ele>
        <time>2023-07-05T10:15:38Z</time>
      </trkpt>
      <trkpt lat="43.65827" lon="1.39222">
        <ele>125</ele>
        <time>2023-07-05T10:15:39Z</time>
      </trkpt>
      <trkpt lat="43.65829" lon="1.39223">
        <ele>125</ele>
        <time>2023-07-05T10:15:40Z</time>
      </trkpt>
      <trkpt lat="43.65831" lon="1.39224">
        <ele>125</ele>
        <time>2023-07-05T10:15:41Z</time>
      </trkpt>
      <trkpt lat="43.65831" lon="1.39224">
        <ele>125</ele>
        <time>2023-07-05T10:15:42Z</time>
      </trkpt>
      <trkpt lat="43.65837" lon="1.39228">
        <ele>125</ele>
        <time>2023-07-05T10:15:43Z</time>
      </trkpt>
      <trkpt lat="43.65838" lon="1.39229">
        <ele>125</ele>
        <time>2023-07-05T10:15:44Z</time>
      </trkpt>
      <trkpt lat="43.6584" lon="1.39231">
        <ele>125</ele>
        <time>2023-07-05T10:15:45Z</time>
      </trkpt>
      <trkpt lat="43.6584" lon="1.39231">
        <ele>125</ele>
        <time>2023-07-05T10:15:46Z</time>
      </trkpt>
      <trkpt lat="43.65842" lon="1.39232">
        <ele>125</ele>
        <time>2023-07-05T10:15:47Z</time>
      </trkpt>
      <trkpt lat="43.65845" lon="1.39234">
        <ele>125</ele>
        <time>2023-07-05T10:15:48Z</time>
      </trkpt>
      <trkpt lat="43.65847" lon="1.39236">
        <ele>125</ele>
        <time>2023-07-05T10:15:49Z</time>
      </trkpt>
      <trkpt lat="43.65849" lon="1.39237">
        <ele>124</ele>
        <time>2023-07-05T10:15:50Z</time>
      </trkpt>
      <trkpt lat="43.65855" lon="1.39242">
        <ele>124</ele>
        <time>2023-07-05T10:15:51Z</time>
      </trkpt>
      <trkpt lat="43.65855" lon="1.39242">
        <ele>124</ele>
        <time>2023-07-05T10:15:52Z</time>
      </trkpt>
      <trkpt lat="43.65862" lon="1.39246">
        <ele>124</ele>
        <time>2023-07-05T10:15:53Z</time>
      </trkpt>
      <trkpt lat="43.65864" lon="1.39246">
        <ele>124</ele>
        <time>2023-07-05T10:15:54Z</time>
      </trkpt>
      <trkpt lat="43.65866" lon="1.39247">
        <ele>124</ele>
        <time>2023-07-05T10:15:55Z</time>
      </trkpt>
      <trkpt lat="43.65868" lon="1.39247">
        <ele>124</ele>
        <time>2023-07-05T10:15:56Z</time>
      </trkpt>
      <trkpt lat="43.65871" lon="1.39247">
        <ele>125</ele>
        <time>2023-07-05T10:15:57Z</time>
      </trkpt>
      <trkpt lat="43.65871" lon="1.39247">
        <ele>125</ele>
        <time>2023-07-05T10:15:58Z</time>
      </trkpt>
      <trkpt lat="43.65875" lon="1.39247">
        <ele>125</ele>
        <time>2023-07-05T10:15:59Z</time>
      </trkpt>
      <trkpt lat="43.65878" lon="1.39247">
        <ele>124</ele>
        <time>2023-07-05T10:16:00Z</time>
      </trkpt>
      <trkpt lat="43.65881" lon="1.39247">
        <ele>124</ele>
        <time>2023-07-05T10:16:01Z</time>
      </trkpt>
      <trkpt lat="43.65884" lon="1.39247">
        <ele>124</ele>
        <time>2023-07-05T10:16:02Z</time>
      </trkpt>
      <trkpt lat="43.65887" lon="1.39247">
        <ele>124</ele>
        <time>2023-07-05T10:16:03Z</time>
      </trkpt>
      <trkpt lat="43.65887" lon="1.39247">
        <ele>124</ele>
        <time>2023-07-05T10:16:04Z</time>
      </trkpt>
      <trkpt lat="43.6589" lon="1.39248">
        <ele>124</ele>
        <time>2023-07-05T10:16:05Z</time>
      </trkpt>
      <trkpt lat="43.65893" lon="1.39249">
        <ele>124</ele>
        <time>2023-07-05T10:16:06Z</time>
      </trkpt>
      <trkpt lat="43.65896" lon="1.3925">
        <ele>124</ele>
        <time>2023-07-05T10:16:07Z</time>
      </trkpt>
      <trkpt lat="43.65899" lon="1.39251">
        <ele>124</ele>
        <time>2023-07-05T10:16:08Z</time>
      </trkpt>
      <trkpt lat="43.65901" lon="1.39252">
        <ele>124</ele>
        <time>2023-07-05T10:16:09Z</time>
      </trkpt>
      <trkpt lat="43.65901" lon="1.39252">
        <ele>124</ele>
        <time>2023-07-05T10:16:10Z</time>
      </trkpt>
      <trkpt lat="43.65907" lon="1.39253">
        <ele>124</ele>
        <time>2023-07-05T10:16:11Z</time>
      </trkpt>
      <trkpt lat="43.65909" lon="1.39253">
        <ele>124</ele>
        <time>2023-07-05T10:16:12Z</time>
      </trkpt>
      <trkpt lat="43.65909" lon="1.39253">
        <ele>124</ele>
        <time>2023-07-05T10:16:13Z</time>
      </trkpt>
      <trkpt lat="43.65918" lon="1.39252">
        <ele>124</ele>
        <time>2023-07-05T10:16:14Z</time>
      </trkpt>
      <trkpt lat="43.6592" lon="1.39252">
        <ele>124</ele>
        <time>2023-07-05T10:16:15Z</time>
      </trkpt>
      <trkpt lat="43.65923" lon="1.39252">
        <ele>124</ele>
        <time>2023-07-05T10:16:16Z</time>
      </trkpt>
      <trkpt lat="43.65926" lon="1.39252">
        <ele>124</ele>
        <time>2023-07-05T10:16:17Z</time>
      </trkpt>
      <trkpt lat="43.65928" lon="1.39252">
        <ele>124</ele>
        <time>2023-07-05T10:16:18Z</time>
      </trkpt>
      <trkpt lat="43.65931" lon="1.39252">
        <ele>124</ele>
        <time>2023-07-05T10:16:19Z</time>
      </trkpt>
      <trkpt lat="43.65934" lon="1.39252">
        <ele>124</ele>
        <time>2023-07-05T10:16:20Z</time>
      </trkpt>
      <trkpt lat="43.65936" lon="1.39251">
        <ele>124</ele>
        <time>2023-07-05T10:16:21Z</time>
      </trkpt>
      <trkpt lat="43.65939" lon="1.39251">
        <ele>124</ele>
        <time>2023-07-05T10:16:22Z</time>
      </trkpt>
      <trkpt lat="43.65942" lon="1.3925">
        <ele>124</ele>
        <time>2023-07-05T10:16:23Z</time>
      </trkpt>
      <trkpt lat="43.65944" lon="1.3925">
        <ele>124</ele>
        <time>2023-07-05T10:16:24Z</time>
      </trkpt>
      <trkpt lat="43.65947" lon="1.39251">
        <ele>124</ele>
        <time>2023-07-05T10:16:25Z</time>
      </trkpt>
      <trkpt lat="43.6595" lon="1.39251">
        <ele>124</ele>
        <time>2023-07-05T10:16:26Z</time>
      </trkpt>
      <trkpt lat="43.65952" lon="1.39251">
        <ele>124</ele>
        <time>2023-07-05T10:16:27Z</time>
      </trkpt>
      <trkpt lat="43.65954" lon="1.3925">
        <ele>124</ele>
        <time>2023-07-05T10:16:28Z</time>
      </trkpt>
      <trkpt lat="43.65954" lon="1.3925">
        <ele>124</ele>
        <time>2023-07-05T10:16:29Z</time>
      </trkpt>
      <trkpt lat="43.65957" lon="1.39248">
        <ele>124</ele>
        <time>2023-07-05T10:16:30Z</time>
      </trkpt>
      <trkpt lat="43.65959" lon="1.39247">
        <ele>124</ele>
        <time>2023-07-05T10:16:31Z</time>
      </trkpt>
      <trkpt lat="43.65962" lon="1.39247">
        <ele>124</ele>
        <time>2023-07-05T10:16:32Z</time>
      </trkpt>
      <trkpt lat="43.65964" lon="1.39245">
        <ele>124</ele>
        <time>2023-07-05T10:16:33Z</time>
      </trkpt>
      <trkpt lat="43.65966" lon="1.39245">
        <ele>124</ele>
        <time>2023-07-05T10:16:34Z</time>
      </trkpt>
      <trkpt lat="43.65969" lon="1.39245">
        <ele>124</ele>
        <time>2023-07-05T10:16:35Z</time>
      </trkpt>
      <trkpt lat="43.65971" lon="1.39245">
        <ele>124</ele>
        <time>2023-07-05T10:16:36Z</time>
      </trkpt>
      <trkpt lat="43.65973" lon="1.39244">
        <ele>124</ele>
        <time>2023-07-05T10:16:37Z</time>
      </trkpt>
      <trkpt lat="43.65976" lon="1.39244">
        <ele>124</ele>
        <time>2023-07-05T10:16:38Z</time>
      </trkpt>
      <trkpt lat="43.65978" lon="1.39243">
        <ele>124</ele>
        <time>2023-07-05T10:16:39Z</time>
      </trkpt>
      <trkpt lat="43.65978" lon="1.39243">
        <ele>125</ele>
        <time>2023-07-05T10:16:40Z</time>
      </trkpt>
      <trkpt lat="43.65982" lon="1.39242">
        <ele>125</ele>
        <time>2023-07-05T10:16:41Z</time>
      </trkpt>
      <trkpt lat="43.65986" lon="1.3924">
        <ele>125</ele>
        <time>2023-07-05T10:16:42Z</time>
      </trkpt>
      <trkpt lat="43.6599" lon="1.39239">
        <ele>124</ele>
        <time>2023-07-05T10:16:43Z</time>
      </trkpt>
      <trkpt lat="43.65992" lon="1.39238">
        <ele>124</ele>
        <time>2023-07-05T10:16:44Z</time>
      </trkpt>
      <trkpt lat="43.65998" lon="1.39235">
        <ele>124</ele>
        <time>2023-07-05T10:16:45Z</time>
      </trkpt>
      <trkpt lat="43.65999" lon="1.39234">
        <ele>124</ele>
        <time>2023-07-05T10:16:46Z</time>
      </trkpt>
      <trkpt lat="43.66002" lon="1.39232">
        <ele>124</ele>
        <time>2023-07-05T10:16:47Z</time>
      </trkpt>
      <trkpt lat="43.66005" lon="1.3923">
        <ele>124</ele>
        <time>2023-07-05T10:16:48Z</time>
      </trkpt>
      <trkpt lat="43.66007" lon="1.39229">
        <ele>124</ele>
        <time>2023-07-05T10:16:49Z</time>
      </trkpt>
      <trkpt lat="43.6601" lon="1.39228">
        <ele>124</ele>
        <time>2023-07-05T10:16:50Z</time>
      </trkpt>
      <trkpt lat="43.66012" lon="1.39227">
        <ele>124</ele>
        <time>2023-07-05T10:16:51Z</time>
      </trkpt>
      <trkpt lat="43.66012" lon="1.39227">
        <ele>124</ele>
        <time>2023-07-05T10:16:52Z</time>
      </trkpt>
      <trkpt lat="43.66014" lon="1.39226">
        <ele>124</ele>
        <time>2023-07-05T10:16:53Z</time>
      </trkpt>
      <trkpt lat="43.66016" lon="1.39225">
        <ele>124</ele>
        <time>2023-07-05T10:16:54Z</time>
      </trkpt>
      <trkpt lat="43.66018" lon="1.39224">
        <ele>124</ele>
        <time>2023-07-05T10:16:55Z</time>
      </trkpt>
      <trkpt lat="43.66021" lon="1.39223">
        <ele>124</ele>
        <time>2023-07-05T10:16:56Z</time>
      </trkpt>
      <trkpt lat="43.66023" lon="1.39222">
        <ele>124</ele>
        <time>2023-07-05T10:16:57Z</time>
      </trkpt>
      <trkpt lat="43.66026" lon="1.39222">
        <ele>124</ele>
        <time>2023-07-05T10:16:58Z</time>
      </trkpt>
      <trkpt lat="43.6603" lon="1.39221">
        <ele>124</ele>
        <time>2023-07-05T10:16:59Z</time>
      </trkpt>
      <trkpt lat="43.66033" lon="1.39221">
        <ele>124</ele>
        <time>2023-07-05T10:17:00Z</time>
      </trkpt>
      <trkpt lat="43.66036" lon="1.39221">
        <ele>124</ele>
        <time>2023-07-05T10:17:01Z</time>
      </trkpt>
      <trkpt lat="43.66038" lon="1.3922">
        <ele>124</ele>
        <time>2023-07-05T10:17:02Z</time>
      </trkpt>
      <trkpt lat="43.66041" lon="1.3922">
        <ele>123</ele>
        <time>2023-07-05T10:17:03Z</time>
      </trkpt>
      <trkpt lat="43.66043" lon="1.39221">
        <ele>123</ele>
        <time>2023-07-05T10:17:04Z</time>
      </trkpt>
      <trkpt lat="43.66045" lon="1.39221">
        <ele>123</ele>
        <time>2023-07-05T10:17:05Z</time>
      </trkpt>
      <trkpt lat="43.66048" lon="1.39221">
        <ele>123</ele>
        <time>2023-07-05T10:17:06Z</time>
      </trkpt>
      <trkpt lat="43.66051" lon="1.3922">
        <ele>123</ele>
        <time>2023-07-05T10:17:07Z</time>
      </trkpt>
      <trkpt lat="43.66053" lon="1.39219">
        <ele>123</ele>
        <time>2023-07-05T10:17:08Z</time>
      </trkpt>
      <trkpt lat="43.66056" lon="1.39218">
        <ele>123</ele>
        <time>2023-07-05T10:17:09Z</time>
      </trkpt>
      <trkpt lat="43.66056" lon="1.39218">
        <ele>123</ele>
        <time>2023-07-05T10:17:10Z</time>
      </trkpt>
      <trkpt lat="43.66059" lon="1.39218">
        <ele>123</ele>
        <time>2023-07-05T10:17:11Z</time>
      </trkpt>
      <trkpt lat="43.66062" lon="1.39217">
        <ele>123</ele>
        <time>2023-07-05T10:17:12Z</time>
      </trkpt>
      <trkpt lat="43.66064" lon="1.39216">
        <ele>123</ele>
        <time>2023-07-05T10:17:13Z</time>
      </trkpt>
      <trkpt lat="43.66067" lon="1.39216">
        <ele>124</ele>
        <time>2023-07-05T10:17:14Z</time>
      </trkpt>
      <trkpt lat="43.66069" lon="1.39214">
        <ele>124</ele>
        <time>2023-07-05T10:17:15Z</time>
      </trkpt>
      <trkpt lat="43.66071" lon="1.39212">
        <ele>124</ele>
        <time>2023-07-05T10:17:16Z</time>
      </trkpt>
      <trkpt lat="43.66074" lon="1.3921">
        <ele>124</ele>
        <time>2023-07-05T10:17:17Z</time>
      </trkpt>
      <trkpt lat="43.66076" lon="1.39209">
        <ele>124</ele>
        <time>2023-07-05T10:17:18Z</time>
      </trkpt>
      <trkpt lat="43.6608" lon="1.39205">
        <ele>124</ele>
        <time>2023-07-05T10:17:19Z</time>
      </trkpt>
      <trkpt lat="43.66084" lon="1.39202">
        <ele>124</ele>
        <time>2023-07-05T10:17:20Z</time>
      </trkpt>
      <trkpt lat="43.66088" lon="1.39198">
        <ele>123</ele>
        <time>2023-07-05T10:17:21Z</time>
      </trkpt>
      <trkpt lat="43.66091" lon="1.39196">
        <ele>123</ele>
        <time>2023-07-05T10:17:22Z</time>
      </trkpt>
      <trkpt lat="43.66091" lon="1.39196">
        <ele>123</ele>
        <time>2023-07-05T10:17:23Z</time>
      </trkpt>
      <trkpt lat="43.66098" lon="1.39193">
        <ele>123</ele>
        <time>2023-07-05T10:17:24Z</time>
      </trkpt>
      <trkpt lat="43.661" lon="1.39193">
        <ele>123</ele>
        <time>2023-07-05T10:17:25Z</time>
      </trkpt>
      <trkpt lat="43.66103" lon="1.39192">
        <ele>123</ele>
        <time>2023-07-05T10:17:26Z</time>
      </trkpt>
      <trkpt lat="43.66103" lon="1.39192">
        <ele>123</ele>
        <time>2023-07-05T10:17:27Z</time>
      </trkpt>
      <trkpt lat="43.66106" lon="1.39192">
        <ele>123</ele>
        <time>2023-07-05T10:17:28Z</time>
      </trkpt>
      <trkpt lat="43.6611" lon="1.39192">
        <ele>123</ele>
        <time>2023-07-05T10:17:29Z</time>
      </trkpt>
      <trkpt lat="43.66113" lon="1.39191">
        <ele>123</ele>
        <time>2023-07-05T10:17:30Z</time>
      </trkpt>
      <trkpt lat="43.66116" lon="1.39191">
        <ele>123</ele>
        <time>2023-07-05T10:17:31Z</time>
      </trkpt>
      <trkpt lat="43.66119" lon="1.3919">
        <ele>123</ele>
        <time>2023-07-05T10:17:32Z</time>
      </trkpt>
      <trkpt lat="43.66122" lon="1.39189">
        <ele>123</ele>
        <time>2023-07-05T10:17:33Z</time>
      </trkpt>
      <trkpt lat="43.66125" lon="1.39189">
        <ele>123</ele>
        <time>2023-07-05T10:17:34Z</time>
      </trkpt>
      <trkpt lat="43.66128" lon="1.39188">
        <ele>123</ele>
        <time>2023-07-05T10:17:35Z</time>
      </trkpt>
      <trkpt lat="43.6613" lon="1.39188">
        <ele>123</ele>
        <time>2023-07-05T10:17:36Z</time>
      </trkpt>
      <trkpt lat="43.66132" lon="1.39187">
        <ele>123</ele>
        <time>2023-07-05T10:17:37Z</time>
      </trkpt>
      <trkpt lat="43.66134" lon="1.39186">
        <ele>123</ele>
        <time>2023-07-05T10:17:38Z</time>
      </trkpt>
      <trkpt lat="43.66136" lon="1.39186">
        <ele>123</ele>
        <time>2023-07-05T10:17:39Z</time>
      </trkpt>
      <trkpt lat="43.66136" lon="1.39186">
        <ele>123</ele>
        <time>2023-07-05T10:17:40Z</time>
      </trkpt>
      <trkpt lat="43.6614" lon="1.39183">
        <ele>123</ele>
        <time>2023-07-05T10:17:41Z</time>
      </trkpt>
      <trkpt lat="43.66143" lon="1.3918">
        <ele>123</ele>
        <time>2023-07-05T10:17:42Z</time>
      </trkpt>
      <trkpt lat="43.66147" lon="1.39177">
        <ele>123</ele>
        <time>2023-07-05T10:17:43Z</time>
      </trkpt>
      <trkpt lat="43.66147" lon="1.39177">
        <ele>123</ele>
        <time>2023-07-05T10:17:44Z</time>
      </trkpt>
      <trkpt lat="43.66149" lon="1.39176">
        <ele>123</ele>
        <time>2023-07-05T10:17:45Z</time>
      </trkpt>
      <trkpt lat="43.66151" lon="1.39175">
        <ele>123</ele>
        <time>2023-07-05T10:17:46Z</time>
      </trkpt>
      <trkpt lat="43.66153" lon="1.39174">
        <ele>123</ele>
        <time>2023-07-05T10:17:47Z</time>
      </trkpt>
      <trkpt lat="43.66155" lon="1.39174">
        <ele>123</ele>
        <time>2023-07-05T10:17:48Z</time>
      </trkpt>
      <trkpt lat="43.66158" lon="1.39172">
        <ele>123</ele>
        <time>2023-07-05T10:17:49Z</time>
      </trkpt>
      <trkpt lat="43.66161" lon="1.3917">
        <ele>123</ele>
        <time>2023-07-05T10:17:50Z</time>
      </trkpt>
      <trkpt lat="43.66164" lon="1.39169">
        <ele>123</ele>
        <time>2023-07-05T10:17:51Z</time>
      </trkpt>
      <trkpt lat="43.66165" lon="1.39167">
        <ele>123</ele>
        <time>2023-07-05T10:17:52Z</time>
      </trkpt>
      <trkpt lat="43.66167" lon="1.39165">
        <ele>123</ele>
        <time>2023-07-05T10:17:53Z</time>
      </trkpt>
      <trkpt lat="43.66169" lon="1.39164">
        <ele>123</ele>
        <time>2023-07-05T10:17:54Z</time>
      </trkpt>
      <trkpt lat="43.6617" lon="1.39162">
        <ele>123</ele>
        <time>2023-07-05T10:17:55Z</time>
      </trkpt>
      <trkpt lat="43.66172" lon="1.3916">
        <ele>123</ele>
        <time>2023-07-05T10:17:56Z</time>
      </trkpt>
      <trkpt lat="43.66174" lon="1.39158">
        <ele>123</ele>
        <time>2023-07-05T10:17:57Z</time>
      </trkpt>
      <trkpt lat="43.66176" lon="1.39156">
        <ele>123</ele>
        <time>2023-07-05T10:17:58Z</time>
      </trkpt>
      <trkpt lat="43.66178" lon="1.39154">
        <ele>123</ele>
        <time>2023-07-05T10:17:59Z</time>
      </trkpt>
      <trkpt lat="43.66181" lon="1.39151">
        <ele>123</ele>
        <time>2023-07-05T10:18:00Z</time>
      </trkpt>
      <trkpt lat="43.66183" lon="1.39149">
        <ele>123</ele>
        <time>2023-07-05T10:18:01Z</time>
      </trkpt>
      <trkpt lat="43.66186" lon="1.39146">
        <ele>123</ele>
        <time>2023-07-05T10:18:02Z</time>
      </trkpt>
      <trkpt lat="43.66188" lon="1.39144">
        <ele>123</ele>
        <time>2023-07-05T10:18:03Z</time>
      </trkpt>
      <trkpt lat="43.6619" lon="1.39142">
        <ele>123</ele>
        <time>2023-07-05T10:18:04Z</time>
      </trkpt>
      <trkpt lat="43.66194" lon="1.39141">
        <ele>123</ele>
        <time>2023-07-05T10:18:05Z</time>
      </trkpt>
      <trkpt lat="43.66198" lon="1.3914">
        <ele>123</ele>
        <time>2023-07-05T10:18:06Z</time>
      </trkpt>
      <trkpt lat="43.66202" lon="1.39139">
        <ele>123</ele>
        <time>2023-07-05T10:18:07Z</time>
      </trkpt>
      <trkpt lat="43.66205" lon="1.3914">
        <ele>123</ele>
        <time>2023-07-05T10:18:08Z</time>
      </trkpt>
      <trkpt lat="43.66207" lon="1.39144">
        <ele>123</ele>
        <time>2023-07-05T10:18:09Z</time>
      </trkpt>
      <trkpt lat="43.66209" lon="1.39148">
        <ele>123</ele>
        <time>2023-07-05T10:18:10Z</time>
      </trkpt>
      <trkpt lat="43.66212" lon="1.3915">
        <ele>123</ele>
        <time>2023-07-05T10:18:11Z</time>
      </trkpt>
      <trkpt lat="43.66214" lon="1.39153">
        <ele>123</ele>
        <time>2023-07-05T10:18:12Z</time>
      </trkpt>
      <trkpt lat="43.66218" lon="1.39154">
        <ele>123</ele>
        <time>2023-07-05T10:18:13Z</time>
      </trkpt>
      <trkpt lat="43.66221" lon="1.39155">
        <ele>123</ele>
        <time>2023-07-05T10:18:14Z</time>
      </trkpt>
      <trkpt lat="43.66223" lon="1.39158">
        <ele>123</ele>
        <time>2023-07-05T10:18:15Z</time>
      </trkpt>
      <trkpt lat="43.66226" lon="1.3916">
        <ele>123</ele>
        <time>2023-07-05T10:18:16Z</time>
      </trkpt>
      <trkpt lat="43.66229" lon="1.39162">
        <ele>123</ele>
        <time>2023-07-05T10:18:17Z</time>
      </trkpt>
      <trkpt lat="43.66232" lon="1.39164">
        <ele>123</ele>
        <time>2023-07-05T10:18:18Z</time>
      </trkpt>
      <trkpt lat="43.66235" lon="1.39166">
        <ele>123</ele>
        <time>2023-07-05T10:18:19Z</time>
      </trkpt>
      <trkpt lat="43.66238" lon="1.39168">
        <ele>123</ele>
        <time>2023-07-05T10:18:20Z</time>
      </trkpt>
      <trkpt lat="43.66241" lon="1.39169">
        <ele>123</ele>
        <time>2023-07-05T10:18:21Z</time>
      </trkpt>
      <trkpt lat="43.66242" lon="1.3917">
        <ele>123</ele>
        <time>2023-07-05T10:18:22Z</time>
      </trkpt>
      <trkpt lat="43.66244" lon="1.39168">
        <ele>123</ele>
        <time>2023-07-05T10:18:23Z</time>
      </trkpt>
      <trkpt lat="43.66246" lon="1.39166">
        <ele>123</ele>
        <time>2023-07-05T10:18:24Z</time>
      </trkpt>
      <trkpt lat="43.66248" lon="1.39165">
        <ele>123</ele>
        <time>2023-07-05T10:18:25Z</time>
      </trkpt>
      <trkpt lat="43.66248" lon="1.39165">
        <ele>123</ele>
        <time>2023-07-05T10:18:26Z</time>
      </trkpt>
      <trkpt lat="43.66256" lon="1.39162">
        <ele>123</ele>
        <time>2023-07-05T10:18:27Z</time>
      </trkpt>
      <trkpt lat="43.66257" lon="1.39162">
        <ele>123</ele>
        <time>2023-07-05T10:18:28Z</time>
      </trkpt>
      <trkpt lat="43.6626" lon="1.39163">
        <ele>123</ele>
        <time>2023-07-05T10:18:29Z</time>
      </trkpt>
      <trkpt lat="43.66262" lon="1.39164">
        <ele>123</ele>
        <time>2023-07-05T10:18:30Z</time>
      </trkpt>
      <trkpt lat="43.66264" lon="1.39166">
        <ele>123</ele>
        <time>2023-07-05T10:18:31Z</time>
      </trkpt>
      <trkpt lat="43.66264" lon="1.39166">
        <ele>123</ele>
        <time>2023-07-05T10:18:32Z</time>
      </trkpt>
      <trkpt lat="43.66265" lon="1.39169">
        <ele>123</ele>
        <time>2023-07-05T10:18:33Z</time>
      </trkpt>
      <trkpt lat="43.66267" lon="1.39172">
        <ele>123</ele>
        <time>2023-07-05T10:18:34Z</time>
      </trkpt>
      <trkpt lat="43.66268" lon="1.39175">
        <ele>123</ele>
        <time>2023-07-05T10:18:35Z</time>
      </trkpt>
      <trkpt lat="43.6627" lon="1.39178">
        <ele>123</ele>
        <time>2023-07-05T10:18:36Z</time>
      </trkpt>
      <trkpt lat="43.66272" lon="1.39181">
        <ele>123</ele>
        <time>2023-07-05T10:18:37Z</time>
      </trkpt>
      <trkpt lat="43.66273" lon="1.39185">
        <ele>123</ele>
        <time>2023-07-05T10:18:38Z</time>
      </trkpt>
      <trkpt lat="43.66273" lon="1.39185">
        <ele>123</ele>
        <time>2023-07-05T10:18:39Z</time>
      </trkpt>
      <trkpt lat="43.66273" lon="1.39193">
        <ele>123</ele>
        <time>2023-07-05T10:18:40Z</time>
      </trkpt>
      <trkpt lat="43.66274" lon="1.39195">
        <ele>123</ele>
        <time>2023-07-05T10:18:41Z</time>
      </trkpt>
      <trkpt lat="43.66274" lon="1.39195">
        <ele>123</ele>
        <time>2023-07-05T10:18:42Z</time>
      </trkpt>
      <trkpt lat="43.66275" lon="1.39198">
        <ele>123</ele>
        <time>2023-07-05T10:18:43Z</time>
      </trkpt>
      <trkpt lat="43.66277" lon="1.39201">
        <ele>123</ele>
        <time>2023-07-05T10:18:44Z</time>
      </trkpt>
      <trkpt lat="43.66278" lon="1.39205">
        <ele>123</ele>
        <time>2023-07-05T10:18:45Z</time>
      </trkpt>
      <trkpt lat="43.6628" lon="1.39208">
        <ele>123</ele>
        <time>2023-07-05T10:18:46Z</time>
      </trkpt>
      <trkpt lat="43.66281" lon="1.39211">
        <ele>123</ele>
        <time>2023-07-05T10:18:47Z</time>
      </trkpt>
      <trkpt lat="43.66282" lon="1.39214">
        <ele>123</ele>
        <time>2023-07-05T10:18:48Z</time>
      </trkpt>
      <trkpt lat="43.66283" lon="1.39217">
        <ele>123</ele>
        <time>2023-07-05T10:18:49Z</time>
      </trkpt>
      <trkpt lat="43.66284" lon="1.39221">
        <ele>123</ele>
        <time>2023-07-05T10:18:50Z</time>
      </trkpt>
      <trkpt lat="43.66286" lon="1.39225">
        <ele>123</ele>
        <time>2023-07-05T10:18:51Z</time>
      </trkpt>
      <trkpt lat="43.66287" lon="1.3923">
        <ele>123</ele>
        <time>2023-07-05T10:18:52Z</time>
      </trkpt>
      <trkpt lat="43.66289" lon="1.39234">
        <ele>123</ele>
        <time>2023-07-05T10:18:53Z</time>
      </trkpt>
      <trkpt lat="43.6629" lon="1.39238">
        <ele>123</ele>
        <time>2023-07-05T10:18:54Z</time>
      </trkpt>
      <trkpt lat="43.66292" lon="1.39242">
        <ele>123</ele>
        <time>2023-07-05T10:18:55Z</time>
      </trkpt>
      <trkpt lat="43.66292" lon="1.39242">
        <ele>123</ele>
        <time>2023-07-05T10:18:56Z</time>
      </trkpt>
      <trkpt lat="43.66293" lon="1.39246">
        <ele>123</ele>
        <time>2023-07-05T10:18:57Z</time>
      </trkpt>
      <trkpt lat="43.66295" lon="1.3925">
        <ele>123</ele>
        <time>2023-07-05T10:18:58Z</time>
      </trkpt>
      <trkpt lat="43.66296" lon="1.39253">
        <ele>123</ele>
        <time>2023-07-05T10:18:59Z</time>
      </trkpt>
      <trkpt lat="43.66298" lon="1.39257">
        <ele>123</ele>
        <time>2023-07-05T10:19:00Z</time>
      </trkpt>
      <trkpt lat="43.66299" lon="1.3926">
        <ele>123</ele>
        <time>2023-07-05T10:19:01Z</time>
      </trkpt>
      <trkpt lat="43.66301" lon="1.39263">
        <ele>123</ele>
        <time>2023-07-05T10:19:02Z</time>
      </trkpt>
      <trkpt lat="43.66302" lon="1.39266">
        <ele>123</ele>
        <time>2023-07-05T10:19:03Z</time>
      </trkpt>
      <trkpt lat="43.66305" lon="1.39269">
        <ele>123</ele>
        <time>2023-07-05T10:19:04Z</time>
      </trkpt>
      <trkpt lat="43.66307" lon="1.39273">
        <ele>123</ele>
        <time>2023-07-05T10:19:05Z</time>
      </trkpt>
      <trkpt lat="43.66309" lon="1.39276">
        <ele>123</ele>
        <time>2023-07-05T10:19:06Z</time>
      </trkpt>
      <trkpt lat="43.66311" lon="1.39279">
        <ele>123</ele>
        <time>2023-07-05T10:19:07Z</time>
      </trkpt>
      <trkpt lat="43.66312" lon="1.39282">
        <ele>123</ele>
        <time>2023-07-05T10:19:08Z</time>
      </trkpt>
      <trkpt lat="43.66312" lon="1.39282">
        <ele>123</ele>
        <time>2023-07-05T10:19:09Z</time>
      </trkpt>
      <trkpt lat="43.66315" lon="1.39283">
        <ele>123</ele>
        <time>2023-07-05T10:19:10Z</time>
      </trkpt>
      <trkpt lat="43.66317" lon="1.39284">
        <ele>123</ele>
        <time>2023-07-05T10:19:11Z</time>
      </trkpt>
      <trkpt lat="43.66319" lon="1.39286">
        <ele>123</ele>
        <time>2023-07-05T10:19:12Z</time>
      </trkpt>
      <trkpt lat="43.66319" lon="1.39286">
        <ele>123</ele>
        <time>2023-07-05T10:19:13Z</time>
      </trkpt>
      <trkpt lat="43.66321" lon="1.39286">
        <ele>123</ele>
        <time>2023-07-05T10:19:14Z</time>
      </trkpt>
      <trkpt lat="43.66322" lon="1.39285">
        <ele>123</ele>
        <time>2023-07-05T10:19:15Z</time>
      </trkpt>
      <trkpt lat="43.66324" lon="1.39285">
        <ele>123</ele>
        <time>2023-07-05T10:19:16Z</time>
      </trkpt>
      <trkpt lat="43.66326" lon="1.39285">
        <ele>123</ele>
        <time>2023-07-05T10:19:17Z</time>
      </trkpt>
      <trkpt lat="43.66327" lon="1.39285">
        <ele>123</ele>
        <time>2023-07-05T10:19:18Z</time>
      </trkpt>
      <trkpt lat="43.66329" lon="1.39285">
        <ele>123</ele>
        <time>2023-07-05T10:19:19Z</time>
      </trkpt>
      <trkpt lat="43.66337" lon="1.39281">
        <ele>123</ele>
        <time>2023-07-05T10:19:20Z</time>
      </trkpt>
      <trkpt lat="43.66338" lon="1.3928">
        <ele>123</ele>
        <time>2023-07-05T10:19:21Z</time>
      </trkpt>
      <trkpt lat="43.66341" lon="1.39278">
        <ele>123</ele>
        <time>2023-07-05T10:19:22Z</time>
      </trkpt>
      <trkpt lat="43.66341" lon="1.39278">
        <ele>123</ele>
        <time>2023-07-05T10:19:23Z</time>
      </trkpt>
      <trkpt lat="43.66347" lon="1.39275">
        <ele>123</ele>
        <time>2023-07-05T10:19:24Z</time>
      </trkpt>
      <trkpt lat="43.66348" lon="1.39274">
        <ele>123</ele>
        <time>2023-07-05T10:19:25Z</time>
      </trkpt>
      <trkpt lat="43.66351" lon="1.39274">
        <ele>123</ele>
        <time>2023-07-05T10:19:26Z</time>
      </trkpt>
      <trkpt lat="43.66354" lon="1.39275">
        <ele>123</ele>
        <time>2023-07-05T10:19:27Z</time>
      </trkpt>
      <trkpt lat="43.66357" lon="1.39275">
        <ele>123</ele>
        <time>2023-07-05T10:19:28Z</time>
      </trkpt>
      <trkpt lat="43.6636" lon="1.39277">
        <ele>123</ele>
        <time>2023-07-05T10:19:29Z</time>
      </trkpt>
      <trkpt lat="43.66364" lon="1.39279">
        <ele>123</ele>
        <time>2023-07-05T10:19:30Z</time>
      </trkpt>
      <trkpt lat="43.66367" lon="1.39281">
        <ele>123</ele>
        <time>2023-07-05T10:19:31Z</time>
      </trkpt>
      <trkpt lat="43.6637" lon="1.39282">
        <ele>123</ele>
        <time>2023-07-05T10:19:32Z</time>
      </trkpt>
      <trkpt lat="43.66373" lon="1.39285">
        <ele>123</ele>
        <time>2023-07-05T10:19:33Z</time>
      </trkpt>
      <trkpt lat="43.66373" lon="1.39285">
        <ele>123</ele>
        <time>2023-07-05T10:19:34Z</time>
      </trkpt>
      <trkpt lat="43.66376" lon="1.39287">
        <ele>123</ele>
        <time>2023-07-05T10:19:35Z</time>
      </trkpt>
      <trkpt lat="43.6638" lon="1.3929">
        <ele>123</ele>
        <time>2023-07-05T10:19:36Z</time>
      </trkpt>
      <trkpt lat="43.66383" lon="1.39293">
        <ele>123</ele>
        <time>2023-07-05T10:19:37Z</time>
      </trkpt>
      <trkpt lat="43.66383" lon="1.39293">
        <ele>123</ele>
        <time>2023-07-05T10:19:38Z</time>
      </trkpt>
      <trkpt lat="43.66386" lon="1.39295">
        <ele>123</ele>
        <time>2023-07-05T10:19:39Z</time>
      </trkpt>
      <trkpt lat="43.66388" lon="1.39298">
        <ele>123</ele>
        <time>2023-07-05T10:19:40Z</time>
      </trkpt>
      <trkpt lat="43.6639" lon="1.39301">
        <ele>123</ele>
        <time>2023-07-05T10:19:41Z</time>
      </trkpt>
      <trkpt lat="43.66392" lon="1.39303">
        <ele>123</ele>
        <time>2023-07-05T10:19:42Z</time>
      </trkpt>
      <trkpt lat="43.66393" lon="1.39304">
        <ele>123</ele>
        <time>2023-07-05T10:19:43Z</time>
      </trkpt>
      <trkpt lat="43.66395" lon="1.39306">
        <ele>123</ele>
        <time>2023-07-05T10:19:44Z</time>
      </trkpt>
      <trkpt lat="43.66397" lon="1.39308">
        <ele>123</ele>
        <time>2023-07-05T10:19:45Z</time>
      </trkpt>
      <trkpt lat="43.66398" lon="1.3931">
        <ele>123</ele>
        <time>2023-07-05T10:19:46Z</time>
      </trkpt>
      <trkpt lat="43.664" lon="1.39311">
        <ele>123</ele>
        <time>2023-07-05T10:19:47Z</time>
      </trkpt>
      <trkpt lat="43.66402" lon="1.39313">
        <ele>123</ele>
        <time>2023-07-05T10:19:48Z</time>
      </trkpt>
      <trkpt lat="43.66405" lon="1.39314">
        <ele>123</ele>
        <time>2023-07-05T10:19:49Z</time>
      </trkpt>
      <trkpt lat="43.66407" lon="1.39315">
        <ele>123</ele>
        <time>2023-07-05T10:19:50Z</time>
      </trkpt>
      <trkpt lat="43.6641" lon="1.39316">
        <ele>123</ele>
        <time>2023-07-05T10:19:51Z</time>
      </trkpt>
      <trkpt lat="43.66412" lon="1.39317">
        <ele>123</ele>
        <time>2023-07-05T10:19:52Z</time>
      </trkpt>
      <trkpt lat="43.66415" lon="1.39318">
        <ele>123</ele>
        <time>2023-07-05T10:19:53Z</time>
      </trkpt>
      <trkpt lat="43.66418" lon="1.39319">
        <ele>123</ele>
        <time>2023-07-05T10:19:54Z</time>
      </trkpt>
      <trkpt lat="43.6642" lon="1.3932">
        <ele>123</ele>
        <time>2023-07-05T10:19:55Z</time>
      </trkpt>
      <trkpt lat="43.66423" lon="1.39321">
        <ele>123</ele>
        <time>2023-07-05T10:19:56Z</time>
      </trkpt>
      <trkpt lat="43.66427" lon="1.39321">
        <ele>123</ele>
        <time>2023-07-05T10:19:57Z</time>
      </trkpt>
      <trkpt lat="43.6643" lon="1.39321">
        <ele>123</ele>
        <time>2023-07-05T10:19:58Z</time>
      </trkpt>
      <trkpt lat="43.66433" lon="1.39321">
        <ele>123</ele>
        <time>2023-07-05T10:19:59Z</time>
      </trkpt>
      <trkpt lat="43.66438" lon="1.39321">
        <ele>123</ele>
        <time>2023-07-05T10:20:00Z</time>
      </trkpt>
      <trkpt lat="43.66442" lon="1.39322">
        <ele>123</ele>
        <time>2023-07-05T10:20:01Z</time>
      </trkpt>
      <trkpt lat="43.66446" lon="1.39322">
        <ele>123</ele>
        <time>2023-07-05T10:20:02Z</time>
      </trkpt>
      <trkpt lat="43.66448" lon="1.39322">
        <ele>123</ele>
        <time>2023-07-05T10:20:03Z</time>
      </trkpt>
      <trkpt lat="43.6645" lon="1.39322">
        <ele>123</ele>
        <time>2023-07-05T10:20:04Z</time>
      </trkpt>
      <trkpt lat="43.66453" lon="1.39322">
        <ele>123</ele>
        <time>2023-07-05T10:20:05Z</time>
      </trkpt>
      <trkpt lat="43.66456" lon="1.39321">
        <ele>123</ele>
        <time>2023-07-05T10:20:06Z</time>
      </trkpt>
      <trkpt lat="43.66459" lon="1.39322">
        <ele>123</ele>
        <time>2023-07-05T10:20:07Z</time>
      </trkpt>
      <trkpt lat="43.66461" lon="1.39322">
        <ele>123</ele>
        <time>2023-07-05T10:20:08Z</time>
      </trkpt>
      <trkpt lat="43.66464" lon="1.39321">
        <ele>123</ele>
        <time>2023-07-05T10:20:09Z</time>
      </trkpt>
      <trkpt lat="43.66467" lon="1.3932">
        <ele>123</ele>
        <time>2023-07-05T10:20:10Z</time>
      </trkpt>
      <trkpt lat="43.66467" lon="1.3932">
        <ele>123</ele>
        <time>2023-07-05T10:20:11Z</time>
      </trkpt>
      <trkpt lat="43.66474" lon="1.39318">
        <ele>123</ele>
        <time>2023-07-05T10:20:12Z</time>
      </trkpt>
      <trkpt lat="43.66475" lon="1.39317">
        <ele>123</ele>
        <time>2023-07-05T10:20:13Z</time>
      </trkpt>
      <trkpt lat="43.66477" lon="1.39316">
        <ele>123</ele>
        <time>2023-07-05T10:20:14Z</time>
      </trkpt>
      <trkpt lat="43.6648" lon="1.39314">
        <ele>123</ele>
        <time>2023-07-05T10:20:15Z</time>
      </trkpt>
      <trkpt lat="43.66483" lon="1.39312">
        <ele>123</ele>
        <time>2023-07-05T10:20:16Z</time>
      </trkpt>
      <trkpt lat="43.66486" lon="1.39311">
        <ele>123</ele>
        <time>2023-07-05T10:20:17Z</time>
      </trkpt>
      <trkpt lat="43.66488" lon="1.39309">
        <ele>123</ele>
        <time>2023-07-05T10:20:18Z</time>
      </trkpt>
      <trkpt lat="43.6649" lon="1.39307">
        <ele>123</ele>
        <time>2023-07-05T10:20:19Z</time>
      </trkpt>
      <trkpt lat="43.66492" lon="1.39306">
        <ele>123</ele>
        <time>2023-07-05T10:20:20Z</time>
      </trkpt>
      <trkpt lat="43.66494" lon="1.39303">
        <ele>123</ele>
        <time>2023-07-05T10:20:21Z</time>
      </trkpt>
      <trkpt lat="43.66496" lon="1.393">
        <ele>123</ele>
        <time>2023-07-05T10:20:22Z</time>
      </trkpt>
      <trkpt lat="43.66497" lon="1.39298">
        <ele>123</ele>
        <time>2023-07-05T10:20:23Z</time>
      </trkpt>
      <trkpt lat="43.66499" lon="1.39295">
        <ele>122</ele>
        <time>2023-07-05T10:20:24Z</time>
      </trkpt>
      <trkpt lat="43.665" lon="1.39292">
        <ele>122</ele>
        <time>2023-07-05T10:20:25Z</time>
      </trkpt>
      <trkpt lat="43.66502" lon="1.39289">
        <ele>122</ele>
        <time>2023-07-05T10:20:26Z</time>
      </trkpt>
      <trkpt lat="43.66503" lon="1.39286">
        <ele>122</ele>
        <time>2023-07-05T10:20:27Z</time>
      </trkpt>
      <trkpt lat="43.66504" lon="1.39283">
        <ele>121</ele>
        <time>2023-07-05T10:20:28Z</time>
      </trkpt>
      <trkpt lat="43.66505" lon="1.3928">
        <ele>121</ele>
        <time>2023-07-05T10:20:29Z</time>
      </trkpt>
      <trkpt lat="43.66507" lon="1.39277">
        <ele>121</ele>
        <time>2023-07-05T10:20:30Z</time>
      </trkpt>
      <trkpt lat="43.66508" lon="1.39274">
        <ele>121</ele>
        <time>2023-07-05T10:20:31Z</time>
      </trkpt>
      <trkpt lat="43.66509" lon="1.3927">
        <ele>121</ele>
        <time>2023-07-05T10:20:32Z</time>
      </trkpt>
      <trkpt lat="43.66511" lon="1.39267">
        <ele>121</ele>
        <time>2023-07-05T10:20:33Z</time>
      </trkpt>
      <trkpt lat="43.66513" lon="1.39265">
        <ele>122</ele>
        <time>2023-07-05T10:20:34Z</time>
      </trkpt>
      <trkpt lat="43.66516" lon="1.39265">
        <ele>122</ele>
        <time>2023-07-05T10:20:35Z</time>
      </trkpt>
      <trkpt lat="43.6652" lon="1.39266">
        <ele>122</ele>
        <time>2023-07-05T10:20:36Z</time>
      </trkpt>
      <trkpt lat="43.66523" lon="1.39268">
        <ele>121</ele>
        <time>2023-07-05T10:20:37Z</time>
      </trkpt>
      <trkpt lat="43.66525" lon="1.3927">
        <ele>121</ele>
        <time>2023-07-05T10:20:38Z</time>
      </trkpt>
      <trkpt lat="43.66525" lon="1.3927">
        <ele>121</ele>
        <time>2023-07-05T10:20:39Z</time>
      </trkpt>
      <trkpt lat="43.6653" lon="1.39273">
        <ele>121</ele>
        <time>2023-07-05T10:20:40Z</time>
      </trkpt>
      <trkpt lat="43.66532" lon="1.39274">
        <ele>121</ele>
        <time>2023-07-05T10:20:41Z</time>
      </trkpt>
      <trkpt lat="43.66534" lon="1.39275">
        <ele>121</ele>
        <time>2023-07-05T10:20:42Z</time>
      </trkpt>
      <trkpt lat="43.66537" lon="1.39274">
        <ele>121</ele>
        <time>2023-07-05T10:20:43Z</time>
      </trkpt>
      <trkpt lat="43.66541" lon="1.39273">
        <ele>122</ele>
        <time>2023-07-05T10:20:44Z</time>
      </trkpt>
      <trkpt lat="43.66543" lon="1.39271">
        <ele>122</ele>
        <time>2023-07-05T10:20:45Z</time>
      </trkpt>
      <trkpt lat="43.66546" lon="1.39269">
        <ele>122</ele>
        <time>2023-07-05T10:20:46Z</time>
      </trkpt>
      <trkpt lat="43.66549" lon="1.39268">
        <ele>123</ele>
        <time>2023-07-05T10:20:47Z</time>
      </trkpt>
      <trkpt lat="43.66552" lon="1.39267">
        <ele>123</ele>
        <time>2023-07-05T10:20:48Z</time>
      </trkpt>
      <trkpt lat="43.66555" lon="1.39267">
        <ele>122</ele>
        <time>2023-07-05T10:20:49Z</time>
      </trkpt>
      <trkpt lat="43.66558" lon="1.39267">
        <ele>122</ele>
        <time>2023-07-05T10:20:50Z</time>
      </trkpt>
      <trkpt lat="43.6656" lon="1.39268">
        <ele>122</ele>
        <time>2023-07-05T10:20:51Z</time>
      </trkpt>
      <trkpt lat="43.66563" lon="1.3927">
        <ele>123</ele>
        <time>2023-07-05T10:20:52Z</time>
      </trkpt>
      <trkpt lat="43.66566" lon="1.39272">
        <ele>123</ele>
        <time>2023-07-05T10:20:53Z</time>
      </trkpt>
      <trkpt lat="43.66568" lon="1.39275">
        <ele>123</ele>
        <time>2023-07-05T10:20:54Z</time>
      </trkpt>
      <trkpt lat="43.66569" lon="1.39279">
        <ele>123</ele>
        <time>2023-07-05T10:20:55Z</time>
      </trkpt>
      <trkpt lat="43.66571" lon="1.39283">
        <ele>123</ele>
        <time>2023-07-05T10:20:56Z</time>
      </trkpt>
      <trkpt lat="43.66572" lon="1.39286">
        <ele>123</ele>
        <time>2023-07-05T10:20:57Z</time>
      </trkpt>
      <trkpt lat="43.66572" lon="1.3929">
        <ele>123</ele>
        <time>2023-07-05T10:20:58Z</time>
      </trkpt>
      <trkpt lat="43.66572" lon="1.39294">
        <ele>123</ele>
        <time>2023-07-05T10:20:59Z</time>
      </trkpt>
      <trkpt lat="43.66572" lon="1.39298">
        <ele>123</ele>
        <time>2023-07-05T10:21:00Z</time>
      </trkpt>
      <trkpt lat="43.66573" lon="1.39301">
        <ele>123</ele>
        <time>2023-07-05T10:21:01Z</time>
      </trkpt>
      <trkpt lat="43.66573" lon="1.39305">
        <ele>123</ele>
        <time>2023-07-05T10:21:02Z</time>
      </trkpt>
      <trkpt lat="43.66574" lon="1.39309">
        <ele>123</ele>
        <time>2023-07-05T10:21:03Z</time>
      </trkpt>
      <trkpt lat="43.66574" lon="1.39312">
        <ele>123</ele>
        <time>2023-07-05T10:21:04Z</time>
      </trkpt>
      <trkpt lat="43.66575" lon="1.39316">
        <ele>123</ele>
        <time>2023-07-05T10:21:05Z</time>
      </trkpt>
      <trkpt lat="43.66575" lon="1.39319">
        <ele>123</ele>
        <time>2023-07-05T10:21:06Z</time>
      </trkpt>
      <trkpt lat="43.66576" lon="1.39323">
        <ele>123</ele>
        <time>2023-07-05T10:21:07Z</time>
      </trkpt>
      <trkpt lat="43.66577" lon="1.39326">
        <ele>123</ele>
        <time>2023-07-05T10:21:08Z</time>
      </trkpt>
      <trkpt lat="43.66578" lon="1.3933">
        <ele>123</ele>
        <time>2023-07-05T10:21:09Z</time>
      </trkpt>
      <trkpt lat="43.66579" lon="1.39334">
        <ele>123</ele>
        <time>2023-07-05T10:21:10Z</time>
      </trkpt>
      <trkpt lat="43.6658" lon="1.39337">
        <ele>123</ele>
        <time>2023-07-05T10:21:11Z</time>
      </trkpt>
      <trkpt lat="43.66581" lon="1.39341">
        <ele>123</ele>
        <time>2023-07-05T10:21:12Z</time>
      </trkpt>
      <trkpt lat="43.66581" lon="1.39344">
        <ele>123</ele>
        <time>2023-07-05T10:21:13Z</time>
      </trkpt>
      <trkpt lat="43.66583" lon="1.39347">
        <ele>123</ele>
        <time>2023-07-05T10:21:14Z</time>
      </trkpt>
      <trkpt lat="43.66584" lon="1.39351">
        <ele>123</ele>
        <time>2023-07-05T10:21:15Z</time>
      </trkpt>
      <trkpt lat="43.66585" lon="1.39355">
        <ele>123</ele>
        <time>2023-07-05T10:21:16Z</time>
      </trkpt>
      <trkpt lat="43.66587" lon="1.39358">
        <ele>123</ele>
        <time>2023-07-05T10:21:17Z</time>
      </trkpt>
      <trkpt lat="43.66588" lon="1.39361">
        <ele>123</ele>
        <time>2023-07-05T10:21:18Z</time>
      </trkpt>
      <trkpt lat="43.66589" lon="1.39365">
        <ele>123</ele>
        <time>2023-07-05T10:21:19Z</time>
      </trkpt>
      <trkpt lat="43.66589" lon="1.39369">
        <ele>123</ele>
        <time>2023-07-05T10:21:20Z</time>
      </trkpt>
      <trkpt lat="43.6659" lon="1.39372">
        <ele>123</ele>
        <time>2023-07-05T10:21:21Z</time>
      </trkpt>
      <trkpt lat="43.66589" lon="1.39376">
        <ele>123</ele>
        <time>2023-07-05T10:21:22Z</time>
      </trkpt>
      <trkpt lat="43.66588" lon="1.3938">
        <ele>123</ele>
        <time>2023-07-05T10:21:23Z</time>
      </trkpt>
      <trkpt lat="43.66588" lon="1.39384">
        <ele>123</ele>
        <time>2023-07-05T10:21:24Z</time>
      </trkpt>
      <trkpt lat="43.66588" lon="1.39388">
        <ele>123</ele>
        <time>2023-07-05T10:21:25Z</time>
      </trkpt>
      <trkpt lat="43.66589" lon="1.39393">
        <ele>123</ele>
        <time>2023-07-05T10:21:26Z</time>
      </trkpt>
      <trkpt lat="43.66588" lon="1.39398">
        <ele>123</ele>
        <time>2023-07-05T10:21:27Z</time>
      </trkpt>
      <trkpt lat="43.66589" lon="1.39402">
        <ele>123</ele>
        <time>2023-07-05T10:21:28Z</time>
      </trkpt>
      <trkpt lat="43.66588" lon="1.39406">
        <ele>123</ele>
        <time>2023-07-05T10:21:29Z</time>
      </trkpt>
      <trkpt lat="43.66589" lon="1.3941">
        <ele>123</ele>
        <time>2023-07-05T10:21:30Z</time>
      </trkpt>
      <trkpt lat="43.66589" lon="1.39414">
        <ele>123</ele>
        <time>2023-07-05T10:21:31Z</time>
      </trkpt>
      <trkpt lat="43.66589" lon="1.39418">
        <ele>123</ele>
        <time>2023-07-05T10:21:32Z</time>
      </trkpt>
      <trkpt lat="43.66589" lon="1.39421">
        <ele>123</ele>
        <time>2023-07-05T10:21:33Z</time>
      </trkpt>
      <trkpt lat="43.6659" lon="1.39425">
        <ele>123</ele>
        <time>2023-07-05T10:21:34Z</time>
      </trkpt>
      <trkpt lat="43.6659" lon="1.39429">
        <ele>123</ele>
        <time>2023-07-05T10:21:35Z</time>
      </trkpt>
      <trkpt lat="43.66591" lon="1.39434">
        <ele>123</ele>
        <time>2023-07-05T10:21:36Z</time>
      </trkpt>
      <trkpt lat="43.66591" lon="1.39437">
        <ele>123</ele>
        <time>2023-07-05T10:21:37Z</time>
      </trkpt>
      <trkpt lat="43.66593" lon="1.39441">
        <ele>123</ele>
        <time>2023-07-05T10:21:38Z</time>
      </trkpt>
      <trkpt lat="43.66594" lon="1.39445">
        <ele>123</ele>
        <time>2023-07-05T10:21:39Z</time>
      </trkpt>
      <trkpt lat="43.66594" lon="1.39448">
        <ele>122</ele>
        <time>2023-07-05T10:21:40Z</time>
      </trkpt>
      <trkpt lat="43.66595" lon="1.39451">
        <ele>122</ele>
        <time>2023-07-05T10:21:41Z</time>
      </trkpt>
      <trkpt lat="43.66596" lon="1.39455">
        <ele>122</ele>
        <time>2023-07-05T10:21:42Z</time>
      </trkpt>
      <trkpt lat="43.66597" lon="1.39458">
        <ele>122</ele>
        <time>2023-07-05T10:21:43Z</time>
      </trkpt>
      <trkpt lat="43.66597" lon="1.39462">
        <ele>122</ele>
        <time>2023-07-05T10:21:44Z</time>
      </trkpt>
      <trkpt lat="43.66597" lon="1.39466">
        <ele>123</ele>
        <time>2023-07-05T10:21:45Z</time>
      </trkpt>
      <trkpt lat="43.66597" lon="1.39469">
        <ele>123</ele>
        <time>2023-07-05T10:21:46Z</time>
      </trkpt>
      <trkpt lat="43.66598" lon="1.39472">
        <ele>123</ele>
        <time>2023-07-05T10:21:47Z</time>
      </trkpt>
      <trkpt lat="43.66598" lon="1.39474">
        <ele>123</ele>
        <time>2023-07-05T10:21:48Z</time>
      </trkpt>
      <trkpt lat="43.66599" lon="1.39478">
        <ele>123</ele>
        <time>2023-07-05T10:21:49Z</time>
      </trkpt>
      <trkpt lat="43.666" lon="1.39481">
        <ele>123</ele>
        <time>2023-07-05T10:21:50Z</time>
      </trkpt>
      <trkpt lat="43.66601" lon="1.39485">
        <ele>123</ele>
        <time>2023-07-05T10:21:51Z</time>
      </trkpt>
      <trkpt lat="43.66601" lon="1.39489">
        <ele>123</ele>
        <time>2023-07-05T10:21:52Z</time>
      </trkpt>
      <trkpt lat="43.66601" lon="1.39493">
        <ele>123</ele>
        <time>2023-07-05T10:21:53Z</time>
      </trkpt>
      <trkpt lat="43.66601" lon="1.39498">
        <ele>123</ele>
        <time>2023-07-05T10:21:54Z</time>
      </trkpt>
      <trkpt lat="43.66602" lon="1.39503">
        <ele>123</ele>
        <time>2023-07-05T10:21:55Z</time>
      </trkpt>
      <trkpt lat="43.66602" lon="1.39506">
        <ele>122</ele>
        <time>2023-07-05T10:21:56Z</time>
      </trkpt>
      <trkpt lat="43.66602" lon="1.3951">
        <ele>122</ele>
        <time>2023-07-05T10:21:57Z</time>
      </trkpt>
      <trkpt lat="43.66601" lon="1.39514">
        <ele>122</ele>
        <time>2023-07-05T10:21:58Z</time>
      </trkpt>
      <trkpt lat="43.666" lon="1.39518">
        <ele>122</ele>
        <time>2023-07-05T10:21:59Z</time>
      </trkpt>
      <trkpt lat="43.66601" lon="1.39522">
        <ele>122</ele>
        <time>2023-07-05T10:22:00Z</time>
      </trkpt>
      <trkpt lat="43.66601" lon="1.39522">
        <ele>122</ele>
        <time>2023-07-05T10:22:01Z</time>
      </trkpt>
      <trkpt lat="43.66601" lon="1.39526">
        <ele>122</ele>
        <time>2023-07-05T10:22:02Z</time>
      </trkpt>
      <trkpt lat="43.66602" lon="1.3953">
        <ele>122</ele>
        <time>2023-07-05T10:22:03Z</time>
      </trkpt>
      <trkpt lat="43.66603" lon="1.39533">
        <ele>122</ele>
        <time>2023-07-05T10:22:04Z</time>
      </trkpt>
      <trkpt lat="43.66603" lon="1.39537">
        <ele>122</ele>
        <time>2023-07-05T10:22:05Z</time>
      </trkpt>
      <trkpt lat="43.66604" lon="1.3954">
        <ele>122</ele>
        <time>2023-07-05T10:22:06Z</time>
      </trkpt>
      <trkpt lat="43.66604" lon="1.39543">
        <ele>122</ele>
        <time>2023-07-05T10:22:07Z</time>
      </trkpt>
      <trkpt lat="43.66604" lon="1.39546">
        <ele>122</ele>
        <time>2023-07-05T10:22:08Z</time>
      </trkpt>
      <trkpt lat="43.66604" lon="1.39549">
        <ele>122</ele>
        <time>2023-07-05T10:22:09Z</time>
      </trkpt>
      <trkpt lat="43.66605" lon="1.39552">
        <ele>122</ele>
        <time>2023-07-05T10:22:10Z</time>
      </trkpt>
      <trkpt lat="43.66605" lon="1.39555">
        <ele>122</ele>
        <time>2023-07-05T10:22:11Z</time>
      </trkpt>
      <trkpt lat="43.66606" lon="1.39558">
        <ele>123</ele>
        <time>2023-07-05T10:22:12Z</time>
      </trkpt>
      <trkpt lat="43.66607" lon="1.39561">
        <ele>123</ele>
        <time>2023-07-05T10:22:13Z</time>
      </trkpt>
      <trkpt lat="43.66607" lon="1.39564">
        <ele>123</ele>
        <time>2023-07-05T10:22:14Z</time>
      </trkpt>
      <trkpt lat="43.66608" lon="1.39567">
        <ele>123</ele>
        <time>2023-07-05T10:22:15Z</time>
      </trkpt>
      <trkpt lat="43.66609" lon="1.3957">
        <ele>123</ele>
        <time>2023-07-05T10:22:16Z</time>
      </trkpt>
      <trkpt lat="43.66609" lon="1.39573">
        <ele>123</ele>
        <time>2023-07-05T10:22:17Z</time>
      </trkpt>
      <trkpt lat="43.6661" lon="1.39576">
        <ele>123</ele>
        <time>2023-07-05T10:22:18Z</time>
      </trkpt>
      <trkpt lat="43.66611" lon="1.3958">
        <ele>123</ele>
        <time>2023-07-05T10:22:19Z</time>
      </trkpt>
      <trkpt lat="43.66612" lon="1.39583">
        <ele>123</ele>
        <time>2023-07-05T10:22:20Z</time>
      </trkpt>
      <trkpt lat="43.66614" lon="1.39587">
        <ele>123</ele>
        <time>2023-07-05T10:22:21Z</time>
      </trkpt>
      <trkpt lat="43.66615" lon="1.3959">
        <ele>123</ele>
        <time>2023-07-05T10:22:22Z</time>
      </trkpt>
      <trkpt lat="43.66616" lon="1.39594">
        <ele>123</ele>
        <time>2023-07-05T10:22:23Z</time>
      </trkpt>
      <trkpt lat="43.66617" lon="1.39599">
        <ele>123</ele>
        <time>2023-07-05T10:22:24Z</time>
      </trkpt>
      <trkpt lat="43.66618" lon="1.39603">
        <ele>123</ele>
        <time>2023-07-05T10:22:25Z</time>
      </trkpt>
      <trkpt lat="43.66619" lon="1.39607">
        <ele>123</ele>
        <time>2023-07-05T10:22:26Z</time>
      </trkpt>
      <trkpt lat="43.6662" lon="1.39611">
        <ele>123</ele>
        <time>2023-07-05T10:22:27Z</time>
      </trkpt>
      <trkpt lat="43.66621" lon="1.39615">
        <ele>123</ele>
        <time>2023-07-05T10:22:28Z</time>
      </trkpt>
      <trkpt lat="43.66622" lon="1.3962">
        <ele>123</ele>
        <time>2023-07-05T10:22:29Z</time>
      </trkpt>
      <trkpt lat="43.66622" lon="1.39624">
        <ele>123</ele>
        <time>2023-07-05T10:22:30Z</time>
      </trkpt>
      <trkpt lat="43.66623" lon="1.39628">
        <ele>123</ele>
        <time>2023-07-05T10:22:31Z</time>
      </trkpt>
      <trkpt lat="43.66623" lon="1.39632">
        <ele>123</ele>
        <time>2023-07-05T10:22:32Z</time>
      </trkpt>
      <trkpt lat="43.66623" lon="1.39636">
        <ele>123</ele>
        <time>2023-07-05T10:22:33Z</time>
      </trkpt>
      <trkpt lat="43.66624" lon="1.3964">
        <ele>123</ele>
        <time>2023-07-05T10:22:34Z</time>
      </trkpt>
      <trkpt lat="43.66625" lon="1.39644">
        <ele>123</ele>
        <time>2023-07-05T10:22:35Z</time>
      </trkpt>
      <trkpt lat="43.66626" lon="1.39648">
        <ele>123</ele>
        <time>2023-07-05T10:22:36Z</time>
      </trkpt>
      <trkpt lat="43.66627" lon="1.39652">
        <ele>123</ele>
        <time>2023-07-05T10:22:37Z</time>
      </trkpt>
      <trkpt lat="43.66628" lon="1.39656">
        <ele>123</ele>
        <time>2023-07-05T10:22:38Z</time>
      </trkpt>
      <trkpt lat="43.66629" lon="1.39659">
        <ele>123</ele>
        <time>2023-07-05T10:22:39Z</time>
      </trkpt>
      <trkpt lat="43.6663" lon="1.39663">
        <ele>123</ele>
        <time>2023-07-05T10:22:40Z</time>
      </trkpt>
      <trkpt lat="43.6663" lon="1.39667">
        <ele>123</ele>
        <time>2023-07-05T10:22:41Z</time>
      </trkpt>
      <trkpt lat="43.6663" lon="1.3967">
        <ele>123</ele>
        <time>2023-07-05T10:22:42Z</time>
      </trkpt>
      <trkpt lat="43.66631" lon="1.39674">
        <ele>123</ele>
        <time>2023-07-05T10:22:43Z</time>
      </trkpt>
      <trkpt lat="43.66631" lon="1.39678">
        <ele>123</ele>
        <time>2023-07-05T10:22:44Z</time>
      </trkpt>
      <trkpt lat="43.66631" lon="1.39682">
        <ele>123</ele>
        <time>2023-07-05T10:22:45Z</time>
      </trkpt>
      <trkpt lat="43.66631" lon="1.39687">
        <ele>123</ele>
        <time>2023-07-05T10:22:46Z</time>
      </trkpt>
      <trkpt lat="43.66631" lon="1.39692">
        <ele>123</ele>
        <time>2023-07-05T10:22:47Z</time>
      </trkpt>
      <trkpt lat="43.66632" lon="1.39697">
        <ele>123</ele>
        <time>2023-07-05T10:22:48Z</time>
      </trkpt>
      <trkpt lat="43.66631" lon="1.39702">
        <ele>123</ele>
        <time>2023-07-05T10:22:49Z</time>
      </trkpt>
      <trkpt lat="43.66631" lon="1.39702">
        <ele>123</ele>
        <time>2023-07-05T10:22:50Z</time>
      </trkpt>
      <trkpt lat="43.66632" lon="1.39705">
        <ele>123</ele>
        <time>2023-07-05T10:22:51Z</time>
      </trkpt>
      <trkpt lat="43.66632" lon="1.39708">
        <ele>123</ele>
        <time>2023-07-05T10:22:52Z</time>
      </trkpt>
      <trkpt lat="43.66633" lon="1.39712">
        <ele>123</ele>
        <time>2023-07-05T10:22:53Z</time>
      </trkpt>
      <trkpt lat="43.66633" lon="1.39715">
        <ele>123</ele>
        <time>2023-07-05T10:22:54Z</time>
      </trkpt>
      <trkpt lat="43.66634" lon="1.39719">
        <ele>123</ele>
        <time>2023-07-05T10:22:55Z</time>
      </trkpt>
      <trkpt lat="43.66635" lon="1.39722">
        <ele>123</ele>
        <time>2023-07-05T10:22:56Z</time>
      </trkpt>
      <trkpt lat="43.66635" lon="1.39725">
        <ele>123</ele>
        <time>2023-07-05T10:22:57Z</time>
      </trkpt>
      <trkpt lat="43.66636" lon="1.39728">
        <ele>123</ele>
        <time>2023-07-05T10:22:58Z</time>
      </trkpt>
      <trkpt lat="43.66637" lon="1.39732">
        <ele>123</ele>
        <time>2023-07-05T10:22:59Z</time>
      </trkpt>
      <trkpt lat="43.66637" lon="1.39736">
        <ele>123</ele>
        <time>2023-07-05T10:23:00Z</time>
      </trkpt>
      <trkpt lat="43.66638" lon="1.3974">
        <ele>123</ele>
        <time>2023-07-05T10:23:01Z</time>
      </trkpt>
      <trkpt lat="43.66639" lon="1.39744">
        <ele>123</ele>
        <time>2023-07-05T10:23:02Z</time>
      </trkpt>
      <trkpt lat="43.66638" lon="1.39748">
        <ele>123</ele>
        <time>2023-07-05T10:23:03Z</time>
      </trkpt>
      <trkpt lat="43.66638" lon="1.39752">
        <ele>123</ele>
        <time>2023-07-05T10:23:04Z</time>
      </trkpt>
      <trkpt lat="43.66638" lon="1.39756">
        <ele>123</ele>
        <time>2023-07-05T10:23:05Z</time>
      </trkpt>
      <trkpt lat="43.66637" lon="1.3976">
        <ele>123</ele>
        <time>2023-07-05T10:23:06Z</time>
      </trkpt>
      <trkpt lat="43.66638" lon="1.39765">
        <ele>123</ele>
        <time>2023-07-05T10:23:07Z</time>
      </trkpt>
      <trkpt lat="43.66638" lon="1.3977">
        <ele>123</ele>
        <time>2023-07-05T10:23:08Z</time>
      </trkpt>
      <trkpt lat="43.66638" lon="1.39776">
        <ele>123</ele>
        <time>2023-07-05T10:23:09Z</time>
      </trkpt>
      <trkpt lat="43.66638" lon="1.3978">
        <ele>123</ele>
        <time>2023-07-05T10:23:10Z</time>
      </trkpt>
      <trkpt lat="43.66638" lon="1.3978">
        <ele>123</ele>
        <time>2023-07-05T10:23:11Z</time>
      </trkpt>
      <trkpt lat="43.66637" lon="1.39784">
        <ele>123</ele>
        <time>2023-07-05T10:23:12Z</time>
      </trkpt>
      <trkpt lat="43.66636" lon="1.39789">
        <ele>123</ele>
        <time>2023-07-05T10:23:13Z</time>
      </trkpt>
      <trkpt lat="43.66635" lon="1.39793">
        <ele>123</ele>
        <time>2023-07-05T10:23:14Z</time>
      </trkpt>
      <trkpt lat="43.66634" lon="1.39798">
        <ele>123</ele>
        <time>2023-07-05T10:23:15Z</time>
      </trkpt>
      <trkpt lat="43.66634" lon="1.39801">
        <ele>123</ele>
        <time>2023-07-05T10:23:16Z</time>
      </trkpt>
      <trkpt lat="43.66634" lon="1.39811">
        <ele>123</ele>
        <time>2023-07-05T10:23:17Z</time>
      </trkpt>
      <trkpt lat="43.66634" lon="1.39811">
        <ele>123</ele>
        <time>2023-07-05T10:23:18Z</time>
      </trkpt>
      <trkpt lat="43.66634" lon="1.39819">
        <ele>123</ele>
        <time>2023-07-05T10:23:19Z</time>
      </trkpt>
      <trkpt lat="43.66634" lon="1.39821">
        <ele>123</ele>
        <time>2023-07-05T10:23:20Z</time>
      </trkpt>
      <trkpt lat="43.66634" lon="1.39821">
        <ele>123</ele>
        <time>2023-07-05T10:23:21Z</time>
      </trkpt>
      <trkpt lat="43.66635" lon="1.39826">
        <ele>123</ele>
        <time>2023-07-05T10:23:22Z</time>
      </trkpt>
      <trkpt lat="43.66636" lon="1.39831">
        <ele>123</ele>
        <time>2023-07-05T10:23:23Z</time>
      </trkpt>
      <trkpt lat="43.66636" lon="1.39835">
        <ele>123</ele>
        <time>2023-07-05T10:23:24Z</time>
      </trkpt>
      <trkpt lat="43.66637" lon="1.3984">
        <ele>123</ele>
        <time>2023-07-05T10:23:25Z</time>
      </trkpt>
      <trkpt lat="43.66638" lon="1.39845">
        <ele>123</ele>
        <time>2023-07-05T10:23:26Z</time>
      </trkpt>
      <trkpt lat="43.66639" lon="1.3985">
        <ele>123</ele>
        <time>2023-07-05T10:23:27Z</time>
      </trkpt>
      <trkpt lat="43.66639" lon="1.39854">
        <ele>123</ele>
        <time>2023-07-05T10:23:28Z</time>
      </trkpt>
      <trkpt lat="43.66639" lon="1.39858">
        <ele>123</ele>
        <time>2023-07-05T10:23:29Z</time>
      </trkpt>
      <trkpt lat="43.66639" lon="1.39862">
        <ele>123</ele>
        <time>2023-07-05T10:23:30Z</time>
      </trkpt>
      <trkpt lat="43.66638" lon="1.39867">
        <ele>123</ele>
        <time>2023-07-05T10:23:31Z</time>
      </trkpt>
      <trkpt lat="43.66638" lon="1.39871">
        <ele>123</ele>
        <time>2023-07-05T10:23:32Z</time>
      </trkpt>
      <trkpt lat="43.66638" lon="1.39874">
        <ele>122</ele>
        <time>2023-07-05T10:23:33Z</time>
      </trkpt>
      <trkpt lat="43.66637" lon="1.39878">
        <ele>122</ele>
        <time>2023-07-05T10:23:34Z</time>
      </trkpt>
      <trkpt lat="43.66637" lon="1.39882">
        <ele>122</ele>
        <time>2023-07-05T10:23:35Z</time>
      </trkpt>
      <trkpt lat="43.66636" lon="1.39885">
        <ele>122</ele>
        <time>2023-07-05T10:23:36Z</time>
      </trkpt>
      <trkpt lat="43.66634" lon="1.3989">
        <ele>123</ele>
        <time>2023-07-05T10:23:37Z</time>
      </trkpt>
      <trkpt lat="43.66633" lon="1.39894">
        <ele>123</ele>
        <time>2023-07-05T10:23:38Z</time>
      </trkpt>
      <trkpt lat="43.66631" lon="1.39897">
        <ele>123</ele>
        <time>2023-07-05T10:23:39Z</time>
      </trkpt>
      <trkpt lat="43.6663" lon="1.39901">
        <ele>123</ele>
        <time>2023-07-05T10:23:40Z</time>
      </trkpt>
      <trkpt lat="43.66628" lon="1.39904">
        <ele>123</ele>
        <time>2023-07-05T10:23:41Z</time>
      </trkpt>
      <trkpt lat="43.66627" lon="1.39907">
        <ele>123</ele>
        <time>2023-07-05T10:23:42Z</time>
      </trkpt>
      <trkpt lat="43.66626" lon="1.3991">
        <ele>123</ele>
        <time>2023-07-05T10:23:43Z</time>
      </trkpt>
      <trkpt lat="43.66625" lon="1.39914">
        <ele>123</ele>
        <time>2023-07-05T10:23:44Z</time>
      </trkpt>
      <trkpt lat="43.66624" lon="1.39917">
        <ele>123</ele>
        <time>2023-07-05T10:23:45Z</time>
      </trkpt>
      <trkpt lat="43.66622" lon="1.3992">
        <ele>123</ele>
        <time>2023-07-05T10:23:46Z</time>
      </trkpt>
      <trkpt lat="43.66621" lon="1.39922">
        <ele>123</ele>
        <time>2023-07-05T10:23:47Z</time>
      </trkpt>
      <trkpt lat="43.6662" lon="1.39924">
        <ele>123</ele>
        <time>2023-07-05T10:23:48Z</time>
      </trkpt>
      <trkpt lat="43.66619" lon="1.39928">
        <ele>123</ele>
        <time>2023-07-05T10:23:49Z</time>
      </trkpt>
      <trkpt lat="43.66618" lon="1.39932">
        <ele>123</ele>
        <time>2023-07-05T10:23:50Z</time>
      </trkpt>
      <trkpt lat="43.66617" lon="1.39937">
        <ele>123</ele>
        <time>2023-07-05T10:23:51Z</time>
      </trkpt>
      <trkpt lat="43.66616" lon="1.39941">
        <ele>123</ele>
        <time>2023-07-05T10:23:52Z</time>
      </trkpt>
      <trkpt lat="43.66615" lon="1.39945">
        <ele>123</ele>
        <time>2023-07-05T10:23:53Z</time>
      </trkpt>
      <trkpt lat="43.66614" lon="1.39948">
        <ele>123</ele>
        <time>2023-07-05T10:23:54Z</time>
      </trkpt>
      <trkpt lat="43.66613" lon="1.39951">
        <ele>123</ele>
        <time>2023-07-05T10:23:55Z</time>
      </trkpt>
      <trkpt lat="43.66612" lon="1.39955">
        <ele>123</ele>
        <time>2023-07-05T10:23:56Z</time>
      </trkpt>
      <trkpt lat="43.66611" lon="1.39958">
        <ele>123</ele>
        <time>2023-07-05T10:23:57Z</time>
      </trkpt>
      <trkpt lat="43.66611" lon="1.39962">
        <ele>123</ele>
        <time>2023-07-05T10:23:58Z</time>
      </trkpt>
      <trkpt lat="43.6661" lon="1.39966">
        <ele>123</ele>
        <time>2023-07-05T10:23:59Z</time>
      </trkpt>
      <trkpt lat="43.66609" lon="1.3997">
        <ele>123</ele>
        <time>2023-07-05T10:24:00Z</time>
      </trkpt>
      <trkpt lat="43.66607" lon="1.39974">
        <ele>123</ele>
        <time>2023-07-05T10:24:01Z</time>
      </trkpt>
      <trkpt lat="43.66606" lon="1.39978">
        <ele>123</ele>
        <time>2023-07-05T10:24:02Z</time>
      </trkpt>
      <trkpt lat="43.66606" lon="1.39978">
        <ele>123</ele>
        <time>2023-07-05T10:24:03Z</time>
      </trkpt>
      <trkpt lat="43.66603" lon="1.39984">
        <ele>123</ele>
        <time>2023-07-05T10:24:04Z</time>
      </trkpt>
      <trkpt lat="43.66602" lon="1.39986">
        <ele>123</ele>
        <time>2023-07-05T10:24:05Z</time>
      </trkpt>
      <trkpt lat="43.66601" lon="1.39988">
        <ele>123</ele>
        <time>2023-07-05T10:24:06Z</time>
      </trkpt>
      <trkpt lat="43.66601" lon="1.39988">
        <ele>123</ele>
        <time>2023-07-05T10:24:07Z</time>
      </trkpt>
      <trkpt lat="43.66599" lon="1.39997">
        <ele>123</ele>
        <time>2023-07-05T10:24:08Z</time>
      </trkpt>
      <trkpt lat="43.66598" lon="1.39999">
        <ele>123</ele>
        <time>2023-07-05T10:24:09Z</time>
      </trkpt>
      <trkpt lat="43.66598" lon="1.40003">
        <ele>123</ele>
        <time>2023-07-05T10:24:10Z</time>
      </trkpt>
      <trkpt lat="43.66598" lon="1.40003">
        <ele>123</ele>
        <time>2023-07-05T10:24:11Z</time>
      </trkpt>
      <trkpt lat="43.66597" lon="1.40008">
        <ele>123</ele>
        <time>2023-07-05T10:24:12Z</time>
      </trkpt>
      <trkpt lat="43.66596" lon="1.40013">
        <ele>123</ele>
        <time>2023-07-05T10:24:13Z</time>
      </trkpt>
      <trkpt lat="43.66595" lon="1.40017">
        <ele>123</ele>
        <time>2023-07-05T10:24:14Z</time>
      </trkpt>
      <trkpt lat="43.66594" lon="1.40022">
        <ele>123</ele>
        <time>2023-07-05T10:24:15Z</time>
      </trkpt>
      <trkpt lat="43.66592" lon="1.40026">
        <ele>123</ele>
        <time>2023-07-05T10:24:16Z</time>
      </trkpt>
      <trkpt lat="43.66591" lon="1.40029">
        <ele>123</ele>
        <time>2023-07-05T10:24:17Z</time>
      </trkpt>
      <trkpt lat="43.66589" lon="1.40032">
        <ele>123</ele>
        <time>2023-07-05T10:24:18Z</time>
      </trkpt>
      <trkpt lat="43.66588" lon="1.40035">
        <ele>123</ele>
        <time>2023-07-05T10:24:19Z</time>
      </trkpt>
      <trkpt lat="43.66587" lon="1.40038">
        <ele>123</ele>
        <time>2023-07-05T10:24:20Z</time>
      </trkpt>
      <trkpt lat="43.66585" lon="1.40041">
        <ele>123</ele>
        <time>2023-07-05T10:24:21Z</time>
      </trkpt>
      <trkpt lat="43.66584" lon="1.40045">
        <ele>123</ele>
        <time>2023-07-05T10:24:22Z</time>
      </trkpt>
      <trkpt lat="43.66582" lon="1.40048">
        <ele>123</ele>
        <time>2023-07-05T10:24:23Z</time>
      </trkpt>
      <trkpt lat="43.66581" lon="1.40051">
        <ele>123</ele>
        <time>2023-07-05T10:24:24Z</time>
      </trkpt>
      <trkpt lat="43.66581" lon="1.40051">
        <ele>123</ele>
        <time>2023-07-05T10:24:25Z</time>
      </trkpt>
      <trkpt lat="43.66579" lon="1.40055">
        <ele>123</ele>
        <time>2023-07-05T10:24:26Z</time>
      </trkpt>
      <trkpt lat="43.66578" lon="1.40059">
        <ele>123</ele>
        <time>2023-07-05T10:24:27Z</time>
      </trkpt>
      <trkpt lat="43.66576" lon="1.40063">
        <ele>123</ele>
        <time>2023-07-05T10:24:28Z</time>
      </trkpt>
      <trkpt lat="43.66574" lon="1.40067">
        <ele>123</ele>
        <time>2023-07-05T10:24:29Z</time>
      </trkpt>
      <trkpt lat="43.66572" lon="1.40071">
        <ele>123</ele>
        <time>2023-07-05T10:24:30Z</time>
      </trkpt>
      <trkpt lat="43.66571" lon="1.40073">
        <ele>123</ele>
        <time>2023-07-05T10:24:31Z</time>
      </trkpt>
      <trkpt lat="43.66568" lon="1.40075">
        <ele>123</ele>
        <time>2023-07-05T10:24:32Z</time>
      </trkpt>
      <trkpt lat="43.66568" lon="1.40075">
        <ele>123</ele>
        <time>2023-07-05T10:24:33Z</time>
      </trkpt>
      <trkpt lat="43.66563" lon="1.40082">
        <ele>123</ele>
        <time>2023-07-05T10:24:34Z</time>
      </trkpt>
      <trkpt lat="43.66563" lon="1.40082">
        <ele>123</ele>
        <time>2023-07-05T10:24:35Z</time>
      </trkpt>
      <trkpt lat="43.66561" lon="1.40084">
        <ele>123</ele>
        <time>2023-07-05T10:24:36Z</time>
      </trkpt>
      <trkpt lat="43.66559" lon="1.40087">
        <ele>123</ele>
        <time>2023-07-05T10:24:37Z</time>
      </trkpt>
      <trkpt lat="43.66556" lon="1.4009">
        <ele>123</ele>
        <time>2023-07-05T10:24:38Z</time>
      </trkpt>
      <trkpt lat="43.66555" lon="1.40094">
        <ele>123</ele>
        <time>2023-07-05T10:24:39Z</time>
      </trkpt>
      <trkpt lat="43.66553" lon="1.40099">
        <ele>123</ele>
        <time>2023-07-05T10:24:40Z</time>
      </trkpt>
      <trkpt lat="43.66551" lon="1.40103">
        <ele>123</ele>
        <time>2023-07-05T10:24:41Z</time>
      </trkpt>
      <trkpt lat="43.66551" lon="1.40103">
        <ele>123</ele>
        <time>2023-07-05T10:24:42Z</time>
      </trkpt>
      <trkpt lat="43.6655" lon="1.40111">
        <ele>123</ele>
        <time>2023-07-05T10:24:43Z</time>
      </trkpt>
      <trkpt lat="43.6655" lon="1.40111">
        <ele>123</ele>
        <time>2023-07-05T10:24:44Z</time>
      </trkpt>
      <trkpt lat="43.66547" lon="1.40119">
        <ele>123</ele>
        <time>2023-07-05T10:24:45Z</time>
      </trkpt>
      <trkpt lat="43.66546" lon="1.40121">
        <ele>123</ele>
        <time>2023-07-05T10:24:46Z</time>
      </trkpt>
      <trkpt lat="43.66546" lon="1.40121">
        <ele>123</ele>
        <time>2023-07-05T10:24:47Z</time>
      </trkpt>
      <trkpt lat="43.66544" lon="1.40124">
        <ele>123</ele>
        <time>2023-07-05T10:24:48Z</time>
      </trkpt>
      <trkpt lat="43.66542" lon="1.40127">
        <ele>123</ele>
        <time>2023-07-05T10:24:49Z</time>
      </trkpt>
      <trkpt lat="43.6654" lon="1.4013">
        <ele>123</ele>
        <time>2023-07-05T10:24:50Z</time>
      </trkpt>
      <trkpt lat="43.66538" lon="1.40133">
        <ele>123</ele>
        <time>2023-07-05T10:24:51Z</time>
      </trkpt>
      <trkpt lat="43.66535" lon="1.40136">
        <ele>123</ele>
        <time>2023-07-05T10:24:52Z</time>
      </trkpt>
      <trkpt lat="43.66533" lon="1.40139">
        <ele>123</ele>
        <time>2023-07-05T10:24:53Z</time>
      </trkpt>
      <trkpt lat="43.66531" lon="1.40142">
        <ele>123</ele>
        <time>2023-07-05T10:24:54Z</time>
      </trkpt>
      <trkpt lat="43.66529" lon="1.40145">
        <ele>123</ele>
        <time>2023-07-05T10:24:55Z</time>
      </trkpt>
      <trkpt lat="43.66528" lon="1.40148">
        <ele>123</ele>
        <time>2023-07-05T10:24:56Z</time>
      </trkpt>
      <trkpt lat="43.66524" lon="1.40155">
        <ele>123</ele>
        <time>2023-07-05T10:24:57Z</time>
      </trkpt>
      <trkpt lat="43.66524" lon="1.40155">
        <ele>123</ele>
        <time>2023-07-05T10:24:58Z</time>
      </trkpt>
      <trkpt lat="43.66522" lon="1.40159">
        <ele>123</ele>
        <time>2023-07-05T10:24:59Z</time>
      </trkpt>
      <trkpt lat="43.6652" lon="1.40162">
        <ele>123</ele>
        <time>2023-07-05T10:25:00Z</time>
      </trkpt>
      <trkpt lat="43.66518" lon="1.40166">
        <ele>123</ele>
        <time>2023-07-05T10:25:01Z</time>
      </trkpt>
      <trkpt lat="43.66516" lon="1.40169">
        <ele>123</ele>
        <time>2023-07-05T10:25:02Z</time>
      </trkpt>
      <trkpt lat="43.66514" lon="1.40171">
        <ele>123</ele>
        <time>2023-07-05T10:25:03Z</time>
      </trkpt>
      <trkpt lat="43.66514" lon="1.40171">
        <ele>123</ele>
        <time>2023-07-05T10:25:04Z</time>
      </trkpt>
      <trkpt lat="43.66513" lon="1.40174">
        <ele>123</ele>
        <time>2023-07-05T10:25:05Z</time>
      </trkpt>
      <trkpt lat="43.66511" lon="1.40176">
        <ele>123</ele>
        <time>2023-07-05T10:25:06Z</time>
      </trkpt>
      <trkpt lat="43.66509" lon="1.40179">
        <ele>123</ele>
        <time>2023-07-05T10:25:07Z</time>
      </trkpt>
      <trkpt lat="43.66507" lon="1.40181">
        <ele>123</ele>
        <time>2023-07-05T10:25:08Z</time>
      </trkpt>
      <trkpt lat="43.66504" lon="1.40184">
        <ele>123</ele>
        <time>2023-07-05T10:25:09Z</time>
      </trkpt>
      <trkpt lat="43.66502" lon="1.40187">
        <ele>123</ele>
        <time>2023-07-05T10:25:10Z</time>
      </trkpt>
      <trkpt lat="43.66499" lon="1.40191">
        <ele>123</ele>
        <time>2023-07-05T10:25:11Z</time>
      </trkpt>
      <trkpt lat="43.66496" lon="1.40193">
        <ele>123</ele>
        <time>2023-07-05T10:25:12Z</time>
      </trkpt>
      <trkpt lat="43.66493" lon="1.40195">
        <ele>123</ele>
        <time>2023-07-05T10:25:13Z</time>
      </trkpt>
      <trkpt lat="43.6649" lon="1.40197">
        <ele>123</ele>
        <time>2023-07-05T10:25:14Z</time>
      </trkpt>
      <trkpt lat="43.66486" lon="1.40199">
        <ele>123</ele>
        <time>2023-07-05T10:25:15Z</time>
      </trkpt>
      <trkpt lat="43.66482" lon="1.40201">
        <ele>123</ele>
        <time>2023-07-05T10:25:16Z</time>
      </trkpt>
      <trkpt lat="43.66478" lon="1.40203">
        <ele>123</ele>
        <time>2023-07-05T10:25:17Z</time>
      </trkpt>
      <trkpt lat="43.66475" lon="1.40206">
        <ele>123</ele>
        <time>2023-07-05T10:25:18Z</time>
      </trkpt>
      <trkpt lat="43.66474" lon="1.40207">
        <ele>123</ele>
        <time>2023-07-05T10:25:19Z</time>
      </trkpt>
      <trkpt lat="43.66472" lon="1.4021">
        <ele>123</ele>
        <time>2023-07-05T10:25:20Z</time>
      </trkpt>
      <trkpt lat="43.66472" lon="1.4021">
        <ele>123</ele>
        <time>2023-07-05T10:25:21Z</time>
      </trkpt>
      <trkpt lat="43.66468" lon="1.40217">
        <ele>123</ele>
        <time>2023-07-05T10:25:22Z</time>
      </trkpt>
      <trkpt lat="43.66467" lon="1.40219">
        <ele>123</ele>
        <time>2023-07-05T10:25:23Z</time>
      </trkpt>
      <trkpt lat="43.66465" lon="1.40222">
        <ele>123</ele>
        <time>2023-07-05T10:25:24Z</time>
      </trkpt>
      <trkpt lat="43.66463" lon="1.40226">
        <ele>123</ele>
        <time>2023-07-05T10:25:25Z</time>
      </trkpt>
      <trkpt lat="43.66461" lon="1.40229">
        <ele>123</ele>
        <time>2023-07-05T10:25:26Z</time>
      </trkpt>
      <trkpt lat="43.6646" lon="1.40232">
        <ele>123</ele>
        <time>2023-07-05T10:25:27Z</time>
      </trkpt>
      <trkpt lat="43.6646" lon="1.40232">
        <ele>123</ele>
        <time>2023-07-05T10:25:28Z</time>
      </trkpt>
      <trkpt lat="43.66458" lon="1.40234">
        <ele>123</ele>
        <time>2023-07-05T10:25:29Z</time>
      </trkpt>
      <trkpt lat="43.66455" lon="1.40237">
        <ele>123</ele>
        <time>2023-07-05T10:25:30Z</time>
      </trkpt>
      <trkpt lat="43.66453" lon="1.40239">
        <ele>123</ele>
        <time>2023-07-05T10:25:31Z</time>
      </trkpt>
      <trkpt lat="43.66451" lon="1.40241">
        <ele>123</ele>
        <time>2023-07-05T10:25:32Z</time>
      </trkpt>
      <trkpt lat="43.66449" lon="1.40243">
        <ele>123</ele>
        <time>2023-07-05T10:25:33Z</time>
      </trkpt>
      <trkpt lat="43.66447" lon="1.40245">
        <ele>123</ele>
        <time>2023-07-05T10:25:34Z</time>
      </trkpt>
      <trkpt lat="43.66445" lon="1.40247">
        <ele>123</ele>
        <time>2023-07-05T10:25:35Z</time>
      </trkpt>
      <trkpt lat="43.66442" lon="1.40249">
        <ele>123</ele>
        <time>2023-07-05T10:25:36Z</time>
      </trkpt>
      <trkpt lat="43.66439" lon="1.40251">
        <ele>123</ele>
        <time>2023-07-05T10:25:37Z</time>
      </trkpt>
      <trkpt lat="43.66437" lon="1.40254">
        <ele>123</ele>
        <time>2023-07-05T10:25:38Z</time>
      </trkpt>
      <trkpt lat="43.66434" lon="1.40256">
        <ele>123</ele>
        <time>2023-07-05T10:25:39Z</time>
      </trkpt>
      <trkpt lat="43.66432" lon="1.40259">
        <ele>123</ele>
        <time>2023-07-05T10:25:40Z</time>
      </trkpt>
      <trkpt lat="43.66431" lon="1.40262">
        <ele>123</ele>
        <time>2023-07-05T10:25:41Z</time>
      </trkpt>
      <trkpt lat="43.66429" lon="1.40265">
        <ele>123</ele>
        <time>2023-07-05T10:25:42Z</time>
      </trkpt>
      <trkpt lat="43.66427" lon="1.40268">
        <ele>123</ele>
        <time>2023-07-05T10:25:43Z</time>
      </trkpt>
      <trkpt lat="43.66425" lon="1.40272">
        <ele>123</ele>
        <time>2023-07-05T10:25:44Z</time>
      </trkpt>
      <trkpt lat="43.66422" lon="1.40277">
        <ele>123</ele>
        <time>2023-07-05T10:25:45Z</time>
      </trkpt>
      <trkpt lat="43.6642" lon="1.40281">
        <ele>123</ele>
        <time>2023-07-05T10:25:46Z</time>
      </trkpt>
      <trkpt lat="43.66418" lon="1.40284">
        <ele>123</ele>
        <time>2023-07-05T10:25:47Z</time>
      </trkpt>
      <trkpt lat="43.66416" lon="1.40287">
        <ele>123</ele>
        <time>2023-07-05T10:25:48Z</time>
      </trkpt>
      <trkpt lat="43.66415" lon="1.40289">
        <ele>123</ele>
        <time>2023-07-05T10:25:49Z</time>
      </trkpt>
      <trkpt lat="43.66415" lon="1.40289">
        <ele>123</ele>
        <time>2023-07-05T10:25:50Z</time>
      </trkpt>
      <trkpt lat="43.66413" lon="1.40292">
        <ele>123</ele>
        <time>2023-07-05T10:25:51Z</time>
      </trkpt>
      <trkpt lat="43.66411" lon="1.40295">
        <ele>123</ele>
        <time>2023-07-05T10:25:52Z</time>
      </trkpt>
      <trkpt lat="43.6641" lon="1.40299">
        <ele>123</ele>
        <time>2023-07-05T10:25:53Z</time>
      </trkpt>
      <trkpt lat="43.66407" lon="1.40302">
        <ele>123</ele>
        <time>2023-07-05T10:25:54Z</time>
      </trkpt>
      <trkpt lat="43.66405" lon="1.40304">
        <ele>123</ele>
        <time>2023-07-05T10:25:55Z</time>
      </trkpt>
      <trkpt lat="43.66402" lon="1.40305">
        <ele>123</ele>
        <time>2023-07-05T10:25:56Z</time>
      </trkpt>
      <trkpt lat="43.66399" lon="1.40306">
        <ele>123</ele>
        <time>2023-07-05T10:25:57Z</time>
      </trkpt>
      <trkpt lat="43.66396" lon="1.40308">
        <ele>123</ele>
        <time>2023-07-05T10:25:58Z</time>
      </trkpt>
      <trkpt lat="43.66394" lon="1.40309">
        <ele>123</ele>
        <time>2023-07-05T10:25:59Z</time>
      </trkpt>
      <trkpt lat="43.66392" lon="1.40311">
        <ele>123</ele>
        <time>2023-07-05T10:26:00Z</time>
      </trkpt>
      <trkpt lat="43.66391" lon="1.40314">
        <ele>123</ele>
        <time>2023-07-05T10:26:01Z</time>
      </trkpt>
      <trkpt lat="43.66389" lon="1.40318">
        <ele>124</ele>
        <time>2023-07-05T10:26:02Z</time>
      </trkpt>
      <trkpt lat="43.66387" lon="1.4032">
        <ele>124</ele>
        <time>2023-07-05T10:26:03Z</time>
      </trkpt>
      <trkpt lat="43.66387" lon="1.4032">
        <ele>124</ele>
        <time>2023-07-05T10:26:04Z</time>
      </trkpt>
      <trkpt lat="43.6638" lon="1.40323">
        <ele>124</ele>
        <time>2023-07-05T10:26:05Z</time>
      </trkpt>
      <trkpt lat="43.6638" lon="1.40323">
        <ele>123</ele>
        <time>2023-07-05T10:26:06Z</time>
      </trkpt>
      <trkpt lat="43.66377" lon="1.40325">
        <ele>123</ele>
        <time>2023-07-05T10:26:07Z</time>
      </trkpt>
      <trkpt lat="43.66374" lon="1.40327">
        <ele>123</ele>
        <time>2023-07-05T10:26:08Z</time>
      </trkpt>
      <trkpt lat="43.66371" lon="1.40328">
        <ele>123</ele>
        <time>2023-07-05T10:26:09Z</time>
      </trkpt>
      <trkpt lat="43.66365" lon="1.40332">
        <ele>123</ele>
        <time>2023-07-05T10:26:10Z</time>
      </trkpt>
      <trkpt lat="43.66363" lon="1.40333">
        <ele>123</ele>
        <time>2023-07-05T10:26:11Z</time>
      </trkpt>
      <trkpt lat="43.66361" lon="1.40336">
        <ele>123</ele>
        <time>2023-07-05T10:26:12Z</time>
      </trkpt>
      <trkpt lat="43.66359" lon="1.40339">
        <ele>123</ele>
        <time>2023-07-05T10:26:13Z</time>
      </trkpt>
      <trkpt lat="43.66358" lon="1.40343">
        <ele>123</ele>
        <time>2023-07-05T10:26:14Z</time>
      </trkpt>
      <trkpt lat="43.66356" lon="1.40346">
        <ele>123</ele>
        <time>2023-07-05T10:26:15Z</time>
      </trkpt>
      <trkpt lat="43.66354" lon="1.40349">
        <ele>123</ele>
        <time>2023-07-05T10:26:16Z</time>
      </trkpt>
      <trkpt lat="43.66352" lon="1.40352">
        <ele>123</ele>
        <time>2023-07-05T10:26:17Z</time>
      </trkpt>
      <trkpt lat="43.66349" lon="1.40353">
        <ele>123</ele>
        <time>2023-07-05T10:26:18Z</time>
      </trkpt>
      <trkpt lat="43.66346" lon="1.40354">
        <ele>123</ele>
        <time>2023-07-05T10:26:19Z</time>
      </trkpt>
      <trkpt lat="43.66343" lon="1.40355">
        <ele>123</ele>
        <time>2023-07-05T10:26:20Z</time>
      </trkpt>
      <trkpt lat="43.6634" lon="1.40357">
        <ele>123</ele>
        <time>2023-07-05T10:26:21Z</time>
      </trkpt>
      <trkpt lat="43.66338" lon="1.40358">
        <ele>123</ele>
        <time>2023-07-05T10:26:22Z</time>
      </trkpt>
      <trkpt lat="43.66336" lon="1.40361">
        <ele>123</ele>
        <time>2023-07-05T10:26:23Z</time>
      </trkpt>
      <trkpt lat="43.66334" lon="1.40364">
        <ele>123</ele>
        <time>2023-07-05T10:26:24Z</time>
      </trkpt>
      <trkpt lat="43.66332" lon="1.40366">
        <ele>123</ele>
        <time>2023-07-05T10:26:25Z</time>
      </trkpt>
      <trkpt lat="43.66331" lon="1.40368">
        <ele>123</ele>
        <time>2023-07-05T10:26:26Z</time>
      </trkpt>
      <trkpt lat="43.66329" lon="1.40371">
        <ele>123</ele>
        <time>2023-07-05T10:26:27Z</time>
      </trkpt>
      <trkpt lat="43.66327" lon="1.40373">
        <ele>123</ele>
        <time>2023-07-05T10:26:28Z</time>
      </trkpt>
      <trkpt lat="43.66324" lon="1.40376">
        <ele>123</ele>
        <time>2023-07-05T10:26:29Z</time>
      </trkpt>
      <trkpt lat="43.66322" lon="1.40379">
        <ele>123</ele>
        <time>2023-07-05T10:26:30Z</time>
      </trkpt>
      <trkpt lat="43.6632" lon="1.40382">
        <ele>123</ele>
        <time>2023-07-05T10:26:31Z</time>
      </trkpt>
      <trkpt lat="43.66318" lon="1.40384">
        <ele>123</ele>
        <time>2023-07-05T10:26:32Z</time>
      </trkpt>
      <trkpt lat="43.66316" lon="1.40386">
        <ele>123</ele>
        <time>2023-07-05T10:26:33Z</time>
      </trkpt>
      <trkpt lat="43.66314" lon="1.40388">
        <ele>123</ele>
        <time>2023-07-05T10:26:34Z</time>
      </trkpt>
      <trkpt lat="43.66312" lon="1.40389">
        <ele>123</ele>
        <time>2023-07-05T10:26:35Z</time>
      </trkpt>
      <trkpt lat="43.66309" lon="1.40391">
        <ele>123</ele>
        <time>2023-07-05T10:26:36Z</time>
      </trkpt>
      <trkpt lat="43.66307" lon="1.40393">
        <ele>123</ele>
        <time>2023-07-05T10:26:37Z</time>
      </trkpt>
      <trkpt lat="43.66305" lon="1.40395">
        <ele>123</ele>
        <time>2023-07-05T10:26:38Z</time>
      </trkpt>
      <trkpt lat="43.66304" lon="1.40397">
        <ele>123</ele>
        <time>2023-07-05T10:26:39Z</time>
      </trkpt>
      <trkpt lat="43.66302" lon="1.404">
        <ele>123</ele>
        <time>2023-07-05T10:26:40Z</time>
      </trkpt>
      <trkpt lat="43.663" lon="1.40404">
        <ele>123</ele>
        <time>2023-07-05T10:26:41Z</time>
      </trkpt>
      <trkpt lat="43.66298" lon="1.40408">
        <ele>123</ele>
        <time>2023-07-05T10:26:42Z</time>
      </trkpt>
      <trkpt lat="43.66295" lon="1.4041">
        <ele>123</ele>
        <time>2023-07-05T10:26:43Z</time>
      </trkpt>
      <trkpt lat="43.66293" lon="1.40413">
        <ele>123</ele>
        <time>2023-07-05T10:26:44Z</time>
      </trkpt>
      <trkpt lat="43.6629" lon="1.40415">
        <ele>122</ele>
        <time>2023-07-05T10:26:45Z</time>
      </trkpt>
      <trkpt lat="43.66288" lon="1.40417">
        <ele>122</ele>
        <time>2023-07-05T10:26:46Z</time>
      </trkpt>
      <trkpt lat="43.66285" lon="1.40418">
        <ele>123</ele>
        <time>2023-07-05T10:26:47Z</time>
      </trkpt>
      <trkpt lat="43.66283" lon="1.4042">
        <ele>123</ele>
        <time>2023-07-05T10:26:48Z</time>
      </trkpt>
      <trkpt lat="43.6628" lon="1.40421">
        <ele>123</ele>
        <time>2023-07-05T10:26:49Z</time>
      </trkpt>
      <trkpt lat="43.66278" lon="1.40422">
        <ele>123</ele>
        <time>2023-07-05T10:26:50Z</time>
      </trkpt>
      <trkpt lat="43.66276" lon="1.40425">
        <ele>123</ele>
        <time>2023-07-05T10:26:51Z</time>
      </trkpt>
      <trkpt lat="43.66273" lon="1.40427">
        <ele>123</ele>
        <time>2023-07-05T10:26:52Z</time>
      </trkpt>
      <trkpt lat="43.6627" lon="1.40429">
        <ele>123</ele>
        <time>2023-07-05T10:26:53Z</time>
      </trkpt>
      <trkpt lat="43.66267" lon="1.40432">
        <ele>123</ele>
        <time>2023-07-05T10:26:54Z</time>
      </trkpt>
      <trkpt lat="43.66264" lon="1.40434">
        <ele>123</ele>
        <time>2023-07-05T10:26:55Z</time>
      </trkpt>
      <trkpt lat="43.66262" lon="1.40435">
        <ele>123</ele>
        <time>2023-07-05T10:26:56Z</time>
      </trkpt>
      <trkpt lat="43.66259" lon="1.40435">
        <ele>123</ele>
        <time>2023-07-05T10:26:57Z</time>
      </trkpt>
      <trkpt lat="43.66256" lon="1.40436">
        <ele>123</ele>
        <time>2023-07-05T10:26:58Z</time>
      </trkpt>
      <trkpt lat="43.66253" lon="1.40438">
        <ele>123</ele>
        <time>2023-07-05T10:26:59Z</time>
      </trkpt>
      <trkpt lat="43.66251" lon="1.4044">
        <ele>123</ele>
        <time>2023-07-05T10:27:00Z</time>
      </trkpt>
      <trkpt lat="43.66249" lon="1.40442">
        <ele>123</ele>
        <time>2023-07-05T10:27:01Z</time>
      </trkpt>
      <trkpt lat="43.66247" lon="1.40443">
        <ele>123</ele>
        <time>2023-07-05T10:27:02Z</time>
      </trkpt>
      <trkpt lat="43.66244" lon="1.40444">
        <ele>123</ele>
        <time>2023-07-05T10:27:03Z</time>
      </trkpt>
      <trkpt lat="43.66241" lon="1.40446">
        <ele>123</ele>
        <time>2023-07-05T10:27:04Z</time>
      </trkpt>
      <trkpt lat="43.66239" lon="1.40447">
        <ele>123</ele>
        <time>2023-07-05T10:27:05Z</time>
      </trkpt>
      <trkpt lat="43.66236" lon="1.4045">
        <ele>123</ele>
        <time>2023-07-05T10:27:06Z</time>
      </trkpt>
      <trkpt lat="43.66234" lon="1.40451">
        <ele>123</ele>
        <time>2023-07-05T10:27:07Z</time>
      </trkpt>
      <trkpt lat="43.66232" lon="1.40453">
        <ele>123</ele>
        <time>2023-07-05T10:27:08Z</time>
      </trkpt>
      <trkpt lat="43.66229" lon="1.40455">
        <ele>123</ele>
        <time>2023-07-05T10:27:09Z</time>
      </trkpt>
      <trkpt lat="43.66227" lon="1.40456">
        <ele>123</ele>
        <time>2023-07-05T10:27:10Z</time>
      </trkpt>
      <trkpt lat="43.66225" lon="1.40458">
        <ele>123</ele>
        <time>2023-07-05T10:27:11Z</time>
      </trkpt>
      <trkpt lat="43.66223" lon="1.4046">
        <ele>123</ele>
        <time>2023-07-05T10:27:12Z</time>
      </trkpt>
      <trkpt lat="43.66221" lon="1.40461">
        <ele>123</ele>
        <time>2023-07-05T10:27:13Z</time>
      </trkpt>
      <trkpt lat="43.66218" lon="1.40463">
        <ele>123</ele>
        <time>2023-07-05T10:27:14Z</time>
      </trkpt>
      <trkpt lat="43.66216" lon="1.40465">
        <ele>123</ele>
        <time>2023-07-05T10:27:15Z</time>
      </trkpt>
      <trkpt lat="43.66213" lon="1.40467">
        <ele>123</ele>
        <time>2023-07-05T10:27:16Z</time>
      </trkpt>
      <trkpt lat="43.6621" lon="1.40469">
        <ele>123</ele>
        <time>2023-07-05T10:27:17Z</time>
      </trkpt>
      <trkpt lat="43.66207" lon="1.40471">
        <ele>123</ele>
        <time>2023-07-05T10:27:18Z</time>
      </trkpt>
      <trkpt lat="43.66205" lon="1.40472">
        <ele>123</ele>
        <time>2023-07-05T10:27:19Z</time>
      </trkpt>
      <trkpt lat="43.66202" lon="1.40474">
        <ele>123</ele>
        <time>2023-07-05T10:27:20Z</time>
      </trkpt>
      <trkpt lat="43.66199" lon="1.40477">
        <ele>123</ele>
        <time>2023-07-05T10:27:21Z</time>
      </trkpt>
      <trkpt lat="43.66197" lon="1.40479">
        <ele>123</ele>
        <time>2023-07-05T10:27:22Z</time>
      </trkpt>
      <trkpt lat="43.66194" lon="1.40482">
        <ele>123</ele>
        <time>2023-07-05T10:27:23Z</time>
      </trkpt>
      <trkpt lat="43.66192" lon="1.40484">
        <ele>123</ele>
        <time>2023-07-05T10:27:24Z</time>
      </trkpt>
      <trkpt lat="43.66189" lon="1.40486">
        <ele>123</ele>
        <time>2023-07-05T10:27:25Z</time>
      </trkpt>
      <trkpt lat="43.66186" lon="1.40488">
        <ele>123</ele>
        <time>2023-07-05T10:27:26Z</time>
      </trkpt>
      <trkpt lat="43.66184" lon="1.40491">
        <ele>123</ele>
        <time>2023-07-05T10:27:27Z</time>
      </trkpt>
      <trkpt lat="43.66182" lon="1.40493">
        <ele>123</ele>
        <time>2023-07-05T10:27:28Z</time>
      </trkpt>
      <trkpt lat="43.66179" lon="1.40495">
        <ele>123</ele>
        <time>2023-07-05T10:27:29Z</time>
      </trkpt>
      <trkpt lat="43.66176" lon="1.40496">
        <ele>123</ele>
        <time>2023-07-05T10:27:30Z</time>
      </trkpt>
      <trkpt lat="43.66173" lon="1.40496">
        <ele>123</ele>
        <time>2023-07-05T10:27:31Z</time>
      </trkpt>
      <trkpt lat="43.66171" lon="1.40496">
        <ele>123</ele>
        <time>2023-07-05T10:27:32Z</time>
      </trkpt>
      <trkpt lat="43.66168" lon="1.40497">
        <ele>123</ele>
        <time>2023-07-05T10:27:33Z</time>
      </trkpt>
      <trkpt lat="43.66165" lon="1.40497">
        <ele>123</ele>
        <time>2023-07-05T10:27:34Z</time>
      </trkpt>
      <trkpt lat="43.66162" lon="1.40498">
        <ele>123</ele>
        <time>2023-07-05T10:27:35Z</time>
      </trkpt>
      <trkpt lat="43.66159" lon="1.40499">
        <ele>123</ele>
        <time>2023-07-05T10:27:36Z</time>
      </trkpt>
      <trkpt lat="43.66157" lon="1.40501">
        <ele>123</ele>
        <time>2023-07-05T10:27:37Z</time>
      </trkpt>
      <trkpt lat="43.66154" lon="1.40503">
        <ele>123</ele>
        <time>2023-07-05T10:27:38Z</time>
      </trkpt>
      <trkpt lat="43.66151" lon="1.40504">
        <ele>123</ele>
        <time>2023-07-05T10:27:39Z</time>
      </trkpt>
      <trkpt lat="43.66149" lon="1.40505">
        <ele>123</ele>
        <time>2023-07-05T10:27:40Z</time>
      </trkpt>
      <trkpt lat="43.66146" lon="1.40506">
        <ele>123</ele>
        <time>2023-07-05T10:27:41Z</time>
      </trkpt>
      <trkpt lat="43.66144" lon="1.40507">
        <ele>123</ele>
        <time>2023-07-05T10:27:42Z</time>
      </trkpt>
      <trkpt lat="43.66141" lon="1.40508">
        <ele>123</ele>
        <time>2023-07-05T10:27:43Z</time>
      </trkpt>
      <trkpt lat="43.66138" lon="1.40508">
        <ele>123</ele>
        <time>2023-07-05T10:27:44Z</time>
      </trkpt>
      <trkpt lat="43.66136" lon="1.40508">
        <ele>123</ele>
        <time>2023-07-05T10:27:45Z</time>
      </trkpt>
      <trkpt lat="43.66133" lon="1.40509">
        <ele>123</ele>
        <time>2023-07-05T10:27:46Z</time>
      </trkpt>
      <trkpt lat="43.6613" lon="1.4051">
        <ele>123</ele>
        <time>2023-07-05T10:27:47Z</time>
      </trkpt>
      <trkpt lat="43.66128" lon="1.4051">
        <ele>123</ele>
        <time>2023-07-05T10:27:48Z</time>
      </trkpt>
      <trkpt lat="43.66126" lon="1.40512">
        <ele>123</ele>
        <time>2023-07-05T10:27:49Z</time>
      </trkpt>
      <trkpt lat="43.66124" lon="1.40514">
        <ele>123</ele>
        <time>2023-07-05T10:27:50Z</time>
      </trkpt>
      <trkpt lat="43.66122" lon="1.40516">
        <ele>123</ele>
        <time>2023-07-05T10:27:51Z</time>
      </trkpt>
      <trkpt lat="43.66119" lon="1.40517">
        <ele>123</ele>
        <time>2023-07-05T10:27:52Z</time>
      </trkpt>
      <trkpt lat="43.66116" lon="1.40518">
        <ele>123</ele>
        <time>2023-07-05T10:27:53Z</time>
      </trkpt>
      <trkpt lat="43.66113" lon="1.40519">
        <ele>123</ele>
        <time>2023-07-05T10:27:54Z</time>
      </trkpt>
      <trkpt lat="43.6611" lon="1.40521">
        <ele>123</ele>
        <time>2023-07-05T10:27:55Z</time>
      </trkpt>
      <trkpt lat="43.66108" lon="1.40522">
        <ele>123</ele>
        <time>2023-07-05T10:27:56Z</time>
      </trkpt>
      <trkpt lat="43.66106" lon="1.40523">
        <ele>123</ele>
        <time>2023-07-05T10:27:57Z</time>
      </trkpt>
      <trkpt lat="43.66104" lon="1.40524">
        <ele>123</ele>
        <time>2023-07-05T10:27:58Z</time>
      </trkpt>
      <trkpt lat="43.66101" lon="1.40524">
        <ele>123</ele>
        <time>2023-07-05T10:27:59Z</time>
      </trkpt>
      <trkpt lat="43.66098" lon="1.40523">
        <ele>123</ele>
        <time>2023-07-05T10:28:00Z</time>
      </trkpt>
      <trkpt lat="43.66095" lon="1.40522">
        <ele>123</ele>
        <time>2023-07-05T10:28:01Z</time>
      </trkpt>
      <trkpt lat="43.66092" lon="1.40522">
        <ele>123</ele>
        <time>2023-07-05T10:28:02Z</time>
      </trkpt>
      <trkpt lat="43.66089" lon="1.40521">
        <ele>123</ele>
        <time>2023-07-05T10:28:03Z</time>
      </trkpt>
      <trkpt lat="43.66086" lon="1.40521">
        <ele>123</ele>
        <time>2023-07-05T10:28:04Z</time>
      </trkpt>
      <trkpt lat="43.66084" lon="1.40521">
        <ele>123</ele>
        <time>2023-07-05T10:28:05Z</time>
      </trkpt>
      <trkpt lat="43.66081" lon="1.40522">
        <ele>123</ele>
        <time>2023-07-05T10:28:06Z</time>
      </trkpt>
      <trkpt lat="43.66079" lon="1.40524">
        <ele>123</ele>
        <time>2023-07-05T10:28:07Z</time>
      </trkpt>
      <trkpt lat="43.66077" lon="1.40524">
        <ele>123</ele>
        <time>2023-07-05T10:28:08Z</time>
      </trkpt>
      <trkpt lat="43.66075" lon="1.40525">
        <ele>123</ele>
        <time>2023-07-05T10:28:09Z</time>
      </trkpt>
      <trkpt lat="43.66072" lon="1.40527">
        <ele>124</ele>
        <time>2023-07-05T10:28:10Z</time>
      </trkpt>
      <trkpt lat="43.66068" lon="1.40527">
        <ele>124</ele>
        <time>2023-07-05T10:28:11Z</time>
      </trkpt>
      <trkpt lat="43.66065" lon="1.40527">
        <ele>124</ele>
        <time>2023-07-05T10:28:12Z</time>
      </trkpt>
      <trkpt lat="43.66062" lon="1.40528">
        <ele>124</ele>
        <time>2023-07-05T10:28:13Z</time>
      </trkpt>
      <trkpt lat="43.66059" lon="1.40528">
        <ele>124</ele>
        <time>2023-07-05T10:28:14Z</time>
      </trkpt>
      <trkpt lat="43.66056" lon="1.40529">
        <ele>124</ele>
        <time>2023-07-05T10:28:15Z</time>
      </trkpt>
      <trkpt lat="43.66054" lon="1.4053">
        <ele>124</ele>
        <time>2023-07-05T10:28:16Z</time>
      </trkpt>
      <trkpt lat="43.66051" lon="1.40531">
        <ele>124</ele>
        <time>2023-07-05T10:28:17Z</time>
      </trkpt>
      <trkpt lat="43.66048" lon="1.40532">
        <ele>124</ele>
        <time>2023-07-05T10:28:18Z</time>
      </trkpt>
      <trkpt lat="43.66046" lon="1.40533">
        <ele>124</ele>
        <time>2023-07-05T10:28:19Z</time>
      </trkpt>
      <trkpt lat="43.66044" lon="1.40535">
        <ele>124</ele>
        <time>2023-07-05T10:28:20Z</time>
      </trkpt>
      <trkpt lat="43.66041" lon="1.40537">
        <ele>124</ele>
        <time>2023-07-05T10:28:21Z</time>
      </trkpt>
      <trkpt lat="43.66039" lon="1.40538">
        <ele>124</ele>
        <time>2023-07-05T10:28:22Z</time>
      </trkpt>
      <trkpt lat="43.66037" lon="1.40539">
        <ele>124</ele>
        <time>2023-07-05T10:28:23Z</time>
      </trkpt>
      <trkpt lat="43.66034" lon="1.4054">
        <ele>124</ele>
        <time>2023-07-05T10:28:24Z</time>
      </trkpt>
      <trkpt lat="43.66031" lon="1.40539">
        <ele>124</ele>
        <time>2023-07-05T10:28:25Z</time>
      </trkpt>
      <trkpt lat="43.66028" lon="1.40539">
        <ele>123</ele>
        <time>2023-07-05T10:28:26Z</time>
      </trkpt>
      <trkpt lat="43.66024" lon="1.40538">
        <ele>123</ele>
        <time>2023-07-05T10:28:27Z</time>
      </trkpt>
      <trkpt lat="43.66021" lon="1.40537">
        <ele>124</ele>
        <time>2023-07-05T10:28:28Z</time>
      </trkpt>
      <trkpt lat="43.66018" lon="1.40536">
        <ele>124</ele>
        <time>2023-07-05T10:28:29Z</time>
      </trkpt>
      <trkpt lat="43.66015" lon="1.40534">
        <ele>124</ele>
        <time>2023-07-05T10:28:30Z</time>
      </trkpt>
      <trkpt lat="43.66013" lon="1.40533">
        <ele>124</ele>
        <time>2023-07-05T10:28:31Z</time>
      </trkpt>
      <trkpt lat="43.6601" lon="1.40532">
        <ele>124</ele>
        <time>2023-07-05T10:28:32Z</time>
      </trkpt>
      <trkpt lat="43.66006" lon="1.40532">
        <ele>124</ele>
        <time>2023-07-05T10:28:33Z</time>
      </trkpt>
      <trkpt lat="43.66003" lon="1.40532">
        <ele>124</ele>
        <time>2023-07-05T10:28:34Z</time>
      </trkpt>
      <trkpt lat="43.66" lon="1.40532">
        <ele>124</ele>
        <time>2023-07-05T10:28:35Z</time>
      </trkpt>
      <trkpt lat="43.65998" lon="1.40532">
        <ele>124</ele>
        <time>2023-07-05T10:28:36Z</time>
      </trkpt>
      <trkpt lat="43.65996" lon="1.40533">
        <ele>124</ele>
        <time>2023-07-05T10:28:37Z</time>
      </trkpt>
      <trkpt lat="43.65994" lon="1.40533">
        <ele>124</ele>
        <time>2023-07-05T10:28:38Z</time>
      </trkpt>
      <trkpt lat="43.6599" lon="1.40533">
        <ele>124</ele>
        <time>2023-07-05T10:28:39Z</time>
      </trkpt>
      <trkpt lat="43.65987" lon="1.40533">
        <ele>124</ele>
        <time>2023-07-05T10:28:40Z</time>
      </trkpt>
      <trkpt lat="43.65984" lon="1.40534">
        <ele>124</ele>
        <time>2023-07-05T10:28:41Z</time>
      </trkpt>
      <trkpt lat="43.65984" lon="1.40534">
        <ele>124</ele>
        <time>2023-07-05T10:28:42Z</time>
      </trkpt>
      <trkpt lat="43.65977" lon="1.40536">
        <ele>124</ele>
        <time>2023-07-05T10:28:43Z</time>
      </trkpt>
      <trkpt lat="43.65975" lon="1.40536">
        <ele>124</ele>
        <time>2023-07-05T10:28:44Z</time>
      </trkpt>
      <trkpt lat="43.65972" lon="1.40538">
        <ele>124</ele>
        <time>2023-07-05T10:28:45Z</time>
      </trkpt>
      <trkpt lat="43.65969" lon="1.40539">
        <ele>123</ele>
        <time>2023-07-05T10:28:46Z</time>
      </trkpt>
      <trkpt lat="43.65966" lon="1.40539">
        <ele>123</ele>
        <time>2023-07-05T10:28:47Z</time>
      </trkpt>
      <trkpt lat="43.65966" lon="1.40539">
        <ele>124</ele>
        <time>2023-07-05T10:28:48Z</time>
      </trkpt>
      <trkpt lat="43.6596" lon="1.40538">
        <ele>124</ele>
        <time>2023-07-05T10:28:49Z</time>
      </trkpt>
      <trkpt lat="43.65959" lon="1.40538">
        <ele>124</ele>
        <time>2023-07-05T10:28:50Z</time>
      </trkpt>
      <trkpt lat="43.65956" lon="1.40539">
        <ele>124</ele>
        <time>2023-07-05T10:28:51Z</time>
      </trkpt>
      <trkpt lat="43.65953" lon="1.4054">
        <ele>124</ele>
        <time>2023-07-05T10:28:52Z</time>
      </trkpt>
      <trkpt lat="43.6595" lon="1.40541">
        <ele>124</ele>
        <time>2023-07-05T10:28:53Z</time>
      </trkpt>
      <trkpt lat="43.65947" lon="1.40542">
        <ele>124</ele>
        <time>2023-07-05T10:28:54Z</time>
      </trkpt>
      <trkpt lat="43.65944" lon="1.40543">
        <ele>124</ele>
        <time>2023-07-05T10:28:55Z</time>
      </trkpt>
      <trkpt lat="43.65941" lon="1.40544">
        <ele>124</ele>
        <time>2023-07-05T10:28:56Z</time>
      </trkpt>
      <trkpt lat="43.65938" lon="1.40544">
        <ele>124</ele>
        <time>2023-07-05T10:28:57Z</time>
      </trkpt>
      <trkpt lat="43.65935" lon="1.40544">
        <ele>124</ele>
        <time>2023-07-05T10:28:58Z</time>
      </trkpt>
      <trkpt lat="43.65932" lon="1.40545">
        <ele>125</ele>
        <time>2023-07-05T10:28:59Z</time>
      </trkpt>
      <trkpt lat="43.65929" lon="1.40545">
        <ele>125</ele>
        <time>2023-07-05T10:29:00Z</time>
      </trkpt>
      <trkpt lat="43.65926" lon="1.40545">
        <ele>125</ele>
        <time>2023-07-05T10:29:01Z</time>
      </trkpt>
      <trkpt lat="43.65922" lon="1.40546">
        <ele>125</ele>
        <time>2023-07-05T10:29:02Z</time>
      </trkpt>
      <trkpt lat="43.65919" lon="1.40546">
        <ele>125</ele>
        <time>2023-07-05T10:29:03Z</time>
      </trkpt>
      <trkpt lat="43.65916" lon="1.40548">
        <ele>124</ele>
        <time>2023-07-05T10:29:04Z</time>
      </trkpt>
      <trkpt lat="43.65914" lon="1.40549">
        <ele>124</ele>
        <time>2023-07-05T10:29:05Z</time>
      </trkpt>
      <trkpt lat="43.65911" lon="1.40549">
        <ele>124</ele>
        <time>2023-07-05T10:29:06Z</time>
      </trkpt>
      <trkpt lat="43.65907" lon="1.40549">
        <ele>124</ele>
        <time>2023-07-05T10:29:07Z</time>
      </trkpt>
      <trkpt lat="43.65904" lon="1.4055">
        <ele>124</ele>
        <time>2023-07-05T10:29:08Z</time>
      </trkpt>
      <trkpt lat="43.65901" lon="1.4055">
        <ele>124</ele>
        <time>2023-07-05T10:29:09Z</time>
      </trkpt>
      <trkpt lat="43.65898" lon="1.4055">
        <ele>123</ele>
        <time>2023-07-05T10:29:10Z</time>
      </trkpt>
      <trkpt lat="43.65894" lon="1.4055">
        <ele>123</ele>
        <time>2023-07-05T10:29:11Z</time>
      </trkpt>
      <trkpt lat="43.65891" lon="1.40551">
        <ele>123</ele>
        <time>2023-07-05T10:29:12Z</time>
      </trkpt>
      <trkpt lat="43.65888" lon="1.4055">
        <ele>124</ele>
        <time>2023-07-05T10:29:13Z</time>
      </trkpt>
      <trkpt lat="43.65885" lon="1.4055">
        <ele>124</ele>
        <time>2023-07-05T10:29:14Z</time>
      </trkpt>
      <trkpt lat="43.65882" lon="1.4055">
        <ele>124</ele>
        <time>2023-07-05T10:29:15Z</time>
      </trkpt>
      <trkpt lat="43.65878" lon="1.40551">
        <ele>124</ele>
        <time>2023-07-05T10:29:16Z</time>
      </trkpt>
      <trkpt lat="43.65875" lon="1.40552">
        <ele>124</ele>
        <time>2023-07-05T10:29:17Z</time>
      </trkpt>
      <trkpt lat="43.65873" lon="1.40552">
        <ele>124</ele>
        <time>2023-07-05T10:29:18Z</time>
      </trkpt>
      <trkpt lat="43.65873" lon="1.40552">
        <ele>124</ele>
        <time>2023-07-05T10:29:19Z</time>
      </trkpt>
      <trkpt lat="43.65867" lon="1.40553">
        <ele>124</ele>
        <time>2023-07-05T10:29:20Z</time>
      </trkpt>
      <trkpt lat="43.65864" lon="1.40554">
        <ele>124</ele>
        <time>2023-07-05T10:29:21Z</time>
      </trkpt>
      <trkpt lat="43.65861" lon="1.40555">
        <ele>124</ele>
        <time>2023-07-05T10:29:22Z</time>
      </trkpt>
      <trkpt lat="43.65858" lon="1.40555">
        <ele>124</ele>
        <time>2023-07-05T10:29:23Z</time>
      </trkpt>
      <trkpt lat="43.65855" lon="1.40555">
        <ele>124</ele>
        <time>2023-07-05T10:29:24Z</time>
      </trkpt>
      <trkpt lat="43.65853" lon="1.40557">
        <ele>124</ele>
        <time>2023-07-05T10:29:25Z</time>
      </trkpt>
      <trkpt lat="43.65851" lon="1.4056">
        <ele>124</ele>
        <time>2023-07-05T10:29:26Z</time>
      </trkpt>
      <trkpt lat="43.6585" lon="1.40563">
        <ele>124</ele>
        <time>2023-07-05T10:29:27Z</time>
      </trkpt>
      <trkpt lat="43.6585" lon="1.40566">
        <ele>124</ele>
        <time>2023-07-05T10:29:28Z</time>
      </trkpt>
      <trkpt lat="43.6585" lon="1.40569">
        <ele>124</ele>
        <time>2023-07-05T10:29:29Z</time>
      </trkpt>
      <trkpt lat="43.65849" lon="1.40573">
        <ele>124</ele>
        <time>2023-07-05T10:29:30Z</time>
      </trkpt>
      <trkpt lat="43.65848" lon="1.40577">
        <ele>125</ele>
        <time>2023-07-05T10:29:31Z</time>
      </trkpt>
      <trkpt lat="43.65846" lon="1.4058">
        <ele>125</ele>
        <time>2023-07-05T10:29:32Z</time>
      </trkpt>
      <trkpt lat="43.65843" lon="1.40581">
        <ele>125</ele>
        <time>2023-07-05T10:29:33Z</time>
      </trkpt>
      <trkpt lat="43.65841" lon="1.4058">
        <ele>124</ele>
        <time>2023-07-05T10:29:34Z</time>
      </trkpt>
      <trkpt lat="43.6584" lon="1.40577">
        <ele>124</ele>
        <time>2023-07-05T10:29:35Z</time>
      </trkpt>
      <trkpt lat="43.6584" lon="1.40577">
        <ele>124</ele>
        <time>2023-07-05T10:29:36Z</time>
      </trkpt>
      <trkpt lat="43.65836" lon="1.40575">
        <ele>124</ele>
        <time>2023-07-05T10:29:37Z</time>
      </trkpt>
      <trkpt lat="43.65836" lon="1.40575">
        <ele>124</ele>
        <time>2023-07-05T10:29:38Z</time>
      </trkpt>
      <trkpt lat="43.65831" lon="1.40573">
        <ele>124</ele>
        <time>2023-07-05T10:29:39Z</time>
      </trkpt>
      <trkpt lat="43.65828" lon="1.40573">
        <ele>124</ele>
        <time>2023-07-05T10:29:40Z</time>
      </trkpt>
      <trkpt lat="43.65826" lon="1.40572">
        <ele>124</ele>
        <time>2023-07-05T10:29:41Z</time>
      </trkpt>
      <trkpt lat="43.65823" lon="1.40571">
        <ele>125</ele>
        <time>2023-07-05T10:29:42Z</time>
      </trkpt>
      <trkpt lat="43.65821" lon="1.40568">
        <ele>126</ele>
        <time>2023-07-05T10:29:43Z</time>
      </trkpt>
      <trkpt lat="43.65818" lon="1.40564">
        <ele>126</ele>
        <time>2023-07-05T10:29:44Z</time>
      </trkpt>
      <trkpt lat="43.65816" lon="1.40563">
        <ele>126</ele>
        <time>2023-07-05T10:29:45Z</time>
      </trkpt>
      <trkpt lat="43.65813" lon="1.40563">
        <ele>126</ele>
        <time>2023-07-05T10:29:46Z</time>
      </trkpt>
      <trkpt lat="43.65811" lon="1.40563">
        <ele>127</ele>
        <time>2023-07-05T10:29:47Z</time>
      </trkpt>
      <trkpt lat="43.65808" lon="1.40563">
        <ele>127</ele>
        <time>2023-07-05T10:29:48Z</time>
      </trkpt>
      <trkpt lat="43.65805" lon="1.40564">
        <ele>128</ele>
        <time>2023-07-05T10:29:49Z</time>
      </trkpt>
      <trkpt lat="43.65802" lon="1.40565">
        <ele>128</ele>
        <time>2023-07-05T10:29:50Z</time>
      </trkpt>
      <trkpt lat="43.658" lon="1.40565">
        <ele>127</ele>
        <time>2023-07-05T10:29:51Z</time>
      </trkpt>
      <trkpt lat="43.65797" lon="1.40566">
        <ele>127</ele>
        <time>2023-07-05T10:29:52Z</time>
      </trkpt>
      <trkpt lat="43.65794" lon="1.40567">
        <ele>127</ele>
        <time>2023-07-05T10:29:53Z</time>
      </trkpt>
      <trkpt lat="43.65791" lon="1.40568">
        <ele>127</ele>
        <time>2023-07-05T10:29:54Z</time>
      </trkpt>
      <trkpt lat="43.65789" lon="1.40569">
        <ele>127</ele>
        <time>2023-07-05T10:29:55Z</time>
      </trkpt>
      <trkpt lat="43.65786" lon="1.4057">
        <ele>127</ele>
        <time>2023-07-05T10:29:56Z</time>
      </trkpt>
      <trkpt lat="43.65784" lon="1.40571">
        <ele>127</ele>
        <time>2023-07-05T10:29:57Z</time>
      </trkpt>
      <trkpt lat="43.65781" lon="1.40571">
        <ele>127</ele>
        <time>2023-07-05T10:29:58Z</time>
      </trkpt>
      <trkpt lat="43.65778" lon="1.40572">
        <ele>127</ele>
        <time>2023-07-05T10:29:59Z</time>
      </trkpt>
      <trkpt lat="43.65776" lon="1.40572">
        <ele>127</ele>
        <time>2023-07-05T10:30:00Z</time>
      </trkpt>
      <trkpt lat="43.65773" lon="1.40573">
        <ele>126</ele>
        <time>2023-07-05T10:30:01Z</time>
      </trkpt>
      <trkpt lat="43.65772" lon="1.40574">
        <ele>126</ele>
        <time>2023-07-05T10:30:02Z</time>
      </trkpt>
      <trkpt lat="43.65769" lon="1.40576">
        <ele>126</ele>
        <time>2023-07-05T10:30:03Z</time>
      </trkpt>
      <trkpt lat="43.65766" lon="1.40578">
        <ele>126</ele>
        <time>2023-07-05T10:30:04Z</time>
      </trkpt>
      <trkpt lat="43.65763" lon="1.40579">
        <ele>125</ele>
        <time>2023-07-05T10:30:05Z</time>
      </trkpt>
      <trkpt lat="43.6576" lon="1.40579">
        <ele>125</ele>
        <time>2023-07-05T10:30:06Z</time>
      </trkpt>
      <trkpt lat="43.65757" lon="1.40579">
        <ele>125</ele>
        <time>2023-07-05T10:30:07Z</time>
      </trkpt>
      <trkpt lat="43.65757" lon="1.40579">
        <ele>125</ele>
        <time>2023-07-05T10:30:08Z</time>
      </trkpt>
      <trkpt lat="43.65755" lon="1.40581">
        <ele>125</ele>
        <time>2023-07-05T10:30:09Z</time>
      </trkpt>
      <trkpt lat="43.65753" lon="1.40584">
        <ele>125</ele>
        <time>2023-07-05T10:30:10Z</time>
      </trkpt>
      <trkpt lat="43.6575" lon="1.40585">
        <ele>125</ele>
        <time>2023-07-05T10:30:11Z</time>
      </trkpt>
      <trkpt lat="43.65747" lon="1.40586">
        <ele>125</ele>
        <time>2023-07-05T10:30:12Z</time>
      </trkpt>
      <trkpt lat="43.65743" lon="1.40586">
        <ele>125</ele>
        <time>2023-07-05T10:30:13Z</time>
      </trkpt>
      <trkpt lat="43.6574" lon="1.40586">
        <ele>124</ele>
        <time>2023-07-05T10:30:14Z</time>
      </trkpt>
      <trkpt lat="43.65737" lon="1.40585">
        <ele>125</ele>
        <time>2023-07-05T10:30:15Z</time>
      </trkpt>
      <trkpt lat="43.65733" lon="1.40585">
        <ele>125</ele>
        <time>2023-07-05T10:30:16Z</time>
      </trkpt>
      <trkpt lat="43.6573" lon="1.40585">
        <ele>125</ele>
        <time>2023-07-05T10:30:17Z</time>
      </trkpt>
      <trkpt lat="43.65728" lon="1.40586">
        <ele>125</ele>
        <time>2023-07-05T10:30:18Z</time>
      </trkpt>
      <trkpt lat="43.65725" lon="1.40586">
        <ele>125</ele>
        <time>2023-07-05T10:30:19Z</time>
      </trkpt>
      <trkpt lat="43.65722" lon="1.40587">
        <ele>124</ele>
        <time>2023-07-05T10:30:20Z</time>
      </trkpt>
      <trkpt lat="43.6572" lon="1.40587">
        <ele>124</ele>
        <time>2023-07-05T10:30:21Z</time>
      </trkpt>
      <trkpt lat="43.65718" lon="1.40589">
        <ele>124</ele>
        <time>2023-07-05T10:30:22Z</time>
      </trkpt>
      <trkpt lat="43.65715" lon="1.4059">
        <ele>124</ele>
        <time>2023-07-05T10:30:23Z</time>
      </trkpt>
      <trkpt lat="43.65712" lon="1.40591">
        <ele>124</ele>
        <time>2023-07-05T10:30:24Z</time>
      </trkpt>
      <trkpt lat="43.65709" lon="1.40592">
        <ele>124</ele>
        <time>2023-07-05T10:30:25Z</time>
      </trkpt>
      <trkpt lat="43.65705" lon="1.40593">
        <ele>123</ele>
        <time>2023-07-05T10:30:26Z</time>
      </trkpt>
      <trkpt lat="43.65702" lon="1.40594">
        <ele>123</ele>
        <time>2023-07-05T10:30:27Z</time>
      </trkpt>
      <trkpt lat="43.65699" lon="1.40595">
        <ele>123</ele>
        <time>2023-07-05T10:30:28Z</time>
      </trkpt>
      <trkpt lat="43.65696" lon="1.40595">
        <ele>123</ele>
        <time>2023-07-05T10:30:29Z</time>
      </trkpt>
      <trkpt lat="43.65693" lon="1.40595">
        <ele>122</ele>
        <time>2023-07-05T10:30:30Z</time>
      </trkpt>
      <trkpt lat="43.65691" lon="1.40593">
        <ele>122</ele>
        <time>2023-07-05T10:30:31Z</time>
      </trkpt>
      <trkpt lat="43.6569" lon="1.40591">
        <ele>123</ele>
        <time>2023-07-05T10:30:32Z</time>
      </trkpt>
      <trkpt lat="43.65689" lon="1.40589">
        <ele>123</ele>
        <time>2023-07-05T10:30:33Z</time>
      </trkpt>
      <trkpt lat="43.65688" lon="1.40586">
        <ele>123</ele>
        <time>2023-07-05T10:30:34Z</time>
      </trkpt>
      <trkpt lat="43.65688" lon="1.40586">
        <ele>124</ele>
        <time>2023-07-05T10:30:35Z</time>
      </trkpt>
      <trkpt lat="43.65684" lon="1.40586">
        <ele>125</ele>
        <time>2023-07-05T10:30:36Z</time>
      </trkpt>
      <trkpt lat="43.65682" lon="1.40587">
        <ele>125</ele>
        <time>2023-07-05T10:30:37Z</time>
      </trkpt>
      <trkpt lat="43.6568" lon="1.40589">
        <ele>125</ele>
        <time>2023-07-05T10:30:38Z</time>
      </trkpt>
      <trkpt lat="43.65678" lon="1.4059">
        <ele>125</ele>
        <time>2023-07-05T10:30:39Z</time>
      </trkpt>
      <trkpt lat="43.65675" lon="1.40591">
        <ele>125</ele>
        <time>2023-07-05T10:30:40Z</time>
      </trkpt>
      <trkpt lat="43.65673" lon="1.40593">
        <ele>124</ele>
        <time>2023-07-05T10:30:41Z</time>
      </trkpt>
      <trkpt lat="43.6567" lon="1.40594">
        <ele>124</ele>
        <time>2023-07-05T10:30:42Z</time>
      </trkpt>
      <trkpt lat="43.65668" lon="1.40594">
        <ele>124</ele>
        <time>2023-07-05T10:30:43Z</time>
      </trkpt>
      <trkpt lat="43.65666" lon="1.40595">
        <ele>124</ele>
        <time>2023-07-05T10:30:44Z</time>
      </trkpt>
      <trkpt lat="43.65664" lon="1.40596">
        <ele>124</ele>
        <time>2023-07-05T10:30:45Z</time>
      </trkpt>
      <trkpt lat="43.65661" lon="1.40596">
        <ele>124</ele>
        <time>2023-07-05T10:30:46Z</time>
      </trkpt>
      <trkpt lat="43.65658" lon="1.40596">
        <ele>124</ele>
        <time>2023-07-05T10:30:47Z</time>
      </trkpt>
      <trkpt lat="43.65655" lon="1.40596">
        <ele>124</ele>
        <time>2023-07-05T10:30:48Z</time>
      </trkpt>
      <trkpt lat="43.65652" lon="1.40596">
        <ele>124</ele>
        <time>2023-07-05T10:30:49Z</time>
      </trkpt>
      <trkpt lat="43.6565" lon="1.40596">
        <ele>124</ele>
        <time>2023-07-05T10:30:50Z</time>
      </trkpt>
      <trkpt lat="43.65647" lon="1.40597">
        <ele>123</ele>
        <time>2023-07-05T10:30:51Z</time>
      </trkpt>
      <trkpt lat="43.65644" lon="1.40597">
        <ele>123</ele>
        <time>2023-07-05T10:30:52Z</time>
      </trkpt>
      <trkpt lat="43.65641" lon="1.40598">
        <ele>123</ele>
        <time>2023-07-05T10:30:53Z</time>
      </trkpt>
      <trkpt lat="43.65637" lon="1.40598">
        <ele>123</ele>
        <time>2023-07-05T10:30:54Z</time>
      </trkpt>
      <trkpt lat="43.65635" lon="1.40598">
        <ele>123</ele>
        <time>2023-07-05T10:30:55Z</time>
      </trkpt>
      <trkpt lat="43.65631" lon="1.40598">
        <ele>123</ele>
        <time>2023-07-05T10:30:56Z</time>
      </trkpt>
      <trkpt lat="43.65628" lon="1.40598">
        <ele>123</ele>
        <time>2023-07-05T10:30:57Z</time>
      </trkpt>
      <trkpt lat="43.65625" lon="1.40597">
        <ele>123</ele>
        <time>2023-07-05T10:30:58Z</time>
      </trkpt>
      <trkpt lat="43.65622" lon="1.40597">
        <ele>123</ele>
        <time>2023-07-05T10:30:59Z</time>
      </trkpt>
      <trkpt lat="43.6562" lon="1.40597">
        <ele>123</ele>
        <time>2023-07-05T10:31:00Z</time>
      </trkpt>
      <trkpt lat="43.65617" lon="1.40596">
        <ele>123</ele>
        <time>2023-07-05T10:31:01Z</time>
      </trkpt>
      <trkpt lat="43.65614" lon="1.40596">
        <ele>123</ele>
        <time>2023-07-05T10:31:02Z</time>
      </trkpt>
      <trkpt lat="43.65611" lon="1.40596">
        <ele>124</ele>
        <time>2023-07-05T10:31:03Z</time>
      </trkpt>
      <trkpt lat="43.65608" lon="1.40596">
        <ele>124</ele>
        <time>2023-07-05T10:31:04Z</time>
      </trkpt>
      <trkpt lat="43.65605" lon="1.40595">
        <ele>124</ele>
        <time>2023-07-05T10:31:05Z</time>
      </trkpt>
      <trkpt lat="43.65603" lon="1.40596">
        <ele>124</ele>
        <time>2023-07-05T10:31:06Z</time>
      </trkpt>
      <trkpt lat="43.656" lon="1.40596">
        <ele>124</ele>
        <time>2023-07-05T10:31:07Z</time>
      </trkpt>
      <trkpt lat="43.65597" lon="1.40595">
        <ele>124</ele>
        <time>2023-07-05T10:31:08Z</time>
      </trkpt>
      <trkpt lat="43.65593" lon="1.40595">
        <ele>124</ele>
        <time>2023-07-05T10:31:09Z</time>
      </trkpt>
      <trkpt lat="43.65591" lon="1.40595">
        <ele>124</ele>
        <time>2023-07-05T10:31:10Z</time>
      </trkpt>
      <trkpt lat="43.65588" lon="1.40595">
        <ele>124</ele>
        <time>2023-07-05T10:31:11Z</time>
      </trkpt>
      <trkpt lat="43.65585" lon="1.40595">
        <ele>124</ele>
        <time>2023-07-05T10:31:12Z</time>
      </trkpt>
      <trkpt lat="43.65582" lon="1.40595">
        <ele>124</ele>
        <time>2023-07-05T10:31:13Z</time>
      </trkpt>
      <trkpt lat="43.65579" lon="1.40596">
        <ele>124</ele>
        <time>2023-07-05T10:31:14Z</time>
      </trkpt>
      <trkpt lat="43.65576" lon="1.40596">
        <ele>124</ele>
        <time>2023-07-05T10:31:15Z</time>
      </trkpt>
      <trkpt lat="43.65573" lon="1.40595">
        <ele>124</ele>
        <time>2023-07-05T10:31:16Z</time>
      </trkpt>
      <trkpt lat="43.65569" lon="1.40595">
        <ele>124</ele>
        <time>2023-07-05T10:31:17Z</time>
      </trkpt>
      <trkpt lat="43.65566" lon="1.40595">
        <ele>124</ele>
        <time>2023-07-05T10:31:18Z</time>
      </trkpt>
      <trkpt lat="43.65563" lon="1.40595">
        <ele>124</ele>
        <time>2023-07-05T10:31:19Z</time>
      </trkpt>
      <trkpt lat="43.6556" lon="1.40595">
        <ele>124</ele>
        <time>2023-07-05T10:31:20Z</time>
      </trkpt>
      <trkpt lat="43.65557" lon="1.40594">
        <ele>124</ele>
        <time>2023-07-05T10:31:21Z</time>
      </trkpt>
      <trkpt lat="43.65554" lon="1.40593">
        <ele>124</ele>
        <time>2023-07-05T10:31:22Z</time>
      </trkpt>
      <trkpt lat="43.6555" lon="1.40592">
        <ele>124</ele>
        <time>2023-07-05T10:31:23Z</time>
      </trkpt>
      <trkpt lat="43.65547" lon="1.40591">
        <ele>124</ele>
        <time>2023-07-05T10:31:24Z</time>
      </trkpt>
      <trkpt lat="43.65544" lon="1.40591">
        <ele>124</ele>
        <time>2023-07-05T10:31:25Z</time>
      </trkpt>
      <trkpt lat="43.65541" lon="1.4059">
        <ele>124</ele>
        <time>2023-07-05T10:31:26Z</time>
      </trkpt>
      <trkpt lat="43.65538" lon="1.40589">
        <ele>124</ele>
        <time>2023-07-05T10:31:27Z</time>
      </trkpt>
      <trkpt lat="43.65535" lon="1.40587">
        <ele>124</ele>
        <time>2023-07-05T10:31:28Z</time>
      </trkpt>
      <trkpt lat="43.65532" lon="1.40585">
        <ele>124</ele>
        <time>2023-07-05T10:31:29Z</time>
      </trkpt>
      <trkpt lat="43.65529" lon="1.40584">
        <ele>124</ele>
        <time>2023-07-05T10:31:30Z</time>
      </trkpt>
      <trkpt lat="43.65527" lon="1.40582">
        <ele>124</ele>
        <time>2023-07-05T10:31:31Z</time>
      </trkpt>
      <trkpt lat="43.65524" lon="1.4058">
        <ele>124</ele>
        <time>2023-07-05T10:31:32Z</time>
      </trkpt>
      <trkpt lat="43.65522" lon="1.40579">
        <ele>124</ele>
        <time>2023-07-05T10:31:33Z</time>
      </trkpt>
      <trkpt lat="43.65519" lon="1.40578">
        <ele>124</ele>
        <time>2023-07-05T10:31:34Z</time>
      </trkpt>
      <trkpt lat="43.65516" lon="1.40577">
        <ele>124</ele>
        <time>2023-07-05T10:31:35Z</time>
      </trkpt>
      <trkpt lat="43.65514" lon="1.40575">
        <ele>124</ele>
        <time>2023-07-05T10:31:36Z</time>
      </trkpt>
      <trkpt lat="43.65511" lon="1.40573">
        <ele>124</ele>
        <time>2023-07-05T10:31:37Z</time>
      </trkpt>
      <trkpt lat="43.65509" lon="1.40572">
        <ele>124</ele>
        <time>2023-07-05T10:31:38Z</time>
      </trkpt>
      <trkpt lat="43.65508" lon="1.40571">
        <ele>124</ele>
        <time>2023-07-05T10:31:39Z</time>
      </trkpt>
      <trkpt lat="43.65506" lon="1.4057">
        <ele>124</ele>
        <time>2023-07-05T10:31:40Z</time>
      </trkpt>
      <trkpt lat="43.65504" lon="1.40569">
        <ele>124</ele>
        <time>2023-07-05T10:31:41Z</time>
      </trkpt>
      <trkpt lat="43.65502" lon="1.40567">
        <ele>124</ele>
        <time>2023-07-05T10:31:42Z</time>
      </trkpt>
      <trkpt lat="43.65499" lon="1.40566">
        <ele>124</ele>
        <time>2023-07-05T10:31:43Z</time>
      </trkpt>
      <trkpt lat="43.65497" lon="1.40565">
        <ele>124</ele>
        <time>2023-07-05T10:31:44Z</time>
      </trkpt>
      <trkpt lat="43.65494" lon="1.40563">
        <ele>124</ele>
        <time>2023-07-05T10:31:45Z</time>
      </trkpt>
      <trkpt lat="43.65491" lon="1.40562">
        <ele>124</ele>
        <time>2023-07-05T10:31:46Z</time>
      </trkpt>
      <trkpt lat="43.65489" lon="1.40561">
        <ele>124</ele>
        <time>2023-07-05T10:31:47Z</time>
      </trkpt>
      <trkpt lat="43.65486" lon="1.4056">
        <ele>124</ele>
        <time>2023-07-05T10:31:48Z</time>
      </trkpt>
      <trkpt lat="43.65483" lon="1.40558">
        <ele>124</ele>
        <time>2023-07-05T10:31:49Z</time>
      </trkpt>
      <trkpt lat="43.65481" lon="1.40557">
        <ele>124</ele>
        <time>2023-07-05T10:31:50Z</time>
      </trkpt>
      <trkpt lat="43.65478" lon="1.40556">
        <ele>124</ele>
        <time>2023-07-05T10:31:51Z</time>
      </trkpt>
      <trkpt lat="43.65476" lon="1.40555">
        <ele>124</ele>
        <time>2023-07-05T10:31:52Z</time>
      </trkpt>
      <trkpt lat="43.65473" lon="1.40555">
        <ele>124</ele>
        <time>2023-07-05T10:31:53Z</time>
      </trkpt>
      <trkpt lat="43.6547" lon="1.40555">
        <ele>125</ele>
        <time>2023-07-05T10:31:54Z</time>
      </trkpt>
      <trkpt lat="43.65467" lon="1.40554">
        <ele>125</ele>
        <time>2023-07-05T10:31:55Z</time>
      </trkpt>
      <trkpt lat="43.65464" lon="1.40553">
        <ele>125</ele>
        <time>2023-07-05T10:31:56Z</time>
      </trkpt>
      <trkpt lat="43.65461" lon="1.40551">
        <ele>125</ele>
        <time>2023-07-05T10:31:57Z</time>
      </trkpt>
      <trkpt lat="43.65459" lon="1.4055">
        <ele>124</ele>
        <time>2023-07-05T10:31:58Z</time>
      </trkpt>
      <trkpt lat="43.65457" lon="1.40548">
        <ele>124</ele>
        <time>2023-07-05T10:31:59Z</time>
      </trkpt>
      <trkpt lat="43.65454" lon="1.40546">
        <ele>124</ele>
        <time>2023-07-05T10:32:00Z</time>
      </trkpt>
      <trkpt lat="43.65451" lon="1.40544">
        <ele>124</ele>
        <time>2023-07-05T10:32:01Z</time>
      </trkpt>
      <trkpt lat="43.65448" lon="1.40542">
        <ele>124</ele>
        <time>2023-07-05T10:32:02Z</time>
      </trkpt>
      <trkpt lat="43.65446" lon="1.4054">
        <ele>124</ele>
        <time>2023-07-05T10:32:03Z</time>
      </trkpt>
      <trkpt lat="43.65443" lon="1.40539">
        <ele>124</ele>
        <time>2023-07-05T10:32:04Z</time>
      </trkpt>
      <trkpt lat="43.65441" lon="1.40537">
        <ele>124</ele>
        <time>2023-07-05T10:32:05Z</time>
      </trkpt>
      <trkpt lat="43.65438" lon="1.40536">
        <ele>124</ele>
        <time>2023-07-05T10:32:06Z</time>
      </trkpt>
      <trkpt lat="43.65436" lon="1.40535">
        <ele>124</ele>
        <time>2023-07-05T10:32:07Z</time>
      </trkpt>
      <trkpt lat="43.65433" lon="1.40532">
        <ele>124</ele>
        <time>2023-07-05T10:32:08Z</time>
      </trkpt>
      <trkpt lat="43.65431" lon="1.4053">
        <ele>123</ele>
        <time>2023-07-05T10:32:09Z</time>
      </trkpt>
      <trkpt lat="43.65429" lon="1.40527">
        <ele>124</ele>
        <time>2023-07-05T10:32:10Z</time>
      </trkpt>
      <trkpt lat="43.65427" lon="1.40524">
        <ele>124</ele>
        <time>2023-07-05T10:32:11Z</time>
      </trkpt>
      <trkpt lat="43.65426" lon="1.40522">
        <ele>124</ele>
        <time>2023-07-05T10:32:12Z</time>
      </trkpt>
      <trkpt lat="43.65424" lon="1.40519">
        <ele>124</ele>
        <time>2023-07-05T10:32:13Z</time>
      </trkpt>
      <trkpt lat="43.65422" lon="1.40516">
        <ele>124</ele>
        <time>2023-07-05T10:32:14Z</time>
      </trkpt>
      <trkpt lat="43.6542" lon="1.40513">
        <ele>125</ele>
        <time>2023-07-05T10:32:15Z</time>
      </trkpt>
      <trkpt lat="43.65418" lon="1.4051">
        <ele>125</ele>
        <time>2023-07-05T10:32:16Z</time>
      </trkpt>
      <trkpt lat="43.65416" lon="1.40506">
        <ele>125</ele>
        <time>2023-07-05T10:32:17Z</time>
      </trkpt>
      <trkpt lat="43.65415" lon="1.40503">
        <ele>125</ele>
        <time>2023-07-05T10:32:18Z</time>
      </trkpt>
      <trkpt lat="43.65413" lon="1.40501">
        <ele>125</ele>
        <time>2023-07-05T10:32:19Z</time>
      </trkpt>
      <trkpt lat="43.65411" lon="1.40499">
        <ele>125</ele>
        <time>2023-07-05T10:32:20Z</time>
      </trkpt>
      <trkpt lat="43.65409" lon="1.40497">
        <ele>125</ele>
        <time>2023-07-05T10:32:21Z</time>
      </trkpt>
      <trkpt lat="43.65407" lon="1.40495">
        <ele>125</ele>
        <time>2023-07-05T10:32:22Z</time>
      </trkpt>
      <trkpt lat="43.65404" lon="1.40494">
        <ele>125</ele>
        <time>2023-07-05T10:32:23Z</time>
      </trkpt>
      <trkpt lat="43.65402" lon="1.40494">
        <ele>125</ele>
        <time>2023-07-05T10:32:24Z</time>
      </trkpt>
      <trkpt lat="43.65398" lon="1.40493">
        <ele>125</ele>
        <time>2023-07-05T10:32:25Z</time>
      </trkpt>
      <trkpt lat="43.65396" lon="1.40492">
        <ele>125</ele>
        <time>2023-07-05T10:32:26Z</time>
      </trkpt>
      <trkpt lat="43.65392" lon="1.40493">
        <ele>125</ele>
        <time>2023-07-05T10:32:27Z</time>
      </trkpt>
      <trkpt lat="43.65389" lon="1.40493">
        <ele>125</ele>
        <time>2023-07-05T10:32:28Z</time>
      </trkpt>
      <trkpt lat="43.65386" lon="1.40494">
        <ele>125</ele>
        <time>2023-07-05T10:32:29Z</time>
      </trkpt>
      <trkpt lat="43.65383" lon="1.40494">
        <ele>125</ele>
        <time>2023-07-05T10:32:30Z</time>
      </trkpt>
      <trkpt lat="43.6538" lon="1.40493">
        <ele>125</ele>
        <time>2023-07-05T10:32:31Z</time>
      </trkpt>
      <trkpt lat="43.65377" lon="1.40492">
        <ele>124</ele>
        <time>2023-07-05T10:32:32Z</time>
      </trkpt>
      <trkpt lat="43.65374" lon="1.4049">
        <ele>124</ele>
        <time>2023-07-05T10:32:33Z</time>
      </trkpt>
      <trkpt lat="43.65372" lon="1.40488">
        <ele>124</ele>
        <time>2023-07-05T10:32:34Z</time>
      </trkpt>
      <trkpt lat="43.65369" lon="1.40487">
        <ele>124</ele>
        <time>2023-07-05T10:32:35Z</time>
      </trkpt>
      <trkpt lat="43.65367" lon="1.40485">
        <ele>123</ele>
        <time>2023-07-05T10:32:36Z</time>
      </trkpt>
      <trkpt lat="43.65365" lon="1.40483">
        <ele>123</ele>
        <time>2023-07-05T10:32:37Z</time>
      </trkpt>
      <trkpt lat="43.65363" lon="1.4048">
        <ele>123</ele>
        <time>2023-07-05T10:32:38Z</time>
      </trkpt>
      <trkpt lat="43.65361" lon="1.40478">
        <ele>123</ele>
        <time>2023-07-05T10:32:39Z</time>
      </trkpt>
      <trkpt lat="43.65358" lon="1.40475">
        <ele>123</ele>
        <time>2023-07-05T10:32:40Z</time>
      </trkpt>
      <trkpt lat="43.65356" lon="1.40472">
        <ele>124</ele>
        <time>2023-07-05T10:32:41Z</time>
      </trkpt>
      <trkpt lat="43.65354" lon="1.4047">
        <ele>124</ele>
        <time>2023-07-05T10:32:42Z</time>
      </trkpt>
      <trkpt lat="43.65352" lon="1.40467">
        <ele>124</ele>
        <time>2023-07-05T10:32:43Z</time>
      </trkpt>
      <trkpt lat="43.6535" lon="1.40464">
        <ele>124</ele>
        <time>2023-07-05T10:32:44Z</time>
      </trkpt>
      <trkpt lat="43.65348" lon="1.40462">
        <ele>124</ele>
        <time>2023-07-05T10:32:45Z</time>
      </trkpt>
      <trkpt lat="43.65346" lon="1.4046">
        <ele>124</ele>
        <time>2023-07-05T10:32:46Z</time>
      </trkpt>
      <trkpt lat="43.65344" lon="1.40458">
        <ele>124</ele>
        <time>2023-07-05T10:32:47Z</time>
      </trkpt>
      <trkpt lat="43.65341" lon="1.40456">
        <ele>124</ele>
        <time>2023-07-05T10:32:48Z</time>
      </trkpt>
      <trkpt lat="43.65339" lon="1.40454">
        <ele>124</ele>
        <time>2023-07-05T10:32:49Z</time>
      </trkpt>
      <trkpt lat="43.65337" lon="1.40452">
        <ele>124</ele>
        <time>2023-07-05T10:32:50Z</time>
      </trkpt>
      <trkpt lat="43.65334" lon="1.40449">
        <ele>124</ele>
        <time>2023-07-05T10:32:51Z</time>
      </trkpt>
      <trkpt lat="43.65332" lon="1.40447">
        <ele>124</ele>
        <time>2023-07-05T10:32:52Z</time>
      </trkpt>
      <trkpt lat="43.6533" lon="1.40444">
        <ele>124</ele>
        <time>2023-07-05T10:32:53Z</time>
      </trkpt>
      <trkpt lat="43.65328" lon="1.40441">
        <ele>124</ele>
        <time>2023-07-05T10:32:54Z</time>
      </trkpt>
      <trkpt lat="43.65326" lon="1.40439">
        <ele>125</ele>
        <time>2023-07-05T10:32:55Z</time>
      </trkpt>
      <trkpt lat="43.65324" lon="1.40437">
        <ele>125</ele>
        <time>2023-07-05T10:32:56Z</time>
      </trkpt>
      <trkpt lat="43.65322" lon="1.40434">
        <ele>125</ele>
        <time>2023-07-05T10:32:57Z</time>
      </trkpt>
      <trkpt lat="43.6532" lon="1.40431">
        <ele>125</ele>
        <time>2023-07-05T10:32:58Z</time>
      </trkpt>
      <trkpt lat="43.65319" lon="1.40428">
        <ele>125</ele>
        <time>2023-07-05T10:32:59Z</time>
      </trkpt>
      <trkpt lat="43.65317" lon="1.40426">
        <ele>125</ele>
        <time>2023-07-05T10:33:00Z</time>
      </trkpt>
      <trkpt lat="43.65316" lon="1.40423">
        <ele>125</ele>
        <time>2023-07-05T10:33:01Z</time>
      </trkpt>
      <trkpt lat="43.65314" lon="1.4042">
        <ele>125</ele>
        <time>2023-07-05T10:33:02Z</time>
      </trkpt>
      <trkpt lat="43.65312" lon="1.40419">
        <ele>125</ele>
        <time>2023-07-05T10:33:03Z</time>
      </trkpt>
      <trkpt lat="43.65309" lon="1.40417">
        <ele>125</ele>
        <time>2023-07-05T10:33:04Z</time>
      </trkpt>
      <trkpt lat="43.65307" lon="1.40416">
        <ele>126</ele>
        <time>2023-07-05T10:33:05Z</time>
      </trkpt>
      <trkpt lat="43.65305" lon="1.40414">
        <ele>126</ele>
        <time>2023-07-05T10:33:06Z</time>
      </trkpt>
      <trkpt lat="43.65302" lon="1.40413">
        <ele>126</ele>
        <time>2023-07-05T10:33:07Z</time>
      </trkpt>
      <trkpt lat="43.653" lon="1.40411">
        <ele>126</ele>
        <time>2023-07-05T10:33:08Z</time>
      </trkpt>
      <trkpt lat="43.65297" lon="1.4041">
        <ele>126</ele>
        <time>2023-07-05T10:33:09Z</time>
      </trkpt>
      <trkpt lat="43.65294" lon="1.40408">
        <ele>126</ele>
        <time>2023-07-05T10:33:10Z</time>
      </trkpt>
      <trkpt lat="43.6529" lon="1.40407">
        <ele>126</ele>
        <time>2023-07-05T10:33:11Z</time>
      </trkpt>
      <trkpt lat="43.65287" lon="1.40406">
        <ele>125</ele>
        <time>2023-07-05T10:33:12Z</time>
      </trkpt>
      <trkpt lat="43.65284" lon="1.40405">
        <ele>125</ele>
        <time>2023-07-05T10:33:13Z</time>
      </trkpt>
      <trkpt lat="43.65282" lon="1.40402">
        <ele>125</ele>
        <time>2023-07-05T10:33:14Z</time>
      </trkpt>
      <trkpt lat="43.6528" lon="1.40399">
        <ele>125</ele>
        <time>2023-07-05T10:33:15Z</time>
      </trkpt>
      <trkpt lat="43.65279" lon="1.40396">
        <ele>125</ele>
        <time>2023-07-05T10:33:16Z</time>
      </trkpt>
      <trkpt lat="43.65277" lon="1.40394">
        <ele>125</ele>
        <time>2023-07-05T10:33:17Z</time>
      </trkpt>
      <trkpt lat="43.65275" lon="1.40391">
        <ele>125</ele>
        <time>2023-07-05T10:33:18Z</time>
      </trkpt>
      <trkpt lat="43.65273" lon="1.40389">
        <ele>125</ele>
        <time>2023-07-05T10:33:19Z</time>
      </trkpt>
      <trkpt lat="43.65271" lon="1.40386">
        <ele>125</ele>
        <time>2023-07-05T10:33:20Z</time>
      </trkpt>
      <trkpt lat="43.65269" lon="1.40383">
        <ele>125</ele>
        <time>2023-07-05T10:33:21Z</time>
      </trkpt>
      <trkpt lat="43.65267" lon="1.40381">
        <ele>125</ele>
        <time>2023-07-05T10:33:22Z</time>
      </trkpt>
      <trkpt lat="43.65265" lon="1.40379">
        <ele>125</ele>
        <time>2023-07-05T10:33:23Z</time>
      </trkpt>
      <trkpt lat="43.65262" lon="1.40376">
        <ele>125</ele>
        <time>2023-07-05T10:33:24Z</time>
      </trkpt>
      <trkpt lat="43.65259" lon="1.40373">
        <ele>125</ele>
        <time>2023-07-05T10:33:25Z</time>
      </trkpt>
      <trkpt lat="43.65256" lon="1.40371">
        <ele>125</ele>
        <time>2023-07-05T10:33:26Z</time>
      </trkpt>
      <trkpt lat="43.65254" lon="1.40368">
        <ele>125</ele>
        <time>2023-07-05T10:33:27Z</time>
      </trkpt>
      <trkpt lat="43.65252" lon="1.40366">
        <ele>125</ele>
        <time>2023-07-05T10:33:28Z</time>
      </trkpt>
      <trkpt lat="43.6525" lon="1.40363">
        <ele>125</ele>
        <time>2023-07-05T10:33:29Z</time>
      </trkpt>
      <trkpt lat="43.65248" lon="1.4036">
        <ele>125</ele>
        <time>2023-07-05T10:33:30Z</time>
      </trkpt>
      <trkpt lat="43.65246" lon="1.40358">
        <ele>125</ele>
        <time>2023-07-05T10:33:31Z</time>
      </trkpt>
      <trkpt lat="43.65243" lon="1.40355">
        <ele>125</ele>
        <time>2023-07-05T10:33:32Z</time>
      </trkpt>
      <trkpt lat="43.65241" lon="1.40353">
        <ele>125</ele>
        <time>2023-07-05T10:33:33Z</time>
      </trkpt>
      <trkpt lat="43.65239" lon="1.4035">
        <ele>125</ele>
        <time>2023-07-05T10:33:34Z</time>
      </trkpt>
      <trkpt lat="43.65236" lon="1.40348">
        <ele>125</ele>
        <time>2023-07-05T10:33:35Z</time>
      </trkpt>
      <trkpt lat="43.65234" lon="1.40345">
        <ele>125</ele>
        <time>2023-07-05T10:33:36Z</time>
      </trkpt>
      <trkpt lat="43.65232" lon="1.40343">
        <ele>125</ele>
        <time>2023-07-05T10:33:37Z</time>
      </trkpt>
      <trkpt lat="43.65229" lon="1.40341">
        <ele>125</ele>
        <time>2023-07-05T10:33:38Z</time>
      </trkpt>
      <trkpt lat="43.65227" lon="1.40338">
        <ele>125</ele>
        <time>2023-07-05T10:33:39Z</time>
      </trkpt>
      <trkpt lat="43.65226" lon="1.40335">
        <ele>126</ele>
        <time>2023-07-05T10:33:40Z</time>
      </trkpt>
      <trkpt lat="43.65224" lon="1.40332">
        <ele>126</ele>
        <time>2023-07-05T10:33:41Z</time>
      </trkpt>
      <trkpt lat="43.65221" lon="1.4033">
        <ele>126</ele>
        <time>2023-07-05T10:33:42Z</time>
      </trkpt>
      <trkpt lat="43.65219" lon="1.40327">
        <ele>126</ele>
        <time>2023-07-05T10:33:43Z</time>
      </trkpt>
      <trkpt lat="43.65217" lon="1.40325">
        <ele>126</ele>
        <time>2023-07-05T10:33:44Z</time>
      </trkpt>
      <trkpt lat="43.65215" lon="1.40322">
        <ele>126</ele>
        <time>2023-07-05T10:33:45Z</time>
      </trkpt>
      <trkpt lat="43.65213" lon="1.4032">
        <ele>126</ele>
        <time>2023-07-05T10:33:46Z</time>
      </trkpt>
      <trkpt lat="43.65211" lon="1.40318">
        <ele>126</ele>
        <time>2023-07-05T10:33:47Z</time>
      </trkpt>
      <trkpt lat="43.65209" lon="1.40316">
        <ele>126</ele>
        <time>2023-07-05T10:33:48Z</time>
      </trkpt>
      <trkpt lat="43.65206" lon="1.40313">
        <ele>126</ele>
        <time>2023-07-05T10:33:49Z</time>
      </trkpt>
      <trkpt lat="43.65204" lon="1.40311">
        <ele>126</ele>
        <time>2023-07-05T10:33:50Z</time>
      </trkpt>
      <trkpt lat="43.65202" lon="1.40309">
        <ele>126</ele>
        <time>2023-07-05T10:33:51Z</time>
      </trkpt>
      <trkpt lat="43.652" lon="1.40307">
        <ele>126</ele>
        <time>2023-07-05T10:33:52Z</time>
      </trkpt>
      <trkpt lat="43.65197" lon="1.40305">
        <ele>126</ele>
        <time>2023-07-05T10:33:53Z</time>
      </trkpt>
      <trkpt lat="43.65195" lon="1.40303">
        <ele>126</ele>
        <time>2023-07-05T10:33:54Z</time>
      </trkpt>
      <trkpt lat="43.65192" lon="1.40302">
        <ele>126</ele>
        <time>2023-07-05T10:33:55Z</time>
      </trkpt>
      <trkpt lat="43.65189" lon="1.40299">
        <ele>125</ele>
        <time>2023-07-05T10:33:56Z</time>
      </trkpt>
      <trkpt lat="43.65187" lon="1.40297">
        <ele>125</ele>
        <time>2023-07-05T10:33:57Z</time>
      </trkpt>
      <trkpt lat="43.65184" lon="1.40294">
        <ele>125</ele>
        <time>2023-07-05T10:33:58Z</time>
      </trkpt>
      <trkpt lat="43.65181" lon="1.40292">
        <ele>125</ele>
        <time>2023-07-05T10:33:59Z</time>
      </trkpt>
      <trkpt lat="43.65179" lon="1.4029">
        <ele>125</ele>
        <time>2023-07-05T10:34:00Z</time>
      </trkpt>
      <trkpt lat="43.65176" lon="1.40287">
        <ele>125</ele>
        <time>2023-07-05T10:34:01Z</time>
      </trkpt>
      <trkpt lat="43.65174" lon="1.40285">
        <ele>125</ele>
        <time>2023-07-05T10:34:02Z</time>
      </trkpt>
      <trkpt lat="43.65172" lon="1.40283">
        <ele>125</ele>
        <time>2023-07-05T10:34:03Z</time>
      </trkpt>
      <trkpt lat="43.6517" lon="1.40281">
        <ele>125</ele>
        <time>2023-07-05T10:34:04Z</time>
      </trkpt>
      <trkpt lat="43.65168" lon="1.40278">
        <ele>125</ele>
        <time>2023-07-05T10:34:05Z</time>
      </trkpt>
      <trkpt lat="43.65165" lon="1.40276">
        <ele>125</ele>
        <time>2023-07-05T10:34:06Z</time>
      </trkpt>
      <trkpt lat="43.65163" lon="1.40273">
        <ele>126</ele>
        <time>2023-07-05T10:34:07Z</time>
      </trkpt>
      <trkpt lat="43.65161" lon="1.4027">
        <ele>126</ele>
        <time>2023-07-05T10:34:08Z</time>
      </trkpt>
      <trkpt lat="43.65158" lon="1.40267">
        <ele>126</ele>
        <time>2023-07-05T10:34:09Z</time>
      </trkpt>
      <trkpt lat="43.65156" lon="1.40265">
        <ele>126</ele>
        <time>2023-07-05T10:34:10Z</time>
      </trkpt>
      <trkpt lat="43.65153" lon="1.40262">
        <ele>126</ele>
        <time>2023-07-05T10:34:11Z</time>
      </trkpt>
      <trkpt lat="43.65151" lon="1.40259">
        <ele>126</ele>
        <time>2023-07-05T10:34:12Z</time>
      </trkpt>
      <trkpt lat="43.6515" lon="1.40256">
        <ele>126</ele>
        <time>2023-07-05T10:34:13Z</time>
      </trkpt>
      <trkpt lat="43.65148" lon="1.40252">
        <ele>126</ele>
        <time>2023-07-05T10:34:14Z</time>
      </trkpt>
      <trkpt lat="43.65147" lon="1.4025">
        <ele>126</ele>
        <time>2023-07-05T10:34:15Z</time>
      </trkpt>
      <trkpt lat="43.65145" lon="1.40248">
        <ele>126</ele>
        <time>2023-07-05T10:34:16Z</time>
      </trkpt>
      <trkpt lat="43.65143" lon="1.40246">
        <ele>126</ele>
        <time>2023-07-05T10:34:17Z</time>
      </trkpt>
      <trkpt lat="43.65141" lon="1.40244">
        <ele>126</ele>
        <time>2023-07-05T10:34:18Z</time>
      </trkpt>
      <trkpt lat="43.65139" lon="1.40242">
        <ele>126</ele>
        <time>2023-07-05T10:34:19Z</time>
      </trkpt>
      <trkpt lat="43.65136" lon="1.4024">
        <ele>126</ele>
        <time>2023-07-05T10:34:20Z</time>
      </trkpt>
      <trkpt lat="43.65133" lon="1.40238">
        <ele>126</ele>
        <time>2023-07-05T10:34:21Z</time>
      </trkpt>
      <trkpt lat="43.65131" lon="1.40236">
        <ele>126</ele>
        <time>2023-07-05T10:34:22Z</time>
      </trkpt>
      <trkpt lat="43.65129" lon="1.40234">
        <ele>126</ele>
        <time>2023-07-05T10:34:23Z</time>
      </trkpt>
      <trkpt lat="43.65127" lon="1.40232">
        <ele>126</ele>
        <time>2023-07-05T10:34:24Z</time>
      </trkpt>
      <trkpt lat="43.65124" lon="1.4023">
        <ele>126</ele>
        <time>2023-07-05T10:34:25Z</time>
      </trkpt>
      <trkpt lat="43.65122" lon="1.40227">
        <ele>126</ele>
        <time>2023-07-05T10:34:26Z</time>
      </trkpt>
      <trkpt lat="43.6512" lon="1.40224">
        <ele>126</ele>
        <time>2023-07-05T10:34:27Z</time>
      </trkpt>
      <trkpt lat="43.65118" lon="1.40222">
        <ele>126</ele>
        <time>2023-07-05T10:34:28Z</time>
      </trkpt>
      <trkpt lat="43.65116" lon="1.40219">
        <ele>126</ele>
        <time>2023-07-05T10:34:29Z</time>
      </trkpt>
      <trkpt lat="43.65114" lon="1.40216">
        <ele>126</ele>
        <time>2023-07-05T10:34:30Z</time>
      </trkpt>
      <trkpt lat="43.65112" lon="1.40214">
        <ele>126</ele>
        <time>2023-07-05T10:34:31Z</time>
      </trkpt>
      <trkpt lat="43.6511" lon="1.40212">
        <ele>126</ele>
        <time>2023-07-05T10:34:32Z</time>
      </trkpt>
      <trkpt lat="43.65108" lon="1.40209">
        <ele>126</ele>
        <time>2023-07-05T10:34:33Z</time>
      </trkpt>
      <trkpt lat="43.65106" lon="1.40206">
        <ele>126</ele>
        <time>2023-07-05T10:34:34Z</time>
      </trkpt>
      <trkpt lat="43.65105" lon="1.40203">
        <ele>126</ele>
        <time>2023-07-05T10:34:35Z</time>
      </trkpt>
      <trkpt lat="43.65104" lon="1.402">
        <ele>127</ele>
        <time>2023-07-05T10:34:36Z</time>
      </trkpt>
      <trkpt lat="43.65102" lon="1.40198">
        <ele>127</ele>
        <time>2023-07-05T10:34:37Z</time>
      </trkpt>
      <trkpt lat="43.651" lon="1.40195">
        <ele>127</ele>
        <time>2023-07-05T10:34:38Z</time>
      </trkpt>
      <trkpt lat="43.65098" lon="1.40193">
        <ele>127</ele>
        <time>2023-07-05T10:34:39Z</time>
      </trkpt>
      <trkpt lat="43.65096" lon="1.40192">
        <ele>127</ele>
        <time>2023-07-05T10:34:40Z</time>
      </trkpt>
      <trkpt lat="43.65093" lon="1.4019">
        <ele>127</ele>
        <time>2023-07-05T10:34:41Z</time>
      </trkpt>
      <trkpt lat="43.65091" lon="1.40188">
        <ele>127</ele>
        <time>2023-07-05T10:34:42Z</time>
      </trkpt>
      <trkpt lat="43.65088" lon="1.40187">
        <ele>127</ele>
        <time>2023-07-05T10:34:43Z</time>
      </trkpt>
      <trkpt lat="43.65086" lon="1.40185">
        <ele>127</ele>
        <time>2023-07-05T10:34:44Z</time>
      </trkpt>
      <trkpt lat="43.65084" lon="1.40183">
        <ele>127</ele>
        <time>2023-07-05T10:34:45Z</time>
      </trkpt>
      <trkpt lat="43.65082" lon="1.40181">
        <ele>126</ele>
        <time>2023-07-05T10:34:46Z</time>
      </trkpt>
      <trkpt lat="43.6508" lon="1.40179">
        <ele>126</ele>
        <time>2023-07-05T10:34:47Z</time>
      </trkpt>
      <trkpt lat="43.65077" lon="1.40177">
        <ele>126</ele>
        <time>2023-07-05T10:34:48Z</time>
      </trkpt>
      <trkpt lat="43.65075" lon="1.40174">
        <ele>126</ele>
        <time>2023-07-05T10:34:49Z</time>
      </trkpt>
      <trkpt lat="43.65072" lon="1.40172">
        <ele>126</ele>
        <time>2023-07-05T10:34:50Z</time>
      </trkpt>
      <trkpt lat="43.6507" lon="1.40171">
        <ele>126</ele>
        <time>2023-07-05T10:34:51Z</time>
      </trkpt>
      <trkpt lat="43.65068" lon="1.40169">
        <ele>126</ele>
        <time>2023-07-05T10:34:52Z</time>
      </trkpt>
      <trkpt lat="43.65066" lon="1.40168">
        <ele>126</ele>
        <time>2023-07-05T10:34:53Z</time>
      </trkpt>
      <trkpt lat="43.65063" lon="1.40166">
        <ele>126</ele>
        <time>2023-07-05T10:34:54Z</time>
      </trkpt>
      <trkpt lat="43.65061" lon="1.40164">
        <ele>126</ele>
        <time>2023-07-05T10:34:55Z</time>
      </trkpt>
      <trkpt lat="43.65058" lon="1.40162">
        <ele>126</ele>
        <time>2023-07-05T10:34:56Z</time>
      </trkpt>
      <trkpt lat="43.65056" lon="1.40159">
        <ele>126</ele>
        <time>2023-07-05T10:34:57Z</time>
      </trkpt>
      <trkpt lat="43.65053" lon="1.40157">
        <ele>125</ele>
        <time>2023-07-05T10:34:58Z</time>
      </trkpt>
      <trkpt lat="43.65051" lon="1.40155">
        <ele>125</ele>
        <time>2023-07-05T10:34:59Z</time>
      </trkpt>
      <trkpt lat="43.65048" lon="1.40153">
        <ele>125</ele>
        <time>2023-07-05T10:35:00Z</time>
      </trkpt>
      <trkpt lat="43.65045" lon="1.40151">
        <ele>125</ele>
        <time>2023-07-05T10:35:01Z</time>
      </trkpt>
      <trkpt lat="43.65041" lon="1.40149">
        <ele>125</ele>
        <time>2023-07-05T10:35:02Z</time>
      </trkpt>
      <trkpt lat="43.65038" lon="1.40147">
        <ele>125</ele>
        <time>2023-07-05T10:35:03Z</time>
      </trkpt>
      <trkpt lat="43.65036" lon="1.40144">
        <ele>125</ele>
        <time>2023-07-05T10:35:04Z</time>
      </trkpt>
      <trkpt lat="43.65034" lon="1.40142">
        <ele>125</ele>
        <time>2023-07-05T10:35:05Z</time>
      </trkpt>
      <trkpt lat="43.65032" lon="1.40139">
        <ele>125</ele>
        <time>2023-07-05T10:35:06Z</time>
      </trkpt>
      <trkpt lat="43.65031" lon="1.40135">
        <ele>125</ele>
        <time>2023-07-05T10:35:07Z</time>
      </trkpt>
      <trkpt lat="43.65029" lon="1.40131">
        <ele>125</ele>
        <time>2023-07-05T10:35:08Z</time>
      </trkpt>
      <trkpt lat="43.65027" lon="1.40128">
        <ele>125</ele>
        <time>2023-07-05T10:35:09Z</time>
      </trkpt>
      <trkpt lat="43.65026" lon="1.40126">
        <ele>125</ele>
        <time>2023-07-05T10:35:10Z</time>
      </trkpt>
      <trkpt lat="43.65023" lon="1.40124">
        <ele>125</ele>
        <time>2023-07-05T10:35:11Z</time>
      </trkpt>
      <trkpt lat="43.65022" lon="1.40122">
        <ele>125</ele>
        <time>2023-07-05T10:35:12Z</time>
      </trkpt>
      <trkpt lat="43.6502" lon="1.40119">
        <ele>125</ele>
        <time>2023-07-05T10:35:13Z</time>
      </trkpt>
      <trkpt lat="43.65019" lon="1.40117">
        <ele>125</ele>
        <time>2023-07-05T10:35:14Z</time>
      </trkpt>
      <trkpt lat="43.65019" lon="1.40117">
        <ele>125</ele>
        <time>2023-07-05T10:35:15Z</time>
      </trkpt>
      <trkpt lat="43.65017" lon="1.40112">
        <ele>126</ele>
        <time>2023-07-05T10:35:16Z</time>
      </trkpt>
      <trkpt lat="43.65017" lon="1.40112">
        <ele>126</ele>
        <time>2023-07-05T10:35:17Z</time>
      </trkpt>
      <trkpt lat="43.65015" lon="1.40109">
        <ele>126</ele>
        <time>2023-07-05T10:35:18Z</time>
      </trkpt>
      <trkpt lat="43.65012" lon="1.40107">
        <ele>126</ele>
        <time>2023-07-05T10:35:19Z</time>
      </trkpt>
      <trkpt lat="43.6501" lon="1.40104">
        <ele>127</ele>
        <time>2023-07-05T10:35:20Z</time>
      </trkpt>
      <trkpt lat="43.65008" lon="1.40102">
        <ele>127</ele>
        <time>2023-07-05T10:35:21Z</time>
      </trkpt>
      <trkpt lat="43.65008" lon="1.40102">
        <ele>127</ele>
        <time>2023-07-05T10:35:22Z</time>
      </trkpt>
      <trkpt lat="43.65005" lon="1.401">
        <ele>127</ele>
        <time>2023-07-05T10:35:23Z</time>
      </trkpt>
      <trkpt lat="43.65002" lon="1.40099">
        <ele>127</ele>
        <time>2023-07-05T10:35:24Z</time>
      </trkpt>
      <trkpt lat="43.64999" lon="1.40098">
        <ele>127</ele>
        <time>2023-07-05T10:35:25Z</time>
      </trkpt>
      <trkpt lat="43.64999" lon="1.40098">
        <ele>126</ele>
        <time>2023-07-05T10:35:26Z</time>
      </trkpt>
      <trkpt lat="43.64996" lon="1.40096">
        <ele>125</ele>
        <time>2023-07-05T10:35:27Z</time>
      </trkpt>
      <trkpt lat="43.64993" lon="1.40094">
        <ele>125</ele>
        <time>2023-07-05T10:35:28Z</time>
      </trkpt>
      <trkpt lat="43.6499" lon="1.40091">
        <ele>125</ele>
        <time>2023-07-05T10:35:29Z</time>
      </trkpt>
      <trkpt lat="43.64987" lon="1.40089">
        <ele>125</ele>
        <time>2023-07-05T10:35:30Z</time>
      </trkpt>
      <trkpt lat="43.64985" lon="1.40086">
        <ele>125</ele>
        <time>2023-07-05T10:35:31Z</time>
      </trkpt>
      <trkpt lat="43.64982" lon="1.40083">
        <ele>125</ele>
        <time>2023-07-05T10:35:32Z</time>
      </trkpt>
      <trkpt lat="43.64978" lon="1.40081">
        <ele>125</ele>
        <time>2023-07-05T10:35:33Z</time>
      </trkpt>
      <trkpt lat="43.64973" lon="1.40078">
        <ele>125</ele>
        <time>2023-07-05T10:35:34Z</time>
      </trkpt>
      <trkpt lat="43.64969" lon="1.40076">
        <ele>125</ele>
        <time>2023-07-05T10:35:35Z</time>
      </trkpt>
      <trkpt lat="43.64965" lon="1.40074">
        <ele>125</ele>
        <time>2023-07-05T10:35:36Z</time>
      </trkpt>
      <trkpt lat="43.64961" lon="1.40073">
        <ele>124</ele>
        <time>2023-07-05T10:35:37Z</time>
      </trkpt>
      <trkpt lat="43.64957" lon="1.40072">
        <ele>124</ele>
        <time>2023-07-05T10:35:38Z</time>
      </trkpt>
      <trkpt lat="43.64954" lon="1.4007">
        <ele>124</ele>
        <time>2023-07-05T10:35:39Z</time>
      </trkpt>
      <trkpt lat="43.64952" lon="1.40069">
        <ele>124</ele>
        <time>2023-07-05T10:35:40Z</time>
      </trkpt>
      <trkpt lat="43.64949" lon="1.40067">
        <ele>124</ele>
        <time>2023-07-05T10:35:41Z</time>
      </trkpt>
      <trkpt lat="43.64947" lon="1.40065">
        <ele>124</ele>
        <time>2023-07-05T10:35:42Z</time>
      </trkpt>
      <trkpt lat="43.64944" lon="1.40063">
        <ele>124</ele>
        <time>2023-07-05T10:35:43Z</time>
      </trkpt>
      <trkpt lat="43.64943" lon="1.40062">
        <ele>124</ele>
        <time>2023-07-05T10:35:44Z</time>
      </trkpt>
      <trkpt lat="43.6494" lon="1.4006">
        <ele>124</ele>
        <time>2023-07-05T10:35:45Z</time>
      </trkpt>
      <trkpt lat="43.64938" lon="1.40059">
        <ele>124</ele>
        <time>2023-07-05T10:35:46Z</time>
      </trkpt>
      <trkpt lat="43.64936" lon="1.40058">
        <ele>124</ele>
        <time>2023-07-05T10:35:47Z</time>
      </trkpt>
      <trkpt lat="43.64934" lon="1.40057">
        <ele>124</ele>
        <time>2023-07-05T10:35:48Z</time>
      </trkpt>
      <trkpt lat="43.64932" lon="1.40057">
        <ele>124</ele>
        <time>2023-07-05T10:35:49Z</time>
      </trkpt>
      <trkpt lat="43.64929" lon="1.40055">
        <ele>124</ele>
        <time>2023-07-05T10:35:50Z</time>
      </trkpt>
      <trkpt lat="43.64926" lon="1.40054">
        <ele>124</ele>
        <time>2023-07-05T10:35:51Z</time>
      </trkpt>
      <trkpt lat="43.64923" lon="1.40051">
        <ele>124</ele>
        <time>2023-07-05T10:35:52Z</time>
      </trkpt>
      <trkpt lat="43.64921" lon="1.40049">
        <ele>124</ele>
        <time>2023-07-05T10:35:53Z</time>
      </trkpt>
      <trkpt lat="43.64918" lon="1.40047">
        <ele>124</ele>
        <time>2023-07-05T10:35:54Z</time>
      </trkpt>
      <trkpt lat="43.64915" lon="1.40045">
        <ele>124</ele>
        <time>2023-07-05T10:35:55Z</time>
      </trkpt>
      <trkpt lat="43.64912" lon="1.40043">
        <ele>124</ele>
        <time>2023-07-05T10:35:56Z</time>
      </trkpt>
      <trkpt lat="43.6491" lon="1.40041">
        <ele>124</ele>
        <time>2023-07-05T10:35:57Z</time>
      </trkpt>
      <trkpt lat="43.64907" lon="1.40039">
        <ele>124</ele>
        <time>2023-07-05T10:35:58Z</time>
      </trkpt>
      <trkpt lat="43.64905" lon="1.40036">
        <ele>124</ele>
        <time>2023-07-05T10:35:59Z</time>
      </trkpt>
      <trkpt lat="43.64903" lon="1.40034">
        <ele>124</ele>
        <time>2023-07-05T10:36:00Z</time>
      </trkpt>
      <trkpt lat="43.64901" lon="1.40031">
        <ele>125</ele>
        <time>2023-07-05T10:36:01Z</time>
      </trkpt>
      <trkpt lat="43.649" lon="1.40028">
        <ele>125</ele>
        <time>2023-07-05T10:36:02Z</time>
      </trkpt>
      <trkpt lat="43.64898" lon="1.40026">
        <ele>125</ele>
        <time>2023-07-05T10:36:03Z</time>
      </trkpt>
      <trkpt lat="43.64895" lon="1.40024">
        <ele>125</ele>
        <time>2023-07-05T10:36:04Z</time>
      </trkpt>
      <trkpt lat="43.64893" lon="1.40022">
        <ele>125</ele>
        <time>2023-07-05T10:36:05Z</time>
      </trkpt>
      <trkpt lat="43.64891" lon="1.40021">
        <ele>125</ele>
        <time>2023-07-05T10:36:06Z</time>
      </trkpt>
      <trkpt lat="43.64889" lon="1.4002">
        <ele>125</ele>
        <time>2023-07-05T10:36:07Z</time>
      </trkpt>
      <trkpt lat="43.64886" lon="1.40019">
        <ele>125</ele>
        <time>2023-07-05T10:36:08Z</time>
      </trkpt>
      <trkpt lat="43.64884" lon="1.40018">
        <ele>125</ele>
        <time>2023-07-05T10:36:09Z</time>
      </trkpt>
      <trkpt lat="43.64882" lon="1.40017">
        <ele>125</ele>
        <time>2023-07-05T10:36:10Z</time>
      </trkpt>
      <trkpt lat="43.6488" lon="1.40015">
        <ele>125</ele>
        <time>2023-07-05T10:36:11Z</time>
      </trkpt>
      <trkpt lat="43.64878" lon="1.40014">
        <ele>125</ele>
        <time>2023-07-05T10:36:12Z</time>
      </trkpt>
      <trkpt lat="43.64876" lon="1.40012">
        <ele>125</ele>
        <time>2023-07-05T10:36:13Z</time>
      </trkpt>
      <trkpt lat="43.64876" lon="1.40012">
        <ele>125</ele>
        <time>2023-07-05T10:36:14Z</time>
      </trkpt>
      <trkpt lat="43.6487" lon="1.40009">
        <ele>125</ele>
        <time>2023-07-05T10:36:15Z</time>
      </trkpt>
      <trkpt lat="43.64869" lon="1.40009">
        <ele>125</ele>
        <time>2023-07-05T10:36:16Z</time>
      </trkpt>
      <trkpt lat="43.64869" lon="1.40009">
        <ele>125</ele>
        <time>2023-07-05T10:36:17Z</time>
      </trkpt>
      <trkpt lat="43.64866" lon="1.40007">
        <ele>125</ele>
        <time>2023-07-05T10:36:18Z</time>
      </trkpt>
      <trkpt lat="43.64863" lon="1.40006">
        <ele>125</ele>
        <time>2023-07-05T10:36:19Z</time>
      </trkpt>
      <trkpt lat="43.64861" lon="1.40005">
        <ele>125</ele>
        <time>2023-07-05T10:36:20Z</time>
      </trkpt>
      <trkpt lat="43.64858" lon="1.40003">
        <ele>125</ele>
        <time>2023-07-05T10:36:21Z</time>
      </trkpt>
      <trkpt lat="43.64858" lon="1.40003">
        <ele>126</ele>
        <time>2023-07-05T10:36:22Z</time>
      </trkpt>
      <trkpt lat="43.64852" lon="1.40001">
        <ele>126</ele>
        <time>2023-07-05T10:36:23Z</time>
      </trkpt>
      <trkpt lat="43.64852" lon="1.40001">
        <ele>125</ele>
        <time>2023-07-05T10:36:24Z</time>
      </trkpt>
      <trkpt lat="43.64848" lon="1.39999">
        <ele>125</ele>
        <time>2023-07-05T10:36:25Z</time>
      </trkpt>
      <trkpt lat="43.64845" lon="1.39997">
        <ele>125</ele>
        <time>2023-07-05T10:36:26Z</time>
      </trkpt>
      <trkpt lat="43.64841" lon="1.39995">
        <ele>125</ele>
        <time>2023-07-05T10:36:27Z</time>
      </trkpt>
      <trkpt lat="43.64837" lon="1.39994">
        <ele>125</ele>
        <time>2023-07-05T10:36:28Z</time>
      </trkpt>
      <trkpt lat="43.64834" lon="1.39992">
        <ele>125</ele>
        <time>2023-07-05T10:36:29Z</time>
      </trkpt>
      <trkpt lat="43.64831" lon="1.3999">
        <ele>125</ele>
        <time>2023-07-05T10:36:30Z</time>
      </trkpt>
      <trkpt lat="43.64831" lon="1.3999">
        <ele>126</ele>
        <time>2023-07-05T10:36:31Z</time>
      </trkpt>
      <trkpt lat="43.64825" lon="1.39986">
        <ele>126</ele>
        <time>2023-07-05T10:36:32Z</time>
      </trkpt>
      <trkpt lat="43.64824" lon="1.39985">
        <ele>126</ele>
        <time>2023-07-05T10:36:33Z</time>
      </trkpt>
      <trkpt lat="43.64822" lon="1.39983">
        <ele>126</ele>
        <time>2023-07-05T10:36:34Z</time>
      </trkpt>
      <trkpt lat="43.64822" lon="1.39983">
        <ele>127</ele>
        <time>2023-07-05T10:36:35Z</time>
      </trkpt>
      <trkpt lat="43.6482" lon="1.39982">
        <ele>127</ele>
        <time>2023-07-05T10:36:36Z</time>
      </trkpt>
      <trkpt lat="43.64818" lon="1.39981">
        <ele>127</ele>
        <time>2023-07-05T10:36:37Z</time>
      </trkpt>
      <trkpt lat="43.64816" lon="1.3998">
        <ele>127</ele>
        <time>2023-07-05T10:36:38Z</time>
      </trkpt>
      <trkpt lat="43.64813" lon="1.39979">
        <ele>127</ele>
        <time>2023-07-05T10:36:39Z</time>
      </trkpt>
      <trkpt lat="43.64811" lon="1.39978">
        <ele>127</ele>
        <time>2023-07-05T10:36:40Z</time>
      </trkpt>
      <trkpt lat="43.64807" lon="1.39977">
        <ele>127</ele>
        <time>2023-07-05T10:36:41Z</time>
      </trkpt>
      <trkpt lat="43.64804" lon="1.39976">
        <ele>127</ele>
        <time>2023-07-05T10:36:42Z</time>
      </trkpt>
      <trkpt lat="43.648" lon="1.39975">
        <ele>127</ele>
        <time>2023-07-05T10:36:43Z</time>
      </trkpt>
      <trkpt lat="43.64797" lon="1.39974">
        <ele>127</ele>
        <time>2023-07-05T10:36:44Z</time>
      </trkpt>
      <trkpt lat="43.64793" lon="1.39973">
        <ele>127</ele>
        <time>2023-07-05T10:36:45Z</time>
      </trkpt>
      <trkpt lat="43.6479" lon="1.39972">
        <ele>127</ele>
        <time>2023-07-05T10:36:46Z</time>
      </trkpt>
      <trkpt lat="43.64786" lon="1.39971">
        <ele>127</ele>
        <time>2023-07-05T10:36:47Z</time>
      </trkpt>
      <trkpt lat="43.64782" lon="1.39971">
        <ele>127</ele>
        <time>2023-07-05T10:36:48Z</time>
      </trkpt>
      <trkpt lat="43.64777" lon="1.3997">
        <ele>127</ele>
        <time>2023-07-05T10:36:49Z</time>
      </trkpt>
      <trkpt lat="43.64774" lon="1.39969">
        <ele>127</ele>
        <time>2023-07-05T10:36:50Z</time>
      </trkpt>
      <trkpt lat="43.64771" lon="1.39967">
        <ele>127</ele>
        <time>2023-07-05T10:36:51Z</time>
      </trkpt>
      <trkpt lat="43.64768" lon="1.39966">
        <ele>127</ele>
        <time>2023-07-05T10:36:52Z</time>
      </trkpt>
      <trkpt lat="43.64765" lon="1.39965">
        <ele>127</ele>
        <time>2023-07-05T10:36:53Z</time>
      </trkpt>
      <trkpt lat="43.64762" lon="1.39964">
        <ele>127</ele>
        <time>2023-07-05T10:36:54Z</time>
      </trkpt>
      <trkpt lat="43.6476" lon="1.39962">
        <ele>127</ele>
        <time>2023-07-05T10:36:55Z</time>
      </trkpt>
      <trkpt lat="43.64757" lon="1.3996">
        <ele>127</ele>
        <time>2023-07-05T10:36:56Z</time>
      </trkpt>
      <trkpt lat="43.64754" lon="1.3996">
        <ele>127</ele>
        <time>2023-07-05T10:36:57Z</time>
      </trkpt>
      <trkpt lat="43.64751" lon="1.39959">
        <ele>127</ele>
        <time>2023-07-05T10:36:58Z</time>
      </trkpt>
      <trkpt lat="43.64749" lon="1.39959">
        <ele>127</ele>
        <time>2023-07-05T10:36:59Z</time>
      </trkpt>
      <trkpt lat="43.64746" lon="1.39959">
        <ele>127</ele>
        <time>2023-07-05T10:37:00Z</time>
      </trkpt>
      <trkpt lat="43.64744" lon="1.39958">
        <ele>127</ele>
        <time>2023-07-05T10:37:01Z</time>
      </trkpt>
      <trkpt lat="43.64741" lon="1.39957">
        <ele>127</ele>
        <time>2023-07-05T10:37:02Z</time>
      </trkpt>
      <trkpt lat="43.64739" lon="1.39956">
        <ele>127</ele>
        <time>2023-07-05T10:37:03Z</time>
      </trkpt>
      <trkpt lat="43.64736" lon="1.39956">
        <ele>127</ele>
        <time>2023-07-05T10:37:04Z</time>
      </trkpt>
      <trkpt lat="43.64734" lon="1.39956">
        <ele>127</ele>
        <time>2023-07-05T10:37:05Z</time>
      </trkpt>
      <trkpt lat="43.64732" lon="1.39955">
        <ele>127</ele>
        <time>2023-07-05T10:37:06Z</time>
      </trkpt>
      <trkpt lat="43.64732" lon="1.39955">
        <ele>128</ele>
        <time>2023-07-05T10:37:07Z</time>
      </trkpt>
      <trkpt lat="43.64725" lon="1.39954">
        <ele>128</ele>
        <time>2023-07-05T10:37:08Z</time>
      </trkpt>
      <trkpt lat="43.64724" lon="1.39954">
        <ele>128</ele>
        <time>2023-07-05T10:37:09Z</time>
      </trkpt>
      <trkpt lat="43.64721" lon="1.39953">
        <ele>128</ele>
        <time>2023-07-05T10:37:10Z</time>
      </trkpt>
      <trkpt lat="43.64719" lon="1.39953">
        <ele>128</ele>
        <time>2023-07-05T10:37:11Z</time>
      </trkpt>
      <trkpt lat="43.64717" lon="1.39953">
        <ele>128</ele>
        <time>2023-07-05T10:37:12Z</time>
      </trkpt>
      <trkpt lat="43.64714" lon="1.39953">
        <ele>128</ele>
        <time>2023-07-05T10:37:13Z</time>
      </trkpt>
      <trkpt lat="43.64711" lon="1.39953">
        <ele>128</ele>
        <time>2023-07-05T10:37:14Z</time>
      </trkpt>
      <trkpt lat="43.64708" lon="1.39953">
        <ele>128</ele>
        <time>2023-07-05T10:37:15Z</time>
      </trkpt>
      <trkpt lat="43.64708" lon="1.39953">
        <ele>128</ele>
        <time>2023-07-05T10:37:16Z</time>
      </trkpt>
      <trkpt lat="43.64704" lon="1.39952">
        <ele>128</ele>
        <time>2023-07-05T10:37:17Z</time>
      </trkpt>
      <trkpt lat="43.64704" lon="1.39952">
        <ele>127</ele>
        <time>2023-07-05T10:37:18Z</time>
      </trkpt>
      <trkpt lat="43.64701" lon="1.39952">
        <ele>127</ele>
        <time>2023-07-05T10:37:19Z</time>
      </trkpt>
      <trkpt lat="43.64701" lon="1.39952">
        <ele>127</ele>
        <time>2023-07-05T10:37:20Z</time>
      </trkpt>
      <trkpt lat="43.64698" lon="1.39952">
        <ele>128</ele>
        <time>2023-07-05T10:37:21Z</time>
      </trkpt>
      <trkpt lat="43.64698" lon="1.39952">
        <ele>128</ele>
        <time>2023-07-05T10:37:22Z</time>
      </trkpt>
      <trkpt lat="43.64697" lon="1.39951">
        <ele>129</ele>
        <time>2023-07-05T10:37:23Z</time>
      </trkpt>
      <trkpt lat="43.64696" lon="1.3995">
        <ele>129</ele>
        <time>2023-07-05T10:37:24Z</time>
      </trkpt>
      <trkpt lat="43.64694" lon="1.39949">
        <ele>129</ele>
        <time>2023-07-05T10:37:25Z</time>
      </trkpt>
      <trkpt lat="43.64693" lon="1.39948">
        <ele>130</ele>
        <time>2023-07-05T10:37:26Z</time>
      </trkpt>
      <trkpt lat="43.64692" lon="1.39947">
        <ele>130</ele>
        <time>2023-07-05T10:37:27Z</time>
      </trkpt>
      <trkpt lat="43.64691" lon="1.39946">
        <ele>130</ele>
        <time>2023-07-05T10:37:28Z</time>
      </trkpt>
      <trkpt lat="43.64689" lon="1.39945">
        <ele>130</ele>
        <time>2023-07-05T10:37:29Z</time>
      </trkpt>
      <trkpt lat="43.64687" lon="1.39945">
        <ele>130</ele>
        <time>2023-07-05T10:37:30Z</time>
      </trkpt>
      <trkpt lat="43.64684" lon="1.39945">
        <ele>130</ele>
        <time>2023-07-05T10:37:31Z</time>
      </trkpt>
      <trkpt lat="43.64682" lon="1.39944">
        <ele>130</ele>
        <time>2023-07-05T10:37:32Z</time>
      </trkpt>
      <trkpt lat="43.64679" lon="1.39944">
        <ele>130</ele>
        <time>2023-07-05T10:37:33Z</time>
      </trkpt>
      <trkpt lat="43.64676" lon="1.39944">
        <ele>130</ele>
        <time>2023-07-05T10:37:34Z</time>
      </trkpt>
      <trkpt lat="43.64674" lon="1.39944">
        <ele>130</ele>
        <time>2023-07-05T10:37:35Z</time>
      </trkpt>
      <trkpt lat="43.64671" lon="1.39944">
        <ele>130</ele>
        <time>2023-07-05T10:37:36Z</time>
      </trkpt>
      <trkpt lat="43.64668" lon="1.39944">
        <ele>130</ele>
        <time>2023-07-05T10:37:37Z</time>
      </trkpt>
      <trkpt lat="43.64665" lon="1.39944">
        <ele>130</ele>
        <time>2023-07-05T10:37:38Z</time>
      </trkpt>
      <trkpt lat="43.64663" lon="1.39943">
        <ele>130</ele>
        <time>2023-07-05T10:37:39Z</time>
      </trkpt>
      <trkpt lat="43.6466" lon="1.39943">
        <ele>130</ele>
        <time>2023-07-05T10:37:40Z</time>
      </trkpt>
      <trkpt lat="43.64657" lon="1.39943">
        <ele>130</ele>
        <time>2023-07-05T10:37:41Z</time>
      </trkpt>
      <trkpt lat="43.64654" lon="1.39942">
        <ele>130</ele>
        <time>2023-07-05T10:37:42Z</time>
      </trkpt>
      <trkpt lat="43.64651" lon="1.39942">
        <ele>130</ele>
        <time>2023-07-05T10:37:43Z</time>
      </trkpt>
      <trkpt lat="43.64649" lon="1.39941">
        <ele>130</ele>
        <time>2023-07-05T10:37:44Z</time>
      </trkpt>
      <trkpt lat="43.64646" lon="1.39941">
        <ele>130</ele>
        <time>2023-07-05T10:37:45Z</time>
      </trkpt>
      <trkpt lat="43.64643" lon="1.3994">
        <ele>130</ele>
        <time>2023-07-05T10:37:46Z</time>
      </trkpt>
      <trkpt lat="43.6464" lon="1.3994">
        <ele>130</ele>
        <time>2023-07-05T10:37:47Z</time>
      </trkpt>
      <trkpt lat="43.64636" lon="1.3994">
        <ele>130</ele>
        <time>2023-07-05T10:37:48Z</time>
      </trkpt>
      <trkpt lat="43.64633" lon="1.3994">
        <ele>130</ele>
        <time>2023-07-05T10:37:49Z</time>
      </trkpt>
      <trkpt lat="43.64629" lon="1.3994">
        <ele>130</ele>
        <time>2023-07-05T10:37:50Z</time>
      </trkpt>
      <trkpt lat="43.64625" lon="1.3994">
        <ele>130</ele>
        <time>2023-07-05T10:37:51Z</time>
      </trkpt>
      <trkpt lat="43.64622" lon="1.39941">
        <ele>130</ele>
        <time>2023-07-05T10:37:52Z</time>
      </trkpt>
      <trkpt lat="43.64619" lon="1.39943">
        <ele>130</ele>
        <time>2023-07-05T10:37:53Z</time>
      </trkpt>
      <trkpt lat="43.64616" lon="1.39944">
        <ele>130</ele>
        <time>2023-07-05T10:37:54Z</time>
      </trkpt>
      <trkpt lat="43.64614" lon="1.39945">
        <ele>130</ele>
        <time>2023-07-05T10:37:55Z</time>
      </trkpt>
      <trkpt lat="43.64611" lon="1.39946">
        <ele>130</ele>
        <time>2023-07-05T10:37:56Z</time>
      </trkpt>
      <trkpt lat="43.64609" lon="1.39948">
        <ele>130</ele>
        <time>2023-07-05T10:37:57Z</time>
      </trkpt>
      <trkpt lat="43.64607" lon="1.39949">
        <ele>130</ele>
        <time>2023-07-05T10:37:58Z</time>
      </trkpt>
      <trkpt lat="43.64603" lon="1.39951">
        <ele>130</ele>
        <time>2023-07-05T10:37:59Z</time>
      </trkpt>
      <trkpt lat="43.646" lon="1.39952">
        <ele>130</ele>
        <time>2023-07-05T10:38:00Z</time>
      </trkpt>
      <trkpt lat="43.64596" lon="1.39954">
        <ele>130</ele>
        <time>2023-07-05T10:38:01Z</time>
      </trkpt>
      <trkpt lat="43.64593" lon="1.39955">
        <ele>130</ele>
        <time>2023-07-05T10:38:02Z</time>
      </trkpt>
      <trkpt lat="43.6459" lon="1.39956">
        <ele>130</ele>
        <time>2023-07-05T10:38:03Z</time>
      </trkpt>
      <trkpt lat="43.64587" lon="1.39957">
        <ele>130</ele>
        <time>2023-07-05T10:38:04Z</time>
      </trkpt>
      <trkpt lat="43.64585" lon="1.39959">
        <ele>130</ele>
        <time>2023-07-05T10:38:05Z</time>
      </trkpt>
      <trkpt lat="43.64583" lon="1.3996">
        <ele>130</ele>
        <time>2023-07-05T10:38:06Z</time>
      </trkpt>
      <trkpt lat="43.64581" lon="1.3996">
        <ele>130</ele>
        <time>2023-07-05T10:38:07Z</time>
      </trkpt>
      <trkpt lat="43.64578" lon="1.39961">
        <ele>130</ele>
        <time>2023-07-05T10:38:08Z</time>
      </trkpt>
      <trkpt lat="43.64576" lon="1.39962">
        <ele>130</ele>
        <time>2023-07-05T10:38:09Z</time>
      </trkpt>
      <trkpt lat="43.64573" lon="1.39964">
        <ele>130</ele>
        <time>2023-07-05T10:38:10Z</time>
      </trkpt>
      <trkpt lat="43.6457" lon="1.39965">
        <ele>130</ele>
        <time>2023-07-05T10:38:11Z</time>
      </trkpt>
      <trkpt lat="43.64567" lon="1.39966">
        <ele>130</ele>
        <time>2023-07-05T10:38:12Z</time>
      </trkpt>
      <trkpt lat="43.64564" lon="1.39966">
        <ele>130</ele>
        <time>2023-07-05T10:38:13Z</time>
      </trkpt>
      <trkpt lat="43.64564" lon="1.39966">
        <ele>130</ele>
        <time>2023-07-05T10:38:14Z</time>
      </trkpt>
      <trkpt lat="43.64562" lon="1.39966">
        <ele>131</ele>
        <time>2023-07-05T10:38:15Z</time>
      </trkpt>
      <trkpt lat="43.64559" lon="1.39965">
        <ele>131</ele>
        <time>2023-07-05T10:38:16Z</time>
      </trkpt>
      <trkpt lat="43.64556" lon="1.39965">
        <ele>131</ele>
        <time>2023-07-05T10:38:17Z</time>
      </trkpt>
      <trkpt lat="43.64554" lon="1.39965">
        <ele>131</ele>
        <time>2023-07-05T10:38:18Z</time>
      </trkpt>
      <trkpt lat="43.64549" lon="1.39965">
        <ele>131</ele>
        <time>2023-07-05T10:38:19Z</time>
      </trkpt>
      <trkpt lat="43.64545" lon="1.39964">
        <ele>130</ele>
        <time>2023-07-05T10:38:20Z</time>
      </trkpt>
      <trkpt lat="43.64541" lon="1.39964">
        <ele>130</ele>
        <time>2023-07-05T10:38:21Z</time>
      </trkpt>
      <trkpt lat="43.64538" lon="1.39964">
        <ele>131</ele>
        <time>2023-07-05T10:38:22Z</time>
      </trkpt>
      <trkpt lat="43.64535" lon="1.39963">
        <ele>131</ele>
        <time>2023-07-05T10:38:23Z</time>
      </trkpt>
      <trkpt lat="43.64532" lon="1.39963">
        <ele>131</ele>
        <time>2023-07-05T10:38:24Z</time>
      </trkpt>
      <trkpt lat="43.64529" lon="1.39962">
        <ele>131</ele>
        <time>2023-07-05T10:38:25Z</time>
      </trkpt>
      <trkpt lat="43.64526" lon="1.39963">
        <ele>131</ele>
        <time>2023-07-05T10:38:26Z</time>
      </trkpt>
      <trkpt lat="43.64526" lon="1.39963">
        <ele>131</ele>
        <time>2023-07-05T10:38:27Z</time>
      </trkpt>
      <trkpt lat="43.64523" lon="1.39962">
        <ele>131</ele>
        <time>2023-07-05T10:38:28Z</time>
      </trkpt>
      <trkpt lat="43.64519" lon="1.39962">
        <ele>130</ele>
        <time>2023-07-05T10:38:29Z</time>
      </trkpt>
      <trkpt lat="43.64516" lon="1.39961">
        <ele>131</ele>
        <time>2023-07-05T10:38:30Z</time>
      </trkpt>
      <trkpt lat="43.64514" lon="1.39959">
        <ele>131</ele>
        <time>2023-07-05T10:38:31Z</time>
      </trkpt>
      <trkpt lat="43.64513" lon="1.39956">
        <ele>131</ele>
        <time>2023-07-05T10:38:32Z</time>
      </trkpt>
      <trkpt lat="43.64512" lon="1.39952">
        <ele>131</ele>
        <time>2023-07-05T10:38:33Z</time>
      </trkpt>
      <trkpt lat="43.64512" lon="1.39947">
        <ele>131</ele>
        <time>2023-07-05T10:38:34Z</time>
      </trkpt>
      <trkpt lat="43.64513" lon="1.39943">
        <ele>131</ele>
        <time>2023-07-05T10:38:35Z</time>
      </trkpt>
      <trkpt lat="43.64512" lon="1.39938">
        <ele>131</ele>
        <time>2023-07-05T10:38:36Z</time>
      </trkpt>
      <trkpt lat="43.64511" lon="1.39934">
        <ele>130</ele>
        <time>2023-07-05T10:38:37Z</time>
      </trkpt>
      <trkpt lat="43.64509" lon="1.39931">
        <ele>130</ele>
        <time>2023-07-05T10:38:38Z</time>
      </trkpt>
      <trkpt lat="43.64507" lon="1.39928">
        <ele>131</ele>
        <time>2023-07-05T10:38:39Z</time>
      </trkpt>
      <trkpt lat="43.64504" lon="1.39925">
        <ele>132</ele>
        <time>2023-07-05T10:38:40Z</time>
      </trkpt>
      <trkpt lat="43.64502" lon="1.39922">
        <ele>132</ele>
        <time>2023-07-05T10:38:41Z</time>
      </trkpt>
      <trkpt lat="43.64501" lon="1.39918">
        <ele>132</ele>
        <time>2023-07-05T10:38:42Z</time>
      </trkpt>
      <trkpt lat="43.645" lon="1.39913">
        <ele>132</ele>
        <time>2023-07-05T10:38:43Z</time>
      </trkpt>
      <trkpt lat="43.645" lon="1.39909">
        <ele>131</ele>
        <time>2023-07-05T10:38:44Z</time>
      </trkpt>
      <trkpt lat="43.64499" lon="1.39905">
        <ele>131</ele>
        <time>2023-07-05T10:38:45Z</time>
      </trkpt>
      <trkpt lat="43.64499" lon="1.399">
        <ele>132</ele>
        <time>2023-07-05T10:38:46Z</time>
      </trkpt>
      <trkpt lat="43.64499" lon="1.39896">
        <ele>132</ele>
        <time>2023-07-05T10:38:47Z</time>
      </trkpt>
      <trkpt lat="43.64499" lon="1.39891">
        <ele>132</ele>
        <time>2023-07-05T10:38:48Z</time>
      </trkpt>
      <trkpt lat="43.64499" lon="1.39887">
        <ele>131</ele>
        <time>2023-07-05T10:38:49Z</time>
      </trkpt>
      <trkpt lat="43.64499" lon="1.39884">
        <ele>131</ele>
        <time>2023-07-05T10:38:50Z</time>
      </trkpt>
      <trkpt lat="43.64499" lon="1.39879">
        <ele>131</ele>
        <time>2023-07-05T10:38:51Z</time>
      </trkpt>
      <trkpt lat="43.64499" lon="1.39875">
        <ele>131</ele>
        <time>2023-07-05T10:38:52Z</time>
      </trkpt>
      <trkpt lat="43.64499" lon="1.39871">
        <ele>131</ele>
        <time>2023-07-05T10:38:53Z</time>
      </trkpt>
      <trkpt lat="43.64499" lon="1.39867">
        <ele>131</ele>
        <time>2023-07-05T10:38:54Z</time>
      </trkpt>
      <trkpt lat="43.64499" lon="1.39863">
        <ele>131</ele>
        <time>2023-07-05T10:38:55Z</time>
      </trkpt>
      <trkpt lat="43.64499" lon="1.39859">
        <ele>131</ele>
        <time>2023-07-05T10:38:56Z</time>
      </trkpt>
      <trkpt lat="43.64499" lon="1.39855">
        <ele>131</ele>
        <time>2023-07-05T10:38:57Z</time>
      </trkpt>
      <trkpt lat="43.64499" lon="1.39851">
        <ele>131</ele>
        <time>2023-07-05T10:38:58Z</time>
      </trkpt>
      <trkpt lat="43.64499" lon="1.39848">
        <ele>131</ele>
        <time>2023-07-05T10:38:59Z</time>
      </trkpt>
      <trkpt lat="43.64499" lon="1.39843">
        <ele>131</ele>
        <time>2023-07-05T10:39:00Z</time>
      </trkpt>
      <trkpt lat="43.64499" lon="1.39839">
        <ele>131</ele>
        <time>2023-07-05T10:39:01Z</time>
      </trkpt>
      <trkpt lat="43.64499" lon="1.39836">
        <ele>131</ele>
        <time>2023-07-05T10:39:02Z</time>
      </trkpt>
      <trkpt lat="43.64499" lon="1.39831">
        <ele>131</ele>
        <time>2023-07-05T10:39:03Z</time>
      </trkpt>
      <trkpt lat="43.64499" lon="1.39827">
        <ele>131</ele>
        <time>2023-07-05T10:39:04Z</time>
      </trkpt>
      <trkpt lat="43.64499" lon="1.39823">
        <ele>131</ele>
        <time>2023-07-05T10:39:05Z</time>
      </trkpt>
      <trkpt lat="43.64499" lon="1.39819">
        <ele>131</ele>
        <time>2023-07-05T10:39:06Z</time>
      </trkpt>
      <trkpt lat="43.64499" lon="1.39815">
        <ele>131</ele>
        <time>2023-07-05T10:39:07Z</time>
      </trkpt>
      <trkpt lat="43.64499" lon="1.39811">
        <ele>131</ele>
        <time>2023-07-05T10:39:08Z</time>
      </trkpt>
      <trkpt lat="43.64499" lon="1.39807">
        <ele>131</ele>
        <time>2023-07-05T10:39:09Z</time>
      </trkpt>
      <trkpt lat="43.64499" lon="1.39804">
        <ele>131</ele>
        <time>2023-07-05T10:39:10Z</time>
      </trkpt>
      <trkpt lat="43.64499" lon="1.398">
        <ele>131</ele>
        <time>2023-07-05T10:39:11Z</time>
      </trkpt>
      <trkpt lat="43.64499" lon="1.39796">
        <ele>130</ele>
        <time>2023-07-05T10:39:12Z</time>
      </trkpt>
      <trkpt lat="43.64499" lon="1.39792">
        <ele>131</ele>
        <time>2023-07-05T10:39:13Z</time>
      </trkpt>
      <trkpt lat="43.64499" lon="1.39789">
        <ele>131</ele>
        <time>2023-07-05T10:39:14Z</time>
      </trkpt>
      <trkpt lat="43.64499" lon="1.39785">
        <ele>131</ele>
        <time>2023-07-05T10:39:15Z</time>
      </trkpt>
      <trkpt lat="43.64499" lon="1.39781">
        <ele>131</ele>
        <time>2023-07-05T10:39:16Z</time>
      </trkpt>
      <trkpt lat="43.64499" lon="1.39777">
        <ele>131</ele>
        <time>2023-07-05T10:39:17Z</time>
      </trkpt>
      <trkpt lat="43.64499" lon="1.39773">
        <ele>131</ele>
        <time>2023-07-05T10:39:18Z</time>
      </trkpt>
      <trkpt lat="43.64499" lon="1.39769">
        <ele>131</ele>
        <time>2023-07-05T10:39:19Z</time>
      </trkpt>
      <trkpt lat="43.64499" lon="1.39766">
        <ele>131</ele>
        <time>2023-07-05T10:39:20Z</time>
      </trkpt>
      <trkpt lat="43.64499" lon="1.39762">
        <ele>131</ele>
        <time>2023-07-05T10:39:21Z</time>
      </trkpt>
      <trkpt lat="43.64499" lon="1.39758">
        <ele>132</ele>
        <time>2023-07-05T10:39:22Z</time>
      </trkpt>
      <trkpt lat="43.64499" lon="1.39755">
        <ele>132</ele>
        <time>2023-07-05T10:39:23Z</time>
      </trkpt>
      <trkpt lat="43.64499" lon="1.39751">
        <ele>132</ele>
        <time>2023-07-05T10:39:24Z</time>
      </trkpt>
      <trkpt lat="43.64499" lon="1.39747">
        <ele>131</ele>
        <time>2023-07-05T10:39:25Z</time>
      </trkpt>
      <trkpt lat="43.64499" lon="1.39743">
        <ele>131</ele>
        <time>2023-07-05T10:39:26Z</time>
      </trkpt>
      <trkpt lat="43.64499" lon="1.39743">
        <ele>131</ele>
        <time>2023-07-05T10:39:27Z</time>
      </trkpt>
      <trkpt lat="43.64499" lon="1.39736">
        <ele>131</ele>
        <time>2023-07-05T10:39:28Z</time>
      </trkpt>
      <trkpt lat="43.64499" lon="1.39732">
        <ele>131</ele>
        <time>2023-07-05T10:39:29Z</time>
      </trkpt>
      <trkpt lat="43.64499" lon="1.39728">
        <ele>131</ele>
        <time>2023-07-05T10:39:30Z</time>
      </trkpt>
      <trkpt lat="43.64499" lon="1.39724">
        <ele>131</ele>
        <time>2023-07-05T10:39:31Z</time>
      </trkpt>
      <trkpt lat="43.64499" lon="1.3972">
        <ele>131</ele>
        <time>2023-07-05T10:39:32Z</time>
      </trkpt>
      <trkpt lat="43.64499" lon="1.39716">
        <ele>131</ele>
        <time>2023-07-05T10:39:33Z</time>
      </trkpt>
      <trkpt lat="43.64499" lon="1.39712">
        <ele>131</ele>
        <time>2023-07-05T10:39:34Z</time>
      </trkpt>
      <trkpt lat="43.64499" lon="1.39709">
        <ele>131</ele>
        <time>2023-07-05T10:39:35Z</time>
      </trkpt>
      <trkpt lat="43.645" lon="1.39705">
        <ele>131</ele>
        <time>2023-07-05T10:39:36Z</time>
      </trkpt>
      <trkpt lat="43.64499" lon="1.39701">
        <ele>131</ele>
        <time>2023-07-05T10:39:37Z</time>
      </trkpt>
      <trkpt lat="43.64499" lon="1.39697">
        <ele>131</ele>
        <time>2023-07-05T10:39:38Z</time>
      </trkpt>
      <trkpt lat="43.64499" lon="1.39693">
        <ele>131</ele>
        <time>2023-07-05T10:39:39Z</time>
      </trkpt>
      <trkpt lat="43.64499" lon="1.3969">
        <ele>131</ele>
        <time>2023-07-05T10:39:40Z</time>
      </trkpt>
      <trkpt lat="43.64499" lon="1.39686">
        <ele>131</ele>
        <time>2023-07-05T10:39:41Z</time>
      </trkpt>
      <trkpt lat="43.64499" lon="1.39682">
        <ele>131</ele>
        <time>2023-07-05T10:39:42Z</time>
      </trkpt>
      <trkpt lat="43.64499" lon="1.39679">
        <ele>131</ele>
        <time>2023-07-05T10:39:43Z</time>
      </trkpt>
      <trkpt lat="43.64499" lon="1.39675">
        <ele>131</ele>
        <time>2023-07-05T10:39:44Z</time>
      </trkpt>
      <trkpt lat="43.64499" lon="1.39671">
        <ele>131</ele>
        <time>2023-07-05T10:39:45Z</time>
      </trkpt>
      <trkpt lat="43.645" lon="1.39667">
        <ele>131</ele>
        <time>2023-07-05T10:39:46Z</time>
      </trkpt>
      <trkpt lat="43.645" lon="1.39664">
        <ele>131</ele>
        <time>2023-07-05T10:39:47Z</time>
      </trkpt>
      <trkpt lat="43.645" lon="1.3966">
        <ele>131</ele>
        <time>2023-07-05T10:39:48Z</time>
      </trkpt>
      <trkpt lat="43.645" lon="1.39656">
        <ele>131</ele>
        <time>2023-07-05T10:39:49Z</time>
      </trkpt>
      <trkpt lat="43.645" lon="1.39652">
        <ele>131</ele>
        <time>2023-07-05T10:39:50Z</time>
      </trkpt>
      <trkpt lat="43.645" lon="1.39648">
        <ele>131</ele>
        <time>2023-07-05T10:39:51Z</time>
      </trkpt>
      <trkpt lat="43.645" lon="1.39645">
        <ele>131</ele>
        <time>2023-07-05T10:39:52Z</time>
      </trkpt>
      <trkpt lat="43.645" lon="1.3964">
        <ele>131</ele>
        <time>2023-07-05T10:39:53Z</time>
      </trkpt>
      <trkpt lat="43.64499" lon="1.39636">
        <ele>131</ele>
        <time>2023-07-05T10:39:54Z</time>
      </trkpt>
      <trkpt lat="43.64499" lon="1.39633">
        <ele>131</ele>
        <time>2023-07-05T10:39:55Z</time>
      </trkpt>
      <trkpt lat="43.645" lon="1.39629">
        <ele>131</ele>
        <time>2023-07-05T10:39:56Z</time>
      </trkpt>
      <trkpt lat="43.64499" lon="1.39626">
        <ele>131</ele>
        <time>2023-07-05T10:39:57Z</time>
      </trkpt>
      <trkpt lat="43.64499" lon="1.39622">
        <ele>131</ele>
        <time>2023-07-05T10:39:58Z</time>
      </trkpt>
      <trkpt lat="43.645" lon="1.39618">
        <ele>131</ele>
        <time>2023-07-05T10:39:59Z</time>
      </trkpt>
      <trkpt lat="43.64499" lon="1.39614">
        <ele>131</ele>
        <time>2023-07-05T10:40:00Z</time>
      </trkpt>
      <trkpt lat="43.64499" lon="1.3961">
        <ele>131</ele>
        <time>2023-07-05T10:40:01Z</time>
      </trkpt>
      <trkpt lat="43.64499" lon="1.39607">
        <ele>131</ele>
        <time>2023-07-05T10:40:02Z</time>
      </trkpt>
      <trkpt lat="43.64499" lon="1.39603">
        <ele>131</ele>
        <time>2023-07-05T10:40:03Z</time>
      </trkpt>
      <trkpt lat="43.64499" lon="1.39599">
        <ele>131</ele>
        <time>2023-07-05T10:40:04Z</time>
      </trkpt>
      <trkpt lat="43.64499" lon="1.39596">
        <ele>132</ele>
        <time>2023-07-05T10:40:05Z</time>
      </trkpt>
      <trkpt lat="43.64499" lon="1.39592">
        <ele>132</ele>
        <time>2023-07-05T10:40:06Z</time>
      </trkpt>
      <trkpt lat="43.64499" lon="1.39588">
        <ele>132</ele>
        <time>2023-07-05T10:40:07Z</time>
      </trkpt>
      <trkpt lat="43.64499" lon="1.39584">
        <ele>132</ele>
        <time>2023-07-05T10:40:08Z</time>
      </trkpt>
      <trkpt lat="43.64499" lon="1.39581">
        <ele>131</ele>
        <time>2023-07-05T10:40:09Z</time>
      </trkpt>
      <trkpt lat="43.64499" lon="1.39577">
        <ele>131</ele>
        <time>2023-07-05T10:40:10Z</time>
      </trkpt>
      <trkpt lat="43.64499" lon="1.39574">
        <ele>132</ele>
        <time>2023-07-05T10:40:11Z</time>
      </trkpt>
      <trkpt lat="43.64498" lon="1.3957">
        <ele>132</ele>
        <time>2023-07-05T10:40:12Z</time>
      </trkpt>
      <trkpt lat="43.64498" lon="1.39567">
        <ele>131</ele>
        <time>2023-07-05T10:40:13Z</time>
      </trkpt>
      <trkpt lat="43.64498" lon="1.39563">
        <ele>131</ele>
        <time>2023-07-05T10:40:14Z</time>
      </trkpt>
      <trkpt lat="43.64497" lon="1.3956">
        <ele>131</ele>
        <time>2023-07-05T10:40:15Z</time>
      </trkpt>
      <trkpt lat="43.64497" lon="1.39556">
        <ele>131</ele>
        <time>2023-07-05T10:40:16Z</time>
      </trkpt>
      <trkpt lat="43.64496" lon="1.39552">
        <ele>131</ele>
        <time>2023-07-05T10:40:17Z</time>
      </trkpt>
      <trkpt lat="43.64496" lon="1.39548">
        <ele>131</ele>
        <time>2023-07-05T10:40:18Z</time>
      </trkpt>
      <trkpt lat="43.64496" lon="1.39545">
        <ele>131</ele>
        <time>2023-07-05T10:40:19Z</time>
      </trkpt>
      <trkpt lat="43.64495" lon="1.39541">
        <ele>131</ele>
        <time>2023-07-05T10:40:20Z</time>
      </trkpt>
      <trkpt lat="43.64495" lon="1.39537">
        <ele>131</ele>
        <time>2023-07-05T10:40:21Z</time>
      </trkpt>
      <trkpt lat="43.64494" lon="1.39533">
        <ele>131</ele>
        <time>2023-07-05T10:40:22Z</time>
      </trkpt>
      <trkpt lat="43.64494" lon="1.39529">
        <ele>131</ele>
        <time>2023-07-05T10:40:23Z</time>
      </trkpt>
      <trkpt lat="43.64493" lon="1.39526">
        <ele>131</ele>
        <time>2023-07-05T10:40:24Z</time>
      </trkpt>
      <trkpt lat="43.64493" lon="1.39522">
        <ele>131</ele>
        <time>2023-07-05T10:40:25Z</time>
      </trkpt>
      <trkpt lat="43.64492" lon="1.39518">
        <ele>131</ele>
        <time>2023-07-05T10:40:26Z</time>
      </trkpt>
      <trkpt lat="43.64492" lon="1.39515">
        <ele>132</ele>
        <time>2023-07-05T10:40:27Z</time>
      </trkpt>
      <trkpt lat="43.64491" lon="1.39511">
        <ele>132</ele>
        <time>2023-07-05T10:40:28Z</time>
      </trkpt>
      <trkpt lat="43.64491" lon="1.39508">
        <ele>132</ele>
        <time>2023-07-05T10:40:29Z</time>
      </trkpt>
      <trkpt lat="43.6449" lon="1.39504">
        <ele>132</ele>
        <time>2023-07-05T10:40:30Z</time>
      </trkpt>
      <trkpt lat="43.6449" lon="1.395">
        <ele>132</ele>
        <time>2023-07-05T10:40:31Z</time>
      </trkpt>
      <trkpt lat="43.64489" lon="1.39497">
        <ele>132</ele>
        <time>2023-07-05T10:40:32Z</time>
      </trkpt>
      <trkpt lat="43.64489" lon="1.39493">
        <ele>132</ele>
        <time>2023-07-05T10:40:33Z</time>
      </trkpt>
      <trkpt lat="43.64488" lon="1.39489">
        <ele>132</ele>
        <time>2023-07-05T10:40:34Z</time>
      </trkpt>
      <trkpt lat="43.64488" lon="1.39485">
        <ele>132</ele>
        <time>2023-07-05T10:40:35Z</time>
      </trkpt>
      <trkpt lat="43.64487" lon="1.39482">
        <ele>132</ele>
        <time>2023-07-05T10:40:36Z</time>
      </trkpt>
      <trkpt lat="43.64487" lon="1.39478">
        <ele>132</ele>
        <time>2023-07-05T10:40:37Z</time>
      </trkpt>
      <trkpt lat="43.64486" lon="1.39474">
        <ele>132</ele>
        <time>2023-07-05T10:40:38Z</time>
      </trkpt>
      <trkpt lat="43.64485" lon="1.39471">
        <ele>132</ele>
        <time>2023-07-05T10:40:39Z</time>
      </trkpt>
      <trkpt lat="43.64485" lon="1.39467">
        <ele>132</ele>
        <time>2023-07-05T10:40:40Z</time>
      </trkpt>
      <trkpt lat="43.64484" lon="1.39464">
        <ele>132</ele>
        <time>2023-07-05T10:40:41Z</time>
      </trkpt>
      <trkpt lat="43.64484" lon="1.3946">
        <ele>132</ele>
        <time>2023-07-05T10:40:42Z</time>
      </trkpt>
      <trkpt lat="43.64483" lon="1.39457">
        <ele>132</ele>
        <time>2023-07-05T10:40:43Z</time>
      </trkpt>
      <trkpt lat="43.64483" lon="1.39453">
        <ele>132</ele>
        <time>2023-07-05T10:40:44Z</time>
      </trkpt>
      <trkpt lat="43.64482" lon="1.39449">
        <ele>132</ele>
        <time>2023-07-05T10:40:45Z</time>
      </trkpt>
      <trkpt lat="43.64482" lon="1.39446">
        <ele>132</ele>
        <time>2023-07-05T10:40:46Z</time>
      </trkpt>
      <trkpt lat="43.64481" lon="1.39442">
        <ele>132</ele>
        <time>2023-07-05T10:40:47Z</time>
      </trkpt>
      <trkpt lat="43.6448" lon="1.39439">
        <ele>132</ele>
        <time>2023-07-05T10:40:48Z</time>
      </trkpt>
      <trkpt lat="43.64479" lon="1.39435">
        <ele>132</ele>
        <time>2023-07-05T10:40:49Z</time>
      </trkpt>
      <trkpt lat="43.64479" lon="1.39431">
        <ele>132</ele>
        <time>2023-07-05T10:40:50Z</time>
      </trkpt>
      <trkpt lat="43.64478" lon="1.39428">
        <ele>132</ele>
        <time>2023-07-05T10:40:51Z</time>
      </trkpt>
      <trkpt lat="43.64477" lon="1.39424">
        <ele>132</ele>
        <time>2023-07-05T10:40:52Z</time>
      </trkpt>
      <trkpt lat="43.64476" lon="1.3942">
        <ele>132</ele>
        <time>2023-07-05T10:40:53Z</time>
      </trkpt>
      <trkpt lat="43.64476" lon="1.39417">
        <ele>132</ele>
        <time>2023-07-05T10:40:54Z</time>
      </trkpt>
      <trkpt lat="43.64475" lon="1.39413">
        <ele>132</ele>
        <time>2023-07-05T10:40:55Z</time>
      </trkpt>
      <trkpt lat="43.64475" lon="1.3941">
        <ele>132</ele>
        <time>2023-07-05T10:40:56Z</time>
      </trkpt>
      <trkpt lat="43.64474" lon="1.39407">
        <ele>132</ele>
        <time>2023-07-05T10:40:57Z</time>
      </trkpt>
      <trkpt lat="43.64473" lon="1.39403">
        <ele>132</ele>
        <time>2023-07-05T10:40:58Z</time>
      </trkpt>
      <trkpt lat="43.64473" lon="1.39399">
        <ele>132</ele>
        <time>2023-07-05T10:40:59Z</time>
      </trkpt>
      <trkpt lat="43.64472" lon="1.39396">
        <ele>132</ele>
        <time>2023-07-05T10:41:00Z</time>
      </trkpt>
      <trkpt lat="43.64471" lon="1.39392">
        <ele>132</ele>
        <time>2023-07-05T10:41:01Z</time>
      </trkpt>
      <trkpt lat="43.64471" lon="1.39389">
        <ele>132</ele>
        <time>2023-07-05T10:41:02Z</time>
      </trkpt>
      <trkpt lat="43.6447" lon="1.39386">
        <ele>132</ele>
        <time>2023-07-05T10:41:03Z</time>
      </trkpt>
      <trkpt lat="43.64469" lon="1.39382">
        <ele>132</ele>
        <time>2023-07-05T10:41:04Z</time>
      </trkpt>
      <trkpt lat="43.64469" lon="1.39378">
        <ele>132</ele>
        <time>2023-07-05T10:41:05Z</time>
      </trkpt>
      <trkpt lat="43.64468" lon="1.39375">
        <ele>132</ele>
        <time>2023-07-05T10:41:06Z</time>
      </trkpt>
      <trkpt lat="43.64468" lon="1.39371">
        <ele>132</ele>
        <time>2023-07-05T10:41:07Z</time>
      </trkpt>
      <trkpt lat="43.64467" lon="1.39367">
        <ele>132</ele>
        <time>2023-07-05T10:41:08Z</time>
      </trkpt>
      <trkpt lat="43.64467" lon="1.39363">
        <ele>131</ele>
        <time>2023-07-05T10:41:09Z</time>
      </trkpt>
      <trkpt lat="43.64466" lon="1.39359">
        <ele>131</ele>
        <time>2023-07-05T10:41:10Z</time>
      </trkpt>
      <trkpt lat="43.64465" lon="1.39356">
        <ele>132</ele>
        <time>2023-07-05T10:41:11Z</time>
      </trkpt>
      <trkpt lat="43.64464" lon="1.39352">
        <ele>132</ele>
        <time>2023-07-05T10:41:12Z</time>
      </trkpt>
      <trkpt lat="43.64464" lon="1.39349">
        <ele>132</ele>
        <time>2023-07-05T10:41:13Z</time>
      </trkpt>
      <trkpt lat="43.64463" lon="1.39345">
        <ele>132</ele>
        <time>2023-07-05T10:41:14Z</time>
      </trkpt>
      <trkpt lat="43.64462" lon="1.39341">
        <ele>132</ele>
        <time>2023-07-05T10:41:15Z</time>
      </trkpt>
      <trkpt lat="43.64461" lon="1.39338">
        <ele>131</ele>
        <time>2023-07-05T10:41:16Z</time>
      </trkpt>
      <trkpt lat="43.6446" lon="1.39334">
        <ele>131</ele>
        <time>2023-07-05T10:41:17Z</time>
      </trkpt>
      <trkpt lat="43.64459" lon="1.39331">
        <ele>132</ele>
        <time>2023-07-05T10:41:18Z</time>
      </trkpt>
      <trkpt lat="43.64458" lon="1.39327">
        <ele>132</ele>
        <time>2023-07-05T10:41:19Z</time>
      </trkpt>
      <trkpt lat="43.64457" lon="1.39324">
        <ele>132</ele>
        <time>2023-07-05T10:41:20Z</time>
      </trkpt>
      <trkpt lat="43.64456" lon="1.3932">
        <ele>132</ele>
        <time>2023-07-05T10:41:21Z</time>
      </trkpt>
      <trkpt lat="43.64455" lon="1.39317">
        <ele>132</ele>
        <time>2023-07-05T10:41:22Z</time>
      </trkpt>
      <trkpt lat="43.64454" lon="1.39313">
        <ele>132</ele>
        <time>2023-07-05T10:41:23Z</time>
      </trkpt>
      <trkpt lat="43.64454" lon="1.39309">
        <ele>132</ele>
        <time>2023-07-05T10:41:24Z</time>
      </trkpt>
      <trkpt lat="43.64453" lon="1.39306">
        <ele>132</ele>
        <time>2023-07-05T10:41:25Z</time>
      </trkpt>
      <trkpt lat="43.64452" lon="1.39302">
        <ele>132</ele>
        <time>2023-07-05T10:41:26Z</time>
      </trkpt>
      <trkpt lat="43.64452" lon="1.39298">
        <ele>131</ele>
        <time>2023-07-05T10:41:27Z</time>
      </trkpt>
      <trkpt lat="43.64451" lon="1.39294">
        <ele>131</ele>
        <time>2023-07-05T10:41:28Z</time>
      </trkpt>
      <trkpt lat="43.64451" lon="1.3929">
        <ele>131</ele>
        <time>2023-07-05T10:41:29Z</time>
      </trkpt>
      <trkpt lat="43.6445" lon="1.39286">
        <ele>131</ele>
        <time>2023-07-05T10:41:30Z</time>
      </trkpt>
      <trkpt lat="43.64449" lon="1.39283">
        <ele>132</ele>
        <time>2023-07-05T10:41:31Z</time>
      </trkpt>
      <trkpt lat="43.64448" lon="1.39279">
        <ele>132</ele>
        <time>2023-07-05T10:41:32Z</time>
      </trkpt>
      <trkpt lat="43.64447" lon="1.39276">
        <ele>132</ele>
        <time>2023-07-05T10:41:33Z</time>
      </trkpt>
      <trkpt lat="43.64446" lon="1.39272">
        <ele>132</ele>
        <time>2023-07-05T10:41:34Z</time>
      </trkpt>
      <trkpt lat="43.64445" lon="1.39268">
        <ele>132</ele>
        <time>2023-07-05T10:41:35Z</time>
      </trkpt>
      <trkpt lat="43.64444" lon="1.39265">
        <ele>132</ele>
        <time>2023-07-05T10:41:36Z</time>
      </trkpt>
      <trkpt lat="43.64443" lon="1.39262">
        <ele>132</ele>
        <time>2023-07-05T10:41:37Z</time>
      </trkpt>
      <trkpt lat="43.64442" lon="1.39258">
        <ele>132</ele>
        <time>2023-07-05T10:41:38Z</time>
      </trkpt>
      <trkpt lat="43.64441" lon="1.39254">
        <ele>132</ele>
        <time>2023-07-05T10:41:39Z</time>
      </trkpt>
      <trkpt lat="43.64439" lon="1.39251">
        <ele>132</ele>
        <time>2023-07-05T10:41:40Z</time>
      </trkpt>
      <trkpt lat="43.64438" lon="1.39248">
        <ele>132</ele>
        <time>2023-07-05T10:41:41Z</time>
      </trkpt>
      <trkpt lat="43.64436" lon="1.39245">
        <ele>132</ele>
        <time>2023-07-05T10:41:42Z</time>
      </trkpt>
      <trkpt lat="43.64435" lon="1.39242">
        <ele>132</ele>
        <time>2023-07-05T10:41:43Z</time>
      </trkpt>
      <trkpt lat="43.64433" lon="1.39239">
        <ele>132</ele>
        <time>2023-07-05T10:41:44Z</time>
      </trkpt>
      <trkpt lat="43.64431" lon="1.39236">
        <ele>132</ele>
        <time>2023-07-05T10:41:45Z</time>
      </trkpt>
      <trkpt lat="43.6443" lon="1.39233">
        <ele>132</ele>
        <time>2023-07-05T10:41:46Z</time>
      </trkpt>
      <trkpt lat="43.64428" lon="1.39229">
        <ele>132</ele>
        <time>2023-07-05T10:41:47Z</time>
      </trkpt>
      <trkpt lat="43.64427" lon="1.39226">
        <ele>132</ele>
        <time>2023-07-05T10:41:48Z</time>
      </trkpt>
      <trkpt lat="43.64426" lon="1.39223">
        <ele>133</ele>
        <time>2023-07-05T10:41:49Z</time>
      </trkpt>
      <trkpt lat="43.64425" lon="1.3922">
        <ele>133</ele>
        <time>2023-07-05T10:41:50Z</time>
      </trkpt>
      <trkpt lat="43.64423" lon="1.39217">
        <ele>133</ele>
        <time>2023-07-05T10:41:51Z</time>
      </trkpt>
      <trkpt lat="43.64422" lon="1.39214">
        <ele>133</ele>
        <time>2023-07-05T10:41:52Z</time>
      </trkpt>
      <trkpt lat="43.6442" lon="1.39211">
        <ele>133</ele>
        <time>2023-07-05T10:41:53Z</time>
      </trkpt>
      <trkpt lat="43.64419" lon="1.39208">
        <ele>133</ele>
        <time>2023-07-05T10:41:54Z</time>
      </trkpt>
      <trkpt lat="43.64418" lon="1.39205">
        <ele>133</ele>
        <time>2023-07-05T10:41:55Z</time>
      </trkpt>
      <trkpt lat="43.64416" lon="1.39202">
        <ele>134</ele>
        <time>2023-07-05T10:41:56Z</time>
      </trkpt>
      <trkpt lat="43.64415" lon="1.39199">
        <ele>134</ele>
        <time>2023-07-05T10:41:57Z</time>
      </trkpt>
      <trkpt lat="43.64414" lon="1.39196">
        <ele>134</ele>
        <time>2023-07-05T10:41:58Z</time>
      </trkpt>
      <trkpt lat="43.64412" lon="1.39192">
        <ele>134</ele>
        <time>2023-07-05T10:41:59Z</time>
      </trkpt>
      <trkpt lat="43.64411" lon="1.39189">
        <ele>134</ele>
        <time>2023-07-05T10:42:00Z</time>
      </trkpt>
      <trkpt lat="43.64411" lon="1.39185">
        <ele>134</ele>
        <time>2023-07-05T10:42:01Z</time>
      </trkpt>
      <trkpt lat="43.6441" lon="1.39182">
        <ele>134</ele>
        <time>2023-07-05T10:42:02Z</time>
      </trkpt>
      <trkpt lat="43.6441" lon="1.39178">
        <ele>135</ele>
        <time>2023-07-05T10:42:03Z</time>
      </trkpt>
      <trkpt lat="43.64409" lon="1.39174">
        <ele>136</ele>
        <time>2023-07-05T10:42:04Z</time>
      </trkpt>
      <trkpt lat="43.64409" lon="1.39171">
        <ele>136</ele>
        <time>2023-07-05T10:42:05Z</time>
      </trkpt>
      <trkpt lat="43.64409" lon="1.39167">
        <ele>137</ele>
        <time>2023-07-05T10:42:06Z</time>
      </trkpt>
      <trkpt lat="43.64409" lon="1.39164">
        <ele>137</ele>
        <time>2023-07-05T10:42:07Z</time>
      </trkpt>
      <trkpt lat="43.6441" lon="1.3916">
        <ele>137</ele>
        <time>2023-07-05T10:42:08Z</time>
      </trkpt>
      <trkpt lat="43.6441" lon="1.39156">
        <ele>137</ele>
        <time>2023-07-05T10:42:09Z</time>
      </trkpt>
      <trkpt lat="43.64411" lon="1.39153">
        <ele>138</ele>
        <time>2023-07-05T10:42:10Z</time>
      </trkpt>
      <trkpt lat="43.64412" lon="1.39149">
        <ele>138</ele>
        <time>2023-07-05T10:42:11Z</time>
      </trkpt>
      <trkpt lat="43.64413" lon="1.39145">
        <ele>138</ele>
        <time>2023-07-05T10:42:12Z</time>
      </trkpt>
      <trkpt lat="43.64414" lon="1.39141">
        <ele>138</ele>
        <time>2023-07-05T10:42:13Z</time>
      </trkpt>
      <trkpt lat="43.64416" lon="1.39138">
        <ele>139</ele>
        <time>2023-07-05T10:42:14Z</time>
      </trkpt>
      <trkpt lat="43.64417" lon="1.39135">
        <ele>140</ele>
        <time>2023-07-05T10:42:15Z</time>
      </trkpt>
      <trkpt lat="43.64419" lon="1.39132">
        <ele>140</ele>
        <time>2023-07-05T10:42:16Z</time>
      </trkpt>
      <trkpt lat="43.64419" lon="1.39129">
        <ele>140</ele>
        <time>2023-07-05T10:42:17Z</time>
      </trkpt>
      <trkpt lat="43.6442" lon="1.39125">
        <ele>140</ele>
        <time>2023-07-05T10:42:18Z</time>
      </trkpt>
      <trkpt lat="43.6442" lon="1.39122">
        <ele>140</ele>
        <time>2023-07-05T10:42:19Z</time>
      </trkpt>
      <trkpt lat="43.64422" lon="1.39119">
        <ele>140</ele>
        <time>2023-07-05T10:42:20Z</time>
      </trkpt>
      <trkpt lat="43.64422" lon="1.39116">
        <ele>140</ele>
        <time>2023-07-05T10:42:21Z</time>
      </trkpt>
      <trkpt lat="43.64423" lon="1.39112">
        <ele>140</ele>
        <time>2023-07-05T10:42:22Z</time>
      </trkpt>
      <trkpt lat="43.64424" lon="1.39109">
        <ele>141</ele>
        <time>2023-07-05T10:42:23Z</time>
      </trkpt>
      <trkpt lat="43.64426" lon="1.39106">
        <ele>142</ele>
        <time>2023-07-05T10:42:24Z</time>
      </trkpt>
      <trkpt lat="43.64427" lon="1.39103">
        <ele>143</ele>
        <time>2023-07-05T10:42:25Z</time>
      </trkpt>
      <trkpt lat="43.64428" lon="1.391">
        <ele>143</ele>
        <time>2023-07-05T10:42:26Z</time>
      </trkpt>
      <trkpt lat="43.64429" lon="1.39097">
        <ele>143</ele>
        <time>2023-07-05T10:42:27Z</time>
      </trkpt>
      <trkpt lat="43.6443" lon="1.39094">
        <ele>143</ele>
        <time>2023-07-05T10:42:28Z</time>
      </trkpt>
      <trkpt lat="43.64431" lon="1.39092">
        <ele>143</ele>
        <time>2023-07-05T10:42:29Z</time>
      </trkpt>
      <trkpt lat="43.64432" lon="1.39089">
        <ele>143</ele>
        <time>2023-07-05T10:42:30Z</time>
      </trkpt>
      <trkpt lat="43.64433" lon="1.39086">
        <ele>144</ele>
        <time>2023-07-05T10:42:31Z</time>
      </trkpt>
      <trkpt lat="43.64435" lon="1.39083">
        <ele>144</ele>
        <time>2023-07-05T10:42:32Z</time>
      </trkpt>
      <trkpt lat="43.64436" lon="1.3908">
        <ele>144</ele>
        <time>2023-07-05T10:42:33Z</time>
      </trkpt>
      <trkpt lat="43.64437" lon="1.39077">
        <ele>143</ele>
        <time>2023-07-05T10:42:34Z</time>
      </trkpt>
      <trkpt lat="43.64439" lon="1.39074">
        <ele>143</ele>
        <time>2023-07-05T10:42:35Z</time>
      </trkpt>
      <trkpt lat="43.6444" lon="1.39071">
        <ele>143</ele>
        <time>2023-07-05T10:42:36Z</time>
      </trkpt>
      <trkpt lat="43.64442" lon="1.39068">
        <ele>143</ele>
        <time>2023-07-05T10:42:37Z</time>
      </trkpt>
      <trkpt lat="43.64444" lon="1.39065">
        <ele>143</ele>
        <time>2023-07-05T10:42:38Z</time>
      </trkpt>
      <trkpt lat="43.64445" lon="1.39062">
        <ele>143</ele>
        <time>2023-07-05T10:42:39Z</time>
      </trkpt>
      <trkpt lat="43.64447" lon="1.3906">
        <ele>143</ele>
        <time>2023-07-05T10:42:40Z</time>
      </trkpt>
      <trkpt lat="43.64449" lon="1.39057">
        <ele>144</ele>
        <time>2023-07-05T10:42:41Z</time>
      </trkpt>
      <trkpt lat="43.64451" lon="1.39054">
        <ele>144</ele>
        <time>2023-07-05T10:42:42Z</time>
      </trkpt>
      <trkpt lat="43.64453" lon="1.39051">
        <ele>145</ele>
        <time>2023-07-05T10:42:43Z</time>
      </trkpt>
      <trkpt lat="43.64455" lon="1.39048">
        <ele>145</ele>
        <time>2023-07-05T10:42:44Z</time>
      </trkpt>
      <trkpt lat="43.64457" lon="1.39045">
        <ele>145</ele>
        <time>2023-07-05T10:42:45Z</time>
      </trkpt>
      <trkpt lat="43.64459" lon="1.39042">
        <ele>145</ele>
        <time>2023-07-05T10:42:46Z</time>
      </trkpt>
      <trkpt lat="43.64461" lon="1.39039">
        <ele>145</ele>
        <time>2023-07-05T10:42:47Z</time>
      </trkpt>
      <trkpt lat="43.64463" lon="1.39037">
        <ele>145</ele>
        <time>2023-07-05T10:42:48Z</time>
      </trkpt>
      <trkpt lat="43.64466" lon="1.39036">
        <ele>145</ele>
        <time>2023-07-05T10:42:49Z</time>
      </trkpt>
      <trkpt lat="43.64468" lon="1.39035">
        <ele>145</ele>
        <time>2023-07-05T10:42:50Z</time>
      </trkpt>
      <trkpt lat="43.64471" lon="1.39033">
        <ele>145</ele>
        <time>2023-07-05T10:42:51Z</time>
      </trkpt>
      <trkpt lat="43.64473" lon="1.39031">
        <ele>145</ele>
        <time>2023-07-05T10:42:52Z</time>
      </trkpt>
      <trkpt lat="43.64475" lon="1.39029">
        <ele>145</ele>
        <time>2023-07-05T10:42:53Z</time>
      </trkpt>
      <trkpt lat="43.64477" lon="1.39026">
        <ele>145</ele>
        <time>2023-07-05T10:42:54Z</time>
      </trkpt>
      <trkpt lat="43.64479" lon="1.39024">
        <ele>145</ele>
        <time>2023-07-05T10:42:55Z</time>
      </trkpt>
      <trkpt lat="43.64481" lon="1.39021">
        <ele>145</ele>
        <time>2023-07-05T10:42:56Z</time>
      </trkpt>
      <trkpt lat="43.64483" lon="1.39018">
        <ele>145</ele>
        <time>2023-07-05T10:42:57Z</time>
      </trkpt>
      <trkpt lat="43.64485" lon="1.39015">
        <ele>145</ele>
        <time>2023-07-05T10:42:58Z</time>
      </trkpt>
      <trkpt lat="43.64487" lon="1.39012">
        <ele>145</ele>
        <time>2023-07-05T10:42:59Z</time>
      </trkpt>
      <trkpt lat="43.64488" lon="1.39008">
        <ele>145</ele>
        <time>2023-07-05T10:43:00Z</time>
      </trkpt>
      <trkpt lat="43.64489" lon="1.39004">
        <ele>145</ele>
        <time>2023-07-05T10:43:01Z</time>
      </trkpt>
      <trkpt lat="43.6449" lon="1.39001">
        <ele>145</ele>
        <time>2023-07-05T10:43:02Z</time>
      </trkpt>
      <trkpt lat="43.64491" lon="1.38997">
        <ele>145</ele>
        <time>2023-07-05T10:43:03Z</time>
      </trkpt>
      <trkpt lat="43.64492" lon="1.38993">
        <ele>145</ele>
        <time>2023-07-05T10:43:04Z</time>
      </trkpt>
      <trkpt lat="43.64493" lon="1.3899">
        <ele>145</ele>
        <time>2023-07-05T10:43:05Z</time>
      </trkpt>
      <trkpt lat="43.64494" lon="1.38986">
        <ele>145</ele>
        <time>2023-07-05T10:43:06Z</time>
      </trkpt>
      <trkpt lat="43.64495" lon="1.38982">
        <ele>145</ele>
        <time>2023-07-05T10:43:07Z</time>
      </trkpt>
      <trkpt lat="43.64497" lon="1.38978">
        <ele>145</ele>
        <time>2023-07-05T10:43:08Z</time>
      </trkpt>
      <trkpt lat="43.64498" lon="1.38975">
        <ele>145</ele>
        <time>2023-07-05T10:43:09Z</time>
      </trkpt>
      <trkpt lat="43.64499" lon="1.38971">
        <ele>145</ele>
        <time>2023-07-05T10:43:10Z</time>
      </trkpt>
      <trkpt lat="43.645" lon="1.38968">
        <ele>145</ele>
        <time>2023-07-05T10:43:11Z</time>
      </trkpt>
      <trkpt lat="43.64501" lon="1.38964">
        <ele>146</ele>
        <time>2023-07-05T10:43:12Z</time>
      </trkpt>
      <trkpt lat="43.64503" lon="1.3896">
        <ele>146</ele>
        <time>2023-07-05T10:43:13Z</time>
      </trkpt>
      <trkpt lat="43.64504" lon="1.38956">
        <ele>146</ele>
        <time>2023-07-05T10:43:14Z</time>
      </trkpt>
      <trkpt lat="43.64505" lon="1.38952">
        <ele>145</ele>
        <time>2023-07-05T10:43:15Z</time>
      </trkpt>
      <trkpt lat="43.64506" lon="1.38949">
        <ele>145</ele>
        <time>2023-07-05T10:43:16Z</time>
      </trkpt>
      <trkpt lat="43.64506" lon="1.38945">
        <ele>145</ele>
        <time>2023-07-05T10:43:17Z</time>
      </trkpt>
      <trkpt lat="43.64507" lon="1.38942">
        <ele>145</ele>
        <time>2023-07-05T10:43:18Z</time>
      </trkpt>
      <trkpt lat="43.64508" lon="1.38938">
        <ele>146</ele>
        <time>2023-07-05T10:43:19Z</time>
      </trkpt>
      <trkpt lat="43.64509" lon="1.38935">
        <ele>146</ele>
        <time>2023-07-05T10:43:20Z</time>
      </trkpt>
      <trkpt lat="43.6451" lon="1.38931">
        <ele>146</ele>
        <time>2023-07-05T10:43:21Z</time>
      </trkpt>
      <trkpt lat="43.64512" lon="1.38928">
        <ele>146</ele>
        <time>2023-07-05T10:43:22Z</time>
      </trkpt>
      <trkpt lat="43.64513" lon="1.38924">
        <ele>146</ele>
        <time>2023-07-05T10:43:23Z</time>
      </trkpt>
      <trkpt lat="43.64513" lon="1.3892">
        <ele>146</ele>
        <time>2023-07-05T10:43:24Z</time>
      </trkpt>
      <trkpt lat="43.64512" lon="1.38916">
        <ele>146</ele>
        <time>2023-07-05T10:43:25Z</time>
      </trkpt>
      <trkpt lat="43.64511" lon="1.38912">
        <ele>146</ele>
        <time>2023-07-05T10:43:26Z</time>
      </trkpt>
      <trkpt lat="43.64511" lon="1.38908">
        <ele>146</ele>
        <time>2023-07-05T10:43:27Z</time>
      </trkpt>
      <trkpt lat="43.6451" lon="1.38904">
        <ele>145</ele>
        <time>2023-07-05T10:43:28Z</time>
      </trkpt>
      <trkpt lat="43.6451" lon="1.38901">
        <ele>145</ele>
        <time>2023-07-05T10:43:29Z</time>
      </trkpt>
      <trkpt lat="43.64509" lon="1.38897">
        <ele>145</ele>
        <time>2023-07-05T10:43:30Z</time>
      </trkpt>
      <trkpt lat="43.64509" lon="1.38894">
        <ele>145</ele>
        <time>2023-07-05T10:43:31Z</time>
      </trkpt>
      <trkpt lat="43.64508" lon="1.3889">
        <ele>145</ele>
        <time>2023-07-05T10:43:32Z</time>
      </trkpt>
      <trkpt lat="43.64507" lon="1.38886">
        <ele>145</ele>
        <time>2023-07-05T10:43:33Z</time>
      </trkpt>
      <trkpt lat="43.64507" lon="1.38882">
        <ele>145</ele>
        <time>2023-07-05T10:43:34Z</time>
      </trkpt>
      <trkpt lat="43.64507" lon="1.38879">
        <ele>145</ele>
        <time>2023-07-05T10:43:35Z</time>
      </trkpt>
      <trkpt lat="43.64506" lon="1.38875">
        <ele>145</ele>
        <time>2023-07-05T10:43:36Z</time>
      </trkpt>
      <trkpt lat="43.64506" lon="1.38871">
        <ele>145</ele>
        <time>2023-07-05T10:43:37Z</time>
      </trkpt>
      <trkpt lat="43.64507" lon="1.38867">
        <ele>145</ele>
        <time>2023-07-05T10:43:38Z</time>
      </trkpt>
      <trkpt lat="43.64508" lon="1.38864">
        <ele>145</ele>
        <time>2023-07-05T10:43:39Z</time>
      </trkpt>
      <trkpt lat="43.6451" lon="1.38861">
        <ele>145</ele>
        <time>2023-07-05T10:43:40Z</time>
      </trkpt>
      <trkpt lat="43.64513" lon="1.38859">
        <ele>145</ele>
        <time>2023-07-05T10:43:41Z</time>
      </trkpt>
      <trkpt lat="43.64516" lon="1.38857">
        <ele>145</ele>
        <time>2023-07-05T10:43:42Z</time>
      </trkpt>
      <trkpt lat="43.64518" lon="1.38856">
        <ele>145</ele>
        <time>2023-07-05T10:43:43Z</time>
      </trkpt>
      <trkpt lat="43.64521" lon="1.38856">
        <ele>145</ele>
        <time>2023-07-05T10:43:44Z</time>
      </trkpt>
      <trkpt lat="43.64524" lon="1.38855">
        <ele>145</ele>
        <time>2023-07-05T10:43:45Z</time>
      </trkpt>
      <trkpt lat="43.64527" lon="1.38853">
        <ele>145</ele>
        <time>2023-07-05T10:43:46Z</time>
      </trkpt>
      <trkpt lat="43.64529" lon="1.38851">
        <ele>145</ele>
        <time>2023-07-05T10:43:47Z</time>
      </trkpt>
      <trkpt lat="43.64531" lon="1.38849">
        <ele>145</ele>
        <time>2023-07-05T10:43:48Z</time>
      </trkpt>
      <trkpt lat="43.64534" lon="1.38847">
        <ele>145</ele>
        <time>2023-07-05T10:43:49Z</time>
      </trkpt>
      <trkpt lat="43.64536" lon="1.38844">
        <ele>146</ele>
        <time>2023-07-05T10:43:50Z</time>
      </trkpt>
      <trkpt lat="43.64539" lon="1.38841">
        <ele>146</ele>
        <time>2023-07-05T10:43:51Z</time>
      </trkpt>
      <trkpt lat="43.64541" lon="1.3884">
        <ele>146</ele>
        <time>2023-07-05T10:43:52Z</time>
      </trkpt>
      <trkpt lat="43.64544" lon="1.3884">
        <ele>146</ele>
        <time>2023-07-05T10:43:53Z</time>
      </trkpt>
      <trkpt lat="43.64547" lon="1.38839">
        <ele>146</ele>
        <time>2023-07-05T10:43:54Z</time>
      </trkpt>
      <trkpt lat="43.64549" lon="1.38839">
        <ele>146</ele>
        <time>2023-07-05T10:43:55Z</time>
      </trkpt>
      <trkpt lat="43.64552" lon="1.38839">
        <ele>146</ele>
        <time>2023-07-05T10:43:56Z</time>
      </trkpt>
      <trkpt lat="43.64555" lon="1.38839">
        <ele>145</ele>
        <time>2023-07-05T10:43:57Z</time>
      </trkpt>
      <trkpt lat="43.64558" lon="1.38838">
        <ele>145</ele>
        <time>2023-07-05T10:43:58Z</time>
      </trkpt>
      <trkpt lat="43.6456" lon="1.38838">
        <ele>145</ele>
        <time>2023-07-05T10:43:59Z</time>
      </trkpt>
      <trkpt lat="43.64563" lon="1.38837">
        <ele>145</ele>
        <time>2023-07-05T10:44:00Z</time>
      </trkpt>
      <trkpt lat="43.64566" lon="1.38837">
        <ele>145</ele>
        <time>2023-07-05T10:44:01Z</time>
      </trkpt>
      <trkpt lat="43.64569" lon="1.38837">
        <ele>145</ele>
        <time>2023-07-05T10:44:02Z</time>
      </trkpt>
      <trkpt lat="43.64571" lon="1.38836">
        <ele>145</ele>
        <time>2023-07-05T10:44:03Z</time>
      </trkpt>
      <trkpt lat="43.64574" lon="1.38836">
        <ele>145</ele>
        <time>2023-07-05T10:44:04Z</time>
      </trkpt>
      <trkpt lat="43.64576" lon="1.38836">
        <ele>145</ele>
        <time>2023-07-05T10:44:05Z</time>
      </trkpt>
      <trkpt lat="43.64579" lon="1.38835">
        <ele>145</ele>
        <time>2023-07-05T10:44:06Z</time>
      </trkpt>
      <trkpt lat="43.64582" lon="1.38835">
        <ele>145</ele>
        <time>2023-07-05T10:44:07Z</time>
      </trkpt>
      <trkpt lat="43.64584" lon="1.38834">
        <ele>145</ele>
        <time>2023-07-05T10:44:08Z</time>
      </trkpt>
      <trkpt lat="43.64587" lon="1.38834">
        <ele>145</ele>
        <time>2023-07-05T10:44:09Z</time>
      </trkpt>
      <trkpt lat="43.64591" lon="1.38833">
        <ele>145</ele>
        <time>2023-07-05T10:44:10Z</time>
      </trkpt>
      <trkpt lat="43.64594" lon="1.38832">
        <ele>145</ele>
        <time>2023-07-05T10:44:11Z</time>
      </trkpt>
      <trkpt lat="43.64596" lon="1.38832">
        <ele>145</ele>
        <time>2023-07-05T10:44:12Z</time>
      </trkpt>
      <trkpt lat="43.64599" lon="1.38831">
        <ele>145</ele>
        <time>2023-07-05T10:44:13Z</time>
      </trkpt>
      <trkpt lat="43.64602" lon="1.3883">
        <ele>145</ele>
        <time>2023-07-05T10:44:14Z</time>
      </trkpt>
      <trkpt lat="43.64605" lon="1.3883">
        <ele>146</ele>
        <time>2023-07-05T10:44:15Z</time>
      </trkpt>
      <trkpt lat="43.64607" lon="1.38829">
        <ele>146</ele>
        <time>2023-07-05T10:44:16Z</time>
      </trkpt>
      <trkpt lat="43.6461" lon="1.38828">
        <ele>146</ele>
        <time>2023-07-05T10:44:17Z</time>
      </trkpt>
      <trkpt lat="43.64613" lon="1.38827">
        <ele>146</ele>
        <time>2023-07-05T10:44:18Z</time>
      </trkpt>
      <trkpt lat="43.64616" lon="1.38826">
        <ele>146</ele>
        <time>2023-07-05T10:44:19Z</time>
      </trkpt>
      <trkpt lat="43.64618" lon="1.38825">
        <ele>146</ele>
        <time>2023-07-05T10:44:20Z</time>
      </trkpt>
      <trkpt lat="43.64621" lon="1.38824">
        <ele>146</ele>
        <time>2023-07-05T10:44:21Z</time>
      </trkpt>
      <trkpt lat="43.64624" lon="1.38823">
        <ele>146</ele>
        <time>2023-07-05T10:44:22Z</time>
      </trkpt>
      <trkpt lat="43.64626" lon="1.38821">
        <ele>146</ele>
        <time>2023-07-05T10:44:23Z</time>
      </trkpt>
      <trkpt lat="43.64629" lon="1.38821">
        <ele>146</ele>
        <time>2023-07-05T10:44:24Z</time>
      </trkpt>
      <trkpt lat="43.64631" lon="1.38819">
        <ele>146</ele>
        <time>2023-07-05T10:44:25Z</time>
      </trkpt>
      <trkpt lat="43.64634" lon="1.38819">
        <ele>146</ele>
        <time>2023-07-05T10:44:26Z</time>
      </trkpt>
      <trkpt lat="43.64637" lon="1.38818">
        <ele>146</ele>
        <time>2023-07-05T10:44:27Z</time>
      </trkpt>
      <trkpt lat="43.64639" lon="1.38817">
        <ele>146</ele>
        <time>2023-07-05T10:44:28Z</time>
      </trkpt>
      <trkpt lat="43.64642" lon="1.38816">
        <ele>146</ele>
        <time>2023-07-05T10:44:29Z</time>
      </trkpt>
      <trkpt lat="43.64645" lon="1.38814">
        <ele>146</ele>
        <time>2023-07-05T10:44:30Z</time>
      </trkpt>
      <trkpt lat="43.64647" lon="1.38812">
        <ele>146</ele>
        <time>2023-07-05T10:44:31Z</time>
      </trkpt>
      <trkpt lat="43.64649" lon="1.38811">
        <ele>147</ele>
        <time>2023-07-05T10:44:32Z</time>
      </trkpt>
      <trkpt lat="43.64651" lon="1.3881">
        <ele>147</ele>
        <time>2023-07-05T10:44:33Z</time>
      </trkpt>
      <trkpt lat="43.64653" lon="1.3881">
        <ele>147</ele>
        <time>2023-07-05T10:44:34Z</time>
      </trkpt>
      <trkpt lat="43.64655" lon="1.38811">
        <ele>147</ele>
        <time>2023-07-05T10:44:35Z</time>
      </trkpt>
      <trkpt lat="43.64658" lon="1.3881">
        <ele>146</ele>
        <time>2023-07-05T10:44:36Z</time>
      </trkpt>
      <trkpt lat="43.6466" lon="1.38809">
        <ele>146</ele>
        <time>2023-07-05T10:44:37Z</time>
      </trkpt>
      <trkpt lat="43.64662" lon="1.38808">
        <ele>146</ele>
        <time>2023-07-05T10:44:38Z</time>
      </trkpt>
      <trkpt lat="43.64665" lon="1.38807">
        <ele>146</ele>
        <time>2023-07-05T10:44:39Z</time>
      </trkpt>
      <trkpt lat="43.64668" lon="1.38806">
        <ele>146</ele>
        <time>2023-07-05T10:44:40Z</time>
      </trkpt>
      <trkpt lat="43.64671" lon="1.38804">
        <ele>146</ele>
        <time>2023-07-05T10:44:41Z</time>
      </trkpt>
      <trkpt lat="43.64675" lon="1.38804">
        <ele>146</ele>
        <time>2023-07-05T10:44:42Z</time>
      </trkpt>
      <trkpt lat="43.64677" lon="1.38803">
        <ele>146</ele>
        <time>2023-07-05T10:44:43Z</time>
      </trkpt>
      <trkpt lat="43.6468" lon="1.38802">
        <ele>146</ele>
        <time>2023-07-05T10:44:44Z</time>
      </trkpt>
      <trkpt lat="43.64682" lon="1.38801">
        <ele>146</ele>
        <time>2023-07-05T10:44:45Z</time>
      </trkpt>
      <trkpt lat="43.64685" lon="1.388">
        <ele>146</ele>
        <time>2023-07-05T10:44:46Z</time>
      </trkpt>
      <trkpt lat="43.64687" lon="1.38797">
        <ele>146</ele>
        <time>2023-07-05T10:44:47Z</time>
      </trkpt>
      <trkpt lat="43.64689" lon="1.38795">
        <ele>146</ele>
        <time>2023-07-05T10:44:48Z</time>
      </trkpt>
      <trkpt lat="43.64692" lon="1.38793">
        <ele>146</ele>
        <time>2023-07-05T10:44:49Z</time>
      </trkpt>
      <trkpt lat="43.64696" lon="1.38793">
        <ele>146</ele>
        <time>2023-07-05T10:44:50Z</time>
      </trkpt>
      <trkpt lat="43.64699" lon="1.38792">
        <ele>146</ele>
        <time>2023-07-05T10:44:51Z</time>
      </trkpt>
      <trkpt lat="43.64702" lon="1.38791">
        <ele>146</ele>
        <time>2023-07-05T10:44:52Z</time>
      </trkpt>
      <trkpt lat="43.64705" lon="1.38789">
        <ele>146</ele>
        <time>2023-07-05T10:44:53Z</time>
      </trkpt>
      <trkpt lat="43.64708" lon="1.38787">
        <ele>147</ele>
        <time>2023-07-05T10:44:54Z</time>
      </trkpt>
      <trkpt lat="43.6471" lon="1.38786">
        <ele>147</ele>
        <time>2023-07-05T10:44:55Z</time>
      </trkpt>
      <trkpt lat="43.64713" lon="1.38784">
        <ele>146</ele>
        <time>2023-07-05T10:44:56Z</time>
      </trkpt>
      <trkpt lat="43.64716" lon="1.38782">
        <ele>146</ele>
        <time>2023-07-05T10:44:57Z</time>
      </trkpt>
      <trkpt lat="43.64719" lon="1.3878">
        <ele>146</ele>
        <time>2023-07-05T10:44:58Z</time>
      </trkpt>
      <trkpt lat="43.64722" lon="1.38779">
        <ele>146</ele>
        <time>2023-07-05T10:44:59Z</time>
      </trkpt>
      <trkpt lat="43.64725" lon="1.38777">
        <ele>146</ele>
        <time>2023-07-05T10:45:00Z</time>
      </trkpt>
      <trkpt lat="43.64728" lon="1.38775">
        <ele>146</ele>
        <time>2023-07-05T10:45:01Z</time>
      </trkpt>
      <trkpt lat="43.6473" lon="1.38773">
        <ele>146</ele>
        <time>2023-07-05T10:45:02Z</time>
      </trkpt>
      <trkpt lat="43.64733" lon="1.38771">
        <ele>146</ele>
        <time>2023-07-05T10:45:03Z</time>
      </trkpt>
      <trkpt lat="43.64736" lon="1.3877">
        <ele>146</ele>
        <time>2023-07-05T10:45:04Z</time>
      </trkpt>
      <trkpt lat="43.64739" lon="1.38769">
        <ele>146</ele>
        <time>2023-07-05T10:45:05Z</time>
      </trkpt>
      <trkpt lat="43.64741" lon="1.38768">
        <ele>146</ele>
        <time>2023-07-05T10:45:06Z</time>
      </trkpt>
      <trkpt lat="43.64743" lon="1.38766">
        <ele>146</ele>
        <time>2023-07-05T10:45:07Z</time>
      </trkpt>
      <trkpt lat="43.64746" lon="1.38764">
        <ele>146</ele>
        <time>2023-07-05T10:45:08Z</time>
      </trkpt>
      <trkpt lat="43.64748" lon="1.38762">
        <ele>147</ele>
        <time>2023-07-05T10:45:09Z</time>
      </trkpt>
      <trkpt lat="43.64751" lon="1.3876">
        <ele>147</ele>
        <time>2023-07-05T10:45:10Z</time>
      </trkpt>
      <trkpt lat="43.64753" lon="1.38758">
        <ele>147</ele>
        <time>2023-07-05T10:45:11Z</time>
      </trkpt>
      <trkpt lat="43.64756" lon="1.38756">
        <ele>147</ele>
        <time>2023-07-05T10:45:12Z</time>
      </trkpt>
      <trkpt lat="43.64759" lon="1.38755">
        <ele>147</ele>
        <time>2023-07-05T10:45:13Z</time>
      </trkpt>
      <trkpt lat="43.64761" lon="1.38753">
        <ele>147</ele>
        <time>2023-07-05T10:45:14Z</time>
      </trkpt>
      <trkpt lat="43.64764" lon="1.38752">
        <ele>147</ele>
        <time>2023-07-05T10:45:15Z</time>
      </trkpt>
      <trkpt lat="43.64766" lon="1.3875">
        <ele>147</ele>
        <time>2023-07-05T10:45:16Z</time>
      </trkpt>
      <trkpt lat="43.64769" lon="1.38748">
        <ele>146</ele>
        <time>2023-07-05T10:45:17Z</time>
      </trkpt>
      <trkpt lat="43.64771" lon="1.38746">
        <ele>146</ele>
        <time>2023-07-05T10:45:18Z</time>
      </trkpt>
      <trkpt lat="43.64773" lon="1.38744">
        <ele>146</ele>
        <time>2023-07-05T10:45:19Z</time>
      </trkpt>
      <trkpt lat="43.64775" lon="1.38742">
        <ele>146</ele>
        <time>2023-07-05T10:45:20Z</time>
      </trkpt>
      <trkpt lat="43.64778" lon="1.38741">
        <ele>146</ele>
        <time>2023-07-05T10:45:21Z</time>
      </trkpt>
      <trkpt lat="43.6478" lon="1.38739">
        <ele>146</ele>
        <time>2023-07-05T10:45:22Z</time>
      </trkpt>
      <trkpt lat="43.64782" lon="1.38737">
        <ele>146</ele>
        <time>2023-07-05T10:45:23Z</time>
      </trkpt>
      <trkpt lat="43.64784" lon="1.38736">
        <ele>146</ele>
        <time>2023-07-05T10:45:24Z</time>
      </trkpt>
      <trkpt lat="43.64787" lon="1.38734">
        <ele>146</ele>
        <time>2023-07-05T10:45:25Z</time>
      </trkpt>
      <trkpt lat="43.6479" lon="1.38732">
        <ele>146</ele>
        <time>2023-07-05T10:45:26Z</time>
      </trkpt>
      <trkpt lat="43.64793" lon="1.3873">
        <ele>146</ele>
        <time>2023-07-05T10:45:27Z</time>
      </trkpt>
      <trkpt lat="43.64795" lon="1.38727">
        <ele>146</ele>
        <time>2023-07-05T10:45:28Z</time>
      </trkpt>
      <trkpt lat="43.64798" lon="1.38725">
        <ele>146</ele>
        <time>2023-07-05T10:45:29Z</time>
      </trkpt>
      <trkpt lat="43.648" lon="1.38724">
        <ele>146</ele>
        <time>2023-07-05T10:45:30Z</time>
      </trkpt>
      <trkpt lat="43.64803" lon="1.38722">
        <ele>146</ele>
        <time>2023-07-05T10:45:31Z</time>
      </trkpt>
      <trkpt lat="43.64805" lon="1.38721">
        <ele>146</ele>
        <time>2023-07-05T10:45:32Z</time>
      </trkpt>
      <trkpt lat="43.64808" lon="1.3872">
        <ele>146</ele>
        <time>2023-07-05T10:45:33Z</time>
      </trkpt>
      <trkpt lat="43.6481" lon="1.38718">
        <ele>146</ele>
        <time>2023-07-05T10:45:34Z</time>
      </trkpt>
      <trkpt lat="43.64813" lon="1.38716">
        <ele>146</ele>
        <time>2023-07-05T10:45:35Z</time>
      </trkpt>
      <trkpt lat="43.64816" lon="1.38714">
        <ele>146</ele>
        <time>2023-07-05T10:45:36Z</time>
      </trkpt>
      <trkpt lat="43.64819" lon="1.38712">
        <ele>146</ele>
        <time>2023-07-05T10:45:37Z</time>
      </trkpt>
      <trkpt lat="43.64822" lon="1.3871">
        <ele>146</ele>
        <time>2023-07-05T10:45:38Z</time>
      </trkpt>
      <trkpt lat="43.64824" lon="1.38708">
        <ele>146</ele>
        <time>2023-07-05T10:45:39Z</time>
      </trkpt>
      <trkpt lat="43.64826" lon="1.38706">
        <ele>146</ele>
        <time>2023-07-05T10:45:40Z</time>
      </trkpt>
      <trkpt lat="43.64828" lon="1.38704">
        <ele>146</ele>
        <time>2023-07-05T10:45:41Z</time>
      </trkpt>
      <trkpt lat="43.6483" lon="1.38703">
        <ele>146</ele>
        <time>2023-07-05T10:45:42Z</time>
      </trkpt>
      <trkpt lat="43.64832" lon="1.38702">
        <ele>146</ele>
        <time>2023-07-05T10:45:43Z</time>
      </trkpt>
      <trkpt lat="43.64835" lon="1.387">
        <ele>147</ele>
        <time>2023-07-05T10:45:44Z</time>
      </trkpt>
      <trkpt lat="43.64837" lon="1.38699">
        <ele>147</ele>
        <time>2023-07-05T10:45:45Z</time>
      </trkpt>
      <trkpt lat="43.64839" lon="1.38697">
        <ele>147</ele>
        <time>2023-07-05T10:45:46Z</time>
      </trkpt>
      <trkpt lat="43.64841" lon="1.38695">
        <ele>147</ele>
        <time>2023-07-05T10:45:47Z</time>
      </trkpt>
      <trkpt lat="43.64843" lon="1.38693">
        <ele>147</ele>
        <time>2023-07-05T10:45:48Z</time>
      </trkpt>
      <trkpt lat="43.64846" lon="1.38691">
        <ele>147</ele>
        <time>2023-07-05T10:45:49Z</time>
      </trkpt>
      <trkpt lat="43.64848" lon="1.38689">
        <ele>146</ele>
        <time>2023-07-05T10:45:50Z</time>
      </trkpt>
      <trkpt lat="43.64851" lon="1.38688">
        <ele>146</ele>
        <time>2023-07-05T10:45:51Z</time>
      </trkpt>
      <trkpt lat="43.64853" lon="1.38686">
        <ele>146</ele>
        <time>2023-07-05T10:45:52Z</time>
      </trkpt>
      <trkpt lat="43.64855" lon="1.38685">
        <ele>146</ele>
        <time>2023-07-05T10:45:53Z</time>
      </trkpt>
      <trkpt lat="43.64857" lon="1.38683">
        <ele>146</ele>
        <time>2023-07-05T10:45:54Z</time>
      </trkpt>
      <trkpt lat="43.6486" lon="1.38681">
        <ele>147</ele>
        <time>2023-07-05T10:45:55Z</time>
      </trkpt>
      <trkpt lat="43.64862" lon="1.38679">
        <ele>147</ele>
        <time>2023-07-05T10:45:56Z</time>
      </trkpt>
      <trkpt lat="43.64865" lon="1.38678">
        <ele>147</ele>
        <time>2023-07-05T10:45:57Z</time>
      </trkpt>
      <trkpt lat="43.64867" lon="1.38676">
        <ele>147</ele>
        <time>2023-07-05T10:45:58Z</time>
      </trkpt>
      <trkpt lat="43.64869" lon="1.38674">
        <ele>147</ele>
        <time>2023-07-05T10:45:59Z</time>
      </trkpt>
      <trkpt lat="43.64872" lon="1.38673">
        <ele>147</ele>
        <time>2023-07-05T10:46:00Z</time>
      </trkpt>
      <trkpt lat="43.64874" lon="1.38671">
        <ele>147</ele>
        <time>2023-07-05T10:46:01Z</time>
      </trkpt>
      <trkpt lat="43.64876" lon="1.3867">
        <ele>147</ele>
        <time>2023-07-05T10:46:02Z</time>
      </trkpt>
      <trkpt lat="43.64879" lon="1.38668">
        <ele>147</ele>
        <time>2023-07-05T10:46:03Z</time>
      </trkpt>
      <trkpt lat="43.64882" lon="1.38667">
        <ele>147</ele>
        <time>2023-07-05T10:46:04Z</time>
      </trkpt>
      <trkpt lat="43.64884" lon="1.38665">
        <ele>147</ele>
        <time>2023-07-05T10:46:05Z</time>
      </trkpt>
      <trkpt lat="43.64887" lon="1.38663">
        <ele>147</ele>
        <time>2023-07-05T10:46:06Z</time>
      </trkpt>
      <trkpt lat="43.6489" lon="1.38662">
        <ele>147</ele>
        <time>2023-07-05T10:46:07Z</time>
      </trkpt>
      <trkpt lat="43.64892" lon="1.3866">
        <ele>147</ele>
        <time>2023-07-05T10:46:08Z</time>
      </trkpt>
      <trkpt lat="43.64895" lon="1.38659">
        <ele>147</ele>
        <time>2023-07-05T10:46:09Z</time>
      </trkpt>
      <trkpt lat="43.64897" lon="1.38658">
        <ele>146</ele>
        <time>2023-07-05T10:46:10Z</time>
      </trkpt>
      <trkpt lat="43.649" lon="1.38656">
        <ele>146</ele>
        <time>2023-07-05T10:46:11Z</time>
      </trkpt>
      <trkpt lat="43.64903" lon="1.38654">
        <ele>146</ele>
        <time>2023-07-05T10:46:12Z</time>
      </trkpt>
      <trkpt lat="43.64906" lon="1.38652">
        <ele>146</ele>
        <time>2023-07-05T10:46:13Z</time>
      </trkpt>
      <trkpt lat="43.64908" lon="1.38649">
        <ele>146</ele>
        <time>2023-07-05T10:46:14Z</time>
      </trkpt>
      <trkpt lat="43.64911" lon="1.38647">
        <ele>145</ele>
        <time>2023-07-05T10:46:15Z</time>
      </trkpt>
      <trkpt lat="43.64914" lon="1.38646">
        <ele>145</ele>
        <time>2023-07-05T10:46:16Z</time>
      </trkpt>
      <trkpt lat="43.64917" lon="1.38644">
        <ele>145</ele>
        <time>2023-07-05T10:46:17Z</time>
      </trkpt>
      <trkpt lat="43.6492" lon="1.38642">
        <ele>145</ele>
        <time>2023-07-05T10:46:18Z</time>
      </trkpt>
      <trkpt lat="43.64923" lon="1.3864">
        <ele>146</ele>
        <time>2023-07-05T10:46:19Z</time>
      </trkpt>
      <trkpt lat="43.64925" lon="1.38639">
        <ele>146</ele>
        <time>2023-07-05T10:46:20Z</time>
      </trkpt>
      <trkpt lat="43.64928" lon="1.38637">
        <ele>146</ele>
        <time>2023-07-05T10:46:21Z</time>
      </trkpt>
      <trkpt lat="43.6493" lon="1.38635">
        <ele>146</ele>
        <time>2023-07-05T10:46:22Z</time>
      </trkpt>
      <trkpt lat="43.64933" lon="1.38634">
        <ele>146</ele>
        <time>2023-07-05T10:46:23Z</time>
      </trkpt>
      <trkpt lat="43.64936" lon="1.38632">
        <ele>146</ele>
        <time>2023-07-05T10:46:24Z</time>
      </trkpt>
      <trkpt lat="43.64939" lon="1.38631">
        <ele>146</ele>
        <time>2023-07-05T10:46:25Z</time>
      </trkpt>
      <trkpt lat="43.64941" lon="1.38629">
        <ele>146</ele>
        <time>2023-07-05T10:46:26Z</time>
      </trkpt>
      <trkpt lat="43.64943" lon="1.38627">
        <ele>146</ele>
        <time>2023-07-05T10:46:27Z</time>
      </trkpt>
      <trkpt lat="43.64946" lon="1.38625">
        <ele>146</ele>
        <time>2023-07-05T10:46:28Z</time>
      </trkpt>
      <trkpt lat="43.64949" lon="1.38623">
        <ele>146</ele>
        <time>2023-07-05T10:46:29Z</time>
      </trkpt>
      <trkpt lat="43.64951" lon="1.38622">
        <ele>146</ele>
        <time>2023-07-05T10:46:30Z</time>
      </trkpt>
      <trkpt lat="43.64954" lon="1.38621">
        <ele>146</ele>
        <time>2023-07-05T10:46:31Z</time>
      </trkpt>
      <trkpt lat="43.64957" lon="1.3862">
        <ele>146</ele>
        <time>2023-07-05T10:46:32Z</time>
      </trkpt>
      <trkpt lat="43.64959" lon="1.38618">
        <ele>146</ele>
        <time>2023-07-05T10:46:33Z</time>
      </trkpt>
      <trkpt lat="43.64961" lon="1.38616">
        <ele>146</ele>
        <time>2023-07-05T10:46:34Z</time>
      </trkpt>
      <trkpt lat="43.64964" lon="1.38615">
        <ele>145</ele>
        <time>2023-07-05T10:46:35Z</time>
      </trkpt>
      <trkpt lat="43.64967" lon="1.38613">
        <ele>145</ele>
        <time>2023-07-05T10:46:36Z</time>
      </trkpt>
      <trkpt lat="43.64969" lon="1.38612">
        <ele>145</ele>
        <time>2023-07-05T10:46:37Z</time>
      </trkpt>
      <trkpt lat="43.64972" lon="1.38611">
        <ele>146</ele>
        <time>2023-07-05T10:46:38Z</time>
      </trkpt>
      <trkpt lat="43.64975" lon="1.38609">
        <ele>146</ele>
        <time>2023-07-05T10:46:39Z</time>
      </trkpt>
      <trkpt lat="43.64978" lon="1.38608">
        <ele>146</ele>
        <time>2023-07-05T10:46:40Z</time>
      </trkpt>
      <trkpt lat="43.64981" lon="1.38606">
        <ele>146</ele>
        <time>2023-07-05T10:46:41Z</time>
      </trkpt>
      <trkpt lat="43.64984" lon="1.38604">
        <ele>146</ele>
        <time>2023-07-05T10:46:42Z</time>
      </trkpt>
      <trkpt lat="43.64987" lon="1.38603">
        <ele>146</ele>
        <time>2023-07-05T10:46:43Z</time>
      </trkpt>
      <trkpt lat="43.6499" lon="1.38601">
        <ele>146</ele>
        <time>2023-07-05T10:46:44Z</time>
      </trkpt>
      <trkpt lat="43.64992" lon="1.38599">
        <ele>146</ele>
        <time>2023-07-05T10:46:45Z</time>
      </trkpt>
      <trkpt lat="43.64995" lon="1.38597">
        <ele>146</ele>
        <time>2023-07-05T10:46:46Z</time>
      </trkpt>
      <trkpt lat="43.64998" lon="1.38595">
        <ele>146</ele>
        <time>2023-07-05T10:46:47Z</time>
      </trkpt>
      <trkpt lat="43.65001" lon="1.38593">
        <ele>146</ele>
        <time>2023-07-05T10:46:48Z</time>
      </trkpt>
      <trkpt lat="43.65003" lon="1.38591">
        <ele>146</ele>
        <time>2023-07-05T10:46:49Z</time>
      </trkpt>
      <trkpt lat="43.65005" lon="1.38589">
        <ele>147</ele>
        <time>2023-07-05T10:46:50Z</time>
      </trkpt>
      <trkpt lat="43.65008" lon="1.38587">
        <ele>147</ele>
        <time>2023-07-05T10:46:51Z</time>
      </trkpt>
      <trkpt lat="43.65011" lon="1.38585">
        <ele>146</ele>
        <time>2023-07-05T10:46:52Z</time>
      </trkpt>
      <trkpt lat="43.65013" lon="1.38583">
        <ele>146</ele>
        <time>2023-07-05T10:46:53Z</time>
      </trkpt>
      <trkpt lat="43.65016" lon="1.38581">
        <ele>146</ele>
        <time>2023-07-05T10:46:54Z</time>
      </trkpt>
      <trkpt lat="43.65019" lon="1.3858">
        <ele>146</ele>
        <time>2023-07-05T10:46:55Z</time>
      </trkpt>
      <trkpt lat="43.65022" lon="1.38579">
        <ele>146</ele>
        <time>2023-07-05T10:46:56Z</time>
      </trkpt>
      <trkpt lat="43.65025" lon="1.38577">
        <ele>146</ele>
        <time>2023-07-05T10:46:57Z</time>
      </trkpt>
      <trkpt lat="43.65027" lon="1.38576">
        <ele>146</ele>
        <time>2023-07-05T10:46:58Z</time>
      </trkpt>
      <trkpt lat="43.65029" lon="1.38575">
        <ele>146</ele>
        <time>2023-07-05T10:46:59Z</time>
      </trkpt>
      <trkpt lat="43.65032" lon="1.38574">
        <ele>146</ele>
        <time>2023-07-05T10:47:00Z</time>
      </trkpt>
      <trkpt lat="43.65034" lon="1.38572">
        <ele>146</ele>
        <time>2023-07-05T10:47:01Z</time>
      </trkpt>
      <trkpt lat="43.65037" lon="1.38571">
        <ele>146</ele>
        <time>2023-07-05T10:47:02Z</time>
      </trkpt>
      <trkpt lat="43.65039" lon="1.38569">
        <ele>146</ele>
        <time>2023-07-05T10:47:03Z</time>
      </trkpt>
      <trkpt lat="43.65041" lon="1.38567">
        <ele>146</ele>
        <time>2023-07-05T10:47:04Z</time>
      </trkpt>
      <trkpt lat="43.65043" lon="1.38565">
        <ele>146</ele>
        <time>2023-07-05T10:47:05Z</time>
      </trkpt>
      <trkpt lat="43.65047" lon="1.38563">
        <ele>145</ele>
        <time>2023-07-05T10:47:06Z</time>
      </trkpt>
      <trkpt lat="43.6505" lon="1.38561">
        <ele>146</ele>
        <time>2023-07-05T10:47:07Z</time>
      </trkpt>
      <trkpt lat="43.65053" lon="1.3856">
        <ele>146</ele>
        <time>2023-07-05T10:47:08Z</time>
      </trkpt>
      <trkpt lat="43.65055" lon="1.38559">
        <ele>146</ele>
        <time>2023-07-05T10:47:09Z</time>
      </trkpt>
      <trkpt lat="43.65058" lon="1.38558">
        <ele>146</ele>
        <time>2023-07-05T10:47:10Z</time>
      </trkpt>
      <trkpt lat="43.6506" lon="1.38556">
        <ele>146</ele>
        <time>2023-07-05T10:47:11Z</time>
      </trkpt>
      <trkpt lat="43.65062" lon="1.38555">
        <ele>145</ele>
        <time>2023-07-05T10:47:12Z</time>
      </trkpt>
      <trkpt lat="43.65065" lon="1.38553">
        <ele>145</ele>
        <time>2023-07-05T10:47:13Z</time>
      </trkpt>
      <trkpt lat="43.65067" lon="1.38551">
        <ele>145</ele>
        <time>2023-07-05T10:47:14Z</time>
      </trkpt>
      <trkpt lat="43.65069" lon="1.3855">
        <ele>145</ele>
        <time>2023-07-05T10:47:15Z</time>
      </trkpt>
      <trkpt lat="43.65072" lon="1.38548">
        <ele>145</ele>
        <time>2023-07-05T10:47:16Z</time>
      </trkpt>
      <trkpt lat="43.65076" lon="1.38547">
        <ele>145</ele>
        <time>2023-07-05T10:47:17Z</time>
      </trkpt>
      <trkpt lat="43.65079" lon="1.38545">
        <ele>145</ele>
        <time>2023-07-05T10:47:18Z</time>
      </trkpt>
      <trkpt lat="43.65082" lon="1.38543">
        <ele>145</ele>
        <time>2023-07-05T10:47:19Z</time>
      </trkpt>
      <trkpt lat="43.65085" lon="1.38542">
        <ele>145</ele>
        <time>2023-07-05T10:47:20Z</time>
      </trkpt>
      <trkpt lat="43.65088" lon="1.3854">
        <ele>145</ele>
        <time>2023-07-05T10:47:21Z</time>
      </trkpt>
      <trkpt lat="43.6509" lon="1.38537">
        <ele>145</ele>
        <time>2023-07-05T10:47:22Z</time>
      </trkpt>
      <trkpt lat="43.65092" lon="1.38534">
        <ele>146</ele>
        <time>2023-07-05T10:47:23Z</time>
      </trkpt>
      <trkpt lat="43.65094" lon="1.3853">
        <ele>146</ele>
        <time>2023-07-05T10:47:24Z</time>
      </trkpt>
      <trkpt lat="43.65095" lon="1.38527">
        <ele>146</ele>
        <time>2023-07-05T10:47:25Z</time>
      </trkpt>
      <trkpt lat="43.65096" lon="1.38523">
        <ele>145</ele>
        <time>2023-07-05T10:47:26Z</time>
      </trkpt>
      <trkpt lat="43.65097" lon="1.38519">
        <ele>145</ele>
        <time>2023-07-05T10:47:27Z</time>
      </trkpt>
      <trkpt lat="43.65098" lon="1.38516">
        <ele>145</ele>
        <time>2023-07-05T10:47:28Z</time>
      </trkpt>
      <trkpt lat="43.65099" lon="1.38512">
        <ele>145</ele>
        <time>2023-07-05T10:47:29Z</time>
      </trkpt>
      <trkpt lat="43.651" lon="1.38508">
        <ele>145</ele>
        <time>2023-07-05T10:47:30Z</time>
      </trkpt>
      <trkpt lat="43.65101" lon="1.38504">
        <ele>145</ele>
        <time>2023-07-05T10:47:31Z</time>
      </trkpt>
      <trkpt lat="43.651" lon="1.385">
        <ele>145</ele>
        <time>2023-07-05T10:47:32Z</time>
      </trkpt>
      <trkpt lat="43.65099" lon="1.38496">
        <ele>145</ele>
        <time>2023-07-05T10:47:33Z</time>
      </trkpt>
      <trkpt lat="43.65097" lon="1.38493">
        <ele>146</ele>
        <time>2023-07-05T10:47:34Z</time>
      </trkpt>
      <trkpt lat="43.65097" lon="1.38489">
        <ele>146</ele>
        <time>2023-07-05T10:47:35Z</time>
      </trkpt>
      <trkpt lat="43.65096" lon="1.38486">
        <ele>146</ele>
        <time>2023-07-05T10:47:36Z</time>
      </trkpt>
      <trkpt lat="43.65095" lon="1.38483">
        <ele>146</ele>
        <time>2023-07-05T10:47:37Z</time>
      </trkpt>
      <trkpt lat="43.65093" lon="1.38479">
        <ele>146</ele>
        <time>2023-07-05T10:47:38Z</time>
      </trkpt>
      <trkpt lat="43.65092" lon="1.38476">
        <ele>146</ele>
        <time>2023-07-05T10:47:39Z</time>
      </trkpt>
      <trkpt lat="43.65091" lon="1.38473">
        <ele>146</ele>
        <time>2023-07-05T10:47:40Z</time>
      </trkpt>
      <trkpt lat="43.6509" lon="1.3847">
        <ele>146</ele>
        <time>2023-07-05T10:47:41Z</time>
      </trkpt>
      <trkpt lat="43.65089" lon="1.38466">
        <ele>145</ele>
        <time>2023-07-05T10:47:42Z</time>
      </trkpt>
      <trkpt lat="43.65088" lon="1.38463">
        <ele>145</ele>
        <time>2023-07-05T10:47:43Z</time>
      </trkpt>
      <trkpt lat="43.65086" lon="1.38459">
        <ele>145</ele>
        <time>2023-07-05T10:47:44Z</time>
      </trkpt>
      <trkpt lat="43.65085" lon="1.38456">
        <ele>146</ele>
        <time>2023-07-05T10:47:45Z</time>
      </trkpt>
      <trkpt lat="43.65083" lon="1.38453">
        <ele>146</ele>
        <time>2023-07-05T10:47:46Z</time>
      </trkpt>
      <trkpt lat="43.65082" lon="1.38449">
        <ele>146</ele>
        <time>2023-07-05T10:47:47Z</time>
      </trkpt>
      <trkpt lat="43.6508" lon="1.38445">
        <ele>146</ele>
        <time>2023-07-05T10:47:48Z</time>
      </trkpt>
      <trkpt lat="43.65079" lon="1.38441">
        <ele>146</ele>
        <time>2023-07-05T10:47:49Z</time>
      </trkpt>
      <trkpt lat="43.65078" lon="1.38438">
        <ele>146</ele>
        <time>2023-07-05T10:47:50Z</time>
      </trkpt>
      <trkpt lat="43.65077" lon="1.38434">
        <ele>146</ele>
        <time>2023-07-05T10:47:51Z</time>
      </trkpt>
      <trkpt lat="43.65076" lon="1.3843">
        <ele>146</ele>
        <time>2023-07-05T10:47:52Z</time>
      </trkpt>
      <trkpt lat="43.65075" lon="1.38426">
        <ele>146</ele>
        <time>2023-07-05T10:47:53Z</time>
      </trkpt>
      <trkpt lat="43.65074" lon="1.38422">
        <ele>146</ele>
        <time>2023-07-05T10:47:54Z</time>
      </trkpt>
      <trkpt lat="43.65073" lon="1.38418">
        <ele>146</ele>
        <time>2023-07-05T10:47:55Z</time>
      </trkpt>
      <trkpt lat="43.65072" lon="1.38415">
        <ele>146</ele>
        <time>2023-07-05T10:47:56Z</time>
      </trkpt>
      <trkpt lat="43.65071" lon="1.38411">
        <ele>146</ele>
        <time>2023-07-05T10:47:57Z</time>
      </trkpt>
      <trkpt lat="43.6507" lon="1.38407">
        <ele>146</ele>
        <time>2023-07-05T10:47:58Z</time>
      </trkpt>
      <trkpt lat="43.65069" lon="1.38403">
        <ele>146</ele>
        <time>2023-07-05T10:47:59Z</time>
      </trkpt>
      <trkpt lat="43.65068" lon="1.38399">
        <ele>146</ele>
        <time>2023-07-05T10:48:00Z</time>
      </trkpt>
      <trkpt lat="43.65067" lon="1.38396">
        <ele>146</ele>
        <time>2023-07-05T10:48:01Z</time>
      </trkpt>
      <trkpt lat="43.65065" lon="1.38392">
        <ele>146</ele>
        <time>2023-07-05T10:48:02Z</time>
      </trkpt>
      <trkpt lat="43.65064" lon="1.38389">
        <ele>146</ele>
        <time>2023-07-05T10:48:03Z</time>
      </trkpt>
      <trkpt lat="43.65063" lon="1.38385">
        <ele>146</ele>
        <time>2023-07-05T10:48:04Z</time>
      </trkpt>
      <trkpt lat="43.65062" lon="1.38381">
        <ele>146</ele>
        <time>2023-07-05T10:48:05Z</time>
      </trkpt>
      <trkpt lat="43.6506" lon="1.38376">
        <ele>147</ele>
        <time>2023-07-05T10:48:06Z</time>
      </trkpt>
      <trkpt lat="43.65059" lon="1.38372">
        <ele>147</ele>
        <time>2023-07-05T10:48:07Z</time>
      </trkpt>
      <trkpt lat="43.65057" lon="1.38368">
        <ele>146</ele>
        <time>2023-07-05T10:48:08Z</time>
      </trkpt>
      <trkpt lat="43.65056" lon="1.38365">
        <ele>146</ele>
        <time>2023-07-05T10:48:09Z</time>
      </trkpt>
      <trkpt lat="43.65055" lon="1.38361">
        <ele>146</ele>
        <time>2023-07-05T10:48:10Z</time>
      </trkpt>
      <trkpt lat="43.65055" lon="1.38357">
        <ele>146</ele>
        <time>2023-07-05T10:48:11Z</time>
      </trkpt>
      <trkpt lat="43.65054" lon="1.38354">
        <ele>146</ele>
        <time>2023-07-05T10:48:12Z</time>
      </trkpt>
      <trkpt lat="43.65053" lon="1.3835">
        <ele>146</ele>
        <time>2023-07-05T10:48:13Z</time>
      </trkpt>
      <trkpt lat="43.65051" lon="1.38346">
        <ele>146</ele>
        <time>2023-07-05T10:48:14Z</time>
      </trkpt>
      <trkpt lat="43.6505" lon="1.38342">
        <ele>146</ele>
        <time>2023-07-05T10:48:15Z</time>
      </trkpt>
      <trkpt lat="43.65048" lon="1.38338">
        <ele>146</ele>
        <time>2023-07-05T10:48:16Z</time>
      </trkpt>
      <trkpt lat="43.65047" lon="1.38334">
        <ele>147</ele>
        <time>2023-07-05T10:48:17Z</time>
      </trkpt>
      <trkpt lat="43.65046" lon="1.38331">
        <ele>147</ele>
        <time>2023-07-05T10:48:18Z</time>
      </trkpt>
      <trkpt lat="43.65044" lon="1.38327">
        <ele>147</ele>
        <time>2023-07-05T10:48:19Z</time>
      </trkpt>
      <trkpt lat="43.65043" lon="1.38323">
        <ele>147</ele>
        <time>2023-07-05T10:48:20Z</time>
      </trkpt>
      <trkpt lat="43.65042" lon="1.38319">
        <ele>147</ele>
        <time>2023-07-05T10:48:21Z</time>
      </trkpt>
      <trkpt lat="43.65041" lon="1.38315">
        <ele>147</ele>
        <time>2023-07-05T10:48:22Z</time>
      </trkpt>
      <trkpt lat="43.6504" lon="1.38311">
        <ele>147</ele>
        <time>2023-07-05T10:48:23Z</time>
      </trkpt>
      <trkpt lat="43.65039" lon="1.38308">
        <ele>146</ele>
        <time>2023-07-05T10:48:24Z</time>
      </trkpt>
      <trkpt lat="43.65038" lon="1.38304">
        <ele>146</ele>
        <time>2023-07-05T10:48:25Z</time>
      </trkpt>
      <trkpt lat="43.65036" lon="1.383">
        <ele>146</ele>
        <time>2023-07-05T10:48:26Z</time>
      </trkpt>
      <trkpt lat="43.65035" lon="1.38296">
        <ele>146</ele>
        <time>2023-07-05T10:48:27Z</time>
      </trkpt>
      <trkpt lat="43.65034" lon="1.38292">
        <ele>146</ele>
        <time>2023-07-05T10:48:28Z</time>
      </trkpt>
      <trkpt lat="43.65033" lon="1.38289">
        <ele>146</ele>
        <time>2023-07-05T10:48:29Z</time>
      </trkpt>
      <trkpt lat="43.65031" lon="1.38285">
        <ele>146</ele>
        <time>2023-07-05T10:48:30Z</time>
      </trkpt>
      <trkpt lat="43.6503" lon="1.38281">
        <ele>146</ele>
        <time>2023-07-05T10:48:31Z</time>
      </trkpt>
      <trkpt lat="43.65028" lon="1.38277">
        <ele>146</ele>
        <time>2023-07-05T10:48:32Z</time>
      </trkpt>
      <trkpt lat="43.65027" lon="1.38273">
        <ele>146</ele>
        <time>2023-07-05T10:48:33Z</time>
      </trkpt>
      <trkpt lat="43.65026" lon="1.38269">
        <ele>146</ele>
        <time>2023-07-05T10:48:34Z</time>
      </trkpt>
      <trkpt lat="43.65025" lon="1.38265">
        <ele>146</ele>
        <time>2023-07-05T10:48:35Z</time>
      </trkpt>
      <trkpt lat="43.65024" lon="1.38262">
        <ele>146</ele>
        <time>2023-07-05T10:48:36Z</time>
      </trkpt>
      <trkpt lat="43.65023" lon="1.38258">
        <ele>146</ele>
        <time>2023-07-05T10:48:37Z</time>
      </trkpt>
      <trkpt lat="43.65022" lon="1.38254">
        <ele>146</ele>
        <time>2023-07-05T10:48:38Z</time>
      </trkpt>
      <trkpt lat="43.65021" lon="1.3825">
        <ele>146</ele>
        <time>2023-07-05T10:48:39Z</time>
      </trkpt>
      <trkpt lat="43.65021" lon="1.38247">
        <ele>146</ele>
        <time>2023-07-05T10:48:40Z</time>
      </trkpt>
      <trkpt lat="43.65021" lon="1.38243">
        <ele>146</ele>
        <time>2023-07-05T10:48:41Z</time>
      </trkpt>
      <trkpt lat="43.6502" lon="1.38239">
        <ele>146</ele>
        <time>2023-07-05T10:48:42Z</time>
      </trkpt>
      <trkpt lat="43.65019" lon="1.38235">
        <ele>146</ele>
        <time>2023-07-05T10:48:43Z</time>
      </trkpt>
      <trkpt lat="43.65018" lon="1.38231">
        <ele>146</ele>
        <time>2023-07-05T10:48:44Z</time>
      </trkpt>
      <trkpt lat="43.65017" lon="1.38227">
        <ele>146</ele>
        <time>2023-07-05T10:48:45Z</time>
      </trkpt>
      <trkpt lat="43.65016" lon="1.38223">
        <ele>146</ele>
        <time>2023-07-05T10:48:46Z</time>
      </trkpt>
      <trkpt lat="43.65014" lon="1.3822">
        <ele>146</ele>
        <time>2023-07-05T10:48:47Z</time>
      </trkpt>
      <trkpt lat="43.65013" lon="1.38216">
        <ele>146</ele>
        <time>2023-07-05T10:48:48Z</time>
      </trkpt>
      <trkpt lat="43.65012" lon="1.38212">
        <ele>146</ele>
        <time>2023-07-05T10:48:49Z</time>
      </trkpt>
      <trkpt lat="43.6501" lon="1.38208">
        <ele>146</ele>
        <time>2023-07-05T10:48:50Z</time>
      </trkpt>
      <trkpt lat="43.65009" lon="1.38204">
        <ele>146</ele>
        <time>2023-07-05T10:48:51Z</time>
      </trkpt>
      <trkpt lat="43.65007" lon="1.382">
        <ele>146</ele>
        <time>2023-07-05T10:48:52Z</time>
      </trkpt>
      <trkpt lat="43.65005" lon="1.38197">
        <ele>146</ele>
        <time>2023-07-05T10:48:53Z</time>
      </trkpt>
      <trkpt lat="43.65003" lon="1.38194">
        <ele>146</ele>
        <time>2023-07-05T10:48:54Z</time>
      </trkpt>
      <trkpt lat="43.65" lon="1.38191">
        <ele>146</ele>
        <time>2023-07-05T10:48:55Z</time>
      </trkpt>
      <trkpt lat="43.64998" lon="1.38188">
        <ele>147</ele>
        <time>2023-07-05T10:48:56Z</time>
      </trkpt>
      <trkpt lat="43.64995" lon="1.38185">
        <ele>147</ele>
        <time>2023-07-05T10:48:57Z</time>
      </trkpt>
      <trkpt lat="43.64993" lon="1.38181">
        <ele>147</ele>
        <time>2023-07-05T10:48:58Z</time>
      </trkpt>
      <trkpt lat="43.64992" lon="1.38176">
        <ele>147</ele>
        <time>2023-07-05T10:48:59Z</time>
      </trkpt>
      <trkpt lat="43.64992" lon="1.38171">
        <ele>147</ele>
        <time>2023-07-05T10:49:00Z</time>
      </trkpt>
      <trkpt lat="43.64991" lon="1.38167">
        <ele>147</ele>
        <time>2023-07-05T10:49:01Z</time>
      </trkpt>
      <trkpt lat="43.64992" lon="1.38163">
        <ele>147</ele>
        <time>2023-07-05T10:49:02Z</time>
      </trkpt>
      <trkpt lat="43.64993" lon="1.38159">
        <ele>147</ele>
        <time>2023-07-05T10:49:03Z</time>
      </trkpt>
      <trkpt lat="43.64993" lon="1.38156">
        <ele>147</ele>
        <time>2023-07-05T10:49:04Z</time>
      </trkpt>
      <trkpt lat="43.64994" lon="1.38153">
        <ele>147</ele>
        <time>2023-07-05T10:49:05Z</time>
      </trkpt>
      <trkpt lat="43.64995" lon="1.3815">
        <ele>147</ele>
        <time>2023-07-05T10:49:06Z</time>
      </trkpt>
      <trkpt lat="43.64996" lon="1.38146">
        <ele>147</ele>
        <time>2023-07-05T10:49:07Z</time>
      </trkpt>
      <trkpt lat="43.64997" lon="1.38142">
        <ele>147</ele>
        <time>2023-07-05T10:49:08Z</time>
      </trkpt>
      <trkpt lat="43.64996" lon="1.38138">
        <ele>147</ele>
        <time>2023-07-05T10:49:09Z</time>
      </trkpt>
      <trkpt lat="43.64996" lon="1.38134">
        <ele>146</ele>
        <time>2023-07-05T10:49:10Z</time>
      </trkpt>
      <trkpt lat="43.64995" lon="1.38129">
        <ele>146</ele>
        <time>2023-07-05T10:49:11Z</time>
      </trkpt>
      <trkpt lat="43.64994" lon="1.38126">
        <ele>146</ele>
        <time>2023-07-05T10:49:12Z</time>
      </trkpt>
      <trkpt lat="43.64993" lon="1.38122">
        <ele>146</ele>
        <time>2023-07-05T10:49:13Z</time>
      </trkpt>
      <trkpt lat="43.64992" lon="1.38118">
        <ele>146</ele>
        <time>2023-07-05T10:49:14Z</time>
      </trkpt>
      <trkpt lat="43.64991" lon="1.38113">
        <ele>146</ele>
        <time>2023-07-05T10:49:15Z</time>
      </trkpt>
      <trkpt lat="43.6499" lon="1.3811">
        <ele>146</ele>
        <time>2023-07-05T10:49:16Z</time>
      </trkpt>
      <trkpt lat="43.64989" lon="1.38106">
        <ele>146</ele>
        <time>2023-07-05T10:49:17Z</time>
      </trkpt>
      <trkpt lat="43.64988" lon="1.38103">
        <ele>146</ele>
        <time>2023-07-05T10:49:18Z</time>
      </trkpt>
      <trkpt lat="43.64987" lon="1.38099">
        <ele>146</ele>
        <time>2023-07-05T10:49:19Z</time>
      </trkpt>
      <trkpt lat="43.64986" lon="1.38096">
        <ele>146</ele>
        <time>2023-07-05T10:49:20Z</time>
      </trkpt>
      <trkpt lat="43.64985" lon="1.38092">
        <ele>146</ele>
        <time>2023-07-05T10:49:21Z</time>
      </trkpt>
      <trkpt lat="43.64984" lon="1.38088">
        <ele>146</ele>
        <time>2023-07-05T10:49:22Z</time>
      </trkpt>
      <trkpt lat="43.64982" lon="1.38084">
        <ele>146</ele>
        <time>2023-07-05T10:49:23Z</time>
      </trkpt>
      <trkpt lat="43.64981" lon="1.3808">
        <ele>146</ele>
        <time>2023-07-05T10:49:24Z</time>
      </trkpt>
      <trkpt lat="43.6498" lon="1.38077">
        <ele>146</ele>
        <time>2023-07-05T10:49:25Z</time>
      </trkpt>
      <trkpt lat="43.64978" lon="1.38073">
        <ele>146</ele>
        <time>2023-07-05T10:49:26Z</time>
      </trkpt>
      <trkpt lat="43.64977" lon="1.38069">
        <ele>146</ele>
        <time>2023-07-05T10:49:27Z</time>
      </trkpt>
      <trkpt lat="43.64976" lon="1.38065">
        <ele>146</ele>
        <time>2023-07-05T10:49:28Z</time>
      </trkpt>
      <trkpt lat="43.64975" lon="1.38061">
        <ele>146</ele>
        <time>2023-07-05T10:49:29Z</time>
      </trkpt>
      <trkpt lat="43.64974" lon="1.38057">
        <ele>146</ele>
        <time>2023-07-05T10:49:30Z</time>
      </trkpt>
      <trkpt lat="43.64972" lon="1.38053">
        <ele>146</ele>
        <time>2023-07-05T10:49:31Z</time>
      </trkpt>
      <trkpt lat="43.64971" lon="1.38049">
        <ele>146</ele>
        <time>2023-07-05T10:49:32Z</time>
      </trkpt>
      <trkpt lat="43.6497" lon="1.38045">
        <ele>146</ele>
        <time>2023-07-05T10:49:33Z</time>
      </trkpt>
      <trkpt lat="43.64969" lon="1.38041">
        <ele>146</ele>
        <time>2023-07-05T10:49:34Z</time>
      </trkpt>
      <trkpt lat="43.64967" lon="1.38038">
        <ele>146</ele>
        <time>2023-07-05T10:49:35Z</time>
      </trkpt>
      <trkpt lat="43.64966" lon="1.38034">
        <ele>146</ele>
        <time>2023-07-05T10:49:36Z</time>
      </trkpt>
      <trkpt lat="43.64964" lon="1.3803">
        <ele>146</ele>
        <time>2023-07-05T10:49:37Z</time>
      </trkpt>
      <trkpt lat="43.64962" lon="1.38026">
        <ele>146</ele>
        <time>2023-07-05T10:49:38Z</time>
      </trkpt>
      <trkpt lat="43.64961" lon="1.38021">
        <ele>146</ele>
        <time>2023-07-05T10:49:39Z</time>
      </trkpt>
      <trkpt lat="43.6496" lon="1.38018">
        <ele>146</ele>
        <time>2023-07-05T10:49:40Z</time>
      </trkpt>
      <trkpt lat="43.64959" lon="1.38014">
        <ele>146</ele>
        <time>2023-07-05T10:49:41Z</time>
      </trkpt>
      <trkpt lat="43.64957" lon="1.38011">
        <ele>146</ele>
        <time>2023-07-05T10:49:42Z</time>
      </trkpt>
      <trkpt lat="43.64956" lon="1.38007">
        <ele>146</ele>
        <time>2023-07-05T10:49:43Z</time>
      </trkpt>
      <trkpt lat="43.64955" lon="1.38004">
        <ele>146</ele>
        <time>2023-07-05T10:49:44Z</time>
      </trkpt>
      <trkpt lat="43.64953" lon="1.38">
        <ele>146</ele>
        <time>2023-07-05T10:49:45Z</time>
      </trkpt>
      <trkpt lat="43.6495" lon="1.37997">
        <ele>146</ele>
        <time>2023-07-05T10:49:46Z</time>
      </trkpt>
      <trkpt lat="43.64949" lon="1.37992">
        <ele>146</ele>
        <time>2023-07-05T10:49:47Z</time>
      </trkpt>
      <trkpt lat="43.64947" lon="1.37988">
        <ele>146</ele>
        <time>2023-07-05T10:49:48Z</time>
      </trkpt>
      <trkpt lat="43.64946" lon="1.37983">
        <ele>146</ele>
        <time>2023-07-05T10:49:49Z</time>
      </trkpt>
      <trkpt lat="43.64945" lon="1.37979">
        <ele>146</ele>
        <time>2023-07-05T10:49:50Z</time>
      </trkpt>
      <trkpt lat="43.64944" lon="1.37974">
        <ele>146</ele>
        <time>2023-07-05T10:49:51Z</time>
      </trkpt>
      <trkpt lat="43.64945" lon="1.37969">
        <ele>146</ele>
        <time>2023-07-05T10:49:52Z</time>
      </trkpt>
      <trkpt lat="43.64944" lon="1.37965">
        <ele>146</ele>
        <time>2023-07-05T10:49:53Z</time>
      </trkpt>
      <trkpt lat="43.64944" lon="1.3796">
        <ele>146</ele>
        <time>2023-07-05T10:49:54Z</time>
      </trkpt>
      <trkpt lat="43.64943" lon="1.37956">
        <ele>146</ele>
        <time>2023-07-05T10:49:55Z</time>
      </trkpt>
      <trkpt lat="43.64942" lon="1.37952">
        <ele>146</ele>
        <time>2023-07-05T10:49:56Z</time>
      </trkpt>
      <trkpt lat="43.64941" lon="1.37949">
        <ele>146</ele>
        <time>2023-07-05T10:49:57Z</time>
      </trkpt>
      <trkpt lat="43.6494" lon="1.37945">
        <ele>146</ele>
        <time>2023-07-05T10:49:58Z</time>
      </trkpt>
      <trkpt lat="43.64939" lon="1.37941">
        <ele>146</ele>
        <time>2023-07-05T10:49:59Z</time>
      </trkpt>
      <trkpt lat="43.64938" lon="1.37937">
        <ele>146</ele>
        <time>2023-07-05T10:50:00Z</time>
      </trkpt>
      <trkpt lat="43.64937" lon="1.37933">
        <ele>146</ele>
        <time>2023-07-05T10:50:01Z</time>
      </trkpt>
      <trkpt lat="43.64936" lon="1.37928">
        <ele>146</ele>
        <time>2023-07-05T10:50:02Z</time>
      </trkpt>
      <trkpt lat="43.64934" lon="1.37924">
        <ele>146</ele>
        <time>2023-07-05T10:50:03Z</time>
      </trkpt>
      <trkpt lat="43.64933" lon="1.37919">
        <ele>146</ele>
        <time>2023-07-05T10:50:04Z</time>
      </trkpt>
      <trkpt lat="43.64932" lon="1.37915">
        <ele>146</ele>
        <time>2023-07-05T10:50:05Z</time>
      </trkpt>
      <trkpt lat="43.64931" lon="1.37911">
        <ele>146</ele>
        <time>2023-07-05T10:50:06Z</time>
      </trkpt>
      <trkpt lat="43.64929" lon="1.37907">
        <ele>146</ele>
        <time>2023-07-05T10:50:07Z</time>
      </trkpt>
      <trkpt lat="43.64928" lon="1.37902">
        <ele>146</ele>
        <time>2023-07-05T10:50:08Z</time>
      </trkpt>
      <trkpt lat="43.64927" lon="1.37898">
        <ele>146</ele>
        <time>2023-07-05T10:50:09Z</time>
      </trkpt>
      <trkpt lat="43.64926" lon="1.37894">
        <ele>146</ele>
        <time>2023-07-05T10:50:10Z</time>
      </trkpt>
      <trkpt lat="43.64926" lon="1.3789">
        <ele>146</ele>
        <time>2023-07-05T10:50:11Z</time>
      </trkpt>
      <trkpt lat="43.64925" lon="1.37886">
        <ele>146</ele>
        <time>2023-07-05T10:50:12Z</time>
      </trkpt>
      <trkpt lat="43.64924" lon="1.37882">
        <ele>146</ele>
        <time>2023-07-05T10:50:13Z</time>
      </trkpt>
      <trkpt lat="43.64923" lon="1.37878">
        <ele>147</ele>
        <time>2023-07-05T10:50:14Z</time>
      </trkpt>
      <trkpt lat="43.64922" lon="1.37874">
        <ele>147</ele>
        <time>2023-07-05T10:50:15Z</time>
      </trkpt>
      <trkpt lat="43.64921" lon="1.3787">
        <ele>147</ele>
        <time>2023-07-05T10:50:16Z</time>
      </trkpt>
      <trkpt lat="43.6492" lon="1.37866">
        <ele>147</ele>
        <time>2023-07-05T10:50:17Z</time>
      </trkpt>
      <trkpt lat="43.6492" lon="1.37862">
        <ele>147</ele>
        <time>2023-07-05T10:50:18Z</time>
      </trkpt>
      <trkpt lat="43.64919" lon="1.37858">
        <ele>147</ele>
        <time>2023-07-05T10:50:19Z</time>
      </trkpt>
      <trkpt lat="43.64918" lon="1.37855">
        <ele>147</ele>
        <time>2023-07-05T10:50:20Z</time>
      </trkpt>
      <trkpt lat="43.64918" lon="1.37851">
        <ele>147</ele>
        <time>2023-07-05T10:50:21Z</time>
      </trkpt>
      <trkpt lat="43.64917" lon="1.37847">
        <ele>147</ele>
        <time>2023-07-05T10:50:22Z</time>
      </trkpt>
      <trkpt lat="43.64916" lon="1.37843">
        <ele>147</ele>
        <time>2023-07-05T10:50:23Z</time>
      </trkpt>
      <trkpt lat="43.64916" lon="1.37839">
        <ele>147</ele>
        <time>2023-07-05T10:50:24Z</time>
      </trkpt>
      <trkpt lat="43.64916" lon="1.37835">
        <ele>147</ele>
        <time>2023-07-05T10:50:25Z</time>
      </trkpt>
      <trkpt lat="43.64915" lon="1.37832">
        <ele>147</ele>
        <time>2023-07-05T10:50:26Z</time>
      </trkpt>
      <trkpt lat="43.64914" lon="1.37828">
        <ele>147</ele>
        <time>2023-07-05T10:50:27Z</time>
      </trkpt>
      <trkpt lat="43.64913" lon="1.37825">
        <ele>147</ele>
        <time>2023-07-05T10:50:28Z</time>
      </trkpt>
      <trkpt lat="43.64912" lon="1.37821">
        <ele>147</ele>
        <time>2023-07-05T10:50:29Z</time>
      </trkpt>
      <trkpt lat="43.64912" lon="1.37817">
        <ele>147</ele>
        <time>2023-07-05T10:50:30Z</time>
      </trkpt>
      <trkpt lat="43.64911" lon="1.37814">
        <ele>147</ele>
        <time>2023-07-05T10:50:31Z</time>
      </trkpt>
      <trkpt lat="43.64911" lon="1.3781">
        <ele>147</ele>
        <time>2023-07-05T10:50:32Z</time>
      </trkpt>
      <trkpt lat="43.6491" lon="1.37806">
        <ele>147</ele>
        <time>2023-07-05T10:50:33Z</time>
      </trkpt>
      <trkpt lat="43.64909" lon="1.37802">
        <ele>147</ele>
        <time>2023-07-05T10:50:34Z</time>
      </trkpt>
      <trkpt lat="43.64908" lon="1.37799">
        <ele>147</ele>
        <time>2023-07-05T10:50:35Z</time>
      </trkpt>
      <trkpt lat="43.64907" lon="1.37795">
        <ele>147</ele>
        <time>2023-07-05T10:50:36Z</time>
      </trkpt>
      <trkpt lat="43.64907" lon="1.37791">
        <ele>147</ele>
        <time>2023-07-05T10:50:37Z</time>
      </trkpt>
      <trkpt lat="43.64906" lon="1.37787">
        <ele>147</ele>
        <time>2023-07-05T10:50:38Z</time>
      </trkpt>
      <trkpt lat="43.64905" lon="1.37783">
        <ele>147</ele>
        <time>2023-07-05T10:50:39Z</time>
      </trkpt>
      <trkpt lat="43.64904" lon="1.3778">
        <ele>147</ele>
        <time>2023-07-05T10:50:40Z</time>
      </trkpt>
      <trkpt lat="43.64903" lon="1.37776">
        <ele>147</ele>
        <time>2023-07-05T10:50:41Z</time>
      </trkpt>
      <trkpt lat="43.64902" lon="1.37772">
        <ele>147</ele>
        <time>2023-07-05T10:50:42Z</time>
      </trkpt>
      <trkpt lat="43.64901" lon="1.37768">
        <ele>147</ele>
        <time>2023-07-05T10:50:43Z</time>
      </trkpt>
      <trkpt lat="43.649" lon="1.37765">
        <ele>147</ele>
        <time>2023-07-05T10:50:44Z</time>
      </trkpt>
      <trkpt lat="43.64899" lon="1.37761">
        <ele>147</ele>
        <time>2023-07-05T10:50:45Z</time>
      </trkpt>
      <trkpt lat="43.64898" lon="1.37756">
        <ele>147</ele>
        <time>2023-07-05T10:50:46Z</time>
      </trkpt>
      <trkpt lat="43.64897" lon="1.37752">
        <ele>147</ele>
        <time>2023-07-05T10:50:47Z</time>
      </trkpt>
      <trkpt lat="43.64896" lon="1.37749">
        <ele>147</ele>
        <time>2023-07-05T10:50:48Z</time>
      </trkpt>
      <trkpt lat="43.64895" lon="1.37745">
        <ele>147</ele>
        <time>2023-07-05T10:50:49Z</time>
      </trkpt>
      <trkpt lat="43.64895" lon="1.37742">
        <ele>147</ele>
        <time>2023-07-05T10:50:50Z</time>
      </trkpt>
      <trkpt lat="43.64894" lon="1.37738">
        <ele>147</ele>
        <time>2023-07-05T10:50:51Z</time>
      </trkpt>
      <trkpt lat="43.64894" lon="1.37734">
        <ele>147</ele>
        <time>2023-07-05T10:50:52Z</time>
      </trkpt>
      <trkpt lat="43.64893" lon="1.37731">
        <ele>147</ele>
        <time>2023-07-05T10:50:53Z</time>
      </trkpt>
      <trkpt lat="43.64891" lon="1.37727">
        <ele>147</ele>
        <time>2023-07-05T10:50:54Z</time>
      </trkpt>
      <trkpt lat="43.6489" lon="1.37722">
        <ele>147</ele>
        <time>2023-07-05T10:50:55Z</time>
      </trkpt>
      <trkpt lat="43.64889" lon="1.37718">
        <ele>147</ele>
        <time>2023-07-05T10:50:56Z</time>
      </trkpt>
      <trkpt lat="43.64888" lon="1.37715">
        <ele>147</ele>
        <time>2023-07-05T10:50:57Z</time>
      </trkpt>
      <trkpt lat="43.64887" lon="1.3771">
        <ele>147</ele>
        <time>2023-07-05T10:50:58Z</time>
      </trkpt>
      <trkpt lat="43.64886" lon="1.37706">
        <ele>147</ele>
        <time>2023-07-05T10:50:59Z</time>
      </trkpt>
      <trkpt lat="43.64885" lon="1.37702">
        <ele>147</ele>
        <time>2023-07-05T10:51:00Z</time>
      </trkpt>
      <trkpt lat="43.64884" lon="1.37698">
        <ele>147</ele>
        <time>2023-07-05T10:51:01Z</time>
      </trkpt>
      <trkpt lat="43.64883" lon="1.37694">
        <ele>147</ele>
        <time>2023-07-05T10:51:02Z</time>
      </trkpt>
      <trkpt lat="43.64882" lon="1.3769">
        <ele>148</ele>
        <time>2023-07-05T10:51:03Z</time>
      </trkpt>
      <trkpt lat="43.64882" lon="1.37687">
        <ele>148</ele>
        <time>2023-07-05T10:51:04Z</time>
      </trkpt>
      <trkpt lat="43.64881" lon="1.37683">
        <ele>148</ele>
        <time>2023-07-05T10:51:05Z</time>
      </trkpt>
      <trkpt lat="43.64881" lon="1.37679">
        <ele>148</ele>
        <time>2023-07-05T10:51:06Z</time>
      </trkpt>
      <trkpt lat="43.6488" lon="1.37675">
        <ele>148</ele>
        <time>2023-07-05T10:51:07Z</time>
      </trkpt>
      <trkpt lat="43.64879" lon="1.37671">
        <ele>148</ele>
        <time>2023-07-05T10:51:08Z</time>
      </trkpt>
      <trkpt lat="43.64879" lon="1.37668">
        <ele>148</ele>
        <time>2023-07-05T10:51:09Z</time>
      </trkpt>
      <trkpt lat="43.64878" lon="1.37665">
        <ele>148</ele>
        <time>2023-07-05T10:51:10Z</time>
      </trkpt>
      <trkpt lat="43.64877" lon="1.37663">
        <ele>148</ele>
        <time>2023-07-05T10:51:11Z</time>
      </trkpt>
      <trkpt lat="43.64875" lon="1.37661">
        <ele>148</ele>
        <time>2023-07-05T10:51:12Z</time>
      </trkpt>
      <trkpt lat="43.64875" lon="1.37661">
        <ele>149</ele>
        <time>2023-07-05T10:51:13Z</time>
      </trkpt>
      <trkpt lat="43.64874" lon="1.37659">
        <ele>149</ele>
        <time>2023-07-05T10:51:14Z</time>
      </trkpt>
      <trkpt lat="43.64872" lon="1.37657">
        <ele>149</ele>
        <time>2023-07-05T10:51:15Z</time>
      </trkpt>
      <trkpt lat="43.64871" lon="1.37656">
        <ele>149</ele>
        <time>2023-07-05T10:51:16Z</time>
      </trkpt>
      <trkpt lat="43.64871" lon="1.37656">
        <ele>149</ele>
        <time>2023-07-05T10:51:17Z</time>
      </trkpt>
      <trkpt lat="43.64869" lon="1.37654">
        <ele>149</ele>
        <time>2023-07-05T10:51:18Z</time>
      </trkpt>
    </trkseg>
  </trk>
</gpx>